<?xml version="1.0" encoding="utf-8"?>
<gpx xmlns:xsi="http://www.w3.org/2001/XMLSchema-instance" xmlns:xsd="http://www.w3.org/2001/XMLSchema" version="1.1" creator="Shapelink.com" xmlns="http://www.topografix.com/GPX/1/1" xmlns:gpxtpx="http://www.garmin.com/xmlschemas/TrackPointExtension/v1">
  <metadata>
    <name>Cykling 11.99 km, 2019-10-27</name>
    <desc></desc>
    <author><name>Alexander Engvall</name></author> 
    <time>2019-10-27T09:46:21Z</time>
  </metadata>
  <trk>
    <name>Cykling 11.99 km, 2019-10-27</name>
    <trkseg>
      <trkpt lat="39.514066806202" lon="2.535858014344">
        <ele>12.8</ele>
        <time>2019-10-27T09:46:21Z</time>
      </trkpt>
      <trkpt lat="39.514067560573" lon="2.535872850307">
        <ele>12.8</ele>
        <time>2019-10-27T09:46:22Z</time>
      </trkpt>
      <trkpt lat="39.514064962184" lon="2.535890955211">
        <ele>12.8</ele>
        <time>2019-10-27T09:46:23Z</time>
      </trkpt>
      <trkpt lat="39.514056412646" lon="2.5359103174">
        <ele>12.8</ele>
        <time>2019-10-27T09:46:24Z</time>
      </trkpt>
      <trkpt lat="39.514041911959" lon="2.535923476983">
        <ele>12.8</ele>
        <time>2019-10-27T09:46:25Z</time>
      </trkpt>
      <trkpt lat="39.514024058512" lon="2.535931775064">
        <ele>12.8</ele>
        <time>2019-10-27T09:46:26Z</time>
      </trkpt>
      <trkpt lat="39.514002265572" lon="2.535939905507">
        <ele>12.6</ele>
        <time>2019-10-27T09:46:27Z</time>
      </trkpt>
      <trkpt lat="39.513976030225" lon="2.535949879968">
        <ele>12.6</ele>
        <time>2019-10-27T09:46:28Z</time>
      </trkpt>
      <trkpt lat="39.513946945032" lon="2.535963374827">
        <ele>12.6</ele>
        <time>2019-10-27T09:46:29Z</time>
      </trkpt>
      <trkpt lat="39.513914339441" lon="2.535978462247">
        <ele>12.4</ele>
        <time>2019-10-27T09:46:30Z</time>
      </trkpt>
      <trkpt lat="39.513878967823" lon="2.536000339006">
        <ele>12.4</ele>
        <time>2019-10-27T09:46:31Z</time>
      </trkpt>
      <trkpt lat="39.513842674196" lon="2.53602347305">
        <ele>12.4</ele>
        <time>2019-10-27T09:46:32Z</time>
      </trkpt>
      <trkpt lat="39.513806380569" lon="2.536050546587">
        <ele>12.2</ele>
        <time>2019-10-27T09:46:33Z</time>
      </trkpt>
      <trkpt lat="39.513770506037" lon="2.536078290676">
        <ele>12.2</ele>
        <time>2019-10-27T09:46:34Z</time>
      </trkpt>
      <trkpt lat="39.513733541858" lon="2.536103604014">
        <ele>12.2</ele>
        <time>2019-10-27T09:46:35Z</time>
      </trkpt>
      <trkpt lat="39.513694901299" lon="2.536126821877">
        <ele>12</ele>
        <time>2019-10-27T09:46:36Z</time>
      </trkpt>
      <trkpt lat="39.513657182749" lon="2.536149704464">
        <ele>11.8</ele>
        <time>2019-10-27T09:46:37Z</time>
      </trkpt>
      <trkpt lat="39.513616111439" lon="2.536171748861">
        <ele>11.8</ele>
        <time>2019-10-27T09:46:38Z</time>
      </trkpt>
      <trkpt lat="39.513576381233" lon="2.536193374163">
        <ele>11.6</ele>
        <time>2019-10-27T09:46:39Z</time>
      </trkpt>
      <trkpt lat="39.51353556138" lon="2.536209467411">
        <ele>11.4</ele>
        <time>2019-10-27T09:46:40Z</time>
      </trkpt>
      <trkpt lat="39.513495495898" lon="2.536233439645">
        <ele>11.2</ele>
        <time>2019-10-27T09:46:41Z</time>
      </trkpt>
      <trkpt lat="39.513458112624" lon="2.536251041635">
        <ele>11</ele>
        <time>2019-10-27T09:46:42Z</time>
      </trkpt>
      <trkpt lat="39.513422573368" lon="2.536271409652">
        <ele>10.8</ele>
        <time>2019-10-27T09:46:43Z</time>
      </trkpt>
      <trkpt lat="39.513386447379" lon="2.536289263099">
        <ele>10.6</ele>
        <time>2019-10-27T09:46:44Z</time>
      </trkpt>
      <trkpt lat="39.513348728829" lon="2.536311391315">
        <ele>10.6</ele>
        <time>2019-10-27T09:46:45Z</time>
      </trkpt>
      <trkpt lat="39.513312686659" lon="2.536333770988">
        <ele>10.2</ele>
        <time>2019-10-27T09:46:46Z</time>
      </trkpt>
      <trkpt lat="39.513278572326" lon="2.53635623448">
        <ele>10.2</ele>
        <time>2019-10-27T09:46:47Z</time>
      </trkpt>
      <trkpt lat="39.513246302011" lon="2.536376267221">
        <ele>10</ele>
        <time>2019-10-27T09:46:48Z</time>
      </trkpt>
      <trkpt lat="39.513215959533" lon="2.536397892523">
        <ele>10</ele>
        <time>2019-10-27T09:46:49Z</time>
      </trkpt>
      <trkpt lat="39.513184024494" lon="2.536423876413">
        <ele>9.8</ele>
        <time>2019-10-27T09:46:50Z</time>
      </trkpt>
      <trkpt lat="39.513152173274" lon="2.536448100104">
        <ele>9.6</ele>
        <time>2019-10-27T09:46:51Z</time>
      </trkpt>
      <trkpt lat="39.513119483864" lon="2.536472575252">
        <ele>9.6</ele>
        <time>2019-10-27T09:46:52Z</time>
      </trkpt>
      <trkpt lat="39.513085872445" lon="2.536499732608">
        <ele>9.4</ele>
        <time>2019-10-27T09:46:53Z</time>
      </trkpt>
      <trkpt lat="39.51305024937" lon="2.536530158905">
        <ele>9.2</ele>
        <time>2019-10-27T09:46:54Z</time>
      </trkpt>
      <trkpt lat="39.513012111725" lon="2.536562596858">
        <ele>9</ele>
        <time>2019-10-27T09:46:55Z</time>
      </trkpt>
      <trkpt lat="39.512974309356" lon="2.536588748386">
        <ele>8.8</ele>
        <time>2019-10-27T09:46:56Z</time>
      </trkpt>
      <trkpt lat="39.512936590806" lon="2.536613810267">
        <ele>8.6</ele>
        <time>2019-10-27T09:46:57Z</time>
      </trkpt>
      <trkpt lat="39.512897950247" lon="2.536646332039">
        <ele>8.6</ele>
        <time>2019-10-27T09:46:58Z</time>
      </trkpt>
      <trkpt lat="39.512861824258" lon="2.536678686173">
        <ele>8.6</ele>
        <time>2019-10-27T09:46:59Z</time>
      </trkpt>
      <trkpt lat="39.512824105708" lon="2.536711040307">
        <ele>8.4</ele>
        <time>2019-10-27T09:47:00Z</time>
      </trkpt>
      <trkpt lat="39.512786638615" lon="2.536738784396">
        <ele>8</ele>
        <time>2019-10-27T09:47:01Z</time>
      </trkpt>
      <trkpt lat="39.512710950058" lon="2.536792847651">
        <ele>7.6</ele>
        <time>2019-10-27T09:47:03Z</time>
      </trkpt>
      <trkpt lat="39.512673482965" lon="2.536823273948">
        <ele>7.4</ele>
        <time>2019-10-27T09:47:04Z</time>
      </trkpt>
      <trkpt lat="39.512635010044" lon="2.536850347485">
        <ele>7.2</ele>
        <time>2019-10-27T09:47:05Z</time>
      </trkpt>
      <trkpt lat="39.512599135512" lon="2.536877085746">
        <ele>6.8</ele>
        <time>2019-10-27T09:47:06Z</time>
      </trkpt>
      <trkpt lat="39.512564602084" lon="2.536905919482">
        <ele>6.6</ele>
        <time>2019-10-27T09:47:07Z</time>
      </trkpt>
      <trkpt lat="39.512532583226" lon="2.536928131517">
        <ele>6.6</ele>
        <time>2019-10-27T09:47:08Z</time>
      </trkpt>
      <trkpt lat="39.5125029113" lon="2.536944727679">
        <ele>6.4</ele>
        <time>2019-10-27T09:47:09Z</time>
      </trkpt>
      <trkpt lat="39.512476843591" lon="2.536956881434">
        <ele>6.4</ele>
        <time>2019-10-27T09:47:10Z</time>
      </trkpt>
      <trkpt lat="39.51245597266" lon="2.536971885035">
        <ele>6.2</ele>
        <time>2019-10-27T09:47:11Z</time>
      </trkpt>
      <trkpt lat="39.512442310163" lon="2.536984541704">
        <ele>6</ele>
        <time>2019-10-27T09:47:12Z</time>
      </trkpt>
      <trkpt lat="39.512431078417" lon="2.53699493526">
        <ele>5.8</ele>
        <time>2019-10-27T09:47:13Z</time>
      </trkpt>
      <trkpt lat="39.512422277422" lon="2.537002143694">
        <ele>5.6</ele>
        <time>2019-10-27T09:47:14Z</time>
      </trkpt>
      <trkpt lat="39.512413308789" lon="2.537012872526">
        <ele>5.4</ele>
        <time>2019-10-27T09:47:15Z</time>
      </trkpt>
      <trkpt lat="39.512404675432" lon="2.537034497828">
        <ele>5.4</ele>
        <time>2019-10-27T09:47:16Z</time>
      </trkpt>
      <trkpt lat="39.512403250509" lon="2.537063080107">
        <ele>5.2</ele>
        <time>2019-10-27T09:47:17Z</time>
      </trkpt>
      <trkpt lat="39.512407022364" lon="2.537093087309">
        <ele>5.2</ele>
        <time>2019-10-27T09:47:18Z</time>
      </trkpt>
      <trkpt lat="39.512418086472" lon="2.537121837226">
        <ele>5.2</ele>
        <time>2019-10-27T09:47:19Z</time>
      </trkpt>
      <trkpt lat="39.512434012082" lon="2.537154694274">
        <ele>5.2</ele>
        <time>2019-10-27T09:47:20Z</time>
      </trkpt>
      <trkpt lat="39.51245513447" lon="2.537185958761">
        <ele>5.2</ele>
        <time>2019-10-27T09:47:21Z</time>
      </trkpt>
      <trkpt lat="39.512479777256" lon="2.537214960135">
        <ele>5.2</ele>
        <time>2019-10-27T09:47:22Z</time>
      </trkpt>
      <trkpt lat="39.512504671499" lon="2.537245637889">
        <ele>5</ele>
        <time>2019-10-27T09:47:23Z</time>
      </trkpt>
      <trkpt lat="39.512526212982" lon="2.537275393634">
        <ele>5</ele>
        <time>2019-10-27T09:47:24Z</time>
      </trkpt>
      <trkpt lat="39.51254314442" lon="2.537311603442">
        <ele>5</ele>
        <time>2019-10-27T09:47:25Z</time>
      </trkpt>
      <trkpt lat="39.512551693958" lon="2.537353345304">
        <ele>5</ele>
        <time>2019-10-27T09:47:26Z</time>
      </trkpt>
      <trkpt lat="39.512552615967" lon="2.537396931184">
        <ele>4.8</ele>
        <time>2019-10-27T09:47:27Z</time>
      </trkpt>
      <trkpt lat="39.51254817356" lon="2.537438253951">
        <ele>4.6</ele>
        <time>2019-10-27T09:47:28Z</time>
      </trkpt>
      <trkpt lat="39.512547083913" lon="2.537480582546">
        <ele>4.4</ele>
        <time>2019-10-27T09:47:29Z</time>
      </trkpt>
      <trkpt lat="39.512553537976" lon="2.5375196422">
        <ele>4.4</ele>
        <time>2019-10-27T09:47:30Z</time>
      </trkpt>
      <trkpt lat="39.512565943188" lon="2.537550822868">
        <ele>4.2</ele>
        <time>2019-10-27T09:47:31Z</time>
      </trkpt>
      <trkpt lat="39.512578180762" lon="2.537573705455">
        <ele>4</ele>
        <time>2019-10-27T09:47:32Z</time>
      </trkpt>
      <trkpt lat="39.512596537123" lon="2.537599689345">
        <ele>3.8</ele>
        <time>2019-10-27T09:47:33Z</time>
      </trkpt>
      <trkpt lat="39.512614809665" lon="2.537625757054">
        <ele>3.8</ele>
        <time>2019-10-27T09:47:34Z</time>
      </trkpt>
      <trkpt lat="39.51262780161" lon="2.537654171695">
        <ele>3.8</ele>
        <time>2019-10-27T09:47:35Z</time>
      </trkpt>
      <trkpt lat="39.512639955365" lon="2.537680071766">
        <ele>3.8</ele>
        <time>2019-10-27T09:47:36Z</time>
      </trkpt>
      <trkpt lat="39.512651187111" lon="2.537702116163">
        <ele>3.8</ele>
        <time>2019-10-27T09:47:37Z</time>
      </trkpt>
      <trkpt lat="39.512662837952" lon="2.53772499875">
        <ele>3.8</ele>
        <time>2019-10-27T09:47:38Z</time>
      </trkpt>
      <trkpt lat="39.512675326983" lon="2.537749892993">
        <ele>3.8</ele>
        <time>2019-10-27T09:47:39Z</time>
      </trkpt>
      <trkpt lat="39.512685217625" lon="2.537771015381">
        <ele>3.6</ele>
        <time>2019-10-27T09:47:40Z</time>
      </trkpt>
      <trkpt lat="39.512695024448" lon="2.537791048122">
        <ele>3.6</ele>
        <time>2019-10-27T09:47:41Z</time>
      </trkpt>
      <trkpt lat="39.512704579814" lon="2.537810829406">
        <ele>3.6</ele>
        <time>2019-10-27T09:47:42Z</time>
      </trkpt>
      <trkpt lat="39.512712291162" lon="2.53783228707">
        <ele>3.6</ele>
        <time>2019-10-27T09:47:43Z</time>
      </trkpt>
      <trkpt lat="39.512718829044" lon="2.537855924028">
        <ele>3.6</ele>
        <time>2019-10-27T09:47:44Z</time>
      </trkpt>
      <trkpt lat="39.512725534564" lon="2.537881907918">
        <ele>3.6</ele>
        <time>2019-10-27T09:47:45Z</time>
      </trkpt>
      <trkpt lat="39.51273592812" lon="2.537907305075">
        <ele>3.6</ele>
        <time>2019-10-27T09:47:46Z</time>
      </trkpt>
      <trkpt lat="39.512746740771" lon="2.537930606757">
        <ele>3.6</ele>
        <time>2019-10-27T09:47:47Z</time>
      </trkpt>
      <trkpt lat="39.512759062164" lon="2.537956758285">
        <ele>3.6</ele>
        <time>2019-10-27T09:47:48Z</time>
      </trkpt>
      <trkpt lat="39.512773898127" lon="2.53798567584">
        <ele>3.6</ele>
        <time>2019-10-27T09:47:49Z</time>
      </trkpt>
      <trkpt lat="39.512788398814" lon="2.538013671386">
        <ele>3.6</ele>
        <time>2019-10-27T09:47:50Z</time>
      </trkpt>
      <trkpt lat="39.512802312768" lon="2.538040074371">
        <ele>3.6</ele>
        <time>2019-10-27T09:47:51Z</time>
      </trkpt>
      <trkpt lat="39.512815639989" lon="2.538067734641">
        <ele>3.6</ele>
        <time>2019-10-27T09:47:52Z</time>
      </trkpt>
      <trkpt lat="39.512833577255" lon="2.538099921137">
        <ele>3.6</ele>
        <time>2019-10-27T09:47:53Z</time>
      </trkpt>
      <trkpt lat="39.512848664675" lon="2.538132694366">
        <ele>3.6</ele>
        <time>2019-10-27T09:47:54Z</time>
      </trkpt>
      <trkpt lat="39.512863165362" lon="2.538163036844">
        <ele>3.6</ele>
        <time>2019-10-27T09:47:55Z</time>
      </trkpt>
      <trkpt lat="39.512876660221" lon="2.538186673802">
        <ele>3.6</ele>
        <time>2019-10-27T09:47:56Z</time>
      </trkpt>
      <trkpt lat="39.512905745414" lon="2.538221291049">
        <ele>3.4</ele>
        <time>2019-10-27T09:47:57Z</time>
      </trkpt>
      <trkpt lat="39.512926783983" lon="2.538249621871">
        <ele>3.4</ele>
        <time>2019-10-27T09:47:58Z</time>
      </trkpt>
      <trkpt lat="39.512946146172" lon="2.538286418412">
        <ele>3.4</ele>
        <time>2019-10-27T09:47:59Z</time>
      </trkpt>
      <trkpt lat="39.512963580524" lon="2.538327992636">
        <ele>3.4</ele>
        <time>2019-10-27T09:48:00Z</time>
      </trkpt>
      <trkpt lat="39.512983110351" lon="2.538367303747">
        <ele>3.4</ele>
        <time>2019-10-27T09:48:01Z</time>
      </trkpt>
      <trkpt lat="39.51299995797" lon="2.53840225627">
        <ele>3.2</ele>
        <time>2019-10-27T09:48:02Z</time>
      </trkpt>
      <trkpt lat="39.513016051218" lon="2.538431760558">
        <ele>3.2</ele>
        <time>2019-10-27T09:48:03Z</time>
      </trkpt>
      <trkpt lat="39.513029378439" lon="2.538457325353">
        <ele>3.2</ele>
        <time>2019-10-27T09:48:04Z</time>
      </trkpt>
      <trkpt lat="39.51304186747" lon="2.538481297587">
        <ele>3</ele>
        <time>2019-10-27T09:48:05Z</time>
      </trkpt>
      <trkpt lat="39.513052680121" lon="2.538498983396">
        <ele>3</ele>
        <time>2019-10-27T09:48:06Z</time>
      </trkpt>
      <trkpt lat="39.513068354274" lon="2.538506275649">
        <ele>3</ele>
        <time>2019-10-27T09:48:07Z</time>
      </trkpt>
      <trkpt lat="39.513086375359" lon="2.538505688916">
        <ele>3</ele>
        <time>2019-10-27T09:48:08Z</time>
      </trkpt>
      <trkpt lat="39.513106072824" lon="2.538500995052">
        <ele>2.8</ele>
        <time>2019-10-27T09:48:09Z</time>
      </trkpt>
      <trkpt lat="39.513128955411" lon="2.5384919426">
        <ele>2.8</ele>
        <time>2019-10-27T09:48:10Z</time>
      </trkpt>
      <trkpt lat="39.513149574885" lon="2.538480291759">
        <ele>2.8</ele>
        <time>2019-10-27T09:48:11Z</time>
      </trkpt>
      <trkpt lat="39.513170864911" lon="2.538467886547">
        <ele>2.8</ele>
        <time>2019-10-27T09:48:12Z</time>
      </trkpt>
      <trkpt lat="39.51319274167" lon="2.538453804955">
        <ele>2.8</ele>
        <time>2019-10-27T09:48:13Z</time>
      </trkpt>
      <trkpt lat="39.51321369642" lon="2.538436454422">
        <ele>2.8</ele>
        <time>2019-10-27T09:48:14Z</time>
      </trkpt>
      <trkpt lat="39.51323381298" lon="2.538416756957">
        <ele>2.8</ele>
        <time>2019-10-27T09:48:15Z</time>
      </trkpt>
      <trkpt lat="39.513256108834" lon="2.538400496071">
        <ele>2.8</ele>
        <time>2019-10-27T09:48:16Z</time>
      </trkpt>
      <trkpt lat="39.513279242878" lon="2.53838800704">
        <ele>2.8</ele>
        <time>2019-10-27T09:48:17Z</time>
      </trkpt>
      <trkpt lat="39.513299443257" lon="2.538376188561">
        <ele>2.8</ele>
        <time>2019-10-27T09:48:18Z</time>
      </trkpt>
      <trkpt lat="39.513319056903" lon="2.538362358426">
        <ele>2.8</ele>
        <time>2019-10-27T09:48:19Z</time>
      </trkpt>
      <trkpt lat="39.513338167635" lon="2.538348109196">
        <ele>2.8</ele>
        <time>2019-10-27T09:48:20Z</time>
      </trkpt>
      <trkpt lat="39.513362307507" lon="2.538333357052">
        <ele>2.8</ele>
        <time>2019-10-27T09:48:21Z</time>
      </trkpt>
      <trkpt lat="39.513386782655" lon="2.538319778374">
        <ele>2.8</ele>
        <time>2019-10-27T09:48:22Z</time>
      </trkpt>
      <trkpt lat="39.513410084337" lon="2.538305529144">
        <ele>2.8</ele>
        <time>2019-10-27T09:48:23Z</time>
      </trkpt>
      <trkpt lat="39.51343078763" lon="2.538292034285">
        <ele>2.8</ele>
        <time>2019-10-27T09:48:24Z</time>
      </trkpt>
      <trkpt lat="39.513450988009" lon="2.538280048168">
        <ele>2.8</ele>
        <time>2019-10-27T09:48:25Z</time>
      </trkpt>
      <trkpt lat="39.513469763465" lon="2.538268816422">
        <ele>2.8</ele>
        <time>2019-10-27T09:48:26Z</time>
      </trkpt>
      <trkpt lat="39.513486275808" lon="2.538259931608">
        <ele>2.8</ele>
        <time>2019-10-27T09:48:27Z</time>
      </trkpt>
      <trkpt lat="39.513503374884" lon="2.538249538052">
        <ele>2.8</ele>
        <time>2019-10-27T09:48:28Z</time>
      </trkpt>
      <trkpt lat="39.513519887227" lon="2.538239060677">
        <ele>2.8</ele>
        <time>2019-10-27T09:48:29Z</time>
      </trkpt>
      <trkpt lat="39.513537070122" lon="2.538227409836">
        <ele>2.8</ele>
        <time>2019-10-27T09:48:30Z</time>
      </trkpt>
      <trkpt lat="39.513555007388" lon="2.53821617809">
        <ele>2.8</ele>
        <time>2019-10-27T09:48:31Z</time>
      </trkpt>
      <trkpt lat="39.513576548871" lon="2.538208131466">
        <ele>2.8</ele>
        <time>2019-10-27T09:48:32Z</time>
      </trkpt>
      <trkpt lat="39.513600185829" lon="2.538200336299">
        <ele>2.8</ele>
        <time>2019-10-27T09:48:33Z</time>
      </trkpt>
      <trkpt lat="39.513626672633" lon="2.538189607467">
        <ele>2.8</ele>
        <time>2019-10-27T09:48:34Z</time>
      </trkpt>
      <trkpt lat="39.513654416722" lon="2.538179633006">
        <ele>2.8</ele>
        <time>2019-10-27T09:48:35Z</time>
      </trkpt>
      <trkpt lat="39.513684507743" lon="2.538167311613">
        <ele>2.8</ele>
        <time>2019-10-27T09:48:36Z</time>
      </trkpt>
      <trkpt lat="39.513727171614" lon="2.538164964681">
        <ele>2.8</ele>
        <time>2019-10-27T09:48:37Z</time>
      </trkpt>
      <trkpt lat="39.513761369766" lon="2.538146440682">
        <ele>2.8</ele>
        <time>2019-10-27T09:48:38Z</time>
      </trkpt>
      <trkpt lat="39.51379540028" lon="2.538128000502">
        <ele>2.8</ele>
        <time>2019-10-27T09:48:39Z</time>
      </trkpt>
      <trkpt lat="39.513825323663" lon="2.538110733788">
        <ele>2.8</ele>
        <time>2019-10-27T09:48:40Z</time>
      </trkpt>
      <trkpt lat="39.51385658815" lon="2.538093467074">
        <ele>2.8</ele>
        <time>2019-10-27T09:48:41Z</time>
      </trkpt>
      <trkpt lat="39.513888690827" lon="2.538079050206">
        <ele>2.8</ele>
        <time>2019-10-27T09:48:42Z</time>
      </trkpt>
      <trkpt lat="39.513921631694" lon="2.538063292234">
        <ele>2.8</ele>
        <time>2019-10-27T09:48:43Z</time>
      </trkpt>
      <trkpt lat="39.513954069647" lon="2.538046444615">
        <ele>2.8</ele>
        <time>2019-10-27T09:48:44Z</time>
      </trkpt>
      <trkpt lat="39.513985334134" lon="2.53803177629">
        <ele>2.8</ele>
        <time>2019-10-27T09:48:45Z</time>
      </trkpt>
      <trkpt lat="39.514016095707" lon="2.538015599223">
        <ele>2.8</ele>
        <time>2019-10-27T09:48:46Z</time>
      </trkpt>
      <trkpt lat="39.514047192556" lon="2.537999170699">
        <ele>2.8</ele>
        <time>2019-10-27T09:48:47Z</time>
      </trkpt>
      <trkpt lat="39.514079714328" lon="2.537980814338">
        <ele>2.8</ele>
        <time>2019-10-27T09:48:48Z</time>
      </trkpt>
      <trkpt lat="39.514112990471" lon="2.537962709434">
        <ele>2.8</ele>
        <time>2019-10-27T09:48:49Z</time>
      </trkpt>
      <trkpt lat="39.514148613546" lon="2.537944101616">
        <ele>2.8</ele>
        <time>2019-10-27T09:48:50Z</time>
      </trkpt>
      <trkpt lat="39.514182476422" lon="2.537925074703">
        <ele>2.8</ele>
        <time>2019-10-27T09:48:51Z</time>
      </trkpt>
      <trkpt lat="39.514217680402" lon="2.537905461057">
        <ele>2.8</ele>
        <time>2019-10-27T09:48:52Z</time>
      </trkpt>
      <trkpt lat="39.514253387296" lon="2.537884338669">
        <ele>2.8</ele>
        <time>2019-10-27T09:48:53Z</time>
      </trkpt>
      <trkpt lat="39.514290267656" lon="2.537864054471">
        <ele>2.8</ele>
        <time>2019-10-27T09:48:54Z</time>
      </trkpt>
      <trkpt lat="39.514326226007" lon="2.53784485992">
        <ele>2.8</ele>
        <time>2019-10-27T09:48:55Z</time>
      </trkpt>
      <trkpt lat="39.514360172702" lon="2.537823486075">
        <ele>2.8</ele>
        <time>2019-10-27T09:48:56Z</time>
      </trkpt>
      <trkpt lat="39.514394538492" lon="2.537802279868">
        <ele>2.6</ele>
        <time>2019-10-27T09:48:57Z</time>
      </trkpt>
      <trkpt lat="39.514431754128" lon="2.537787611543">
        <ele>2.6</ele>
        <time>2019-10-27T09:48:58Z</time>
      </trkpt>
      <trkpt lat="39.514468634488" lon="2.53777612834">
        <ele>2.6</ele>
        <time>2019-10-27T09:48:59Z</time>
      </trkpt>
      <trkpt lat="39.514503922287" lon="2.537766237698">
        <ele>2.6</ele>
        <time>2019-10-27T09:49:00Z</time>
      </trkpt>
      <trkpt lat="39.514538371896" lon="2.537753078115">
        <ele>2.6</ele>
        <time>2019-10-27T09:49:01Z</time>
      </trkpt>
      <trkpt lat="39.514573492057" lon="2.537737320143">
        <ele>2.6</ele>
        <time>2019-10-27T09:49:02Z</time>
      </trkpt>
      <trkpt lat="39.514608193123" lon="2.537723992922">
        <ele>2.4</ele>
        <time>2019-10-27T09:49:03Z</time>
      </trkpt>
      <trkpt lat="39.514644654388" lon="2.537714689013">
        <ele>2.4</ele>
        <time>2019-10-27T09:49:04Z</time>
      </trkpt>
      <trkpt lat="39.514679774549" lon="2.537709240778">
        <ele>2.4</ele>
        <time>2019-10-27T09:49:05Z</time>
      </trkpt>
      <trkpt lat="39.514713637425" lon="2.537706139475">
        <ele>2.4</ele>
        <time>2019-10-27T09:49:06Z</time>
      </trkpt>
      <trkpt lat="39.514745656283" lon="2.537705636561">
        <ele>2.4</ele>
        <time>2019-10-27T09:49:07Z</time>
      </trkpt>
      <trkpt lat="39.51477859715" lon="2.53770320581">
        <ele>2.4</ele>
        <time>2019-10-27T09:49:08Z</time>
      </trkpt>
      <trkpt lat="39.51481044837" lon="2.537695159186">
        <ele>2.4</ele>
        <time>2019-10-27T09:49:09Z</time>
      </trkpt>
      <trkpt lat="39.514843808332" lon="2.537686022915">
        <ele>2.4</ele>
        <time>2019-10-27T09:49:10Z</time>
      </trkpt>
      <trkpt lat="39.514878509398" lon="2.537674874988">
        <ele>2.4</ele>
        <time>2019-10-27T09:49:11Z</time>
      </trkpt>
      <trkpt lat="39.5149085166" lon="2.537665319622">
        <ele>2.4</ele>
        <time>2019-10-27T09:49:12Z</time>
      </trkpt>
      <trkpt lat="39.51493869144" lon="2.537651070392">
        <ele>2.4</ele>
        <time>2019-10-27T09:49:13Z</time>
      </trkpt>
      <trkpt lat="39.51497138085" lon="2.537644029596">
        <ele>2.4</ele>
        <time>2019-10-27T09:49:14Z</time>
      </trkpt>
      <trkpt lat="39.515007087744" lon="2.537645286881">
        <ele>2.4</ele>
        <time>2019-10-27T09:49:15Z</time>
      </trkpt>
      <trkpt lat="39.515043549009" lon="2.537646041252">
        <ele>2.4</ele>
        <time>2019-10-27T09:49:16Z</time>
      </trkpt>
      <trkpt lat="39.515074897315" lon="2.53764285613">
        <ele>2.4</ele>
        <time>2019-10-27T09:49:17Z</time>
      </trkpt>
      <trkpt lat="39.515110352752" lon="2.537642353216">
        <ele>2.4</ele>
        <time>2019-10-27T09:49:18Z</time>
      </trkpt>
      <trkpt lat="39.515142455429" lon="2.537640509198">
        <ele>2.4</ele>
        <time>2019-10-27T09:49:19Z</time>
      </trkpt>
      <trkpt lat="39.51517841378" lon="2.537643442863">
        <ele>2.6</ele>
        <time>2019-10-27T09:49:20Z</time>
      </trkpt>
      <trkpt lat="39.515216048511" lon="2.537650316021">
        <ele>2.6</ele>
        <time>2019-10-27T09:49:21Z</time>
      </trkpt>
      <trkpt lat="39.515247061541" lon="2.537650735116">
        <ele>2.6</ele>
        <time>2019-10-27T09:49:22Z</time>
      </trkpt>
      <trkpt lat="39.515280505322" lon="2.537653836419">
        <ele>2.6</ele>
        <time>2019-10-27T09:49:23Z</time>
      </trkpt>
      <trkpt lat="39.51531503875" lon="2.537656937722">
        <ele>2.6</ele>
        <time>2019-10-27T09:49:24Z</time>
      </trkpt>
      <trkpt lat="39.515350494187" lon="2.537657356817">
        <ele>2.6</ele>
        <time>2019-10-27T09:49:25Z</time>
      </trkpt>
      <trkpt lat="39.515388631832" lon="2.537643359044">
        <ele>2.6</ele>
        <time>2019-10-27T09:49:26Z</time>
      </trkpt>
      <trkpt lat="39.515427104753" lon="2.537623410122">
        <ele>2.6</ele>
        <time>2019-10-27T09:49:27Z</time>
      </trkpt>
      <trkpt lat="39.515466080588" lon="2.537610669634">
        <ele>2.6</ele>
        <time>2019-10-27T09:49:28Z</time>
      </trkpt>
      <trkpt lat="39.51550530788" lon="2.537612848928">
        <ele>2.6</ele>
        <time>2019-10-27T09:49:29Z</time>
      </trkpt>
      <trkpt lat="39.515543948439" lon="2.537628187805">
        <ele>2.6</ele>
        <time>2019-10-27T09:49:30Z</time>
      </trkpt>
      <trkpt lat="39.515581750808" lon="2.537643945777">
        <ele>2.6</ele>
        <time>2019-10-27T09:49:31Z</time>
      </trkpt>
      <trkpt lat="39.515618714987" lon="2.537655931894">
        <ele>2.6</ele>
        <time>2019-10-27T09:49:32Z</time>
      </trkpt>
      <trkpt lat="39.515656349718" lon="2.537662805052">
        <ele>2.6</ele>
        <time>2019-10-27T09:49:33Z</time>
      </trkpt>
      <trkpt lat="39.515692643345" lon="2.537668085649">
        <ele>2.6</ele>
        <time>2019-10-27T09:49:34Z</time>
      </trkpt>
      <trkpt lat="39.515728517877" lon="2.53767219278">
        <ele>2.6</ele>
        <time>2019-10-27T09:49:35Z</time>
      </trkpt>
      <trkpt lat="39.515763302762" lon="2.537677138101">
        <ele>2.6</ele>
        <time>2019-10-27T09:49:36Z</time>
      </trkpt>
      <trkpt lat="39.515796662724" lon="2.537681077594">
        <ele>2.6</ele>
        <time>2019-10-27T09:49:37Z</time>
      </trkpt>
      <trkpt lat="39.515827675754" lon="2.537682670155">
        <ele>2.6</ele>
        <time>2019-10-27T09:49:38Z</time>
      </trkpt>
      <trkpt lat="39.515857766775" lon="2.537684597992">
        <ele>2.6</ele>
        <time>2019-10-27T09:49:39Z</time>
      </trkpt>
      <trkpt lat="39.515887019606" lon="2.537686358191">
        <ele>2.6</ele>
        <time>2019-10-27T09:49:40Z</time>
      </trkpt>
      <trkpt lat="39.515915685704" lon="2.53768811839">
        <ele>2.6</ele>
        <time>2019-10-27T09:49:41Z</time>
      </trkpt>
      <trkpt lat="39.515942926879" lon="2.53769147115">
        <ele>2.6</ele>
        <time>2019-10-27T09:49:42Z</time>
      </trkpt>
      <trkpt lat="39.515970000416" lon="2.537696248833">
        <ele>2.6</ele>
        <time>2019-10-27T09:49:43Z</time>
      </trkpt>
      <trkpt lat="39.515994391745" lon="2.537704379276">
        <ele>2.6</ele>
        <time>2019-10-27T09:49:44Z</time>
      </trkpt>
      <trkpt lat="39.51601660378" lon="2.537716113936">
        <ele>2.6</ele>
        <time>2019-10-27T09:49:45Z</time>
      </trkpt>
      <trkpt lat="39.516036552702" lon="2.537733464469">
        <ele>2.6</ele>
        <time>2019-10-27T09:49:46Z</time>
      </trkpt>
      <trkpt lat="39.516050047561" lon="2.537757269065">
        <ele>2.6</ele>
        <time>2019-10-27T09:49:47Z</time>
      </trkpt>
      <trkpt lat="39.516061279307" lon="2.537778978186">
        <ele>2.6</ele>
        <time>2019-10-27T09:49:48Z</time>
      </trkpt>
      <trkpt lat="39.516070583216" lon="2.537802866601">
        <ele>2.6</ele>
        <time>2019-10-27T09:49:49Z</time>
      </trkpt>
      <trkpt lat="39.51608114441" lon="2.537827593206">
        <ele>2.6</ele>
        <time>2019-10-27T09:49:50Z</time>
      </trkpt>
      <trkpt lat="39.516090615957" lon="2.537853660915">
        <ele>2.6</ele>
        <time>2019-10-27T09:49:51Z</time>
      </trkpt>
      <trkpt lat="39.516100506599" lon="2.537883919574">
        <ele>2.6</ele>
        <time>2019-10-27T09:49:52Z</time>
      </trkpt>
      <trkpt lat="39.516112492716" lon="2.53791862064">
        <ele>2.6</ele>
        <time>2019-10-27T09:49:53Z</time>
      </trkpt>
      <trkpt lat="39.516125736118" lon="2.537955836276">
        <ele>2.6</ele>
        <time>2019-10-27T09:49:54Z</time>
      </trkpt>
      <trkpt lat="39.516141997004" lon="2.537994225378">
        <ele>2.6</ele>
        <time>2019-10-27T09:49:55Z</time>
      </trkpt>
      <trkpt lat="39.516162700297" lon="2.538027333883">
        <ele>2.6</ele>
        <time>2019-10-27T09:49:56Z</time>
      </trkpt>
      <trkpt lat="39.516187091626" lon="2.5380560838">
        <ele>2.4</ele>
        <time>2019-10-27T09:49:57Z</time>
      </trkpt>
      <trkpt lat="39.516212404964" lon="2.538083660251">
        <ele>2.4</ele>
        <time>2019-10-27T09:49:58Z</time>
      </trkpt>
      <trkpt lat="39.516236293379" lon="2.538111488159">
        <ele>2.4</ele>
        <time>2019-10-27T09:49:59Z</time>
      </trkpt>
      <trkpt lat="39.516260265613" lon="2.538138813153">
        <ele>2.4</ele>
        <time>2019-10-27T09:50:00Z</time>
      </trkpt>
      <trkpt lat="39.51628482458" lon="2.538165467595">
        <ele>2.4</ele>
        <time>2019-10-27T09:50:01Z</time>
      </trkpt>
      <trkpt lat="39.5163082939" lon="2.538192289675">
        <ele>2.4</ele>
        <time>2019-10-27T09:50:02Z</time>
      </trkpt>
      <trkpt lat="39.516332098496" lon="2.538219279393">
        <ele>2.4</ele>
        <time>2019-10-27T09:50:03Z</time>
      </trkpt>
      <trkpt lat="39.516358082386" lon="2.538243335446">
        <ele>2.4</ele>
        <time>2019-10-27T09:50:04Z</time>
      </trkpt>
      <trkpt lat="39.516385575018" lon="2.538264541653">
        <ele>2.4</ele>
        <time>2019-10-27T09:50:05Z</time>
      </trkpt>
      <trkpt lat="39.516412397098" lon="2.538285999317">
        <ele>2.4</ele>
        <time>2019-10-27T09:50:06Z</time>
      </trkpt>
      <trkpt lat="39.516437794255" lon="2.538306199696">
        <ele>2.4</ele>
        <time>2019-10-27T09:50:07Z</time>
      </trkpt>
      <trkpt lat="39.516462185584" lon="2.538323298772">
        <ele>2.4</ele>
        <time>2019-10-27T09:50:08Z</time>
      </trkpt>
      <trkpt lat="39.516487582741" lon="2.53833687745">
        <ele>2.4</ele>
        <time>2019-10-27T09:50:09Z</time>
      </trkpt>
      <trkpt lat="39.516515410649" lon="2.538347857739">
        <ele>2.4</ele>
        <time>2019-10-27T09:50:10Z</time>
      </trkpt>
      <trkpt lat="39.516545585489" lon="2.538355149992">
        <ele>2.6</ele>
        <time>2019-10-27T09:50:11Z</time>
      </trkpt>
      <trkpt lat="39.516576598519" lon="2.538359676218">
        <ele>2.6</ele>
        <time>2019-10-27T09:50:12Z</time>
      </trkpt>
      <trkpt lat="39.516606857178" lon="2.538364202444">
        <ele>2.6</ele>
        <time>2019-10-27T09:50:13Z</time>
      </trkpt>
      <trkpt lat="39.516634768905" lon="2.538369231584">
        <ele>2.8</ele>
        <time>2019-10-27T09:50:14Z</time>
      </trkpt>
      <trkpt lat="39.5166603337" lon="2.53837794876">
        <ele>2.8</ele>
        <time>2019-10-27T09:50:15Z</time>
      </trkpt>
      <trkpt lat="39.516678438604" lon="2.538390353972">
        <ele>2.8</ele>
        <time>2019-10-27T09:50:16Z</time>
      </trkpt>
      <trkpt lat="39.516688580703" lon="2.538402340089">
        <ele>3</ele>
        <time>2019-10-27T09:50:17Z</time>
      </trkpt>
      <trkpt lat="39.516693945119" lon="2.538408626514">
        <ele>3.2</ele>
        <time>2019-10-27T09:50:18Z</time>
      </trkpt>
      <trkpt lat="39.516696208232" lon="2.538409632342">
        <ele>3.2</ele>
        <time>2019-10-27T09:50:19Z</time>
      </trkpt>
      <trkpt lat="39.516732920954" lon="2.538344337341">
        <ele>3.8</ele>
        <time>2019-10-27T09:51:43Z</time>
      </trkpt>
      <trkpt lat="39.516740045569" lon="2.538328244093">
        <ele>3.8</ele>
        <time>2019-10-27T09:51:44Z</time>
      </trkpt>
      <trkpt lat="39.516751361134" lon="2.538308127533">
        <ele>4</ele>
        <time>2019-10-27T09:51:45Z</time>
      </trkpt>
      <trkpt lat="39.516766700011" lon="2.538285580222">
        <ele>4.2</ele>
        <time>2019-10-27T09:51:46Z</time>
      </trkpt>
      <trkpt lat="39.516780865422" lon="2.538263368187">
        <ele>4.2</ele>
        <time>2019-10-27T09:51:47Z</time>
      </trkpt>
      <trkpt lat="39.516794276462" lon="2.538238222487">
        <ele>4.2</ele>
        <time>2019-10-27T09:51:48Z</time>
      </trkpt>
      <trkpt lat="39.516803999466" lon="2.538209891665">
        <ele>4</ele>
        <time>2019-10-27T09:51:49Z</time>
      </trkpt>
      <trkpt lat="39.51681036971" lon="2.538175022961">
        <ele>4.2</ele>
        <time>2019-10-27T09:51:50Z</time>
      </trkpt>
      <trkpt lat="39.516812297547" lon="2.538142501189">
        <ele>4.2</ele>
        <time>2019-10-27T09:51:51Z</time>
      </trkpt>
      <trkpt lat="39.516809950615" lon="2.538107883942">
        <ele>4.2</ele>
        <time>2019-10-27T09:51:52Z</time>
      </trkpt>
      <trkpt lat="39.516804334742" lon="2.538071003582">
        <ele>4.2</ele>
        <time>2019-10-27T09:51:53Z</time>
      </trkpt>
      <trkpt lat="39.516800898163" lon="2.538035296688">
        <ele>4.2</ele>
        <time>2019-10-27T09:51:54Z</time>
      </trkpt>
      <trkpt lat="39.516798299774" lon="2.537998751604">
        <ele>4.2</ele>
        <time>2019-10-27T09:51:55Z</time>
      </trkpt>
      <trkpt lat="39.516793019177" lon="2.537975030827">
        <ele>4.4</ele>
        <time>2019-10-27T09:51:56Z</time>
      </trkpt>
      <trkpt lat="39.516788912046" lon="2.537954076077">
        <ele>4.4</ele>
        <time>2019-10-27T09:51:57Z</time>
      </trkpt>
      <trkpt lat="39.516787068028" lon="2.537936893182">
        <ele>4.4</ele>
        <time>2019-10-27T09:51:58Z</time>
      </trkpt>
      <trkpt lat="39.516789247322" lon="2.537921386667">
        <ele>4.4</ele>
        <time>2019-10-27T09:51:59Z</time>
      </trkpt>
      <trkpt lat="39.516797293946" lon="2.53791023874">
        <ele>4.4</ele>
        <time>2019-10-27T09:52:00Z</time>
      </trkpt>
      <trkpt lat="39.516810704986" lon="2.537902443573">
        <ele>4.4</ele>
        <time>2019-10-27T09:52:01Z</time>
      </trkpt>
      <trkpt lat="39.516824870397" lon="2.537895067501">
        <ele>4.4</ele>
        <time>2019-10-27T09:52:02Z</time>
      </trkpt>
      <trkpt lat="39.516836521238" lon="2.537885344497">
        <ele>4.4</ele>
        <time>2019-10-27T09:52:03Z</time>
      </trkpt>
      <trkpt lat="39.516844903138" lon="2.537871011448">
        <ele>4.6</ele>
        <time>2019-10-27T09:52:04Z</time>
      </trkpt>
      <trkpt lat="39.51684892645" lon="2.537850894888">
        <ele>4.6</ele>
        <time>2019-10-27T09:52:05Z</time>
      </trkpt>
      <trkpt lat="39.516848339717" lon="2.537827509387">
        <ele>4.6</ele>
        <time>2019-10-27T09:52:06Z</time>
      </trkpt>
      <trkpt lat="39.516843394396" lon="2.537805381171">
        <ele>4.6</ele>
        <time>2019-10-27T09:52:07Z</time>
      </trkpt>
      <trkpt lat="39.516836018324" lon="2.537782163308">
        <ele>4.6</ele>
        <time>2019-10-27T09:52:08Z</time>
      </trkpt>
      <trkpt lat="39.516829480442" lon="2.537757939617">
        <ele>4.6</ele>
        <time>2019-10-27T09:52:09Z</time>
      </trkpt>
      <trkpt lat="39.516823864569" lon="2.537736146677">
        <ele>4.6</ele>
        <time>2019-10-27T09:52:10Z</time>
      </trkpt>
      <trkpt lat="39.516819841257" lon="2.53771494047">
        <ele>4.6</ele>
        <time>2019-10-27T09:52:11Z</time>
      </trkpt>
      <trkpt lat="39.516815817945" lon="2.537693901901">
        <ele>4.8</ele>
        <time>2019-10-27T09:52:12Z</time>
      </trkpt>
      <trkpt lat="39.516813638651" lon="2.537673282427">
        <ele>4.8</ele>
        <time>2019-10-27T09:52:13Z</time>
      </trkpt>
      <trkpt lat="39.516814476841" lon="2.537651992401">
        <ele>4.8</ele>
        <time>2019-10-27T09:52:14Z</time>
      </trkpt>
      <trkpt lat="39.516817997239" lon="2.537628858357">
        <ele>4.8</ele>
        <time>2019-10-27T09:52:15Z</time>
      </trkpt>
      <trkpt lat="39.51682629532" lon="2.53760178482">
        <ele>4.8</ele>
        <time>2019-10-27T09:52:16Z</time>
      </trkpt>
      <trkpt lat="39.516834509582" lon="2.537574878921">
        <ele>4.8</ele>
        <time>2019-10-27T09:52:17Z</time>
      </trkpt>
      <trkpt lat="39.516841801835" lon="2.53754311152">
        <ele>4.8</ele>
        <time>2019-10-27T09:52:18Z</time>
      </trkpt>
      <trkpt lat="39.516845657509" lon="2.53750958392">
        <ele>4.6</ele>
        <time>2019-10-27T09:52:19Z</time>
      </trkpt>
      <trkpt lat="39.516844651681" lon="2.537470272809">
        <ele>4.6</ele>
        <time>2019-10-27T09:52:20Z</time>
      </trkpt>
      <trkpt lat="39.51683970636" lon="2.537429285318">
        <ele>4.6</ele>
        <time>2019-10-27T09:52:21Z</time>
      </trkpt>
      <trkpt lat="39.516833252297" lon="2.537390728578">
        <ele>4.6</ele>
        <time>2019-10-27T09:52:22Z</time>
      </trkpt>
      <trkpt lat="39.516827804062" lon="2.537350076363">
        <ele>4.6</ele>
        <time>2019-10-27T09:52:23Z</time>
      </trkpt>
      <trkpt lat="39.516824786578" lon="2.537308083044">
        <ele>4.6</ele>
        <time>2019-10-27T09:52:24Z</time>
      </trkpt>
      <trkpt lat="39.51682294256" lon="2.537268101381">
        <ele>4.6</ele>
        <time>2019-10-27T09:52:25Z</time>
      </trkpt>
      <trkpt lat="39.516819925076" lon="2.537229544641">
        <ele>4.4</ele>
        <time>2019-10-27T09:52:26Z</time>
      </trkpt>
      <trkpt lat="39.516820260352" lon="2.537190317349">
        <ele>4.2</ele>
        <time>2019-10-27T09:52:27Z</time>
      </trkpt>
      <trkpt lat="39.516825121854" lon="2.537152431161">
        <ele>4</ele>
        <time>2019-10-27T09:52:28Z</time>
      </trkpt>
      <trkpt lat="39.516834844858" lon="2.537117730095">
        <ele>4</ele>
        <time>2019-10-27T09:52:29Z</time>
      </trkpt>
      <trkpt lat="39.516847585346" lon="2.537085543599">
        <ele>3.8</ele>
        <time>2019-10-27T09:52:30Z</time>
      </trkpt>
      <trkpt lat="39.516861666938" lon="2.537055704035">
        <ele>3.6</ele>
        <time>2019-10-27T09:52:31Z</time>
      </trkpt>
      <trkpt lat="39.516878346919" lon="2.537028714317">
        <ele>3.4</ele>
        <time>2019-10-27T09:52:32Z</time>
      </trkpt>
      <trkpt lat="39.516895697452" lon="2.537005580273">
        <ele>3.4</ele>
        <time>2019-10-27T09:52:33Z</time>
      </trkpt>
      <trkpt lat="39.516912125976" lon="2.536983703514">
        <ele>3.2</ele>
        <time>2019-10-27T09:52:34Z</time>
      </trkpt>
      <trkpt lat="39.516930985251" lon="2.536965850067">
        <ele>3</ele>
        <time>2019-10-27T09:52:35Z</time>
      </trkpt>
      <trkpt lat="39.51695034744" lon="2.536948918629">
        <ele>3</ele>
        <time>2019-10-27T09:52:36Z</time>
      </trkpt>
      <trkpt lat="39.516968033249" lon="2.536931987191">
        <ele>3</ele>
        <time>2019-10-27T09:52:37Z</time>
      </trkpt>
      <trkpt lat="39.51699309513" lon="2.536913127916">
        <ele>2.8</ele>
        <time>2019-10-27T09:52:38Z</time>
      </trkpt>
      <trkpt lat="39.51701740264" lon="2.536894436279">
        <ele>2.8</ele>
        <time>2019-10-27T09:52:39Z</time>
      </trkpt>
      <trkpt lat="39.517042967435" lon="2.53687591228">
        <ele>2.8</ele>
        <time>2019-10-27T09:52:40Z</time>
      </trkpt>
      <trkpt lat="39.517068448411" lon="2.536858058833">
        <ele>2.8</ele>
        <time>2019-10-27T09:52:41Z</time>
      </trkpt>
      <trkpt lat="39.517089235523" lon="2.53683316459">
        <ele>2.8</ele>
        <time>2019-10-27T09:52:42Z</time>
      </trkpt>
      <trkpt lat="39.517110525549" lon="2.536815227324">
        <ele>2.8</ele>
        <time>2019-10-27T09:52:43Z</time>
      </trkpt>
      <trkpt lat="39.517131228842" lon="2.536792596194">
        <ele>2.8</ele>
        <time>2019-10-27T09:52:44Z</time>
      </trkpt>
      <trkpt lat="39.517151261583" lon="2.536770719435">
        <ele>2.8</ele>
        <time>2019-10-27T09:52:45Z</time>
      </trkpt>
      <trkpt lat="39.517173222161" lon="2.536751105789">
        <ele>2.8</ele>
        <time>2019-10-27T09:52:46Z</time>
      </trkpt>
      <trkpt lat="39.517197529671" lon="2.536734761084">
        <ele>2.8</ele>
        <time>2019-10-27T09:52:47Z</time>
      </trkpt>
      <trkpt lat="39.517224100294" lon="2.536722858786">
        <ele>2.6</ele>
        <time>2019-10-27T09:52:48Z</time>
      </trkpt>
      <trkpt lat="39.517251509107" lon="2.53671581799">
        <ele>2.6</ele>
        <time>2019-10-27T09:52:49Z</time>
      </trkpt>
      <trkpt lat="39.517279588472" lon="2.536707687547">
        <ele>2.6</ele>
        <time>2019-10-27T09:52:50Z</time>
      </trkpt>
      <trkpt lat="39.517305069448" lon="2.536699473285">
        <ele>2.6</ele>
        <time>2019-10-27T09:52:51Z</time>
      </trkpt>
      <trkpt lat="39.517329460777" lon="2.536695198516">
        <ele>2.6</ele>
        <time>2019-10-27T09:52:52Z</time>
      </trkpt>
      <trkpt lat="39.517352511002" lon="2.536692181032">
        <ele>2.8</ele>
        <time>2019-10-27T09:52:53Z</time>
      </trkpt>
      <trkpt lat="39.517374052485" lon="2.53669067229">
        <ele>2.8</ele>
        <time>2019-10-27T09:52:54Z</time>
      </trkpt>
      <trkpt lat="39.517396013063" lon="2.536684888779">
        <ele>2.8</ele>
        <time>2019-10-27T09:52:55Z</time>
      </trkpt>
      <trkpt lat="39.517420320573" lon="2.536679440544">
        <ele>2.8</ele>
        <time>2019-10-27T09:52:56Z</time>
      </trkpt>
      <trkpt lat="39.517452590888" lon="2.536676674517">
        <ele>2.8</ele>
        <time>2019-10-27T09:52:57Z</time>
      </trkpt>
      <trkpt lat="39.517486369945" lon="2.536676590698">
        <ele>2.8</ele>
        <time>2019-10-27T09:52:58Z</time>
      </trkpt>
      <trkpt lat="39.51752031664" lon="2.536675333413">
        <ele>2.8</ele>
        <time>2019-10-27T09:52:59Z</time>
      </trkpt>
      <trkpt lat="39.517551581127" lon="2.536675333413">
        <ele>2.6</ele>
        <time>2019-10-27T09:53:00Z</time>
      </trkpt>
      <trkpt lat="39.517582594157" lon="2.53667809944">
        <ele>2.6</ele>
        <time>2019-10-27T09:53:01Z</time>
      </trkpt>
      <trkpt lat="39.517615535024" lon="2.536679440544">
        <ele>2.6</ele>
        <time>2019-10-27T09:53:02Z</time>
      </trkpt>
      <trkpt lat="39.517645123131" lon="2.536675836327">
        <ele>2.6</ele>
        <time>2019-10-27T09:53:03Z</time>
      </trkpt>
      <trkpt lat="39.517676052342" lon="2.536674076128">
        <ele>2.6</ele>
        <time>2019-10-27T09:53:04Z</time>
      </trkpt>
      <trkpt lat="39.517707652105" lon="2.536672148291">
        <ele>2.6</ele>
        <time>2019-10-27T09:53:05Z</time>
      </trkpt>
      <trkpt lat="39.51773740785" lon="2.536665610409">
        <ele>2.6</ele>
        <time>2019-10-27T09:53:06Z</time>
      </trkpt>
      <trkpt lat="39.517766157767" lon="2.536658485794">
        <ele>2.6</ele>
        <time>2019-10-27T09:53:07Z</time>
      </trkpt>
      <trkpt lat="39.517793985675" lon="2.536652618464">
        <ele>2.6</ele>
        <time>2019-10-27T09:53:08Z</time>
      </trkpt>
      <trkpt lat="39.517820053384" lon="2.536645074754">
        <ele>2.6</ele>
        <time>2019-10-27T09:53:09Z</time>
      </trkpt>
      <trkpt lat="39.517847881292" lon="2.536640045614">
        <ele>2.6</ele>
        <time>2019-10-27T09:53:10Z</time>
      </trkpt>
      <trkpt lat="39.517876128295" lon="2.536634010646">
        <ele>2.6</ele>
        <time>2019-10-27T09:53:11Z</time>
      </trkpt>
      <trkpt lat="39.517901106357" lon="2.536628730049">
        <ele>2.6</ele>
        <time>2019-10-27T09:53:12Z</time>
      </trkpt>
      <trkpt lat="39.517925330048" lon="2.536623868547">
        <ele>2.6</ele>
        <time>2019-10-27T09:53:13Z</time>
      </trkpt>
      <trkpt lat="39.517949386101" lon="2.536615738104">
        <ele>2.6</ele>
        <time>2019-10-27T09:53:14Z</time>
      </trkpt>
      <trkpt lat="39.51797461562" lon="2.53660769148">
        <ele>2.6</ele>
        <time>2019-10-27T09:53:15Z</time>
      </trkpt>
      <trkpt lat="39.517999258406" lon="2.536600231589">
        <ele>2.6</ele>
        <time>2019-10-27T09:53:16Z</time>
      </trkpt>
      <trkpt lat="39.518022727726" lon="2.53659260406">
        <ele>2.6</ele>
        <time>2019-10-27T09:53:17Z</time>
      </trkpt>
      <trkpt lat="39.518045107399" lon="2.536585227988">
        <ele>2.6</ele>
        <time>2019-10-27T09:53:18Z</time>
      </trkpt>
      <trkpt lat="39.518066145968" lon="2.536576091717">
        <ele>2.6</ele>
        <time>2019-10-27T09:53:19Z</time>
      </trkpt>
      <trkpt lat="39.51808441851" lon="2.536562680677">
        <ele>2.6</ele>
        <time>2019-10-27T09:53:20Z</time>
      </trkpt>
      <trkpt lat="39.518103445423" lon="2.5365473418">
        <ele>2.6</ele>
        <time>2019-10-27T09:53:21Z</time>
      </trkpt>
      <trkpt lat="39.518128507304" lon="2.536533763122">
        <ele>2.6</ele>
        <time>2019-10-27T09:53:22Z</time>
      </trkpt>
      <trkpt lat="39.518157927773" lon="2.536524543032">
        <ele>2.6</ele>
        <time>2019-10-27T09:53:23Z</time>
      </trkpt>
      <trkpt lat="39.51818667769" lon="2.53651968153">
        <ele>2.6</ele>
        <time>2019-10-27T09:53:24Z</time>
      </trkpt>
      <trkpt lat="39.518216265797" lon="2.536516496408">
        <ele>2.6</ele>
        <time>2019-10-27T09:53:25Z</time>
      </trkpt>
      <trkpt lat="39.518244428981" lon="2.536507779232">
        <ele>2.6</ele>
        <time>2019-10-27T09:53:26Z</time>
      </trkpt>
      <trkpt lat="39.51827049669" lon="2.536495206382">
        <ele>2.6</ele>
        <time>2019-10-27T09:53:27Z</time>
      </trkpt>
      <trkpt lat="39.518298324598" lon="2.536481543885">
        <ele>2.6</ele>
        <time>2019-10-27T09:53:28Z</time>
      </trkpt>
      <trkpt lat="39.518327242153" lon="2.536469641587">
        <ele>2.6</ele>
        <time>2019-10-27T09:53:29Z</time>
      </trkpt>
      <trkpt lat="39.518354399509" lon="2.536458326022">
        <ele>2.6</ele>
        <time>2019-10-27T09:53:30Z</time>
      </trkpt>
      <trkpt lat="39.51838113777" lon="2.536446842819">
        <ele>2.6</ele>
        <time>2019-10-27T09:53:31Z</time>
      </trkpt>
      <trkpt lat="39.518407624574" lon="2.536435778711">
        <ele>2.6</ele>
        <time>2019-10-27T09:53:32Z</time>
      </trkpt>
      <trkpt lat="39.518433524645" lon="2.536424044051">
        <ele>2.6</ele>
        <time>2019-10-27T09:53:33Z</time>
      </trkpt>
      <trkpt lat="39.518461687829" lon="2.536410968287">
        <ele>2.6</ele>
        <time>2019-10-27T09:53:34Z</time>
      </trkpt>
      <trkpt lat="39.518490270108" lon="2.536395377953">
        <ele>2.6</ele>
        <time>2019-10-27T09:53:35Z</time>
      </trkpt>
      <trkpt lat="39.518518433292" lon="2.536379955257">
        <ele>2.6</ele>
        <time>2019-10-27T09:53:36Z</time>
      </trkpt>
      <trkpt lat="39.518544752458" lon="2.536361515077">
        <ele>2.6</ele>
        <time>2019-10-27T09:53:37Z</time>
      </trkpt>
      <trkpt lat="39.518568305597" lon="2.536340225051">
        <ele>2.6</ele>
        <time>2019-10-27T09:53:38Z</time>
      </trkpt>
      <trkpt lat="39.518590349994" lon="2.536316588093">
        <ele>2.6</ele>
        <time>2019-10-27T09:53:39Z</time>
      </trkpt>
      <trkpt lat="39.51861415459" lon="2.536292280583">
        <ele>2.6</ele>
        <time>2019-10-27T09:53:40Z</time>
      </trkpt>
      <trkpt lat="39.518637959186" lon="2.536267134883">
        <ele>2.8</ele>
        <time>2019-10-27T09:53:41Z</time>
      </trkpt>
      <trkpt lat="39.518660841773" lon="2.536242743554">
        <ele>2.8</ele>
        <time>2019-10-27T09:53:42Z</time>
      </trkpt>
      <trkpt lat="39.518683640541" lon="2.536218184587">
        <ele>2.8</ele>
        <time>2019-10-27T09:53:43Z</time>
      </trkpt>
      <trkpt lat="39.518705098205" lon="2.536188261204">
        <ele>2.8</ele>
        <time>2019-10-27T09:53:44Z</time>
      </trkpt>
      <trkpt lat="39.518725885317" lon="2.536156661441">
        <ele>2.8</ele>
        <time>2019-10-27T09:53:45Z</time>
      </trkpt>
      <trkpt lat="39.518744157859" lon="2.536125313135">
        <ele>2.8</ele>
        <time>2019-10-27T09:53:46Z</time>
      </trkpt>
      <trkpt lat="39.518759748193" lon="2.536094886838">
        <ele>2.8</ele>
        <time>2019-10-27T09:53:47Z</time>
      </trkpt>
      <trkpt lat="39.518776511993" lon="2.536060940143">
        <ele>3</ele>
        <time>2019-10-27T09:53:48Z</time>
      </trkpt>
      <trkpt lat="39.518794113983" lon="2.536032944597">
        <ele>3</ele>
        <time>2019-10-27T09:53:49Z</time>
      </trkpt>
      <trkpt lat="39.518812218887" lon="2.53600922382">
        <ele>3</ele>
        <time>2019-10-27T09:53:50Z</time>
      </trkpt>
      <trkpt lat="39.518831664895" lon="2.535990280726">
        <ele>3</ele>
        <time>2019-10-27T09:53:51Z</time>
      </trkpt>
      <trkpt lat="39.51885303874" lon="2.535972762555">
        <ele>3</ele>
        <time>2019-10-27T09:53:52Z</time>
      </trkpt>
      <trkpt lat="39.518875083137" lon="2.535963039551">
        <ele>3</ele>
        <time>2019-10-27T09:53:53Z</time>
      </trkpt>
      <trkpt lat="39.518898384819" lon="2.535959100058">
        <ele>3</ele>
        <time>2019-10-27T09:53:54Z</time>
      </trkpt>
      <trkpt lat="39.518920680673" lon="2.535960441162">
        <ele>3</ele>
        <time>2019-10-27T09:53:55Z</time>
      </trkpt>
      <trkpt lat="39.518946329287" lon="2.535959854429">
        <ele>3</ele>
        <time>2019-10-27T09:53:56Z</time>
      </trkpt>
      <trkpt lat="39.518975749756" lon="2.535955831117">
        <ele>3</ele>
        <time>2019-10-27T09:53:57Z</time>
      </trkpt>
      <trkpt lat="39.51900475113" lon="2.535953400366">
        <ele>3</ele>
        <time>2019-10-27T09:53:58Z</time>
      </trkpt>
      <trkpt lat="39.519033165771" lon="2.535951807805">
        <ele>3</ele>
        <time>2019-10-27T09:53:59Z</time>
      </trkpt>
      <trkpt lat="39.519062670059" lon="2.535951053434">
        <ele>3.2</ele>
        <time>2019-10-27T09:54:00Z</time>
      </trkpt>
      <trkpt lat="39.519089073044" lon="2.535953484185">
        <ele>3.2</ele>
        <time>2019-10-27T09:54:01Z</time>
      </trkpt>
      <trkpt lat="39.519114470201" lon="2.535958764782">
        <ele>3.2</ele>
        <time>2019-10-27T09:54:02Z</time>
      </trkpt>
      <trkpt lat="39.51913969972" lon="2.535967984872">
        <ele>3.2</ele>
        <time>2019-10-27T09:54:03Z</time>
      </trkpt>
      <trkpt lat="39.519165096877" lon="2.53598323993">
        <ele>3.2</ele>
        <time>2019-10-27T09:54:04Z</time>
      </trkpt>
      <trkpt lat="39.519191164586" lon="2.536002434481">
        <ele>3.2</ele>
        <time>2019-10-27T09:54:05Z</time>
      </trkpt>
      <trkpt lat="39.519215891191" lon="2.536022802498">
        <ele>3.2</ele>
        <time>2019-10-27T09:54:06Z</time>
      </trkpt>
      <trkpt lat="39.51923944433" lon="2.536042332325">
        <ele>3.2</ele>
        <time>2019-10-27T09:54:07Z</time>
      </trkpt>
      <trkpt lat="39.519263500383" lon="2.536063538532">
        <ele>3.2</ele>
        <time>2019-10-27T09:54:08Z</time>
      </trkpt>
      <trkpt lat="39.519287975531" lon="2.536086169662">
        <ele>3.2</ele>
        <time>2019-10-27T09:54:09Z</time>
      </trkpt>
      <trkpt lat="39.519311612489" lon="2.536108465516">
        <ele>3.2</ele>
        <time>2019-10-27T09:54:10Z</time>
      </trkpt>
      <trkpt lat="39.519331980506" lon="2.536124642583">
        <ele>3.2</ele>
        <time>2019-10-27T09:54:11Z</time>
      </trkpt>
      <trkpt lat="39.519348241392" lon="2.536140232917">
        <ele>3.2</ele>
        <time>2019-10-27T09:54:12Z</time>
      </trkpt>
      <trkpt lat="39.519371207798" lon="2.536153895414">
        <ele>3.2</ele>
        <time>2019-10-27T09:54:13Z</time>
      </trkpt>
      <trkpt lat="39.519396604955" lon="2.536170659214">
        <ele>3.2</ele>
        <time>2019-10-27T09:54:14Z</time>
      </trkpt>
      <trkpt lat="39.519419571361" lon="2.536183651159">
        <ele>3.2</ele>
        <time>2019-10-27T09:54:15Z</time>
      </trkpt>
      <trkpt lat="39.519441280482" lon="2.536202342796">
        <ele>3.2</ele>
        <time>2019-10-27T09:54:16Z</time>
      </trkpt>
      <trkpt lat="39.519458379558" lon="2.536227656134">
        <ele>3.2</ele>
        <time>2019-10-27T09:54:17Z</time>
      </trkpt>
      <trkpt lat="39.519470365675" lon="2.536254310576">
        <ele>3.2</ele>
        <time>2019-10-27T09:54:18Z</time>
      </trkpt>
      <trkpt lat="39.519489811683" lon="2.536281551751">
        <ele>3</ele>
        <time>2019-10-27T09:54:19Z</time>
      </trkpt>
      <trkpt lat="39.519509090053" lon="2.536311056039">
        <ele>3.2</ele>
        <time>2019-10-27T09:54:20Z</time>
      </trkpt>
      <trkpt lat="39.519535744495" lon="2.536336704653">
        <ele>3.2</ele>
        <time>2019-10-27T09:54:21Z</time>
      </trkpt>
      <trkpt lat="39.519565416421" lon="2.536371238081">
        <ele>3.2</ele>
        <time>2019-10-27T09:54:22Z</time>
      </trkpt>
      <trkpt lat="39.519587460818" lon="2.536401664378">
        <ele>3.2</ele>
        <time>2019-10-27T09:54:23Z</time>
      </trkpt>
      <trkpt lat="39.519612103604" lon="2.536428654096">
        <ele>3.2</ele>
        <time>2019-10-27T09:54:24Z</time>
      </trkpt>
      <trkpt lat="39.519637752218" lon="2.536449105932">
        <ele>3.4</ele>
        <time>2019-10-27T09:54:25Z</time>
      </trkpt>
      <trkpt lat="39.519661975909" lon="2.536466959379">
        <ele>3.4</ele>
        <time>2019-10-27T09:54:26Z</time>
      </trkpt>
      <trkpt lat="39.519688462713" lon="2.536479951324">
        <ele>3.4</ele>
        <time>2019-10-27T09:54:27Z</time>
      </trkpt>
      <trkpt lat="39.519720313933" lon="2.536501157531">
        <ele>3.4</ele>
        <time>2019-10-27T09:54:28Z</time>
      </trkpt>
      <trkpt lat="39.519744202348" lon="2.536528566344">
        <ele>3.4</ele>
        <time>2019-10-27T09:54:29Z</time>
      </trkpt>
      <trkpt lat="39.519765240917" lon="2.536555807519">
        <ele>3.6</ele>
        <time>2019-10-27T09:54:30Z</time>
      </trkpt>
      <trkpt lat="39.519790302798" lon="2.536580198848">
        <ele>3.6</ele>
        <time>2019-10-27T09:54:31Z</time>
      </trkpt>
      <trkpt lat="39.519820142362" lon="2.536606266557">
        <ele>3.6</ele>
        <time>2019-10-27T09:54:32Z</time>
      </trkpt>
      <trkpt lat="39.519846880623" lon="2.536629316782">
        <ele>3.6</ele>
        <time>2019-10-27T09:54:33Z</time>
      </trkpt>
      <trkpt lat="39.51987311597" lon="2.536651947912">
        <ele>3.6</ele>
        <time>2019-10-27T09:54:34Z</time>
      </trkpt>
      <trkpt lat="39.519898177851" lon="2.536673740852">
        <ele>3.6</ele>
        <time>2019-10-27T09:54:35Z</time>
      </trkpt>
      <trkpt lat="39.519929107062" lon="2.536697964543">
        <ele>3.8</ele>
        <time>2019-10-27T09:54:36Z</time>
      </trkpt>
      <trkpt lat="39.519956432056" lon="2.536722858786">
        <ele>3.8</ele>
        <time>2019-10-27T09:54:37Z</time>
      </trkpt>
      <trkpt lat="39.519985349611" lon="2.536740796052">
        <ele>3.8</ele>
        <time>2019-10-27T09:54:38Z</time>
      </trkpt>
      <trkpt lat="39.520022565247" lon="2.536764265372">
        <ele>4</ele>
        <time>2019-10-27T09:54:39Z</time>
      </trkpt>
      <trkpt lat="39.520042765626" lon="2.536788656701">
        <ele>4</ele>
        <time>2019-10-27T09:54:40Z</time>
      </trkpt>
      <trkpt lat="39.52007511976" lon="2.53681640079">
        <ele>4</ele>
        <time>2019-10-27T09:54:41Z</time>
      </trkpt>
      <trkpt lat="39.520103031487" lon="2.536840037748">
        <ele>4</ele>
        <time>2019-10-27T09:54:42Z</time>
      </trkpt>
      <trkpt lat="39.520136223811" lon="2.536863004154">
        <ele>4</ele>
        <time>2019-10-27T09:54:43Z</time>
      </trkpt>
      <trkpt lat="39.5201639679" lon="2.536882953076">
        <ele>4</ele>
        <time>2019-10-27T09:54:44Z</time>
      </trkpt>
      <trkpt lat="39.520193807464" lon="2.536905332749">
        <ele>4.2</ele>
        <time>2019-10-27T09:54:45Z</time>
      </trkpt>
      <trkpt lat="39.520218282612" lon="2.536927963879">
        <ele>4.2</ele>
        <time>2019-10-27T09:54:46Z</time>
      </trkpt>
      <trkpt lat="39.520245104692" lon="2.536949002448">
        <ele>4.2</ele>
        <time>2019-10-27T09:54:47Z</time>
      </trkpt>
      <trkpt lat="39.520270837125" lon="2.536968532275">
        <ele>4.2</ele>
        <time>2019-10-27T09:54:48Z</time>
      </trkpt>
      <trkpt lat="39.520289444943" lon="2.536987056274">
        <ele>4.2</ele>
        <time>2019-10-27T09:54:49Z</time>
      </trkpt>
      <trkpt lat="39.520307717485" lon="2.537005999368">
        <ele>4.2</ele>
        <time>2019-10-27T09:54:50Z</time>
      </trkpt>
      <trkpt lat="39.520327247312" lon="2.537022846987">
        <ele>4.2</ele>
        <time>2019-10-27T09:54:51Z</time>
      </trkpt>
      <trkpt lat="39.520347112415" lon="2.537036258027">
        <ele>4.2</ele>
        <time>2019-10-27T09:54:52Z</time>
      </trkpt>
      <trkpt lat="39.520363876215" lon="2.53704857942">
        <ele>4.4</ele>
        <time>2019-10-27T09:54:53Z</time>
      </trkpt>
      <trkpt lat="39.520383908956" lon="2.537063415383">
        <ele>4.4</ele>
        <time>2019-10-27T09:54:54Z</time>
      </trkpt>
      <trkpt lat="39.520401762403" lon="2.537078083708">
        <ele>4.4</ele>
        <time>2019-10-27T09:54:55Z</time>
      </trkpt>
      <trkpt lat="39.520421543687" lon="2.537088728721">
        <ele>4.4</ele>
        <time>2019-10-27T09:54:56Z</time>
      </trkpt>
      <trkpt lat="39.520448449586" lon="2.537100882476">
        <ele>4.4</ele>
        <time>2019-10-27T09:54:57Z</time>
      </trkpt>
      <trkpt lat="39.520478708245" lon="2.537115886077">
        <ele>4.4</ele>
        <time>2019-10-27T09:54:58Z</time>
      </trkpt>
      <trkpt lat="39.520504692135" lon="2.53713491299">
        <ele>4.4</ele>
        <time>2019-10-27T09:54:59Z</time>
      </trkpt>
      <trkpt lat="39.520527407084" lon="2.537156538292">
        <ele>4.4</ele>
        <time>2019-10-27T09:55:00Z</time>
      </trkpt>
      <trkpt lat="39.520557414286" lon="2.53717346973">
        <ele>4.4</ele>
        <time>2019-10-27T09:55:01Z</time>
      </trkpt>
      <trkpt lat="39.520585158375" lon="2.537182773639">
        <ele>4.4</ele>
        <time>2019-10-27T09:55:02Z</time>
      </trkpt>
      <trkpt lat="39.520618015423" lon="2.537193167195">
        <ele>4.4</ele>
        <time>2019-10-27T09:55:03Z</time>
      </trkpt>
      <trkpt lat="39.52064592715" lon="2.537205991502">
        <ele>4.4</ele>
        <time>2019-10-27T09:55:04Z</time>
      </trkpt>
      <trkpt lat="39.520670905212" lon="2.537216133601">
        <ele>4.4</ele>
        <time>2019-10-27T09:55:05Z</time>
      </trkpt>
      <trkpt lat="39.520698397844" lon="2.537227868261">
        <ele>4.4</ele>
        <time>2019-10-27T09:55:06Z</time>
      </trkpt>
      <trkpt lat="39.520725303743" lon="2.537241614577">
        <ele>4.4</ele>
        <time>2019-10-27T09:55:07Z</time>
      </trkpt>
      <trkpt lat="39.520765285406" lon="2.537254941798">
        <ele>4.4</ele>
        <time>2019-10-27T09:55:08Z</time>
      </trkpt>
      <trkpt lat="39.520796633712" lon="2.537267514648">
        <ele>4.6</ele>
        <time>2019-10-27T09:55:09Z</time>
      </trkpt>
      <trkpt lat="39.52084038723" lon="2.53727489072">
        <ele>4.6</ele>
        <time>2019-10-27T09:55:10Z</time>
      </trkpt>
      <trkpt lat="39.520879279246" lon="2.537281344783">
        <ele>4.6</ele>
        <time>2019-10-27T09:55:11Z</time>
      </trkpt>
      <trkpt lat="39.520910627552" lon="2.53728662538">
        <ele>4.8</ele>
        <time>2019-10-27T09:55:12Z</time>
      </trkpt>
      <trkpt lat="39.520945244799" lon="2.537296180746">
        <ele>4.8</ele>
        <time>2019-10-27T09:55:13Z</time>
      </trkpt>
      <trkpt lat="39.520980113503" lon="2.53730758013">
        <ele>4.8</ele>
        <time>2019-10-27T09:55:14Z</time>
      </trkpt>
      <trkpt lat="39.521010707438" lon="2.537321494084">
        <ele>4.8</ele>
        <time>2019-10-27T09:55:15Z</time>
      </trkpt>
      <trkpt lat="39.52104071464" lon="2.537330127441">
        <ele>5</ele>
        <time>2019-10-27T09:55:16Z</time>
      </trkpt>
      <trkpt lat="39.521071979127" lon="2.537340688635">
        <ele>5</ele>
        <time>2019-10-27T09:55:17Z</time>
      </trkpt>
      <trkpt lat="39.521096202818" lon="2.537348986716">
        <ele>5</ele>
        <time>2019-10-27T09:55:18Z</time>
      </trkpt>
      <trkpt lat="39.521114140084" lon="2.537353848218">
        <ele>5</ele>
        <time>2019-10-27T09:55:19Z</time>
      </trkpt>
      <trkpt lat="39.52113207735" lon="2.53735535696">
        <ele>5.2</ele>
        <time>2019-10-27T09:55:20Z</time>
      </trkpt>
      <trkpt lat="39.521146578037" lon="2.537347226517">
        <ele>5.2</ele>
        <time>2019-10-27T09:55:21Z</time>
      </trkpt>
      <trkpt lat="39.521150433711" lon="2.537337252056">
        <ele>5.2</ele>
        <time>2019-10-27T09:55:22Z</time>
      </trkpt>
      <trkpt lat="39.521148422055" lon="2.537329540708">
        <ele>5.2</ele>
        <time>2019-10-27T09:55:23Z</time>
      </trkpt>
      <trkpt lat="39.521138866689" lon="2.537327780509">
        <ele>5.4</ele>
        <time>2019-10-27T09:55:24Z</time>
      </trkpt>
      <trkpt lat="39.521131071522" lon="2.537332558192">
        <ele>5.4</ele>
        <time>2019-10-27T09:55:25Z</time>
      </trkpt>
      <trkpt lat="39.5211195045" lon="2.537339515169">
        <ele>5.4</ele>
        <time>2019-10-27T09:55:26Z</time>
      </trkpt>
      <trkpt lat="39.521109362401" lon="2.537349573449">
        <ele>5.4</ele>
        <time>2019-10-27T09:55:27Z</time>
      </trkpt>
      <trkpt lat="39.521099974673" lon="2.53735535696">
        <ele>5.4</ele>
        <time>2019-10-27T09:55:28Z</time>
      </trkpt>
      <trkpt lat="39.521096789551" lon="2.537357117159">
        <ele>5.4</ele>
        <time>2019-10-27T09:55:29Z</time>
      </trkpt>
      <trkpt lat="39.521087569461" lon="2.537355524598">
        <ele>5.4</ele>
        <time>2019-10-27T09:55:30Z</time>
      </trkpt>
      <trkpt lat="39.521078768466" lon="2.537352926209">
        <ele>5.4</ele>
        <time>2019-10-27T09:55:31Z</time>
      </trkpt>
      <trkpt lat="39.521071140937" lon="2.53735284239">
        <ele>5.4</ele>
        <time>2019-10-27T09:55:32Z</time>
      </trkpt>
      <trkpt lat="39.521066949987" lon="2.537356027512">
        <ele>5.2</ele>
        <time>2019-10-27T09:55:33Z</time>
      </trkpt>
      <trkpt lat="39.521064854512" lon="2.537355021684">
        <ele>5</ele>
        <time>2019-10-27T09:55:34Z</time>
      </trkpt>
      <trkpt lat="39.521065692702" lon="2.537356278969">
        <ele>4.8</ele>
        <time>2019-10-27T09:55:35Z</time>
      </trkpt>
      <trkpt lat="39.521041049916" lon="2.537405899817">
        <ele>4.6</ele>
        <time>2019-10-27T09:55:47Z</time>
      </trkpt>
      <trkpt lat="39.521033422387" lon="2.537415622821">
        <ele>4.6</ele>
        <time>2019-10-27T09:55:48Z</time>
      </trkpt>
      <trkpt lat="39.521032584197" lon="2.537419813771">
        <ele>4.6</ele>
        <time>2019-10-27T09:55:49Z</time>
      </trkpt>
      <trkpt lat="39.521030321084" lon="2.537422579798">
        <ele>4.6</ele>
        <time>2019-10-27T09:55:50Z</time>
      </trkpt>
      <trkpt lat="39.521134424282" lon="2.537312860727">
        <ele>4.8</ele>
        <time>2019-10-27T09:56:47Z</time>
      </trkpt>
      <trkpt lat="39.521151271901" lon="2.537316045849">
        <ele>4.8</ele>
        <time>2019-10-27T09:56:48Z</time>
      </trkpt>
      <trkpt lat="39.521168538615" lon="2.537320823532">
        <ele>4.8</ele>
        <time>2019-10-27T09:56:49Z</time>
      </trkpt>
      <trkpt lat="39.521191756478" lon="2.537327780509">
        <ele>4.8</ele>
        <time>2019-10-27T09:56:50Z</time>
      </trkpt>
      <trkpt lat="39.521218997653" lon="2.537335994771">
        <ele>4.8</ele>
        <time>2019-10-27T09:56:51Z</time>
      </trkpt>
      <trkpt lat="39.521250597416" lon="2.537344879585">
        <ele>4.8</ele>
        <time>2019-10-27T09:56:52Z</time>
      </trkpt>
      <trkpt lat="39.521289070337" lon="2.537364493231">
        <ele>4.8</ele>
        <time>2019-10-27T09:56:53Z</time>
      </trkpt>
      <trkpt lat="39.521321340652" lon="2.537375305882">
        <ele>4.8</ele>
        <time>2019-10-27T09:56:54Z</time>
      </trkpt>
      <trkpt lat="39.521353191872" lon="2.537383687782">
        <ele>4.8</ele>
        <time>2019-10-27T09:56:55Z</time>
      </trkpt>
      <trkpt lat="39.521384456359" lon="2.537392404958">
        <ele>4.8</ele>
        <time>2019-10-27T09:56:56Z</time>
      </trkpt>
      <trkpt lat="39.521411781353" lon="2.537401038315">
        <ele>4.8</ele>
        <time>2019-10-27T09:56:57Z</time>
      </trkpt>
      <trkpt lat="39.52144304584" lon="2.537410845138">
        <ele>4.8</ele>
        <time>2019-10-27T09:56:58Z</time>
      </trkpt>
      <trkpt lat="39.521479255648" lon="2.537422244522">
        <ele>4.8</ele>
        <time>2019-10-27T09:56:59Z</time>
      </trkpt>
      <trkpt lat="39.521524434089" lon="2.537430961698">
        <ele>5</ele>
        <time>2019-10-27T09:57:00Z</time>
      </trkpt>
      <trkpt lat="39.5215469814" lon="2.537446049118">
        <ele>5</ele>
        <time>2019-10-27T09:57:01Z</time>
      </trkpt>
      <trkpt lat="39.52156709796" lon="2.537459963072">
        <ele>5</ele>
        <time>2019-10-27T09:57:02Z</time>
      </trkpt>
      <trkpt lat="39.521585035226" lon="2.537472955017">
        <ele>5</ele>
        <time>2019-10-27T09:57:03Z</time>
      </trkpt>
      <trkpt lat="39.521609761831" lon="2.53748527641">
        <ele>5</ele>
        <time>2019-10-27T09:57:04Z</time>
      </trkpt>
      <trkpt lat="39.521631806228" lon="2.537503548952">
        <ele>5</ele>
        <time>2019-10-27T09:57:05Z</time>
      </trkpt>
      <trkpt lat="39.521668183674" lon="2.537515283612">
        <ele>5</ele>
        <time>2019-10-27T09:57:06Z</time>
      </trkpt>
      <trkpt lat="39.521698861428" lon="2.537527102091">
        <ele>5</ele>
        <time>2019-10-27T09:57:07Z</time>
      </trkpt>
      <trkpt lat="39.521725683508" lon="2.537539926398">
        <ele>5</ele>
        <time>2019-10-27T09:57:08Z</time>
      </trkpt>
      <trkpt lat="39.521753762873" lon="2.537550403773">
        <ele>5</ele>
        <time>2019-10-27T09:57:09Z</time>
      </trkpt>
      <trkpt lat="39.521778657116" lon="2.537566832297">
        <ele>5</ele>
        <time>2019-10-27T09:57:10Z</time>
      </trkpt>
      <trkpt lat="39.521800617694" lon="2.537586026848">
        <ele>5.2</ele>
        <time>2019-10-27T09:57:11Z</time>
      </trkpt>
      <trkpt lat="39.521821488625" lon="2.537604383209">
        <ele>5.2</ele>
        <time>2019-10-27T09:57:12Z</time>
      </trkpt>
      <trkpt lat="39.521844706488" lon="2.537620727914">
        <ele>5.2</ele>
        <time>2019-10-27T09:57:13Z</time>
      </trkpt>
      <trkpt lat="39.521868175808" lon="2.537633552221">
        <ele>5.2</ele>
        <time>2019-10-27T09:57:14Z</time>
      </trkpt>
      <trkpt lat="39.521889214377" lon="2.537646879442">
        <ele>5.2</ele>
        <time>2019-10-27T09:57:15Z</time>
      </trkpt>
      <trkpt lat="39.521907738376" lon="2.537661631586">
        <ele>5.4</ele>
        <time>2019-10-27T09:57:16Z</time>
      </trkpt>
      <trkpt lat="39.521929028402" lon="2.537674204436">
        <ele>5.4</ele>
        <time>2019-10-27T09:57:17Z</time>
      </trkpt>
      <trkpt lat="39.521947971496" lon="2.537685771458">
        <ele>5.4</ele>
        <time>2019-10-27T09:57:18Z</time>
      </trkpt>
      <trkpt lat="39.521966663133" lon="2.537698092851">
        <ele>5.4</ele>
        <time>2019-10-27T09:57:19Z</time>
      </trkpt>
      <trkpt lat="39.52198870753" lon="2.537708151131">
        <ele>5.4</ele>
        <time>2019-10-27T09:57:20Z</time>
      </trkpt>
      <trkpt lat="39.522009410823" lon="2.537719047601">
        <ele>5.4</ele>
        <time>2019-10-27T09:57:21Z</time>
      </trkpt>
      <trkpt lat="39.522030365573" lon="2.537731620451">
        <ele>5.6</ele>
        <time>2019-10-27T09:57:22Z</time>
      </trkpt>
      <trkpt lat="39.522053583436" lon="2.537747462242">
        <ele>5.6</ele>
        <time>2019-10-27T09:57:23Z</time>
      </trkpt>
      <trkpt lat="39.522075963109" lon="2.537761627653">
        <ele>5.6</ele>
        <time>2019-10-27T09:57:24Z</time>
      </trkpt>
      <trkpt lat="39.522097756049" lon="2.537777134168">
        <ele>5.6</ele>
        <time>2019-10-27T09:57:25Z</time>
      </trkpt>
      <trkpt lat="39.522120051903" lon="2.537796663995">
        <ele>5.6</ele>
        <time>2019-10-27T09:57:26Z</time>
      </trkpt>
      <trkpt lat="39.522144275594" lon="2.53781636146">
        <ele>5.6</ele>
        <time>2019-10-27T09:57:27Z</time>
      </trkpt>
      <trkpt lat="39.522171516769" lon="2.537835556011">
        <ele>5.6</ele>
        <time>2019-10-27T09:57:28Z</time>
      </trkpt>
      <trkpt lat="39.522200182867" lon="2.537856762218">
        <ele>5.6</ele>
        <time>2019-10-27T09:57:29Z</time>
      </trkpt>
      <trkpt lat="39.522227507861" lon="2.537879309529">
        <ele>5.6</ele>
        <time>2019-10-27T09:57:30Z</time>
      </trkpt>
      <trkpt lat="39.522253240294" lon="2.537900934831">
        <ele>5.4</ele>
        <time>2019-10-27T09:57:31Z</time>
      </trkpt>
      <trkpt lat="39.52227704489" lon="2.537918369183">
        <ele>5.2</ele>
        <time>2019-10-27T09:57:32Z</time>
      </trkpt>
      <trkpt lat="39.522303447875" lon="2.537933959517">
        <ele>5.2</ele>
        <time>2019-10-27T09:57:33Z</time>
      </trkpt>
      <trkpt lat="39.522332030154" lon="2.537949382213">
        <ele>5</ele>
        <time>2019-10-27T09:57:34Z</time>
      </trkpt>
      <trkpt lat="39.522357259673" lon="2.537961871244">
        <ele>5</ele>
        <time>2019-10-27T09:57:35Z</time>
      </trkpt>
      <trkpt lat="39.522384417029" lon="2.537977042483">
        <ele>5</ele>
        <time>2019-10-27T09:57:36Z</time>
      </trkpt>
      <trkpt lat="39.522413753679" lon="2.53799321955">
        <ele>5</ele>
        <time>2019-10-27T09:57:37Z</time>
      </trkpt>
      <trkpt lat="39.522442252139" lon="2.538009396617">
        <ele>5</ele>
        <time>2019-10-27T09:57:38Z</time>
      </trkpt>
      <trkpt lat="39.522470918237" lon="2.538023729666">
        <ele>5</ele>
        <time>2019-10-27T09:57:39Z</time>
      </trkpt>
      <trkpt lat="39.522502853276" lon="2.538034123222">
        <ele>4.8</ele>
        <time>2019-10-27T09:57:40Z</time>
      </trkpt>
      <trkpt lat="39.522533866306" lon="2.538045690244">
        <ele>4.8</ele>
        <time>2019-10-27T09:57:41Z</time>
      </trkpt>
      <trkpt lat="39.522562700042" lon="2.538058766008">
        <ele>4.8</ele>
        <time>2019-10-27T09:57:42Z</time>
      </trkpt>
      <trkpt lat="39.522591869054" lon="2.538067650822">
        <ele>4.8</ele>
        <time>2019-10-27T09:57:43Z</time>
      </trkpt>
      <trkpt lat="39.52262070279" lon="2.538076451817">
        <ele>4.6</ele>
        <time>2019-10-27T09:57:44Z</time>
      </trkpt>
      <trkpt lat="39.522664959222" lon="2.538094053807">
        <ele>4.6</ele>
        <time>2019-10-27T09:57:45Z</time>
      </trkpt>
      <trkpt lat="39.522704186514" lon="2.538104950277">
        <ele>4.6</ele>
        <time>2019-10-27T09:57:46Z</time>
      </trkpt>
      <trkpt lat="39.522736456829" lon="2.538119031869">
        <ele>4.4</ele>
        <time>2019-10-27T09:57:47Z</time>
      </trkpt>
      <trkpt lat="39.522768391868" lon="2.538134119289">
        <ele>4.4</ele>
        <time>2019-10-27T09:57:48Z</time>
      </trkpt>
      <trkpt lat="39.522802003287" lon="2.5381482847">
        <ele>4.2</ele>
        <time>2019-10-27T09:57:49Z</time>
      </trkpt>
      <trkpt lat="39.522836620534" lon="2.538163707396">
        <ele>4</ele>
        <time>2019-10-27T09:57:50Z</time>
      </trkpt>
      <trkpt lat="39.522876686016" lon="2.538181560843">
        <ele>4</ele>
        <time>2019-10-27T09:57:51Z</time>
      </trkpt>
      <trkpt lat="39.522913650195" lon="2.538201425946">
        <ele>4</ele>
        <time>2019-10-27T09:57:52Z</time>
      </trkpt>
      <trkpt lat="39.522949860003" lon="2.538219279393">
        <ele>4</ele>
        <time>2019-10-27T09:57:53Z</time>
      </trkpt>
      <trkpt lat="39.522982633232" lon="2.538235875555">
        <ele>3.8</ele>
        <time>2019-10-27T09:57:54Z</time>
      </trkpt>
      <trkpt lat="39.523014987366" lon="2.538255908296">
        <ele>3.8</ele>
        <time>2019-10-27T09:57:55Z</time>
      </trkpt>
      <trkpt lat="39.523049269337" lon="2.538275186666">
        <ele>3.8</ele>
        <time>2019-10-27T09:57:56Z</time>
      </trkpt>
      <trkpt lat="39.523081874928" lon="2.538295638502">
        <ele>3.6</ele>
        <time>2019-10-27T09:57:57Z</time>
      </trkpt>
      <trkpt lat="39.523118671469" lon="2.53831676089">
        <ele>3.6</ele>
        <time>2019-10-27T09:57:58Z</time>
      </trkpt>
      <trkpt lat="39.52315462982" lon="2.538338889106">
        <ele>3.4</ele>
        <time>2019-10-27T09:57:59Z</time>
      </trkpt>
      <trkpt lat="39.523189498524" lon="2.538362358426">
        <ele>3.2</ele>
        <time>2019-10-27T09:58:00Z</time>
      </trkpt>
      <trkpt lat="39.523225121599" lon="2.538386749755">
        <ele>3</ele>
        <time>2019-10-27T09:58:01Z</time>
      </trkpt>
      <trkpt lat="39.523261331407" lon="2.538409380885">
        <ele>3</ele>
        <time>2019-10-27T09:58:02Z</time>
      </trkpt>
      <trkpt lat="39.523298630862" lon="2.538430922368">
        <ele>3</ele>
        <time>2019-10-27T09:58:03Z</time>
      </trkpt>
      <trkpt lat="39.523331655548" lon="2.53845673862">
        <ele>3</ele>
        <time>2019-10-27T09:58:04Z</time>
      </trkpt>
      <trkpt lat="39.523362417121" lon="2.538483812157">
        <ele>3</ele>
        <time>2019-10-27T09:58:05Z</time>
      </trkpt>
      <trkpt lat="39.523392256685" lon="2.538512478255">
        <ele>2.8</ele>
        <time>2019-10-27T09:58:06Z</time>
      </trkpt>
      <trkpt lat="39.523421677154" lon="2.538540473801">
        <ele>2.8</ele>
        <time>2019-10-27T09:58:07Z</time>
      </trkpt>
      <trkpt lat="39.523451851994" lon="2.538565787139">
        <ele>2.8</ele>
        <time>2019-10-27T09:58:08Z</time>
      </trkpt>
      <trkpt lat="39.523481356282" lon="2.538590178468">
        <ele>2.8</ele>
        <time>2019-10-27T09:58:09Z</time>
      </trkpt>
      <trkpt lat="39.523508262181" lon="2.538614737435">
        <ele>2.8</ele>
        <time>2019-10-27T09:58:10Z</time>
      </trkpt>
      <trkpt lat="39.523537431193" lon="2.538637536203">
        <ele>2.8</ele>
        <time>2019-10-27T09:58:11Z</time>
      </trkpt>
      <trkpt lat="39.523567354576" lon="2.538664777378">
        <ele>2.8</ele>
        <time>2019-10-27T09:58:12Z</time>
      </trkpt>
      <trkpt lat="39.523594847208" lon="2.538693694933">
        <ele>2.8</ele>
        <time>2019-10-27T09:58:13Z</time>
      </trkpt>
      <trkpt lat="39.523621836926" lon="2.538724707963">
        <ele>2.8</ele>
        <time>2019-10-27T09:58:14Z</time>
      </trkpt>
      <trkpt lat="39.523649664834" lon="2.53875848702">
        <ele>2.8</ele>
        <time>2019-10-27T09:58:15Z</time>
      </trkpt>
      <trkpt lat="39.523678414751" lon="2.538791092611">
        <ele>2.8</ele>
        <time>2019-10-27T09:58:16Z</time>
      </trkpt>
      <trkpt lat="39.523708002858" lon="2.538822860012">
        <ele>2.8</ele>
        <time>2019-10-27T09:58:17Z</time>
      </trkpt>
      <trkpt lat="39.52376315576" lon="2.538884550796">
        <ele>2.8</ele>
        <time>2019-10-27T09:58:19Z</time>
      </trkpt>
      <trkpt lat="39.523792408591" lon="2.538919754776">
        <ele>2.8</ele>
        <time>2019-10-27T09:58:20Z</time>
      </trkpt>
      <trkpt lat="39.523826606743" lon="2.538960406991">
        <ele>2.8</ele>
        <time>2019-10-27T09:58:21Z</time>
      </trkpt>
      <trkpt lat="39.523882597835" lon="2.539029557666">
        <ele>2.8</ele>
        <time>2019-10-27T09:58:23Z</time>
      </trkpt>
      <trkpt lat="39.523909168458" lon="2.539062666171">
        <ele>2.8</ele>
        <time>2019-10-27T09:58:24Z</time>
      </trkpt>
      <trkpt lat="39.523935319986" lon="2.539095020305">
        <ele>2.8</ele>
        <time>2019-10-27T09:58:25Z</time>
      </trkpt>
      <trkpt lat="39.523960381867" lon="2.539125865697">
        <ele>2.8</ele>
        <time>2019-10-27T09:58:26Z</time>
      </trkpt>
      <trkpt lat="39.523982426264" lon="2.539160147668">
        <ele>2.8</ele>
        <time>2019-10-27T09:58:27Z</time>
      </trkpt>
      <trkpt lat="39.523999273883" lon="2.539196692752">
        <ele>2.8</ele>
        <time>2019-10-27T09:58:28Z</time>
      </trkpt>
      <trkpt lat="39.524013690751" lon="2.539231142361">
        <ele>2.8</ele>
        <time>2019-10-27T09:58:29Z</time>
      </trkpt>
      <trkpt lat="39.52402886199" lon="2.539261484839">
        <ele>3</ele>
        <time>2019-10-27T09:58:30Z</time>
      </trkpt>
      <trkpt lat="39.524042524487" lon="2.539294593344">
        <ele>3</ele>
        <time>2019-10-27T09:58:31Z</time>
      </trkpt>
      <trkpt lat="39.524057276631" lon="2.539330886971">
        <ele>3</ele>
        <time>2019-10-27T09:58:32Z</time>
      </trkpt>
      <trkpt lat="39.52407077149" lon="2.539369276073">
        <ele>3</ele>
        <time>2019-10-27T09:58:33Z</time>
      </trkpt>
      <trkpt lat="39.524084853082" lon="2.539411604668">
        <ele>3</ele>
        <time>2019-10-27T09:58:34Z</time>
      </trkpt>
      <trkpt lat="39.524099437588" lon="2.539454519996">
        <ele>3</ele>
        <time>2019-10-27T09:58:35Z</time>
      </trkpt>
      <trkpt lat="39.524115279379" lon="2.539496010401">
        <ele>3</ele>
        <time>2019-10-27T09:58:36Z</time>
      </trkpt>
      <trkpt lat="39.524134390111" lon="2.539534902417">
        <ele>3.2</ele>
        <time>2019-10-27T09:58:37Z</time>
      </trkpt>
      <trkpt lat="39.524154422852" lon="2.539570190216">
        <ele>3.2</ele>
        <time>2019-10-27T09:58:38Z</time>
      </trkpt>
      <trkpt lat="39.524176467249" lon="2.539604723644">
        <ele>3.2</ele>
        <time>2019-10-27T09:58:39Z</time>
      </trkpt>
      <trkpt lat="39.52419817637" lon="2.53963942471">
        <ele>3.2</ele>
        <time>2019-10-27T09:58:40Z</time>
      </trkpt>
      <trkpt lat="39.524219047301" lon="2.539675634518">
        <ele>3.2</ele>
        <time>2019-10-27T09:58:41Z</time>
      </trkpt>
      <trkpt lat="39.524241929888" lon="2.539713269249">
        <ele>3.2</ele>
        <time>2019-10-27T09:58:42Z</time>
      </trkpt>
      <trkpt lat="39.524263890466" lon="2.539749311419">
        <ele>3.2</ele>
        <time>2019-10-27T09:58:43Z</time>
      </trkpt>
      <trkpt lat="39.524285851044" lon="2.539784515399">
        <ele>3.2</ele>
        <time>2019-10-27T09:58:44Z</time>
      </trkpt>
      <trkpt lat="39.524308314536" lon="2.539818462094">
        <ele>3.2</ele>
        <time>2019-10-27T09:58:45Z</time>
      </trkpt>
      <trkpt lat="39.524329017829" lon="2.539850732409">
        <ele>3.2</ele>
        <time>2019-10-27T09:58:46Z</time>
      </trkpt>
      <trkpt lat="39.524350056398" lon="2.539881158706">
        <ele>3.2</ele>
        <time>2019-10-27T09:58:47Z</time>
      </trkpt>
      <trkpt lat="39.524369921501" lon="2.539910243899">
        <ele>3.2</ele>
        <time>2019-10-27T09:58:48Z</time>
      </trkpt>
      <trkpt lat="39.524389618966" lon="2.539937149798">
        <ele>3.2</ele>
        <time>2019-10-27T09:58:49Z</time>
      </trkpt>
      <trkpt lat="39.524410322259" lon="2.539961876403">
        <ele>3.2</ele>
        <time>2019-10-27T09:58:50Z</time>
      </trkpt>
      <trkpt lat="39.524428594801" lon="2.539990877777">
        <ele>3.2</ele>
        <time>2019-10-27T09:58:51Z</time>
      </trkpt>
      <trkpt lat="39.524441419108" lon="2.540025075929">
        <ele>3.2</ele>
        <time>2019-10-27T09:58:52Z</time>
      </trkpt>
      <trkpt lat="39.524455081605" lon="2.540058603529">
        <ele>3.2</ele>
        <time>2019-10-27T09:58:53Z</time>
      </trkpt>
      <trkpt lat="39.524471342491" lon="2.540089448921">
        <ele>3.2</ele>
        <time>2019-10-27T09:58:54Z</time>
      </trkpt>
      <trkpt lat="39.524490034128" lon="2.540119539942">
        <ele>3.4</ele>
        <time>2019-10-27T09:58:55Z</time>
      </trkpt>
      <trkpt lat="39.524509228679" lon="2.540147451669">
        <ele>3.4</ele>
        <time>2019-10-27T09:58:56Z</time>
      </trkpt>
      <trkpt lat="39.524527668859" lon="2.5401767045">
        <ele>3.4</ele>
        <time>2019-10-27T09:58:57Z</time>
      </trkpt>
      <trkpt lat="39.524545689944" lon="2.540208890996">
        <ele>3.4</ele>
        <time>2019-10-27T09:58:58Z</time>
      </trkpt>
      <trkpt lat="39.5245644654" lon="2.540240155483">
        <ele>3.4</ele>
        <time>2019-10-27T09:58:59Z</time>
      </trkpt>
      <trkpt lat="39.524585755426" lon="2.540269240676">
        <ele>3.4</ele>
        <time>2019-10-27T09:59:00Z</time>
      </trkpt>
      <trkpt lat="39.524607464547" lon="2.540296481851">
        <ele>3.4</ele>
        <time>2019-10-27T09:59:01Z</time>
      </trkpt>
      <trkpt lat="39.524626994374" lon="2.540323723026">
        <ele>3.6</ele>
        <time>2019-10-27T09:59:02Z</time>
      </trkpt>
      <trkpt lat="39.524646691839" lon="2.540350796563">
        <ele>3.6</ele>
        <time>2019-10-27T09:59:03Z</time>
      </trkpt>
      <trkpt lat="39.524673011005" lon="2.54038038467">
        <ele>3.8</ele>
        <time>2019-10-27T09:59:04Z</time>
      </trkpt>
      <trkpt lat="39.524697569972" lon="2.540404775999">
        <ele>3.6</ele>
        <time>2019-10-27T09:59:05Z</time>
      </trkpt>
      <trkpt lat="39.524721961301" lon="2.540426904215">
        <ele>3.6</ele>
        <time>2019-10-27T09:59:06Z</time>
      </trkpt>
      <trkpt lat="39.524747442277" lon="2.540448445698">
        <ele>3.6</ele>
        <time>2019-10-27T09:59:07Z</time>
      </trkpt>
      <trkpt lat="39.524768480846" lon="2.540463616937">
        <ele>3.6</ele>
        <time>2019-10-27T09:59:08Z</time>
      </trkpt>
      <trkpt lat="39.524787926854" lon="2.540479542547">
        <ele>3.6</ele>
        <time>2019-10-27T09:59:09Z</time>
      </trkpt>
      <trkpt lat="39.52480837869" lon="2.540503347143">
        <ele>3.6</ele>
        <time>2019-10-27T09:59:10Z</time>
      </trkpt>
      <trkpt lat="39.52482598068" lon="2.540528492843">
        <ele>3.6</ele>
        <time>2019-10-27T09:59:11Z</time>
      </trkpt>
      <trkpt lat="39.524840565186" lon="2.540557075122">
        <ele>3.6</ele>
        <time>2019-10-27T09:59:12Z</time>
      </trkpt>
      <trkpt lat="39.524850958742" lon="2.540585573582">
        <ele>3.8</ele>
        <time>2019-10-27T09:59:13Z</time>
      </trkpt>
      <trkpt lat="39.524863112497" lon="2.540613150033">
        <ele>3.8</ele>
        <time>2019-10-27T09:59:14Z</time>
      </trkpt>
      <trkpt lat="39.524872332587" lon="2.540639217742">
        <ele>3.8</ele>
        <time>2019-10-27T09:59:15Z</time>
      </trkpt>
      <trkpt lat="39.524882390867" lon="2.540668386754">
        <ele>3.8</ele>
        <time>2019-10-27T09:59:16Z</time>
      </trkpt>
      <trkpt lat="39.524884737799" lon="2.54069889687">
        <ele>3.8</ele>
        <time>2019-10-27T09:59:17Z</time>
      </trkpt>
      <trkpt lat="39.524884821618" lon="2.540728149701">
        <ele>3.8</ele>
        <time>2019-10-27T09:59:18Z</time>
      </trkpt>
      <trkpt lat="39.52488716855" lon="2.540757821627">
        <ele>3.8</ele>
        <time>2019-10-27T09:59:19Z</time>
      </trkpt>
      <trkpt lat="39.524895382812" lon="2.540786739182">
        <ele>4</ele>
        <time>2019-10-27T09:59:20Z</time>
      </trkpt>
      <trkpt lat="39.524909715861" lon="2.540818925678">
        <ele>4</ele>
        <time>2019-10-27T09:59:21Z</time>
      </trkpt>
      <trkpt lat="39.524924216548" lon="2.54085647659">
        <ele>4</ele>
        <time>2019-10-27T09:59:22Z</time>
      </trkpt>
      <trkpt lat="39.524936705579" lon="2.540891429113">
        <ele>4</ele>
        <time>2019-10-27T09:59:23Z</time>
      </trkpt>
      <trkpt lat="39.524945758031" lon="2.54092520817">
        <ele>4</ele>
        <time>2019-10-27T09:59:24Z</time>
      </trkpt>
      <trkpt lat="39.524953301741" lon="2.540959741598">
        <ele>4</ele>
        <time>2019-10-27T09:59:25Z</time>
      </trkpt>
      <trkpt lat="39.524956989777" lon="2.540995448492">
        <ele>4</ele>
        <time>2019-10-27T09:59:26Z</time>
      </trkpt>
      <trkpt lat="39.524958330881" lon="2.541031406843">
        <ele>4</ele>
        <time>2019-10-27T09:59:27Z</time>
      </trkpt>
      <trkpt lat="39.524954475207" lon="2.541066610823">
        <ele>4</ele>
        <time>2019-10-27T09:59:28Z</time>
      </trkpt>
      <trkpt lat="39.524945758031" lon="2.541100473699">
        <ele>4.2</ele>
        <time>2019-10-27T09:59:29Z</time>
      </trkpt>
      <trkpt lat="39.524938381959" lon="2.541135761498">
        <ele>4.2</ele>
        <time>2019-10-27T09:59:30Z</time>
      </trkpt>
      <trkpt lat="39.524932933724" lon="2.541172725677">
        <ele>4.2</ele>
        <time>2019-10-27T09:59:31Z</time>
      </trkpt>
      <trkpt lat="39.524931927896" lon="2.541210863322">
        <ele>4.4</ele>
        <time>2019-10-27T09:59:32Z</time>
      </trkpt>
      <trkpt lat="39.524935615932" lon="2.541248162777">
        <ele>4.4</ele>
        <time>2019-10-27T09:59:33Z</time>
      </trkpt>
      <trkpt lat="39.524941399443" lon="2.541284959318">
        <ele>4.4</ele>
        <time>2019-10-27T09:59:34Z</time>
      </trkpt>
      <trkpt lat="39.524946596221" lon="2.541322258773">
        <ele>4.4</ele>
        <time>2019-10-27T09:59:35Z</time>
      </trkpt>
      <trkpt lat="39.524950451895" lon="2.541359222952">
        <ele>4.6</ele>
        <time>2019-10-27T09:59:36Z</time>
      </trkpt>
      <trkpt lat="39.524953720836" lon="2.541395181303">
        <ele>4.6</ele>
        <time>2019-10-27T09:59:37Z</time>
      </trkpt>
      <trkpt lat="39.524958330881" lon="2.541431055835">
        <ele>4.6</ele>
        <time>2019-10-27T09:59:38Z</time>
      </trkpt>
      <trkpt lat="39.524962940926" lon="2.541466175996">
        <ele>4.8</ele>
        <time>2019-10-27T09:59:39Z</time>
      </trkpt>
      <trkpt lat="39.524965706953" lon="2.541500960881">
        <ele>4.8</ele>
        <time>2019-10-27T09:59:40Z</time>
      </trkpt>
      <trkpt lat="39.524967299514" lon="2.54153960144">
        <ele>4.8</ele>
        <time>2019-10-27T09:59:41Z</time>
      </trkpt>
      <trkpt lat="39.524966209867" lon="2.541578325818">
        <ele>4.8</ele>
        <time>2019-10-27T09:59:42Z</time>
      </trkpt>
      <trkpt lat="39.524962270374" lon="2.541616128187">
        <ele>4.8</ele>
        <time>2019-10-27T09:59:43Z</time>
      </trkpt>
      <trkpt lat="39.524957325053" lon="2.541654517289">
        <ele>4.8</ele>
        <time>2019-10-27T09:59:44Z</time>
      </trkpt>
      <trkpt lat="39.524949278429" lon="2.541698103169">
        <ele>4.8</ele>
        <time>2019-10-27T09:59:45Z</time>
      </trkpt>
      <trkpt lat="39.524938968692" lon="2.541737079004">
        <ele>4.8</ele>
        <time>2019-10-27T09:59:46Z</time>
      </trkpt>
      <trkpt lat="39.524929329507" lon="2.541772953536">
        <ele>4.8</ele>
        <time>2019-10-27T09:59:47Z</time>
      </trkpt>
      <trkpt lat="39.524922875444" lon="2.541809917715">
        <ele>5</ele>
        <time>2019-10-27T09:59:48Z</time>
      </trkpt>
      <trkpt lat="39.524916924295" lon="2.541849145007">
        <ele>5</ele>
        <time>2019-10-27T09:59:49Z</time>
      </trkpt>
      <trkpt lat="39.524909380585" lon="2.541891473602">
        <ele>5</ele>
        <time>2019-10-27T09:59:50Z</time>
      </trkpt>
      <trkpt lat="39.524903429436" lon="2.541930114161">
        <ele>5</ele>
        <time>2019-10-27T09:59:51Z</time>
      </trkpt>
      <trkpt lat="39.524897813563" lon="2.541968084168">
        <ele>5</ele>
        <time>2019-10-27T09:59:52Z</time>
      </trkpt>
      <trkpt lat="39.524891778595" lon="2.542002701415">
        <ele>5</ele>
        <time>2019-10-27T09:59:53Z</time>
      </trkpt>
      <trkpt lat="39.524885240713" lon="2.542036312834">
        <ele>5</ele>
        <time>2019-10-27T09:59:54Z</time>
      </trkpt>
      <trkpt lat="39.524882809962" lon="2.542069505158">
        <ele>5.2</ele>
        <time>2019-10-27T09:59:55Z</time>
      </trkpt>
      <trkpt lat="39.524884821618" lon="2.542097919799">
        <ele>5.2</ele>
        <time>2019-10-27T09:59:56Z</time>
      </trkpt>
      <trkpt lat="39.524891024224" lon="2.542115521789">
        <ele>5.2</ele>
        <time>2019-10-27T09:59:57Z</time>
      </trkpt>
      <trkpt lat="39.524900998685" lon="2.542127759363">
        <ele>5.2</ele>
        <time>2019-10-27T09:59:58Z</time>
      </trkpt>
      <trkpt lat="39.524910554051" lon="2.542140918946">
        <ele>5.2</ele>
        <time>2019-10-27T09:59:59Z</time>
      </trkpt>
      <trkpt lat="39.524917678666" lon="2.542155419633">
        <ele>5.4</ele>
        <time>2019-10-27T10:00:00Z</time>
      </trkpt>
      <trkpt lat="39.524919690322" lon="2.542179056591">
        <ele>5.4</ele>
        <time>2019-10-27T10:00:01Z</time>
      </trkpt>
      <trkpt lat="39.524915164096" lon="2.542209901983">
        <ele>5.6</ele>
        <time>2019-10-27T10:00:02Z</time>
      </trkpt>
      <trkpt lat="39.524910721689" lon="2.542231611104">
        <ele>5.6</ele>
        <time>2019-10-27T10:00:03Z</time>
      </trkpt>
      <trkpt lat="39.524899992857" lon="2.542253404044">
        <ele>5.6</ele>
        <time>2019-10-27T10:00:04Z</time>
      </trkpt>
      <trkpt lat="39.524883480514" lon="2.542276202812">
        <ele>5.8</ele>
        <time>2019-10-27T10:00:05Z</time>
      </trkpt>
      <trkpt lat="39.524863112497" lon="2.542307215842">
        <ele>5.8</ele>
        <time>2019-10-27T10:00:06Z</time>
      </trkpt>
      <trkpt lat="39.524842493023" lon="2.542338899424">
        <ele>5.8</ele>
        <time>2019-10-27T10:00:07Z</time>
      </trkpt>
      <trkpt lat="39.524822963196" lon="2.542374103404">
        <ele>5.8</ele>
        <time>2019-10-27T10:00:08Z</time>
      </trkpt>
      <trkpt lat="39.52480502593" lon="2.542405619348">
        <ele>6</ele>
        <time>2019-10-27T10:00:09Z</time>
      </trkpt>
      <trkpt lat="39.524790944338" lon="2.542439901319">
        <ele>6</ele>
        <time>2019-10-27T10:00:10Z</time>
      </trkpt>
      <trkpt lat="39.524785244646" lon="2.542473931833">
        <ele>6</ele>
        <time>2019-10-27T10:00:11Z</time>
      </trkpt>
      <trkpt lat="39.524790273786" lon="2.542504609587">
        <ele>6</ele>
        <time>2019-10-27T10:00:12Z</time>
      </trkpt>
      <trkpt lat="39.52480502593" lon="2.542529000916">
        <ele>6</ele>
        <time>2019-10-27T10:00:13Z</time>
      </trkpt>
      <trkpt lat="39.524823717567" lon="2.542551129132">
        <ele>6</ele>
        <time>2019-10-27T10:00:14Z</time>
      </trkpt>
      <trkpt lat="39.52484274448" lon="2.542576107194">
        <ele>6</ele>
        <time>2019-10-27T10:00:15Z</time>
      </trkpt>
      <trkpt lat="39.524860430289" lon="2.542598989781">
        <ele>6</ele>
        <time>2019-10-27T10:00:16Z</time>
      </trkpt>
      <trkpt lat="39.524882055591" lon="2.542627739698">
        <ele>6</ele>
        <time>2019-10-27T10:00:17Z</time>
      </trkpt>
      <trkpt lat="39.524901333961" lon="2.542655316149">
        <ele>6.2</ele>
        <time>2019-10-27T10:00:18Z</time>
      </trkpt>
      <trkpt lat="39.524924468005" lon="2.542688927568">
        <ele>6.4</ele>
        <time>2019-10-27T10:00:19Z</time>
      </trkpt>
      <trkpt lat="39.524947769687" lon="2.542721114064">
        <ele>6.4</ele>
        <time>2019-10-27T10:00:20Z</time>
      </trkpt>
      <trkpt lat="39.524970065541" lon="2.542752378551">
        <ele>6.6</ele>
        <time>2019-10-27T10:00:21Z</time>
      </trkpt>
      <trkpt lat="39.524994205413" lon="2.542783056305">
        <ele>6.8</ele>
        <time>2019-10-27T10:00:22Z</time>
      </trkpt>
      <trkpt lat="39.52501624981" lon="2.542811387127">
        <ele>7</ele>
        <time>2019-10-27T10:00:23Z</time>
      </trkpt>
      <trkpt lat="39.525037120741" lon="2.54283963413">
        <ele>7.2</ele>
        <time>2019-10-27T10:00:24Z</time>
      </trkpt>
      <trkpt lat="39.525057069663" lon="2.542868803142">
        <ele>7.4</ele>
        <time>2019-10-27T10:00:25Z</time>
      </trkpt>
      <trkpt lat="39.525078359689" lon="2.542897804516">
        <ele>7.6</ele>
        <time>2019-10-27T10:00:26Z</time>
      </trkpt>
      <trkpt lat="39.525100404086" lon="2.542926722071">
        <ele>7.8</ele>
        <time>2019-10-27T10:00:27Z</time>
      </trkpt>
      <trkpt lat="39.525123035216" lon="2.542954047065">
        <ele>8</ele>
        <time>2019-10-27T10:00:28Z</time>
      </trkpt>
      <trkpt lat="39.52514449288" lon="2.542985563009">
        <ele>8.2</ele>
        <time>2019-10-27T10:00:29Z</time>
      </trkpt>
      <trkpt lat="39.52516209487" lon="2.543015234935">
        <ele>8.6</ele>
        <time>2019-10-27T10:00:30Z</time>
      </trkpt>
      <trkpt lat="39.525176847014" lon="2.543042559929">
        <ele>9</ele>
        <time>2019-10-27T10:00:31Z</time>
      </trkpt>
      <trkpt lat="39.525191682977" lon="2.543069633466">
        <ele>9.2</ele>
        <time>2019-10-27T10:00:32Z</time>
      </trkpt>
      <trkpt lat="39.525210458433" lon="2.543101317048">
        <ele>9.6</ele>
        <time>2019-10-27T10:00:33Z</time>
      </trkpt>
      <trkpt lat="39.525225881129" lon="2.543128725861">
        <ele>10.2</ele>
        <time>2019-10-27T10:00:34Z</time>
      </trkpt>
      <trkpt lat="39.525241806739" lon="2.543155380303">
        <ele>10.4</ele>
        <time>2019-10-27T10:00:35Z</time>
      </trkpt>
      <trkpt lat="39.525259744005" lon="2.543180358365">
        <ele>10.8</ele>
        <time>2019-10-27T10:00:36Z</time>
      </trkpt>
      <trkpt lat="39.525279860565" lon="2.543205001151">
        <ele>11.2</ele>
        <time>2019-10-27T10:00:37Z</time>
      </trkpt>
      <trkpt lat="39.52529704346" lon="2.543229643937">
        <ele>11.4</ele>
        <time>2019-10-27T10:00:38Z</time>
      </trkpt>
      <trkpt lat="39.525317662934" lon="2.543257471845">
        <ele>11.8</ele>
        <time>2019-10-27T10:00:39Z</time>
      </trkpt>
      <trkpt lat="39.525336606028" lon="2.543280857346">
        <ele>12.2</ele>
        <time>2019-10-27T10:00:40Z</time>
      </trkpt>
      <trkpt lat="39.525353453647" lon="2.543300303354">
        <ele>12.4</ele>
        <time>2019-10-27T10:00:41Z</time>
      </trkpt>
      <trkpt lat="39.525369546895" lon="2.54332578433">
        <ele>12.8</ele>
        <time>2019-10-27T10:00:42Z</time>
      </trkpt>
      <trkpt lat="39.525384801953" lon="2.543351097668">
        <ele>13.2</ele>
        <time>2019-10-27T10:00:43Z</time>
      </trkpt>
      <trkpt lat="39.525400643744" lon="2.543377165377">
        <ele>13.4</ele>
        <time>2019-10-27T10:00:44Z</time>
      </trkpt>
      <trkpt lat="39.525419503019" lon="2.543400969973">
        <ele>13.6</ele>
        <time>2019-10-27T10:00:45Z</time>
      </trkpt>
      <trkpt lat="39.525437691742" lon="2.543420918895">
        <ele>14</ele>
        <time>2019-10-27T10:00:46Z</time>
      </trkpt>
      <trkpt lat="39.525456131922" lon="2.543444974948">
        <ele>14.2</ele>
        <time>2019-10-27T10:00:47Z</time>
      </trkpt>
      <trkpt lat="39.525471554618" lon="2.543470120648">
        <ele>14.4</ele>
        <time>2019-10-27T10:00:48Z</time>
      </trkpt>
      <trkpt lat="39.525491252083" lon="2.543492081226">
        <ele>14.8</ele>
        <time>2019-10-27T10:00:49Z</time>
      </trkpt>
      <trkpt lat="39.525509021711" lon="2.543513706528">
        <ele>15</ele>
        <time>2019-10-27T10:00:50Z</time>
      </trkpt>
      <trkpt lat="39.525524947321" lon="2.543534661278">
        <ele>15.2</ele>
        <time>2019-10-27T10:00:51Z</time>
      </trkpt>
      <trkpt lat="39.525539783284" lon="2.543554945476">
        <ele>15.6</ele>
        <time>2019-10-27T10:00:52Z</time>
      </trkpt>
      <trkpt lat="39.525556630903" lon="2.54357556495">
        <ele>15.8</ele>
        <time>2019-10-27T10:00:53Z</time>
      </trkpt>
      <trkpt lat="39.525572053599" lon="2.543595765329">
        <ele>16</ele>
        <time>2019-10-27T10:00:54Z</time>
      </trkpt>
      <trkpt lat="39.525587392476" lon="2.543617809726">
        <ele>16.2</ele>
        <time>2019-10-27T10:00:55Z</time>
      </trkpt>
      <trkpt lat="39.52559963005" lon="2.543636836639">
        <ele>16.4</ele>
        <time>2019-10-27T10:00:56Z</time>
      </trkpt>
      <trkpt lat="39.525620333343" lon="2.543661563244">
        <ele>16.8</ele>
        <time>2019-10-27T10:00:57Z</time>
      </trkpt>
      <trkpt lat="39.525638689704" lon="2.543684864926">
        <ele>17</ele>
        <time>2019-10-27T10:00:58Z</time>
      </trkpt>
      <trkpt lat="39.525654363857" lon="2.543707579875">
        <ele>17</ele>
        <time>2019-10-27T10:00:59Z</time>
      </trkpt>
      <trkpt lat="39.5256708762" lon="2.543731300652">
        <ele>17</ele>
        <time>2019-10-27T10:01:00Z</time>
      </trkpt>
      <trkpt lat="39.525689232561" lon="2.543756446352">
        <ele>17</ele>
        <time>2019-10-27T10:01:01Z</time>
      </trkpt>
      <trkpt lat="39.525704236162" lon="2.543776814369">
        <ele>17</ele>
        <time>2019-10-27T10:01:02Z</time>
      </trkpt>
      <trkpt lat="39.525711444596" lon="2.543790309228">
        <ele>17</ele>
        <time>2019-10-27T10:01:03Z</time>
      </trkpt>
      <trkpt lat="39.525712366605" lon="2.543800032232">
        <ele>17</ele>
        <time>2019-10-27T10:01:04Z</time>
      </trkpt>
      <trkpt lat="39.525717228107" lon="2.543806486295">
        <ele>17</ele>
        <time>2019-10-27T10:01:05Z</time>
      </trkpt>
      <trkpt lat="39.52572535855" lon="2.543817047489">
        <ele>17</ele>
        <time>2019-10-27T10:01:06Z</time>
      </trkpt>
      <trkpt lat="39.525768609154" lon="2.543850072175">
        <ele>16.4</ele>
        <time>2019-10-27T10:01:38Z</time>
      </trkpt>
      <trkpt lat="39.525787636067" lon="2.543872787124">
        <ele>16.2</ele>
        <time>2019-10-27T10:01:39Z</time>
      </trkpt>
      <trkpt lat="39.525810686292" lon="2.54389910629">
        <ele>16.2</ele>
        <time>2019-10-27T10:01:40Z</time>
      </trkpt>
      <trkpt lat="39.525833987974" lon="2.54392509018">
        <ele>16.2</ele>
        <time>2019-10-27T10:01:41Z</time>
      </trkpt>
      <trkpt lat="39.52585946895" lon="2.543954929744">
        <ele>16.2</ele>
        <time>2019-10-27T10:01:42Z</time>
      </trkpt>
      <trkpt lat="39.52588377646" lon="2.543984014937">
        <ele>16</ele>
        <time>2019-10-27T10:01:43Z</time>
      </trkpt>
      <trkpt lat="39.525905988495" lon="2.544003628583">
        <ele>16</ele>
        <time>2019-10-27T10:01:44Z</time>
      </trkpt>
      <trkpt lat="39.525926356512" lon="2.544019721831">
        <ele>16</ele>
        <time>2019-10-27T10:01:45Z</time>
      </trkpt>
      <trkpt lat="39.525947814176" lon="2.544033384328">
        <ele>16</ele>
        <time>2019-10-27T10:01:46Z</time>
      </trkpt>
      <trkpt lat="39.525970026211" lon="2.544040844219">
        <ele>15.8</ele>
        <time>2019-10-27T10:01:47Z</time>
      </trkpt>
      <trkpt lat="39.52599693211" lon="2.544041514771">
        <ele>15.6</ele>
        <time>2019-10-27T10:01:48Z</time>
      </trkpt>
      <trkpt lat="39.526026604036" lon="2.544029696292">
        <ele>15.2</ele>
        <time>2019-10-27T10:01:49Z</time>
      </trkpt>
      <trkpt lat="39.526052587926" lon="2.544009998827">
        <ele>15</ele>
        <time>2019-10-27T10:01:50Z</time>
      </trkpt>
      <trkpt lat="39.526076643979" lon="2.543986864783">
        <ele>14.6</ele>
        <time>2019-10-27T10:01:51Z</time>
      </trkpt>
      <trkpt lat="39.526101286765" lon="2.543959288332">
        <ele>14</ele>
        <time>2019-10-27T10:01:52Z</time>
      </trkpt>
      <trkpt lat="39.52612936613" lon="2.543922910886">
        <ele>14</ele>
        <time>2019-10-27T10:01:53Z</time>
      </trkpt>
      <trkpt lat="39.526157529314" lon="2.543883515956">
        <ele>13.6</ele>
        <time>2019-10-27T10:01:54Z</time>
      </trkpt>
      <trkpt lat="39.526186614507" lon="2.543843115198">
        <ele>13.4</ele>
        <time>2019-10-27T10:01:55Z</time>
      </trkpt>
      <trkpt lat="39.526216286433" lon="2.543803301173">
        <ele>13.4</ele>
        <time>2019-10-27T10:01:56Z</time>
      </trkpt>
      <trkpt lat="39.526244449617" lon="2.543766169356">
        <ele>12.6</ele>
        <time>2019-10-27T10:01:57Z</time>
      </trkpt>
      <trkpt lat="39.526269092403" lon="2.543730127186">
        <ele>12</ele>
        <time>2019-10-27T10:01:58Z</time>
      </trkpt>
      <trkpt lat="39.526293148456" lon="2.543689977885">
        <ele>11.6</ele>
        <time>2019-10-27T10:01:59Z</time>
      </trkpt>
      <trkpt lat="39.526318126518" lon="2.543648403661">
        <ele>11.4</ele>
        <time>2019-10-27T10:02:00Z</time>
      </trkpt>
      <trkpt lat="39.52634561915" lon="2.543606494161">
        <ele>11</ele>
        <time>2019-10-27T10:02:01Z</time>
      </trkpt>
      <trkpt lat="39.526376380723" lon="2.543568524154">
        <ele>10.8</ele>
        <time>2019-10-27T10:02:02Z</time>
      </trkpt>
      <trkpt lat="39.526407561391" lon="2.543535415649">
        <ele>10.4</ele>
        <time>2019-10-27T10:02:03Z</time>
      </trkpt>
      <trkpt lat="39.526437903869" lon="2.543503229153">
        <ele>10.2</ele>
        <time>2019-10-27T10:02:04Z</time>
      </trkpt>
      <trkpt lat="39.5264671567" lon="2.543467857535">
        <ele>10</ele>
        <time>2019-10-27T10:02:05Z</time>
      </trkpt>
      <trkpt lat="39.526495822798" lon="2.543433240288">
        <ele>9.6</ele>
        <time>2019-10-27T10:02:06Z</time>
      </trkpt>
      <trkpt lat="39.52652415362" lon="2.543399964145">
        <ele>9.4</ele>
        <time>2019-10-27T10:02:07Z</time>
      </trkpt>
      <trkpt lat="39.526552316804" lon="2.543368196744">
        <ele>9.4</ele>
        <time>2019-10-27T10:02:08Z</time>
      </trkpt>
      <trkpt lat="39.526580982902" lon="2.54334003356">
        <ele>9.4</ele>
        <time>2019-10-27T10:02:09Z</time>
      </trkpt>
      <trkpt lat="39.526610319552" lon="2.543314384946">
        <ele>9</ele>
        <time>2019-10-27T10:02:10Z</time>
      </trkpt>
      <trkpt lat="39.526639740021" lon="2.543293011101">
        <ele>9</ele>
        <time>2019-10-27T10:02:11Z</time>
      </trkpt>
      <trkpt lat="39.526669411947" lon="2.543276498758">
        <ele>9</ele>
        <time>2019-10-27T10:02:12Z</time>
      </trkpt>
      <trkpt lat="39.526699000054" lon="2.543266105202">
        <ele>8.8</ele>
        <time>2019-10-27T10:02:13Z</time>
      </trkpt>
      <trkpt lat="39.526727917609" lon="2.543258896768">
        <ele>8.8</ele>
        <time>2019-10-27T10:02:14Z</time>
      </trkpt>
      <trkpt lat="39.526757254259" lon="2.543252358886">
        <ele>8.8</ele>
        <time>2019-10-27T10:02:15Z</time>
      </trkpt>
      <trkpt lat="39.526783657244" lon="2.543249006126">
        <ele>8.8</ele>
        <time>2019-10-27T10:02:16Z</time>
      </trkpt>
      <trkpt lat="39.52680578546" lon="2.543247581203">
        <ele>8.8</ele>
        <time>2019-10-27T10:02:17Z</time>
      </trkpt>
      <trkpt lat="39.526829841513" lon="2.543249592859">
        <ele>8.8</ele>
        <time>2019-10-27T10:02:18Z</time>
      </trkpt>
      <trkpt lat="39.526855741584" lon="2.543258896768">
        <ele>8.8</ele>
        <time>2019-10-27T10:02:19Z</time>
      </trkpt>
      <trkpt lat="39.526884659139" lon="2.54327046379">
        <ele>8.8</ele>
        <time>2019-10-27T10:02:20Z</time>
      </trkpt>
      <trkpt lat="39.526909972477" lon="2.54328806578">
        <ele>8.8</ele>
        <time>2019-10-27T10:02:21Z</time>
      </trkpt>
      <trkpt lat="39.526937800385" lon="2.54331069691">
        <ele>8.8</ele>
        <time>2019-10-27T10:02:22Z</time>
      </trkpt>
      <trkpt lat="39.526966466483" lon="2.543334417687">
        <ele>8.8</ele>
        <time>2019-10-27T10:02:23Z</time>
      </trkpt>
      <trkpt lat="39.526993791477" lon="2.543361072129">
        <ele>8.8</ele>
        <time>2019-10-27T10:02:24Z</time>
      </trkpt>
      <trkpt lat="39.527019356272" lon="2.54339200134">
        <ele>8.8</ele>
        <time>2019-10-27T10:02:25Z</time>
      </trkpt>
      <trkpt lat="39.527042741773" lon="2.543426450949">
        <ele>8.8</ele>
        <time>2019-10-27T10:02:26Z</time>
      </trkpt>
      <trkpt lat="39.527064702351" lon="2.543464253318">
        <ele>8.8</ele>
        <time>2019-10-27T10:02:27Z</time>
      </trkpt>
      <trkpt lat="39.527084567454" lon="2.54350599518">
        <ele>8.8</ele>
        <time>2019-10-27T10:02:28Z</time>
      </trkpt>
      <trkpt lat="39.527102839996" lon="2.543551927992">
        <ele>8.8</ele>
        <time>2019-10-27T10:02:29Z</time>
      </trkpt>
      <trkpt lat="39.527118514149" lon="2.543601045926">
        <ele>8.8</ele>
        <time>2019-10-27T10:02:30Z</time>
      </trkpt>
      <trkpt lat="39.527132511922" lon="2.543653097525">
        <ele>8.8</ele>
        <time>2019-10-27T10:02:31Z</time>
      </trkpt>
      <trkpt lat="39.527145671505" lon="2.543706657866">
        <ele>8.8</ele>
        <time>2019-10-27T10:02:32Z</time>
      </trkpt>
      <trkpt lat="39.527157489984" lon="2.543759715293">
        <ele>8.6</ele>
        <time>2019-10-27T10:02:33Z</time>
      </trkpt>
      <trkpt lat="39.527168134997" lon="2.543810593426">
        <ele>8.6</ele>
        <time>2019-10-27T10:02:34Z</time>
      </trkpt>
      <trkpt lat="39.527177438906" lon="2.543857112971">
        <ele>8.6</ele>
        <time>2019-10-27T10:02:35Z</time>
      </trkpt>
      <trkpt lat="39.527186072263" lon="2.543898519557">
        <ele>8.4</ele>
        <time>2019-10-27T10:02:36Z</time>
      </trkpt>
      <trkpt lat="39.527193448335" lon="2.543932466252">
        <ele>8.4</ele>
        <time>2019-10-27T10:02:37Z</time>
      </trkpt>
      <trkpt lat="39.527197723104" lon="2.543957863409">
        <ele>8.4</ele>
        <time>2019-10-27T10:02:38Z</time>
      </trkpt>
      <trkpt lat="39.527204260986" lon="2.543975213942">
        <ele>8.4</ele>
        <time>2019-10-27T10:02:39Z</time>
      </trkpt>
      <trkpt lat="39.527211972334" lon="2.543991055733">
        <ele>8.4</ele>
        <time>2019-10-27T10:02:40Z</time>
      </trkpt>
      <trkpt lat="39.52722739503" lon="2.544005975515">
        <ele>8.4</ele>
        <time>2019-10-27T10:02:41Z</time>
      </trkpt>
      <trkpt lat="39.527250612893" lon="2.544016201433">
        <ele>8.4</ele>
        <time>2019-10-27T10:02:42Z</time>
      </trkpt>
      <trkpt lat="39.527278692258" lon="2.544016369071">
        <ele>8.4</ele>
        <time>2019-10-27T10:02:43Z</time>
      </trkpt>
      <trkpt lat="39.527309118555" lon="2.544009998827">
        <ele>8.4</ele>
        <time>2019-10-27T10:02:44Z</time>
      </trkpt>
      <trkpt lat="39.527340718318" lon="2.544000275823">
        <ele>8.4</ele>
        <time>2019-10-27T10:02:45Z</time>
      </trkpt>
      <trkpt lat="39.527371396072" lon="2.543991474828">
        <ele>8.4</ele>
        <time>2019-10-27T10:02:46Z</time>
      </trkpt>
      <trkpt lat="39.52740090036" lon="2.543984434032">
        <ele>8.4</ele>
        <time>2019-10-27T10:02:47Z</time>
      </trkpt>
      <trkpt lat="39.527429985553" lon="2.543977812331">
        <ele>8.4</ele>
        <time>2019-10-27T10:02:48Z</time>
      </trkpt>
      <trkpt lat="39.52745538271" lon="2.543979237254">
        <ele>8.4</ele>
        <time>2019-10-27T10:02:49Z</time>
      </trkpt>
      <trkpt lat="39.527474409623" lon="2.54399214538">
        <ele>8.6</ele>
        <time>2019-10-27T10:02:50Z</time>
      </trkpt>
      <trkpt lat="39.527484384084" lon="2.544014273596">
        <ele>8.6</ele>
        <time>2019-10-27T10:02:51Z</time>
      </trkpt>
      <trkpt lat="39.527485473731" lon="2.544040844219">
        <ele>8.6</ele>
        <time>2019-10-27T10:02:52Z</time>
      </trkpt>
      <trkpt lat="39.527479857858" lon="2.544071941068">
        <ele>8.6</ele>
        <time>2019-10-27T10:02:53Z</time>
      </trkpt>
      <trkpt lat="39.527470302492" lon="2.544105217211">
        <ele>8.6</ele>
        <time>2019-10-27T10:02:54Z</time>
      </trkpt>
      <trkpt lat="39.527457981099" lon="2.544137236069">
        <ele>8.6</ele>
        <time>2019-10-27T10:02:55Z</time>
      </trkpt>
      <trkpt lat="39.527443145136" lon="2.544167243271">
        <ele>8.6</ele>
        <time>2019-10-27T10:02:56Z</time>
      </trkpt>
      <trkpt lat="39.527428392992" lon="2.544203117803">
        <ele>8.6</ele>
        <time>2019-10-27T10:02:57Z</time>
      </trkpt>
      <trkpt lat="39.527412299744" lon="2.544239243792">
        <ele>8.6</ele>
        <time>2019-10-27T10:02:58Z</time>
      </trkpt>
      <trkpt lat="39.527396457953" lon="2.544280398921">
        <ele>8.6</ele>
        <time>2019-10-27T10:02:59Z</time>
      </trkpt>
      <trkpt lat="39.527380113248" lon="2.544323733344">
        <ele>8.6</ele>
        <time>2019-10-27T10:03:00Z</time>
      </trkpt>
      <trkpt lat="39.527362427439" lon="2.544367319224">
        <ele>8.6</ele>
        <time>2019-10-27T10:03:01Z</time>
      </trkpt>
      <trkpt lat="39.527348178209" lon="2.544410150733">
        <ele>8.6</ele>
        <time>2019-10-27T10:03:02Z</time>
      </trkpt>
      <trkpt lat="39.527333761341" lon="2.544452814604">
        <ele>8.6</ele>
        <time>2019-10-27T10:03:03Z</time>
      </trkpt>
      <trkpt lat="39.527318338645" lon="2.544495646113">
        <ele>8.6</ele>
        <time>2019-10-27T10:03:04Z</time>
      </trkpt>
      <trkpt lat="39.527302329216" lon="2.544535963052">
        <ele>8.6</ele>
        <time>2019-10-27T10:03:05Z</time>
      </trkpt>
      <trkpt lat="39.527285565416" lon="2.544576699086">
        <ele>8.4</ele>
        <time>2019-10-27T10:03:06Z</time>
      </trkpt>
      <trkpt lat="39.527268131064" lon="2.544618608586">
        <ele>8.4</ele>
        <time>2019-10-27T10:03:07Z</time>
      </trkpt>
      <trkpt lat="39.527252708368" lon="2.544663284113">
        <ele>8.4</ele>
        <time>2019-10-27T10:03:08Z</time>
      </trkpt>
      <trkpt lat="39.527238626776" lon="2.544710390391">
        <ele>8.2</ele>
        <time>2019-10-27T10:03:09Z</time>
      </trkpt>
      <trkpt lat="39.527226053926" lon="2.544757496669">
        <ele>8.2</ele>
        <time>2019-10-27T10:03:10Z</time>
      </trkpt>
      <trkpt lat="39.527214486904" lon="2.54480770425">
        <ele>8.2</ele>
        <time>2019-10-27T10:03:11Z</time>
      </trkpt>
      <trkpt lat="39.527206356461" lon="2.544860426401">
        <ele>8.2</ele>
        <time>2019-10-27T10:03:12Z</time>
      </trkpt>
      <trkpt lat="39.527201327321" lon="2.544912645638">
        <ele>8.2</ele>
        <time>2019-10-27T10:03:13Z</time>
      </trkpt>
      <trkpt lat="39.52719889657" lon="2.544962098848">
        <ele>8.2</ele>
        <time>2019-10-27T10:03:14Z</time>
      </trkpt>
      <trkpt lat="39.527197890742" lon="2.54501389899">
        <ele>8.2</ele>
        <time>2019-10-27T10:03:15Z</time>
      </trkpt>
      <trkpt lat="39.527199231846" lon="2.545063687476">
        <ele>8.2</ele>
        <time>2019-10-27T10:03:16Z</time>
      </trkpt>
      <trkpt lat="39.527201075864" lon="2.545112553953">
        <ele>8.2</ele>
        <time>2019-10-27T10:03:17Z</time>
      </trkpt>
      <trkpt lat="39.527205350633" lon="2.545160330783">
        <ele>8.2</ele>
        <time>2019-10-27T10:03:18Z</time>
      </trkpt>
      <trkpt lat="39.527210798868" lon="2.545214813133">
        <ele>8.2</ele>
        <time>2019-10-27T10:03:19Z</time>
      </trkpt>
      <trkpt lat="39.527217755845" lon="2.545265691266">
        <ele>8.2</ele>
        <time>2019-10-27T10:03:20Z</time>
      </trkpt>
      <trkpt lat="39.527227730306" lon="2.545309612422">
        <ele>8.2</ele>
        <time>2019-10-27T10:03:21Z</time>
      </trkpt>
      <trkpt lat="39.527237201853" lon="2.545353030664">
        <ele>8.2</ele>
        <time>2019-10-27T10:03:22Z</time>
      </trkpt>
      <trkpt lat="39.527246757219" lon="2.545396365087">
        <ele>8.4</ele>
        <time>2019-10-27T10:03:23Z</time>
      </trkpt>
      <trkpt lat="39.527256228766" lon="2.545439280415">
        <ele>8.4</ele>
        <time>2019-10-27T10:03:24Z</time>
      </trkpt>
      <trkpt lat="39.527265616494" lon="2.545480351725">
        <ele>8.4</ele>
        <time>2019-10-27T10:03:25Z</time>
      </trkpt>
      <trkpt lat="39.527274166032" lon="2.545520081931">
        <ele>8.4</ele>
        <time>2019-10-27T10:03:26Z</time>
      </trkpt>
      <trkpt lat="39.527282045018" lon="2.545559309223">
        <ele>8.6</ele>
        <time>2019-10-27T10:03:27Z</time>
      </trkpt>
      <trkpt lat="39.527290091642" lon="2.545596943954">
        <ele>8.6</ele>
        <time>2019-10-27T10:03:28Z</time>
      </trkpt>
      <trkpt lat="39.527298724999" lon="2.545633656676">
        <ele>8.6</ele>
        <time>2019-10-27T10:03:29Z</time>
      </trkpt>
      <trkpt lat="39.527307274537" lon="2.545671291407">
        <ele>8.6</ele>
        <time>2019-10-27T10:03:30Z</time>
      </trkpt>
      <trkpt lat="39.527315740256" lon="2.545709931966">
        <ele>8.6</ele>
        <time>2019-10-27T10:03:31Z</time>
      </trkpt>
      <trkpt lat="39.527323032509" lon="2.545749326896">
        <ele>8.6</ele>
        <time>2019-10-27T10:03:32Z</time>
      </trkpt>
      <trkpt lat="39.527330157124" lon="2.54579006293">
        <ele>8.6</ele>
        <time>2019-10-27T10:03:33Z</time>
      </trkpt>
      <trkpt lat="39.527339461033" lon="2.545832056249">
        <ele>8.6</ele>
        <time>2019-10-27T10:03:34Z</time>
      </trkpt>
      <trkpt lat="39.527350944236" lon="2.545874636301">
        <ele>8.6</ele>
        <time>2019-10-27T10:03:35Z</time>
      </trkpt>
      <trkpt lat="39.527362762715" lon="2.545919060371">
        <ele>8.6</ele>
        <time>2019-10-27T10:03:36Z</time>
      </trkpt>
      <trkpt lat="39.527372653357" lon="2.545965663735">
        <ele>8.6</ele>
        <time>2019-10-27T10:03:37Z</time>
      </trkpt>
      <trkpt lat="39.527381873447" lon="2.546013524384">
        <ele>8.6</ele>
        <time>2019-10-27T10:03:38Z</time>
      </trkpt>
      <trkpt lat="39.527391428813" lon="2.546062223223">
        <ele>8.6</ele>
        <time>2019-10-27T10:03:39Z</time>
      </trkpt>
      <trkpt lat="39.527400648903" lon="2.546110922062">
        <ele>8.6</ele>
        <time>2019-10-27T10:03:40Z</time>
      </trkpt>
      <trkpt lat="39.527407354423" lon="2.546161213462">
        <ele>8.6</ele>
        <time>2019-10-27T10:03:41Z</time>
      </trkpt>
      <trkpt lat="39.527411880649" lon="2.546211504862">
        <ele>8.6</ele>
        <time>2019-10-27T10:03:42Z</time>
      </trkpt>
      <trkpt lat="39.527416406875" lon="2.546263053547">
        <ele>8.8</ele>
        <time>2019-10-27T10:03:43Z</time>
      </trkpt>
      <trkpt lat="39.527421352196" lon="2.546314518413">
        <ele>8.8</ele>
        <time>2019-10-27T10:03:44Z</time>
      </trkpt>
      <trkpt lat="39.527425375508" lon="2.546363887804">
        <ele>8.8</ele>
        <time>2019-10-27T10:03:45Z</time>
      </trkpt>
      <trkpt lat="39.527427051888" lon="2.546409988254">
        <ele>8.8</ele>
        <time>2019-10-27T10:03:46Z</time>
      </trkpt>
      <trkpt lat="39.527427638621" lon="2.546452903582">
        <ele>8.8</ele>
        <time>2019-10-27T10:03:47Z</time>
      </trkpt>
      <trkpt lat="39.527426632793" lon="2.546493052883">
        <ele>8.8</ele>
        <time>2019-10-27T10:03:48Z</time>
      </trkpt>
      <trkpt lat="39.52742604606" lon="2.546532028718">
        <ele>8.8</ele>
        <time>2019-10-27T10:03:49Z</time>
      </trkpt>
      <trkpt lat="39.527424621137" lon="2.546572345657">
        <ele>8.8</ele>
        <time>2019-10-27T10:03:50Z</time>
      </trkpt>
      <trkpt lat="39.527420514006" lon="2.5466140037">
        <ele>8.8</ele>
        <time>2019-10-27T10:03:51Z</time>
      </trkpt>
      <trkpt lat="39.5274143114" lon="2.546657170485">
        <ele>8.8</ele>
        <time>2019-10-27T10:03:52Z</time>
      </trkpt>
      <trkpt lat="39.527408276432" lon="2.546701510736">
        <ele>8.8</ele>
        <time>2019-10-27T10:03:53Z</time>
      </trkpt>
      <trkpt lat="39.527400313627" lon="2.546746856815">
        <ele>9</ele>
        <time>2019-10-27T10:03:54Z</time>
      </trkpt>
      <trkpt lat="39.527391261175" lon="2.546792035256">
        <ele>9</ele>
        <time>2019-10-27T10:03:55Z</time>
      </trkpt>
      <trkpt lat="39.527380364705" lon="2.546833944756">
        <ele>9</ele>
        <time>2019-10-27T10:03:56Z</time>
      </trkpt>
      <trkpt lat="39.527370138787" lon="2.546875854256">
        <ele>9</ele>
        <time>2019-10-27T10:03:57Z</time>
      </trkpt>
      <trkpt lat="39.527361086335" lon="2.546917847575">
        <ele>9.2</ele>
        <time>2019-10-27T10:03:58Z</time>
      </trkpt>
      <trkpt lat="39.527351363331" lon="2.546959589437">
        <ele>9.2</ele>
        <time>2019-10-27T10:03:59Z</time>
      </trkpt>
      <trkpt lat="39.527339293395" lon="2.546999068186">
        <ele>9.2</ele>
        <time>2019-10-27T10:04:00Z</time>
      </trkpt>
      <trkpt lat="39.527327474916" lon="2.547037792564">
        <ele>9.2</ele>
        <time>2019-10-27T10:04:01Z</time>
      </trkpt>
      <trkpt lat="39.527314902066" lon="2.547075678752">
        <ele>9.2</ele>
        <time>2019-10-27T10:04:02Z</time>
      </trkpt>
      <trkpt lat="39.527301742483" lon="2.54710937399">
        <ele>9.4</ele>
        <time>2019-10-27T10:04:03Z</time>
      </trkpt>
      <trkpt lat="39.527291348927" lon="2.547136782803">
        <ele>9.4</ele>
        <time>2019-10-27T10:04:04Z</time>
      </trkpt>
      <trkpt lat="39.527284978683" lon="2.547155893535">
        <ele>9.4</ele>
        <time>2019-10-27T10:04:05Z</time>
      </trkpt>
      <trkpt lat="39.527281374466" lon="2.547170813317">
        <ele>9.4</ele>
        <time>2019-10-27T10:04:06Z</time>
      </trkpt>
      <trkpt lat="39.527278189344" lon="2.547179111398">
        <ele>9.4</ele>
        <time>2019-10-27T10:04:07Z</time>
      </trkpt>
      <trkpt lat="39.527276093869" lon="2.547182967072">
        <ele>9.4</ele>
        <time>2019-10-27T10:04:08Z</time>
      </trkpt>
      <trkpt lat="39.527273914575" lon="2.547241975648">
        <ele>9.6</ele>
        <time>2019-10-27T10:04:13Z</time>
      </trkpt>
      <trkpt lat="39.527285062502" lon="2.547263852407">
        <ele>9.6</ele>
        <time>2019-10-27T10:04:14Z</time>
      </trkpt>
      <trkpt lat="39.527300066103" lon="2.547284974795">
        <ele>9.6</ele>
        <time>2019-10-27T10:04:15Z</time>
      </trkpt>
      <trkpt lat="39.527318506283" lon="2.547302409147">
        <ele>9.6</ele>
        <time>2019-10-27T10:04:16Z</time>
      </trkpt>
      <trkpt lat="39.527335605359" lon="2.547316574558">
        <ele>9.6</ele>
        <time>2019-10-27T10:04:17Z</time>
      </trkpt>
      <trkpt lat="39.527352704435" lon="2.547333757453">
        <ele>9.6</ele>
        <time>2019-10-27T10:04:18Z</time>
      </trkpt>
      <trkpt lat="39.527375419384" lon="2.547345073018">
        <ele>9.6</ele>
        <time>2019-10-27T10:04:19Z</time>
      </trkpt>
      <trkpt lat="39.527405258948" lon="2.547364099931">
        <ele>9.6</ele>
        <time>2019-10-27T10:04:20Z</time>
      </trkpt>
      <trkpt lat="39.527432583942" lon="2.54738010936">
        <ele>9.6</ele>
        <time>2019-10-27T10:04:21Z</time>
      </trkpt>
      <trkpt lat="39.527459322203" lon="2.547391424925">
        <ele>9.6</ele>
        <time>2019-10-27T10:04:22Z</time>
      </trkpt>
      <trkpt lat="39.527485976645" lon="2.54740022592">
        <ele>9.6</ele>
        <time>2019-10-27T10:04:23Z</time>
      </trkpt>
      <trkpt lat="39.527513720734" lon="2.54740357868">
        <ele>9.6</ele>
        <time>2019-10-27T10:04:24Z</time>
      </trkpt>
      <trkpt lat="39.52754171628" lon="2.547405925612">
        <ele>9.8</ele>
        <time>2019-10-27T10:04:25Z</time>
      </trkpt>
      <trkpt lat="39.527570801473" lon="2.547406177069">
        <ele>9.8</ele>
        <time>2019-10-27T10:04:26Z</time>
      </trkpt>
      <trkpt lat="39.527600724856" lon="2.547404165413">
        <ele>10</ele>
        <time>2019-10-27T10:04:27Z</time>
      </trkpt>
      <trkpt lat="39.52763140261" lon="2.547400812653">
        <ele>10</ele>
        <time>2019-10-27T10:04:28Z</time>
      </trkpt>
      <trkpt lat="39.527662499459" lon="2.547395532056">
        <ele>10</ele>
        <time>2019-10-27T10:04:29Z</time>
      </trkpt>
      <trkpt lat="39.527693261032" lon="2.547387988346">
        <ele>10.2</ele>
        <time>2019-10-27T10:04:30Z</time>
      </trkpt>
      <trkpt lat="39.52772360351" lon="2.547378516799">
        <ele>10.4</ele>
        <time>2019-10-27T10:04:31Z</time>
      </trkpt>
      <trkpt lat="39.527753023979" lon="2.547369967261">
        <ele>10.4</ele>
        <time>2019-10-27T10:04:32Z</time>
      </trkpt>
      <trkpt lat="39.527783282638" lon="2.547359322248">
        <ele>10.6</ele>
        <time>2019-10-27T10:04:33Z</time>
      </trkpt>
      <trkpt lat="39.527813960392" lon="2.547348174321">
        <ele>10.8</ele>
        <time>2019-10-27T10:04:34Z</time>
      </trkpt>
      <trkpt lat="39.527844973422" lon="2.547338870412">
        <ele>10.8</ele>
        <time>2019-10-27T10:04:35Z</time>
      </trkpt>
      <trkpt lat="39.527875567357" lon="2.547331075245">
        <ele>11</ele>
        <time>2019-10-27T10:04:36Z</time>
      </trkpt>
      <trkpt lat="39.527906580387" lon="2.547322860983">
        <ele>11</ele>
        <time>2019-10-27T10:04:37Z</time>
      </trkpt>
      <trkpt lat="39.527935246485" lon="2.547317664205">
        <ele>11.2</ele>
        <time>2019-10-27T10:04:38Z</time>
      </trkpt>
      <trkpt lat="39.527962236203" lon="2.547314395264">
        <ele>11.2</ele>
        <time>2019-10-27T10:04:39Z</time>
      </trkpt>
      <trkpt lat="39.527990064111" lon="2.547306935373">
        <ele>11.4</ele>
        <time>2019-10-27T10:04:40Z</time>
      </trkpt>
      <trkpt lat="39.528017975838" lon="2.547298553473">
        <ele>11.8</ele>
        <time>2019-10-27T10:04:41Z</time>
      </trkpt>
      <trkpt lat="39.528046725755" lon="2.547292350867">
        <ele>12</ele>
        <time>2019-10-27T10:04:42Z</time>
      </trkpt>
      <trkpt lat="39.528076230043" lon="2.547288076098">
        <ele>12.2</ele>
        <time>2019-10-27T10:04:43Z</time>
      </trkpt>
      <trkpt lat="39.52810581815" lon="2.547285561528">
        <ele>12.4</ele>
        <time>2019-10-27T10:04:44Z</time>
      </trkpt>
      <trkpt lat="39.528136495904" lon="2.547283633691">
        <ele>12.4</ele>
        <time>2019-10-27T10:04:45Z</time>
      </trkpt>
      <trkpt lat="39.528167257477" lon="2.547283214596">
        <ele>12.6</ele>
        <time>2019-10-27T10:04:46Z</time>
      </trkpt>
      <trkpt lat="39.528198102869" lon="2.547282124949">
        <ele>12.6</ele>
        <time>2019-10-27T10:04:47Z</time>
      </trkpt>
      <trkpt lat="39.528227523338" lon="2.547278604551">
        <ele>12.8</ele>
        <time>2019-10-27T10:04:48Z</time>
      </trkpt>
      <trkpt lat="39.528256021798" lon="2.547274162144">
        <ele>12.8</ele>
        <time>2019-10-27T10:04:49Z</time>
      </trkpt>
      <trkpt lat="39.528283933525" lon="2.54727198285">
        <ele>13</ele>
        <time>2019-10-27T10:04:50Z</time>
      </trkpt>
      <trkpt lat="39.528309833596" lon="2.547273323954">
        <ele>13.2</ele>
        <time>2019-10-27T10:04:51Z</time>
      </trkpt>
      <trkpt lat="39.528332548545" lon="2.547278772189">
        <ele>13.2</ele>
        <time>2019-10-27T10:04:52Z</time>
      </trkpt>
      <trkpt lat="39.528351743096" lon="2.547292267048">
        <ele>13.2</ele>
        <time>2019-10-27T10:04:53Z</time>
      </trkpt>
      <trkpt lat="39.52836733343" lon="2.547313305617">
        <ele>13.4</ele>
        <time>2019-10-27T10:04:54Z</time>
      </trkpt>
      <trkpt lat="39.528378313719" lon="2.547338870412">
        <ele>13.2</ele>
        <time>2019-10-27T10:04:55Z</time>
      </trkpt>
      <trkpt lat="39.528383426678" lon="2.547364854302">
        <ele>13.2</ele>
        <time>2019-10-27T10:04:56Z</time>
      </trkpt>
      <trkpt lat="39.528384264868" lon="2.547389497088">
        <ele>13.4</ele>
        <time>2019-10-27T10:04:57Z</time>
      </trkpt>
      <trkpt lat="39.528384181049" lon="2.547414558969">
        <ele>13.6</ele>
        <time>2019-10-27T10:04:58Z</time>
      </trkpt>
      <trkpt lat="39.528385689791" lon="2.547441548687">
        <ele>14</ele>
        <time>2019-10-27T10:04:59Z</time>
      </trkpt>
      <trkpt lat="39.528387617628" lon="2.547470466242">
        <ele>14</ele>
        <time>2019-10-27T10:05:00Z</time>
      </trkpt>
      <trkpt lat="39.528390048379" lon="2.547502066005">
        <ele>14.2</ele>
        <time>2019-10-27T10:05:01Z</time>
      </trkpt>
      <trkpt lat="39.528392898225" lon="2.547533833406">
        <ele>14.2</ele>
        <time>2019-10-27T10:05:02Z</time>
      </trkpt>
      <trkpt lat="39.528395748071" lon="2.547563253875">
        <ele>14.4</ele>
        <time>2019-10-27T10:05:03Z</time>
      </trkpt>
      <trkpt lat="39.528398262641" lon="2.547590411231">
        <ele>14.4</ele>
        <time>2019-10-27T10:05:04Z</time>
      </trkpt>
      <trkpt lat="39.528400777211" lon="2.547617652406">
        <ele>14.4</ele>
        <time>2019-10-27T10:05:05Z</time>
      </trkpt>
      <trkpt lat="39.528401950677" lon="2.547646569961">
        <ele>14.2</ele>
        <time>2019-10-27T10:05:06Z</time>
      </trkpt>
      <trkpt lat="39.528401531582" lon="2.547676325706">
        <ele>14.2</ele>
        <time>2019-10-27T10:05:07Z</time>
      </trkpt>
      <trkpt lat="39.528401112487" lon="2.547706919641">
        <ele>14.6</ele>
        <time>2019-10-27T10:05:08Z</time>
      </trkpt>
      <trkpt lat="39.5284033756" lon="2.547737848852">
        <ele>14.6</ele>
        <time>2019-10-27T10:05:09Z</time>
      </trkpt>
      <trkpt lat="39.528406057808" lon="2.5477707059">
        <ele>14.6</ele>
        <time>2019-10-27T10:05:10Z</time>
      </trkpt>
      <trkpt lat="39.528406057808" lon="2.547801551292">
        <ele>14.6</ele>
        <time>2019-10-27T10:05:11Z</time>
      </trkpt>
      <trkpt lat="39.528406476903" lon="2.547834827435">
        <ele>14.6</ele>
        <time>2019-10-27T10:05:12Z</time>
      </trkpt>
      <trkpt lat="39.528407818007" lon="2.547872294528">
        <ele>14.6</ele>
        <time>2019-10-27T10:05:13Z</time>
      </trkpt>
      <trkpt lat="39.52841091931" lon="2.54791403639">
        <ele>14.6</ele>
        <time>2019-10-27T10:05:14Z</time>
      </trkpt>
      <trkpt lat="39.528413350061" lon="2.547955275338">
        <ele>14.6</ele>
        <time>2019-10-27T10:05:15Z</time>
      </trkpt>
      <trkpt lat="39.528416870459" lon="2.54799282625">
        <ele>14.6</ele>
        <time>2019-10-27T10:05:16Z</time>
      </trkpt>
      <trkpt lat="39.52842265397" lon="2.54803138299">
        <ele>14.6</ele>
        <time>2019-10-27T10:05:17Z</time>
      </trkpt>
      <trkpt lat="39.528427347834" lon="2.548071280834">
        <ele>14.6</ele>
        <time>2019-10-27T10:05:18Z</time>
      </trkpt>
      <trkpt lat="39.528430784413" lon="2.548111765411">
        <ele>14.6</ele>
        <time>2019-10-27T10:05:19Z</time>
      </trkpt>
      <trkpt lat="39.528434472449" lon="2.548150741246">
        <ele>14.6</ele>
        <time>2019-10-27T10:05:20Z</time>
      </trkpt>
      <trkpt lat="39.528437070838" lon="2.548190974366">
        <ele>14.6</ele>
        <time>2019-10-27T10:05:21Z</time>
      </trkpt>
      <trkpt lat="39.528439333951" lon="2.548234308789">
        <ele>14.6</ele>
        <time>2019-10-27T10:05:22Z</time>
      </trkpt>
      <trkpt lat="39.528442351435" lon="2.548279906325">
        <ele>14.6</ele>
        <time>2019-10-27T10:05:23Z</time>
      </trkpt>
      <trkpt lat="39.52844612329" lon="2.548327766974">
        <ele>14.6</ele>
        <time>2019-10-27T10:05:24Z</time>
      </trkpt>
      <trkpt lat="39.528449895145" lon="2.548377304003">
        <ele>14.6</ele>
        <time>2019-10-27T10:05:25Z</time>
      </trkpt>
      <trkpt lat="39.528454337552" lon="2.548428852688">
        <ele>14.6</ele>
        <time>2019-10-27T10:05:26Z</time>
      </trkpt>
      <trkpt lat="39.528459366692" lon="2.548481742477">
        <ele>14.6</ele>
        <time>2019-10-27T10:05:27Z</time>
      </trkpt>
      <trkpt lat="39.528461545986" lon="2.548540080501">
        <ele>14.6</ele>
        <time>2019-10-27T10:05:28Z</time>
      </trkpt>
      <trkpt lat="39.528465150203" lon="2.548610069366">
        <ele>14.6</ele>
        <time>2019-10-27T10:05:29Z</time>
      </trkpt>
      <trkpt lat="39.528470346981" lon="2.548690284149">
        <ele>14.6</ele>
        <time>2019-10-27T10:05:30Z</time>
      </trkpt>
      <trkpt lat="39.528475208483" lon="2.548775947167">
        <ele>14.6</ele>
        <time>2019-10-27T10:05:31Z</time>
      </trkpt>
      <trkpt lat="39.528481243451" lon="2.548862783651">
        <ele>14.6</ele>
        <time>2019-10-27T10:05:32Z</time>
      </trkpt>
      <trkpt lat="39.528485937315" lon="2.548943417529">
        <ele>14.6</ele>
        <time>2019-10-27T10:05:33Z</time>
      </trkpt>
      <trkpt lat="39.528491888464" lon="2.549020195733">
        <ele>14.6</ele>
        <time>2019-10-27T10:05:34Z</time>
      </trkpt>
      <trkpt lat="39.528499264536" lon="2.549095716652">
        <ele>14.4</ele>
        <time>2019-10-27T10:05:35Z</time>
      </trkpt>
      <trkpt lat="39.528507981712" lon="2.549173165408">
        <ele>14.6</ele>
        <time>2019-10-27T10:05:36Z</time>
      </trkpt>
      <trkpt lat="39.528521476571" lon="2.549253044915">
        <ele>14.6</ele>
        <time>2019-10-27T10:05:37Z</time>
      </trkpt>
      <trkpt lat="39.528538072733" lon="2.549335271354">
        <ele>14.4</ele>
        <time>2019-10-27T10:05:38Z</time>
      </trkpt>
      <trkpt lat="39.528555590904" lon="2.549420012363">
        <ele>14.4</ele>
        <time>2019-10-27T10:05:39Z</time>
      </trkpt>
      <trkpt lat="39.528569001944" lon="2.54950743558">
        <ele>14.4</ele>
        <time>2019-10-27T10:05:40Z</time>
      </trkpt>
      <trkpt lat="39.528579730776" lon="2.549592511865">
        <ele>14.2</ele>
        <time>2019-10-27T10:05:41Z</time>
      </trkpt>
      <trkpt lat="39.528592052169" lon="2.549673229562">
        <ele>14.2</ele>
        <time>2019-10-27T10:05:42Z</time>
      </trkpt>
      <trkpt lat="39.528605714666" lon="2.549752019422">
        <ele>14.4</ele>
        <time>2019-10-27T10:05:43Z</time>
      </trkpt>
      <trkpt lat="39.528619377163" lon="2.549824355219">
        <ele>14.2</ele>
        <time>2019-10-27T10:05:44Z</time>
      </trkpt>
      <trkpt lat="39.528632872022" lon="2.549896774835">
        <ele>14.2</ele>
        <time>2019-10-27T10:05:45Z</time>
      </trkpt>
      <trkpt lat="39.528644439044" lon="2.549966428424">
        <ele>14.2</ele>
        <time>2019-10-27T10:05:46Z</time>
      </trkpt>
      <trkpt lat="39.528654497324" lon="2.550033735081">
        <ele>14.4</ele>
        <time>2019-10-27T10:05:47Z</time>
      </trkpt>
      <trkpt lat="39.528662041034" lon="2.550099113901">
        <ele>14.4</ele>
        <time>2019-10-27T10:05:48Z</time>
      </trkpt>
      <trkpt lat="39.528668830373" lon="2.550161726694">
        <ele>14.4</ele>
        <time>2019-10-27T10:05:49Z</time>
      </trkpt>
      <trkpt lat="39.528676541721" lon="2.550223752754">
        <ele>14.6</ele>
        <time>2019-10-27T10:05:50Z</time>
      </trkpt>
      <trkpt lat="39.528683582517" lon="2.550284102434">
        <ele>14.6</ele>
        <time>2019-10-27T10:05:51Z</time>
      </trkpt>
      <trkpt lat="39.52869003658" lon="2.550341015535">
        <ele>14.6</ele>
        <time>2019-10-27T10:05:52Z</time>
      </trkpt>
      <trkpt lat="39.528697077376" lon="2.550397090446">
        <ele>14.8</ele>
        <time>2019-10-27T10:05:53Z</time>
      </trkpt>
      <trkpt lat="39.528705207819" lon="2.550454338823">
        <ele>14.8</ele>
        <time>2019-10-27T10:05:54Z</time>
      </trkpt>
      <trkpt lat="39.528712919167" lon="2.550513012123">
        <ele>15.2</ele>
        <time>2019-10-27T10:05:55Z</time>
      </trkpt>
      <trkpt lat="39.528722558352" lon="2.550576546925">
        <ele>15.2</ele>
        <time>2019-10-27T10:05:56Z</time>
      </trkpt>
      <trkpt lat="39.528733371003" lon="2.55064485941">
        <ele>15.4</ele>
        <time>2019-10-27T10:05:57Z</time>
      </trkpt>
      <trkpt lat="39.528744099835" lon="2.550714261542">
        <ele>15.4</ele>
        <time>2019-10-27T10:05:58Z</time>
      </trkpt>
      <trkpt lat="39.528755834495" lon="2.550779891819">
        <ele>15.6</ele>
        <time>2019-10-27T10:05:59Z</time>
      </trkpt>
      <trkpt lat="39.528768994078" lon="2.550842420793">
        <ele>15.6</ele>
        <time>2019-10-27T10:06:00Z</time>
      </trkpt>
      <trkpt lat="39.52878139929" lon="2.550904027758">
        <ele>15.8</ele>
        <time>2019-10-27T10:06:01Z</time>
      </trkpt>
      <trkpt lat="39.528793888321" lon="2.550967478741">
        <ele>15.8</ele>
        <time>2019-10-27T10:06:02Z</time>
      </trkpt>
      <trkpt lat="39.528806209714" lon="2.551028163697">
        <ele>15.8</ele>
        <time>2019-10-27T10:06:03Z</time>
      </trkpt>
      <trkpt lat="39.528816854727" lon="2.55108574735">
        <ele>16.2</ele>
        <time>2019-10-27T10:06:04Z</time>
      </trkpt>
      <trkpt lat="39.528827751197" lon="2.551139642967">
        <ele>16.2</ele>
        <time>2019-10-27T10:06:05Z</time>
      </trkpt>
      <trkpt lat="39.528838731486" lon="2.551190185824">
        <ele>16.4</ele>
        <time>2019-10-27T10:06:06Z</time>
      </trkpt>
      <trkpt lat="39.528850047051" lon="2.551240728681">
        <ele>16.4</ele>
        <time>2019-10-27T10:06:07Z</time>
      </trkpt>
      <trkpt lat="39.528859937693" lon="2.551287918778">
        <ele>16.6</ele>
        <time>2019-10-27T10:06:08Z</time>
      </trkpt>
      <trkpt lat="39.528870163611" lon="2.551333767771">
        <ele>16.6</ele>
        <time>2019-10-27T10:06:09Z</time>
      </trkpt>
      <trkpt lat="39.528880640986" lon="2.551376431642">
        <ele>16.8</ele>
        <time>2019-10-27T10:06:10Z</time>
      </trkpt>
      <trkpt lat="39.528893297655" lon="2.55141934697">
        <ele>16.8</ele>
        <time>2019-10-27T10:06:11Z</time>
      </trkpt>
      <trkpt lat="39.528906121962" lon="2.551462765212">
        <ele>17</ele>
        <time>2019-10-27T10:06:12Z</time>
      </trkpt>
      <trkpt lat="39.528918946269" lon="2.551504590893">
        <ele>17</ele>
        <time>2019-10-27T10:06:13Z</time>
      </trkpt>
      <trkpt lat="39.528931519119" lon="2.551545578384">
        <ele>17.2</ele>
        <time>2019-10-27T10:06:14Z</time>
      </trkpt>
      <trkpt lat="39.528944427245" lon="2.551584638038">
        <ele>17.2</ele>
        <time>2019-10-27T10:06:15Z</time>
      </trkpt>
      <trkpt lat="39.528956916276" lon="2.551619758199">
        <ele>17.4</ele>
        <time>2019-10-27T10:06:16Z</time>
      </trkpt>
      <trkpt lat="39.528967226013" lon="2.551652196152">
        <ele>17.4</ele>
        <time>2019-10-27T10:06:17Z</time>
      </trkpt>
      <trkpt lat="39.528975356456" lon="2.551679353508">
        <ele>17.4</ele>
        <time>2019-10-27T10:06:18Z</time>
      </trkpt>
      <trkpt lat="39.528980637053" lon="2.551698967154">
        <ele>17.4</ele>
        <time>2019-10-27T10:06:19Z</time>
      </trkpt>
      <trkpt lat="39.528982061976" lon="2.551707516692">
        <ele>17.4</ele>
        <time>2019-10-27T10:06:20Z</time>
      </trkpt>
      <trkpt lat="39.528981978157" lon="2.551708187244">
        <ele>17.4</ele>
        <time>2019-10-27T10:06:21Z</time>
      </trkpt>
      <trkpt lat="39.528995473016" lon="2.551737356256">
        <ele>17.6</ele>
        <time>2019-10-27T10:06:27Z</time>
      </trkpt>
      <trkpt lat="39.529005531296" lon="2.551758897739">
        <ele>17.8</ele>
        <time>2019-10-27T10:06:28Z</time>
      </trkpt>
      <trkpt lat="39.529018523241" lon="2.551782869973">
        <ele>17.8</ele>
        <time>2019-10-27T10:06:29Z</time>
      </trkpt>
      <trkpt lat="39.529030509358" lon="2.551807093664">
        <ele>17.8</ele>
        <time>2019-10-27T10:06:30Z</time>
      </trkpt>
      <trkpt lat="39.529043249846" lon="2.551833915744">
        <ele>17.8</ele>
        <time>2019-10-27T10:06:31Z</time>
      </trkpt>
      <trkpt lat="39.529057415257" lon="2.551862498023">
        <ele>17.8</ele>
        <time>2019-10-27T10:06:32Z</time>
      </trkpt>
      <trkpt lat="39.529071915944" lon="2.551889487741">
        <ele>17.8</ele>
        <time>2019-10-27T10:06:33Z</time>
      </trkpt>
      <trkpt lat="39.529087003364" lon="2.551915303993">
        <ele>17.8</ele>
        <time>2019-10-27T10:06:34Z</time>
      </trkpt>
      <trkpt lat="39.529102677517" lon="2.551942209892">
        <ele>17.8</ele>
        <time>2019-10-27T10:06:35Z</time>
      </trkpt>
      <trkpt lat="39.529122877896" lon="2.551972636189">
        <ele>17.8</ele>
        <time>2019-10-27T10:06:36Z</time>
      </trkpt>
      <trkpt lat="39.529140228429" lon="2.552005409418">
        <ele>17.6</ele>
        <time>2019-10-27T10:06:37Z</time>
      </trkpt>
      <trkpt lat="39.529156237858" lon="2.552038601742">
        <ele>17.6</ele>
        <time>2019-10-27T10:06:38Z</time>
      </trkpt>
      <trkpt lat="39.529176522056" lon="2.552071961704">
        <ele>17.6</ele>
        <time>2019-10-27T10:06:39Z</time>
      </trkpt>
      <trkpt lat="39.529199237005" lon="2.552110266987">
        <ele>17.6</ele>
        <time>2019-10-27T10:06:40Z</time>
      </trkpt>
      <trkpt lat="39.529219437384" lon="2.55215108684">
        <ele>17.6</ele>
        <time>2019-10-27T10:06:41Z</time>
      </trkpt>
      <trkpt lat="39.529240140677" lon="2.552194253625">
        <ele>17.6</ele>
        <time>2019-10-27T10:06:42Z</time>
      </trkpt>
      <trkpt lat="39.529262352712" lon="2.55223909679">
        <ele>17.6</ele>
        <time>2019-10-27T10:06:43Z</time>
      </trkpt>
      <trkpt lat="39.529287330774" lon="2.552285616335">
        <ele>17.4</ele>
        <time>2019-10-27T10:06:44Z</time>
      </trkpt>
      <trkpt lat="39.529314404311" lon="2.552333728441">
        <ele>17.4</ele>
        <time>2019-10-27T10:06:45Z</time>
      </trkpt>
      <trkpt lat="39.529339969106" lon="2.552383433108">
        <ele>17.4</ele>
        <time>2019-10-27T10:06:46Z</time>
      </trkpt>
      <trkpt lat="39.52936477953" lon="2.552433473051">
        <ele>17.4</ele>
        <time>2019-10-27T10:06:47Z</time>
      </trkpt>
      <trkpt lat="39.529389338497" lon="2.552485608469">
        <ele>17.4</ele>
        <time>2019-10-27T10:06:48Z</time>
      </trkpt>
      <trkpt lat="39.529412388722" lon="2.552539001172">
        <ele>17.2</ele>
        <time>2019-10-27T10:06:49Z</time>
      </trkpt>
      <trkpt lat="39.529434852214" lon="2.552592226237">
        <ele>17.2</ele>
        <time>2019-10-27T10:06:50Z</time>
      </trkpt>
      <trkpt lat="39.529458237715" lon="2.552646960044">
        <ele>17.2</ele>
        <time>2019-10-27T10:06:51Z</time>
      </trkpt>
      <trkpt lat="39.529481539397" lon="2.552702196765">
        <ele>17.2</ele>
        <time>2019-10-27T10:06:52Z</time>
      </trkpt>
      <trkpt lat="39.529504338165" lon="2.552756679115">
        <ele>17.2</ele>
        <time>2019-10-27T10:06:53Z</time>
      </trkpt>
      <trkpt lat="39.529525795829" lon="2.552809568904">
        <ele>17.2</ele>
        <time>2019-10-27T10:06:54Z</time>
      </trkpt>
      <trkpt lat="39.529545660932" lon="2.55285935739">
        <ele>17.2</ele>
        <time>2019-10-27T10:06:55Z</time>
      </trkpt>
      <trkpt lat="39.529563849655" lon="2.552909732609">
        <ele>17.2</ele>
        <time>2019-10-27T10:06:56Z</time>
      </trkpt>
      <trkpt lat="39.529580781093" lon="2.552962873855">
        <ele>17.2</ele>
        <time>2019-10-27T10:06:57Z</time>
      </trkpt>
      <trkpt lat="39.529598047807" lon="2.553016518015">
        <ele>17.2</ele>
        <time>2019-10-27T10:06:58Z</time>
      </trkpt>
      <trkpt lat="39.529618080548" lon="2.553066222682">
        <ele>17.2</ele>
        <time>2019-10-27T10:06:59Z</time>
      </trkpt>
      <trkpt lat="39.529643561524" lon="2.553114670064">
        <ele>17.2</ele>
        <time>2019-10-27T10:07:00Z</time>
      </trkpt>
      <trkpt lat="39.529670886518" lon="2.553168817138">
        <ele>17.4</ele>
        <time>2019-10-27T10:07:01Z</time>
      </trkpt>
      <trkpt lat="39.529695613123" lon="2.553229921189">
        <ele>17.4</ele>
        <time>2019-10-27T10:07:02Z</time>
      </trkpt>
      <trkpt lat="39.529719417719" lon="2.553295383828">
        <ele>17.4</ele>
        <time>2019-10-27T10:07:03Z</time>
      </trkpt>
      <trkpt lat="39.529743306134" lon="2.553362858123">
        <ele>17.4</ele>
        <time>2019-10-27T10:07:04Z</time>
      </trkpt>
      <trkpt lat="39.529768200377" lon="2.553431170608">
        <ele>17.4</ele>
        <time>2019-10-27T10:07:05Z</time>
      </trkpt>
      <trkpt lat="39.529793262258" lon="2.553501578568">
        <ele>17.4</ele>
        <time>2019-10-27T10:07:06Z</time>
      </trkpt>
      <trkpt lat="39.529817569768" lon="2.553574668736">
        <ele>17.4</ele>
        <time>2019-10-27T10:07:07Z</time>
      </trkpt>
      <trkpt lat="39.529841961097" lon="2.553651949854">
        <ele>17.4</ele>
        <time>2019-10-27T10:07:08Z</time>
      </trkpt>
      <trkpt lat="39.52986685534" lon="2.553732332275">
        <ele>17.4</ele>
        <time>2019-10-27T10:07:09Z</time>
      </trkpt>
      <trkpt lat="39.529891665764" lon="2.55381321761">
        <ele>17.4</ele>
        <time>2019-10-27T10:07:10Z</time>
      </trkpt>
      <trkpt lat="39.529916476188" lon="2.553894941135">
        <ele>17.2</ele>
        <time>2019-10-27T10:07:11Z</time>
      </trkpt>
      <trkpt lat="39.529940448422" lon="2.553975658832">
        <ele>17.2</ele>
        <time>2019-10-27T10:07:12Z</time>
      </trkpt>
      <trkpt lat="39.529963582466" lon="2.55405461633">
        <ele>17.2</ele>
        <time>2019-10-27T10:07:13Z</time>
      </trkpt>
      <trkpt lat="39.529986297415" lon="2.554131813629">
        <ele>17.2</ele>
        <time>2019-10-27T10:07:14Z</time>
      </trkpt>
      <trkpt lat="39.530008425631" lon="2.554208508014">
        <ele>17.2</ele>
        <time>2019-10-27T10:07:15Z</time>
      </trkpt>
      <trkpt lat="39.5300294642" lon="2.554283861295">
        <ele>17.2</ele>
        <time>2019-10-27T10:07:16Z</time>
      </trkpt>
      <trkpt lat="39.530050586588" lon="2.554357119101">
        <ele>17.2</ele>
        <time>2019-10-27T10:07:17Z</time>
      </trkpt>
      <trkpt lat="39.530074139727" lon="2.554428365251">
        <ele>17.2</ele>
        <time>2019-10-27T10:07:18Z</time>
      </trkpt>
      <trkpt lat="39.530098866332" lon="2.554496007184">
        <ele>17.2</ele>
        <time>2019-10-27T10:07:19Z</time>
      </trkpt>
      <trkpt lat="39.530123425299" lon="2.554562894746">
        <ele>17.2</ele>
        <time>2019-10-27T10:07:20Z</time>
      </trkpt>
      <trkpt lat="39.530149744465" lon="2.554626848643">
        <ele>17.2</ele>
        <time>2019-10-27T10:07:21Z</time>
      </trkpt>
      <trkpt lat="39.530178494382" lon="2.554687198323">
        <ele>17.4</ele>
        <time>2019-10-27T10:07:22Z</time>
      </trkpt>
      <trkpt lat="39.530206741385" lon="2.554749140564">
        <ele>17.6</ele>
        <time>2019-10-27T10:07:23Z</time>
      </trkpt>
      <trkpt lat="39.53023314437" lon="2.554814267927">
        <ele>17.8</ele>
        <time>2019-10-27T10:07:24Z</time>
      </trkpt>
      <trkpt lat="39.530259714993" lon="2.554877383634">
        <ele>17.8</ele>
        <time>2019-10-27T10:07:25Z</time>
      </trkpt>
      <trkpt lat="39.530284525417" lon="2.554943349187">
        <ele>18</ele>
        <time>2019-10-27T10:07:26Z</time>
      </trkpt>
      <trkpt lat="39.530309838755" lon="2.555006464894">
        <ele>18.2</ele>
        <time>2019-10-27T10:07:27Z</time>
      </trkpt>
      <trkpt lat="39.530337582844" lon="2.555065389651">
        <ele>18.2</ele>
        <time>2019-10-27T10:07:28Z</time>
      </trkpt>
      <trkpt lat="39.530364153467" lon="2.555124314408">
        <ele>18.4</ele>
        <time>2019-10-27T10:07:29Z</time>
      </trkpt>
      <trkpt lat="39.530389466805" lon="2.555183322984">
        <ele>18.4</ele>
        <time>2019-10-27T10:07:30Z</time>
      </trkpt>
      <trkpt lat="39.530415534514" lon="2.555240990456">
        <ele>18.4</ele>
        <time>2019-10-27T10:07:31Z</time>
      </trkpt>
      <trkpt lat="39.530441350766" lon="2.55529597572">
        <ele>18.4</ele>
        <time>2019-10-27T10:07:32Z</time>
      </trkpt>
      <trkpt lat="39.530464820086" lon="2.555349033147">
        <ele>18.4</ele>
        <time>2019-10-27T10:07:33Z</time>
      </trkpt>
      <trkpt lat="39.530486529207" lon="2.555401336203">
        <ele>18.4</ele>
        <time>2019-10-27T10:07:34Z</time>
      </trkpt>
      <trkpt lat="39.530507483957" lon="2.55545187906">
        <ele>18.4</ele>
        <time>2019-10-27T10:07:35Z</time>
      </trkpt>
      <trkpt lat="39.530527768155" lon="2.55550133227">
        <ele>18.4</ele>
        <time>2019-10-27T10:07:36Z</time>
      </trkpt>
      <trkpt lat="39.530548555267" lon="2.55555162367">
        <ele>18.4</ele>
        <time>2019-10-27T10:07:37Z</time>
      </trkpt>
      <trkpt lat="39.53056925856" lon="2.555603088536">
        <ele>18.4</ele>
        <time>2019-10-27T10:07:38Z</time>
      </trkpt>
      <trkpt lat="39.530590380948" lon="2.555654218126">
        <ele>18.4</ele>
        <time>2019-10-27T10:07:39Z</time>
      </trkpt>
      <trkpt lat="39.530612760621" lon="2.555703168422">
        <ele>18.6</ele>
        <time>2019-10-27T10:07:40Z</time>
      </trkpt>
      <trkpt lat="39.53063463738" lon="2.555749185053">
        <ele>18.6</ele>
        <time>2019-10-27T10:07:41Z</time>
      </trkpt>
      <trkpt lat="39.53065475394" lon="2.555795453141">
        <ele>18.6</ele>
        <time>2019-10-27T10:07:42Z</time>
      </trkpt>
      <trkpt lat="39.530674786681" lon="2.555841469772">
        <ele>18.6</ele>
        <time>2019-10-27T10:07:43Z</time>
      </trkpt>
      <trkpt lat="39.53071175086" lon="2.555929395903">
        <ele>18.6</ele>
        <time>2019-10-27T10:07:45Z</time>
      </trkpt>
      <trkpt lat="39.530725664814" lon="2.555973568516">
        <ele>18.8</ele>
        <time>2019-10-27T10:07:46Z</time>
      </trkpt>
      <trkpt lat="39.530739243492" lon="2.556015645654">
        <ele>18.8</ele>
        <time>2019-10-27T10:07:47Z</time>
      </trkpt>
      <trkpt lat="39.530752654532" lon="2.55605789043">
        <ele>18.8</ele>
        <time>2019-10-27T10:07:48Z</time>
      </trkpt>
      <trkpt lat="39.530766400848" lon="2.556098207369">
        <ele>19</ele>
        <time>2019-10-27T10:07:49Z</time>
      </trkpt>
      <trkpt lat="39.530781236811" lon="2.556138775765">
        <ele>19</ele>
        <time>2019-10-27T10:07:50Z</time>
      </trkpt>
      <trkpt lat="39.530796575688" lon="2.556183116016">
        <ele>19</ele>
        <time>2019-10-27T10:07:51Z</time>
      </trkpt>
      <trkpt lat="39.530812082203" lon="2.556229803199">
        <ele>19</ele>
        <time>2019-10-27T10:07:52Z</time>
      </trkpt>
      <trkpt lat="39.530828175451" lon="2.556277077115">
        <ele>19</ele>
        <time>2019-10-27T10:07:53Z</time>
      </trkpt>
      <trkpt lat="39.530844687794" lon="2.55632359666">
        <ele>19</ele>
        <time>2019-10-27T10:07:54Z</time>
      </trkpt>
      <trkpt lat="39.53086178687" lon="2.556370702938">
        <ele>19</ele>
        <time>2019-10-27T10:07:55Z</time>
      </trkpt>
      <trkpt lat="39.530878802127" lon="2.556417725397">
        <ele>19</ele>
        <time>2019-10-27T10:07:56Z</time>
      </trkpt>
      <trkpt lat="39.530895063013" lon="2.55646525077">
        <ele>19</ele>
        <time>2019-10-27T10:07:57Z</time>
      </trkpt>
      <trkpt lat="39.530911659175" lon="2.556511937953">
        <ele>19</ele>
        <time>2019-10-27T10:07:58Z</time>
      </trkpt>
      <trkpt lat="39.530929344984" lon="2.556558038403">
        <ele>19</ele>
        <time>2019-10-27T10:07:59Z</time>
      </trkpt>
      <trkpt lat="39.530947617526" lon="2.556605060862">
        <ele>18.8</ele>
        <time>2019-10-27T10:08:00Z</time>
      </trkpt>
      <trkpt lat="39.530966728258" lon="2.556654011158">
        <ele>18.8</ele>
        <time>2019-10-27T10:08:01Z</time>
      </trkpt>
      <trkpt lat="39.530986258085" lon="2.556703883463">
        <ele>18.8</ele>
        <time>2019-10-27T10:08:02Z</time>
      </trkpt>
      <trkpt lat="39.531006207007" lon="2.55675442632">
        <ele>18.8</ele>
        <time>2019-10-27T10:08:03Z</time>
      </trkpt>
      <trkpt lat="39.531026407386" lon="2.556805723548">
        <ele>18.8</ele>
        <time>2019-10-27T10:08:04Z</time>
      </trkpt>
      <trkpt lat="39.531047194498" lon="2.556857104595">
        <ele>18.8</ele>
        <time>2019-10-27T10:08:05Z</time>
      </trkpt>
      <trkpt lat="39.531068316886" lon="2.556907395995">
        <ele>18.8</ele>
        <time>2019-10-27T10:08:06Z</time>
      </trkpt>
      <trkpt lat="39.531088349627" lon="2.55695475373">
        <ele>18.6</ele>
        <time>2019-10-27T10:08:07Z</time>
      </trkpt>
      <trkpt lat="39.531107208902" lon="2.556999680714">
        <ele>18.6</ele>
        <time>2019-10-27T10:08:08Z</time>
      </trkpt>
      <trkpt lat="39.531125397625" lon="2.557041841671">
        <ele>18.4</ele>
        <time>2019-10-27T10:08:09Z</time>
      </trkpt>
      <trkpt lat="39.531143921624" lon="2.557084254085">
        <ele>18.2</ele>
        <time>2019-10-27T10:08:10Z</time>
      </trkpt>
      <trkpt lat="39.531163283813" lon="2.557126415042">
        <ele>17.8</ele>
        <time>2019-10-27T10:08:11Z</time>
      </trkpt>
      <trkpt lat="39.531181640174" lon="2.557167318714">
        <ele>17.8</ele>
        <time>2019-10-27T10:08:12Z</time>
      </trkpt>
      <trkpt lat="39.531199828897" lon="2.557207719472">
        <ele>17.2</ele>
        <time>2019-10-27T10:08:13Z</time>
      </trkpt>
      <trkpt lat="39.531219107267" lon="2.557248455506">
        <ele>17.2</ele>
        <time>2019-10-27T10:08:14Z</time>
      </trkpt>
      <trkpt lat="39.531241067845" lon="2.557291538472">
        <ele>16.6</ele>
        <time>2019-10-27T10:08:15Z</time>
      </trkpt>
      <trkpt lat="39.531264704803" lon="2.557336884551">
        <ele>16.4</ele>
        <time>2019-10-27T10:08:16Z</time>
      </trkpt>
      <trkpt lat="39.531287755028" lon="2.557385080476">
        <ele>16.4</ele>
        <time>2019-10-27T10:08:17Z</time>
      </trkpt>
      <trkpt lat="39.53130938033" lon="2.557436461523">
        <ele>16.2</ele>
        <time>2019-10-27T10:08:18Z</time>
      </trkpt>
      <trkpt lat="39.531329580709" lon="2.557488094027">
        <ele>16</ele>
        <time>2019-10-27T10:08:19Z</time>
      </trkpt>
      <trkpt lat="39.53134793707" lon="2.557536792866">
        <ele>15.8</ele>
        <time>2019-10-27T10:08:20Z</time>
      </trkpt>
      <trkpt lat="39.531364617051" lon="2.557585575524">
        <ele>15.6</ele>
        <time>2019-10-27T10:08:21Z</time>
      </trkpt>
      <trkpt lat="39.531381213213" lon="2.557636369838">
        <ele>15.4</ele>
        <time>2019-10-27T10:08:22Z</time>
      </trkpt>
      <trkpt lat="39.531415327546" lon="2.557743825796">
        <ele>15</ele>
        <time>2019-10-27T10:08:24Z</time>
      </trkpt>
      <trkpt lat="39.531431923708" lon="2.557798727241">
        <ele>14.8</ele>
        <time>2019-10-27T10:08:25Z</time>
      </trkpt>
      <trkpt lat="39.531449106603" lon="2.557856478532">
        <ele>14.6</ele>
        <time>2019-10-27T10:08:26Z</time>
      </trkpt>
      <trkpt lat="39.531468049697" lon="2.557914648918">
        <ele>14.2</ele>
        <time>2019-10-27T10:08:27Z</time>
      </trkpt>
      <trkpt lat="39.531488417714" lon="2.557969131268">
        <ele>14</ele>
        <time>2019-10-27T10:08:28Z</time>
      </trkpt>
      <trkpt lat="39.531513814871" lon="2.558019338849">
        <ele>13.8</ele>
        <time>2019-10-27T10:08:29Z</time>
      </trkpt>
      <trkpt lat="39.531536948915" lon="2.558064433471">
        <ele>13.6</ele>
        <time>2019-10-27T10:08:30Z</time>
      </trkpt>
      <trkpt lat="39.531562346072" lon="2.558104582772">
        <ele>13.6</ele>
        <time>2019-10-27T10:08:31Z</time>
      </trkpt>
      <trkpt lat="39.531588665238" lon="2.558134422336">
        <ele>13.4</ele>
        <time>2019-10-27T10:08:32Z</time>
      </trkpt>
      <trkpt lat="39.531612637472" lon="2.55815504181">
        <ele>13.2</ele>
        <time>2019-10-27T10:08:33Z</time>
      </trkpt>
      <trkpt lat="39.531633005489" lon="2.558167195565">
        <ele>13.2</ele>
        <time>2019-10-27T10:08:34Z</time>
      </trkpt>
      <trkpt lat="39.531651529488" lon="2.558170715963">
        <ele>12.8</ele>
        <time>2019-10-27T10:08:35Z</time>
      </trkpt>
      <trkpt lat="39.531669215297" lon="2.558163591348">
        <ele>12.8</ele>
        <time>2019-10-27T10:08:36Z</time>
      </trkpt>
      <trkpt lat="39.53168572764" lon="2.558149509756">
        <ele>12.8</ele>
        <time>2019-10-27T10:08:37Z</time>
      </trkpt>
      <trkpt lat="39.531705341286" lon="2.558134841431">
        <ele>12.8</ele>
        <time>2019-10-27T10:08:38Z</time>
      </trkpt>
      <trkpt lat="39.531729397339" lon="2.558120089287">
        <ele>12.8</ele>
        <time>2019-10-27T10:08:39Z</time>
      </trkpt>
      <trkpt lat="39.531754291582" lon="2.558102654935">
        <ele>12.8</ele>
        <time>2019-10-27T10:08:40Z</time>
      </trkpt>
      <trkpt lat="39.531778431454" lon="2.558085891135">
        <ele>12.8</ele>
        <time>2019-10-27T10:08:41Z</time>
      </trkpt>
      <trkpt lat="39.531802990421" lon="2.558071558086">
        <ele>13</ele>
        <time>2019-10-27T10:08:42Z</time>
      </trkpt>
      <trkpt lat="39.531828471397" lon="2.558059991064">
        <ele>13.2</ele>
        <time>2019-10-27T10:08:43Z</time>
      </trkpt>
      <trkpt lat="39.5318567184" lon="2.558056638304">
        <ele>13.2</ele>
        <time>2019-10-27T10:08:44Z</time>
      </trkpt>
      <trkpt lat="39.53187934953" lon="2.558071725724">
        <ele>13.2</ele>
        <time>2019-10-27T10:08:45Z</time>
      </trkpt>
      <trkpt lat="39.531890832733" lon="2.558095614139">
        <ele>13.2</ele>
        <time>2019-10-27T10:08:46Z</time>
      </trkpt>
      <trkpt lat="39.531897873529" lon="2.558124531694">
        <ele>13.2</ele>
        <time>2019-10-27T10:08:47Z</time>
      </trkpt>
      <trkpt lat="39.531907680352" lon="2.558157807837">
        <ele>13.2</ele>
        <time>2019-10-27T10:08:48Z</time>
      </trkpt>
      <trkpt lat="39.531918325365" lon="2.558189910514">
        <ele>13.2</ele>
        <time>2019-10-27T10:08:49Z</time>
      </trkpt>
      <trkpt lat="39.53192712636" lon="2.558220755906">
        <ele>13.2</ele>
        <time>2019-10-27T10:08:50Z</time>
      </trkpt>
      <trkpt lat="39.531932826052" lon="2.558247745624">
        <ele>13.2</ele>
        <time>2019-10-27T10:08:51Z</time>
      </trkpt>
      <trkpt lat="39.531942297599" lon="2.558277501369">
        <ele>13.4</ele>
        <time>2019-10-27T10:08:52Z</time>
      </trkpt>
      <trkpt lat="39.53195394844" lon="2.558307508571">
        <ele>13.4</ele>
        <time>2019-10-27T10:08:53Z</time>
      </trkpt>
      <trkpt lat="39.531969790231" lon="2.558341622904">
        <ele>13.4</ele>
        <time>2019-10-27T10:08:54Z</time>
      </trkpt>
      <trkpt lat="39.531985464384" lon="2.558373222667">
        <ele>13.8</ele>
        <time>2019-10-27T10:08:55Z</time>
      </trkpt>
      <trkpt lat="39.532001138537" lon="2.558404068059">
        <ele>13.8</ele>
        <time>2019-10-27T10:08:56Z</time>
      </trkpt>
      <trkpt lat="39.532017902337" lon="2.558436003098">
        <ele>14</ele>
        <time>2019-10-27T10:08:57Z</time>
      </trkpt>
      <trkpt lat="39.532033408852" lon="2.558466932309">
        <ele>14</ele>
        <time>2019-10-27T10:08:58Z</time>
      </trkpt>
      <trkpt lat="39.532048747729" lon="2.558495430769">
        <ele>14</ele>
        <time>2019-10-27T10:08:59Z</time>
      </trkpt>
      <trkpt lat="39.532064170425" lon="2.558522755763">
        <ele>14.2</ele>
        <time>2019-10-27T10:09:00Z</time>
      </trkpt>
      <trkpt lat="39.532079760759" lon="2.558550835128">
        <ele>14.4</ele>
        <time>2019-10-27T10:09:01Z</time>
      </trkpt>
      <trkpt lat="39.532095099636" lon="2.558579501226">
        <ele>14.4</ele>
        <time>2019-10-27T10:09:02Z</time>
      </trkpt>
      <trkpt lat="39.532110103237" lon="2.558607077677">
        <ele>14.4</ele>
        <time>2019-10-27T10:09:03Z</time>
      </trkpt>
      <trkpt lat="39.532123933372" lon="2.558634737947">
        <ele>14.6</ele>
        <time>2019-10-27T10:09:04Z</time>
      </trkpt>
      <trkpt lat="39.532136422403" lon="2.558661811484">
        <ele>14.8</ele>
        <time>2019-10-27T10:09:05Z</time>
      </trkpt>
      <trkpt lat="39.532148073244" lon="2.558689974668">
        <ele>14.8</ele>
        <time>2019-10-27T10:09:06Z</time>
      </trkpt>
      <trkpt lat="39.532159053533" lon="2.558718389309">
        <ele>15</ele>
        <time>2019-10-27T10:09:07Z</time>
      </trkpt>
      <trkpt lat="39.532170872012" lon="2.558749234701">
        <ele>15.2</ele>
        <time>2019-10-27T10:09:08Z</time>
      </trkpt>
      <trkpt lat="39.532182355215" lon="2.558781085921">
        <ele>15.2</ele>
        <time>2019-10-27T10:09:09Z</time>
      </trkpt>
      <trkpt lat="39.532193335504" lon="2.558810003476">
        <ele>15.4</ele>
        <time>2019-10-27T10:09:10Z</time>
      </trkpt>
      <trkpt lat="39.532201382128" lon="2.558835568271">
        <ele>15.4</ele>
        <time>2019-10-27T10:09:11Z</time>
      </trkpt>
      <trkpt lat="39.5322087582" lon="2.558858786134">
        <ele>15.4</ele>
        <time>2019-10-27T10:09:12Z</time>
      </trkpt>
      <trkpt lat="39.532215044625" lon="2.558877729228">
        <ele>15.4</ele>
        <time>2019-10-27T10:09:13Z</time>
      </trkpt>
      <trkpt lat="39.53222049286" lon="2.558889044793">
        <ele>15.4</ele>
        <time>2019-10-27T10:09:14Z</time>
      </trkpt>
      <trkpt lat="39.532222001602" lon="2.558892229915">
        <ele>15.4</ele>
        <time>2019-10-27T10:09:15Z</time>
      </trkpt>
      <trkpt lat="39.532224180896" lon="2.558893068105">
        <ele>15.4</ele>
        <time>2019-10-27T10:09:16Z</time>
      </trkpt>
      <trkpt lat="39.532278914703" lon="2.559008403049">
        <ele>15.4</ele>
        <time>2019-10-27T10:10:19Z</time>
      </trkpt>
      <trkpt lat="39.532282770377" lon="2.559024999211">
        <ele>15.4</ele>
        <time>2019-10-27T10:10:20Z</time>
      </trkpt>
      <trkpt lat="39.5322841953" lon="2.559041930649">
        <ele>15.4</ele>
        <time>2019-10-27T10:10:21Z</time>
      </trkpt>
      <trkpt lat="39.53228503349" lon="2.559065567607">
        <ele>15.4</ele>
        <time>2019-10-27T10:10:22Z</time>
      </trkpt>
      <trkpt lat="39.532290314087" lon="2.559096496818">
        <ele>15.4</ele>
        <time>2019-10-27T10:10:23Z</time>
      </trkpt>
      <trkpt lat="39.532298863625" lon="2.559128012762">
        <ele>15.4</ele>
        <time>2019-10-27T10:10:24Z</time>
      </trkpt>
      <trkpt lat="39.532306910249" lon="2.559159863982">
        <ele>15.4</ele>
        <time>2019-10-27T10:10:25Z</time>
      </trkpt>
      <trkpt lat="39.532314202502" lon="2.559192972487">
        <ele>15.4</ele>
        <time>2019-10-27T10:10:26Z</time>
      </trkpt>
      <trkpt lat="39.532323422592" lon="2.559229182295">
        <ele>15.4</ele>
        <time>2019-10-27T10:10:27Z</time>
      </trkpt>
      <trkpt lat="39.532335743985" lon="2.559268912501">
        <ele>15.4</ele>
        <time>2019-10-27T10:10:28Z</time>
      </trkpt>
      <trkpt lat="39.532351082862" lon="2.559309732354">
        <ele>15.4</ele>
        <time>2019-10-27T10:10:29Z</time>
      </trkpt>
      <trkpt lat="39.532368601033" lon="2.559353318234">
        <ele>15.4</ele>
        <time>2019-10-27T10:10:30Z</time>
      </trkpt>
      <trkpt lat="39.532387460308" lon="2.559401346521">
        <ele>15.4</ele>
        <time>2019-10-27T10:10:31Z</time>
      </trkpt>
      <trkpt lat="39.532407576868" lon="2.55945172174">
        <ele>15.4</ele>
        <time>2019-10-27T10:10:32Z</time>
      </trkpt>
      <trkpt lat="39.532428112523" lon="2.559501761683">
        <ele>15.2</ele>
        <time>2019-10-27T10:10:33Z</time>
      </trkpt>
      <trkpt lat="39.532446217427" lon="2.559542162441">
        <ele>15.2</ele>
        <time>2019-10-27T10:10:34Z</time>
      </trkpt>
      <trkpt lat="39.532465160521" lon="2.559581976466">
        <ele>15.2</ele>
        <time>2019-10-27T10:10:35Z</time>
      </trkpt>
      <trkpt lat="39.532483181606" lon="2.559623466871">
        <ele>15</ele>
        <time>2019-10-27T10:10:36Z</time>
      </trkpt>
      <trkpt lat="39.532501035053" lon="2.559664286724">
        <ele>15</ele>
        <time>2019-10-27T10:10:37Z</time>
      </trkpt>
      <trkpt lat="39.532519810509" lon="2.559703094921">
        <ele>14.6</ele>
        <time>2019-10-27T10:10:38Z</time>
      </trkpt>
      <trkpt lat="39.53253900506" lon="2.559741232566">
        <ele>14.6</ele>
        <time>2019-10-27T10:10:39Z</time>
      </trkpt>
      <trkpt lat="39.532559875991" lon="2.559781800962">
        <ele>14.4</ele>
        <time>2019-10-27T10:10:40Z</time>
      </trkpt>
      <trkpt lat="39.532583010035" lon="2.559824800109">
        <ele>14.4</ele>
        <time>2019-10-27T10:10:41Z</time>
      </trkpt>
      <trkpt lat="39.532607569002" lon="2.559868972722">
        <ele>14.4</ele>
        <time>2019-10-27T10:10:42Z</time>
      </trkpt>
      <trkpt lat="39.532634139625" lon="2.559915576086">
        <ele>14.4</ele>
        <time>2019-10-27T10:10:43Z</time>
      </trkpt>
      <trkpt lat="39.532662638085" lon="2.559964526382">
        <ele>14.4</ele>
        <time>2019-10-27T10:10:44Z</time>
      </trkpt>
      <trkpt lat="39.532692477649" lon="2.560014398687">
        <ele>14.2</ele>
        <time>2019-10-27T10:10:45Z</time>
      </trkpt>
      <trkpt lat="39.532722149575" lon="2.560066534105">
        <ele>14.4</ele>
        <time>2019-10-27T10:10:46Z</time>
      </trkpt>
      <trkpt lat="39.532751821501" lon="2.560121938464">
        <ele>14.2</ele>
        <time>2019-10-27T10:10:47Z</time>
      </trkpt>
      <trkpt lat="39.532779733228" lon="2.560179773574">
        <ele>14</ele>
        <time>2019-10-27T10:10:48Z</time>
      </trkpt>
      <trkpt lat="39.53280806405" lon="2.560237357227">
        <ele>13.8</ele>
        <time>2019-10-27T10:10:49Z</time>
      </trkpt>
      <trkpt lat="39.532837065424" lon="2.56029410269">
        <ele>13.6</ele>
        <time>2019-10-27T10:10:50Z</time>
      </trkpt>
      <trkpt lat="39.532865228608" lon="2.56035109961">
        <ele>13.4</ele>
        <time>2019-10-27T10:10:51Z</time>
      </trkpt>
      <trkpt lat="39.532890961041" lon="2.560409353815">
        <ele>13.2</ele>
        <time>2019-10-27T10:10:52Z</time>
      </trkpt>
      <trkpt lat="39.532914597999" lon="2.560466518373">
        <ele>13</ele>
        <time>2019-10-27T10:10:53Z</time>
      </trkpt>
      <trkpt lat="39.532935385111" lon="2.560520833085">
        <ele>12.8</ele>
        <time>2019-10-27T10:10:54Z</time>
      </trkpt>
      <trkpt lat="39.532953490015" lon="2.56057238177">
        <ele>12.8</ele>
        <time>2019-10-27T10:10:55Z</time>
      </trkpt>
      <trkpt lat="39.532971678738" lon="2.560620912971">
        <ele>12.6</ele>
        <time>2019-10-27T10:10:56Z</time>
      </trkpt>
      <trkpt lat="39.532991124746" lon="2.560669360353">
        <ele>12.6</ele>
        <time>2019-10-27T10:10:57Z</time>
      </trkpt>
      <trkpt lat="39.533009648745" lon="2.560717053364">
        <ele>12.4</ele>
        <time>2019-10-27T10:10:58Z</time>
      </trkpt>
      <trkpt lat="39.533026999278" lon="2.560762231805">
        <ele>12.4</ele>
        <time>2019-10-27T10:10:59Z</time>
      </trkpt>
      <trkpt lat="39.533044182173" lon="2.560803219296">
        <ele>12.4</ele>
        <time>2019-10-27T10:11:00Z</time>
      </trkpt>
      <trkpt lat="39.533060610697" lon="2.560843284778">
        <ele>12.4</ele>
        <time>2019-10-27T10:11:01Z</time>
      </trkpt>
      <trkpt lat="39.533076787764" lon="2.560884607545">
        <ele>12.4</ele>
        <time>2019-10-27T10:11:02Z</time>
      </trkpt>
      <trkpt lat="39.533091623727" lon="2.560924505389">
        <ele>12.4</ele>
        <time>2019-10-27T10:11:03Z</time>
      </trkpt>
      <trkpt lat="39.533106627328" lon="2.560963732681">
        <ele>12.4</ele>
        <time>2019-10-27T10:11:04Z</time>
      </trkpt>
      <trkpt lat="39.533120960377" lon="2.561001032136">
        <ele>12.4</ele>
        <time>2019-10-27T10:11:05Z</time>
      </trkpt>
      <trkpt lat="39.533135209607" lon="2.561037409582">
        <ele>12.4</ele>
        <time>2019-10-27T10:11:06Z</time>
      </trkpt>
      <trkpt lat="39.533150129389" lon="2.56107194301">
        <ele>12.4</ele>
        <time>2019-10-27T10:11:07Z</time>
      </trkpt>
      <trkpt lat="39.533166306456" lon="2.561104129506">
        <ele>12.4</ele>
        <time>2019-10-27T10:11:08Z</time>
      </trkpt>
      <trkpt lat="39.533185501007" lon="2.561133214699">
        <ele>12.6</ele>
        <time>2019-10-27T10:11:09Z</time>
      </trkpt>
      <trkpt lat="39.533204611739" lon="2.561165904109">
        <ele>12.6</ele>
        <time>2019-10-27T10:11:10Z</time>
      </trkpt>
      <trkpt lat="39.533219866797" lon="2.561201359546">
        <ele>12.6</ele>
        <time>2019-10-27T10:11:11Z</time>
      </trkpt>
      <trkpt lat="39.533232439647" lon="2.561234719508">
        <ele>12.6</ele>
        <time>2019-10-27T10:11:12Z</time>
      </trkpt>
      <trkpt lat="39.53324308466" lon="2.561267157461">
        <ele>12.6</ele>
        <time>2019-10-27T10:11:13Z</time>
      </trkpt>
      <trkpt lat="39.533253813492" lon="2.561301523251">
        <ele>12.6</ele>
        <time>2019-10-27T10:11:14Z</time>
      </trkpt>
      <trkpt lat="39.533266889256" lon="2.561337481602">
        <ele>12.6</ele>
        <time>2019-10-27T10:11:15Z</time>
      </trkpt>
      <trkpt lat="39.533282731047" lon="2.561371260659">
        <ele>12.6</ele>
        <time>2019-10-27T10:11:16Z</time>
      </trkpt>
      <trkpt lat="39.533299913942" lon="2.561406297001">
        <ele>12.6</ele>
        <time>2019-10-27T10:11:17Z</time>
      </trkpt>
      <trkpt lat="39.533317599751" lon="2.56144577575">
        <ele>12.6</ele>
        <time>2019-10-27T10:11:18Z</time>
      </trkpt>
      <trkpt lat="39.53333528556" lon="2.561488271983">
        <ele>12.6</ele>
        <time>2019-10-27T10:11:19Z</time>
      </trkpt>
      <trkpt lat="39.533351294989" lon="2.561531103492">
        <ele>12.6</ele>
        <time>2019-10-27T10:11:20Z</time>
      </trkpt>
      <trkpt lat="39.53336629859" lon="2.561572426259">
        <ele>12.6</ele>
        <time>2019-10-27T10:11:21Z</time>
      </trkpt>
      <trkpt lat="39.533381134553" lon="2.561615425406">
        <ele>12.6</ele>
        <time>2019-10-27T10:11:22Z</time>
      </trkpt>
      <trkpt lat="39.533394964688" lon="2.561659178924">
        <ele>12.6</ele>
        <time>2019-10-27T10:11:23Z</time>
      </trkpt>
      <trkpt lat="39.533408375728" lon="2.561702848623">
        <ele>12.4</ele>
        <time>2019-10-27T10:11:24Z</time>
      </trkpt>
      <trkpt lat="39.533421116216" lon="2.561746602141">
        <ele>12.2</ele>
        <time>2019-10-27T10:11:25Z</time>
      </trkpt>
      <trkpt lat="39.533433689066" lon="2.561789685107">
        <ele>12.2</ele>
        <time>2019-10-27T10:11:26Z</time>
      </trkpt>
      <trkpt lat="39.533446261916" lon="2.561831846064">
        <ele>12</ele>
        <time>2019-10-27T10:11:27Z</time>
      </trkpt>
      <trkpt lat="39.533457158386" lon="2.561872498279">
        <ele>12</ele>
        <time>2019-10-27T10:11:28Z</time>
      </trkpt>
      <trkpt lat="39.533466713752" lon="2.561914826874">
        <ele>11.8</ele>
        <time>2019-10-27T10:11:29Z</time>
      </trkpt>
      <trkpt lat="39.53347610148" lon="2.561956820193">
        <ele>11.8</ele>
        <time>2019-10-27T10:11:30Z</time>
      </trkpt>
      <trkpt lat="39.533486914131" lon="2.561999232607">
        <ele>11.8</ele>
        <time>2019-10-27T10:11:31Z</time>
      </trkpt>
      <trkpt lat="39.533498481153" lon="2.562042483211">
        <ele>11.6</ele>
        <time>2019-10-27T10:11:32Z</time>
      </trkpt>
      <trkpt lat="39.533510299632" lon="2.5620869911">
        <ele>11.6</ele>
        <time>2019-10-27T10:11:33Z</time>
      </trkpt>
      <trkpt lat="39.533522285749" lon="2.56213225336">
        <ele>11.6</ele>
        <time>2019-10-27T10:11:34Z</time>
      </trkpt>
      <trkpt lat="39.53353477478" lon="2.562179694914">
        <ele>11.6</ele>
        <time>2019-10-27T10:11:35Z</time>
      </trkpt>
      <trkpt lat="39.533545838888" lon="2.562227220287">
        <ele>11.4</ele>
        <time>2019-10-27T10:11:36Z</time>
      </trkpt>
      <trkpt lat="39.53355572953" lon="2.562273488375">
        <ele>11.4</ele>
        <time>2019-10-27T10:11:37Z</time>
      </trkpt>
      <trkpt lat="39.53356327324" lon="2.562319924101">
        <ele>11.4</ele>
        <time>2019-10-27T10:11:38Z</time>
      </trkpt>
      <trkpt lat="39.533570733131" lon="2.562368120026">
        <ele>11.4</ele>
        <time>2019-10-27T10:11:39Z</time>
      </trkpt>
      <trkpt lat="39.533578276841" lon="2.562415896856">
        <ele>11.4</ele>
        <time>2019-10-27T10:11:40Z</time>
      </trkpt>
      <trkpt lat="39.533584730904" lon="2.562465182428">
        <ele>11.4</ele>
        <time>2019-10-27T10:11:41Z</time>
      </trkpt>
      <trkpt lat="39.533592106976" lon="2.562514887095">
        <ele>11.4</ele>
        <time>2019-10-27T10:11:42Z</time>
      </trkpt>
      <trkpt lat="39.533600237419" lon="2.562564591762">
        <ele>11.6</ele>
        <time>2019-10-27T10:11:43Z</time>
      </trkpt>
      <trkpt lat="39.533607864948" lon="2.562613961153">
        <ele>11.6</ele>
        <time>2019-10-27T10:11:44Z</time>
      </trkpt>
      <trkpt lat="39.533614738106" lon="2.562662324716">
        <ele>11.6</ele>
        <time>2019-10-27T10:11:45Z</time>
      </trkpt>
      <trkpt lat="39.533620940712" lon="2.562709933908">
        <ele>11.8</ele>
        <time>2019-10-27T10:11:46Z</time>
      </trkpt>
      <trkpt lat="39.533625634576" lon="2.562755615263">
        <ele>11.8</ele>
        <time>2019-10-27T10:11:47Z</time>
      </trkpt>
      <trkpt lat="39.533630831354" lon="2.562800877523">
        <ele>12</ele>
        <time>2019-10-27T10:11:48Z</time>
      </trkpt>
      <trkpt lat="39.533635273761" lon="2.562846558878">
        <ele>12</ele>
        <time>2019-10-27T10:11:49Z</time>
      </trkpt>
      <trkpt lat="39.533639129435" lon="2.56289332988">
        <ele>12</ele>
        <time>2019-10-27T10:11:50Z</time>
      </trkpt>
      <trkpt lat="39.533640721996" lon="2.562941190529">
        <ele>12.2</ele>
        <time>2019-10-27T10:11:51Z</time>
      </trkpt>
      <trkpt lat="39.533640889634" lon="2.56299055992">
        <ele>12.2</ele>
        <time>2019-10-27T10:11:52Z</time>
      </trkpt>
      <trkpt lat="39.533642398376" lon="2.563041018958">
        <ele>12.4</ele>
        <time>2019-10-27T10:11:53Z</time>
      </trkpt>
      <trkpt lat="39.533644410032" lon="2.563092986738">
        <ele>12.4</ele>
        <time>2019-10-27T10:11:54Z</time>
      </trkpt>
      <trkpt lat="39.533644326213" lon="2.563145792708">
        <ele>12.4</ele>
        <time>2019-10-27T10:11:55Z</time>
      </trkpt>
      <trkpt lat="39.533646170231" lon="2.563198682497">
        <ele>12.4</ele>
        <time>2019-10-27T10:11:56Z</time>
      </trkpt>
      <trkpt lat="39.533646337869" lon="2.563249057716">
        <ele>12.4</ele>
        <time>2019-10-27T10:11:57Z</time>
      </trkpt>
      <trkpt lat="39.533648265706" lon="2.56329901384">
        <ele>12.4</ele>
        <time>2019-10-27T10:11:58Z</time>
      </trkpt>
      <trkpt lat="39.533648600982" lon="2.563346623032">
        <ele>12.6</ele>
        <time>2019-10-27T10:11:59Z</time>
      </trkpt>
      <trkpt lat="39.533645834955" lon="2.563392555844">
        <ele>12.6</ele>
        <time>2019-10-27T10:12:00Z</time>
      </trkpt>
      <trkpt lat="39.533643571842" lon="2.563433208059">
        <ele>12.6</ele>
        <time>2019-10-27T10:12:01Z</time>
      </trkpt>
      <trkpt lat="39.533642733652" lon="2.563466065107">
        <ele>12.6</ele>
        <time>2019-10-27T10:12:02Z</time>
      </trkpt>
      <trkpt lat="39.533641141091" lon="2.56349347392">
        <ele>12.6</ele>
        <time>2019-10-27T10:12:03Z</time>
      </trkpt>
      <trkpt lat="39.533638961797" lon="2.563516356507">
        <ele>12.6</ele>
        <time>2019-10-27T10:12:04Z</time>
      </trkpt>
      <trkpt lat="39.533638626521" lon="2.563535886334">
        <ele>12.6</ele>
        <time>2019-10-27T10:12:05Z</time>
      </trkpt>
      <trkpt lat="39.533638877978" lon="2.563554494152">
        <ele>12.6</ele>
        <time>2019-10-27T10:12:06Z</time>
      </trkpt>
      <trkpt lat="39.533639967625" lon="2.563571509409">
        <ele>12.8</ele>
        <time>2019-10-27T10:12:07Z</time>
      </trkpt>
      <trkpt lat="39.533641308729" lon="2.563591039236">
        <ele>12.8</ele>
        <time>2019-10-27T10:12:08Z</time>
      </trkpt>
      <trkpt lat="39.533640302901" lon="2.563611742529">
        <ele>12.8</ele>
        <time>2019-10-27T10:12:09Z</time>
      </trkpt>
      <trkpt lat="39.53363703396" lon="2.56363177527">
        <ele>13</ele>
        <time>2019-10-27T10:12:10Z</time>
      </trkpt>
      <trkpt lat="39.533633513562" lon="2.563651808011">
        <ele>13</ele>
        <time>2019-10-27T10:12:11Z</time>
      </trkpt>
      <trkpt lat="39.533631082811" lon="2.563672259847">
        <ele>13</ele>
        <time>2019-10-27T10:12:12Z</time>
      </trkpt>
      <trkpt lat="39.533630076983" lon="2.563698998108">
        <ele>13</ele>
        <time>2019-10-27T10:12:13Z</time>
      </trkpt>
      <trkpt lat="39.533629406431" lon="2.563731100785">
        <ele>13</ele>
        <time>2019-10-27T10:12:14Z</time>
      </trkpt>
      <trkpt lat="39.533629154974" lon="2.563763706376">
        <ele>13</ele>
        <time>2019-10-27T10:12:15Z</time>
      </trkpt>
      <trkpt lat="39.533631837182" lon="2.56379522232">
        <ele>13</ele>
        <time>2019-10-27T10:12:16Z</time>
      </trkpt>
      <trkpt lat="39.533634267933" lon="2.563823553142">
        <ele>13</ele>
        <time>2019-10-27T10:12:17Z</time>
      </trkpt>
      <trkpt lat="39.53363619577" lon="2.563851464869">
        <ele>13</ele>
        <time>2019-10-27T10:12:18Z</time>
      </trkpt>
      <trkpt lat="39.533637704512" lon="2.56388239408">
        <ele>13</ele>
        <time>2019-10-27T10:12:19Z</time>
      </trkpt>
      <trkpt lat="39.533642649833" lon="2.563913658567">
        <ele>13</ele>
        <time>2019-10-27T10:12:20Z</time>
      </trkpt>
      <trkpt lat="39.533649774448" lon="2.563946599434">
        <ele>13</ele>
        <time>2019-10-27T10:12:21Z</time>
      </trkpt>
      <trkpt lat="39.533656815244" lon="2.563980127034">
        <ele>13</ele>
        <time>2019-10-27T10:12:22Z</time>
      </trkpt>
      <trkpt lat="39.533663604583" lon="2.564009882779">
        <ele>13</ele>
        <time>2019-10-27T10:12:23Z</time>
      </trkpt>
      <trkpt lat="39.533674249596" lon="2.564036872497">
        <ele>13</ele>
        <time>2019-10-27T10:12:24Z</time>
      </trkpt>
      <trkpt lat="39.533682882953" lon="2.564063610758">
        <ele>13</ele>
        <time>2019-10-27T10:12:25Z</time>
      </trkpt>
      <trkpt lat="39.533690342844" lon="2.56408775063">
        <ele>13</ele>
        <time>2019-10-27T10:12:26Z</time>
      </trkpt>
      <trkpt lat="39.53370241278" lon="2.56411457271">
        <ele>13</ele>
        <time>2019-10-27T10:12:27Z</time>
      </trkpt>
      <trkpt lat="39.533715572363" lon="2.56414726212">
        <ele>13</ele>
        <time>2019-10-27T10:12:28Z</time>
      </trkpt>
      <trkpt lat="39.533729821593" lon="2.564188668706">
        <ele>13</ele>
        <time>2019-10-27T10:12:29Z</time>
      </trkpt>
      <trkpt lat="39.533746417755" lon="2.56424449216">
        <ele>13</ele>
        <time>2019-10-27T10:12:30Z</time>
      </trkpt>
      <trkpt lat="39.533763349193" lon="2.564301321442">
        <ele>13.2</ele>
        <time>2019-10-27T10:12:31Z</time>
      </trkpt>
      <trkpt lat="39.53378287902" lon="2.564355887611">
        <ele>13.2</ele>
        <time>2019-10-27T10:12:32Z</time>
      </trkpt>
      <trkpt lat="39.533805845426" lon="2.564413219807">
        <ele>13.4</ele>
        <time>2019-10-27T10:12:33Z</time>
      </trkpt>
      <trkpt lat="39.533826213443" lon="2.564470552003">
        <ele>13.6</ele>
        <time>2019-10-27T10:12:34Z</time>
      </trkpt>
      <trkpt lat="39.533846749098" lon="2.564531236959">
        <ele>13.8</ele>
        <time>2019-10-27T10:12:35Z</time>
      </trkpt>
      <trkpt lat="39.533867368572" lon="2.56459485558">
        <ele>14</ele>
        <time>2019-10-27T10:12:36Z</time>
      </trkpt>
      <trkpt lat="39.53388681458" lon="2.564656211088">
        <ele>14.2</ele>
        <time>2019-10-27T10:12:37Z</time>
      </trkpt>
      <trkpt lat="39.533907014959" lon="2.564713627103">
        <ele>14.2</ele>
        <time>2019-10-27T10:12:38Z</time>
      </trkpt>
      <trkpt lat="39.533923359664" lon="2.564770288747">
        <ele>14.4</ele>
        <time>2019-10-27T10:12:39Z</time>
      </trkpt>
      <trkpt lat="39.533941129292" lon="2.5648194905">
        <ele>14.8</ele>
        <time>2019-10-27T10:12:40Z</time>
      </trkpt>
      <trkpt lat="39.533954540332" lon="2.56486559095">
        <ele>15</ele>
        <time>2019-10-27T10:12:41Z</time>
      </trkpt>
      <trkpt lat="39.533967532277" lon="2.564907584269">
        <ele>15.4</ele>
        <time>2019-10-27T10:12:42Z</time>
      </trkpt>
      <trkpt lat="39.533981781507" lon="2.564946643923">
        <ele>15.6</ele>
        <time>2019-10-27T10:12:43Z</time>
      </trkpt>
      <trkpt lat="39.533988403208" lon="2.564978578962">
        <ele>16</ele>
        <time>2019-10-27T10:12:44Z</time>
      </trkpt>
      <trkpt lat="39.533990917778" lon="2.565005149585">
        <ele>16.2</ele>
        <time>2019-10-27T10:12:45Z</time>
      </trkpt>
      <trkpt lat="39.533991755968" lon="2.565025433783">
        <ele>16.6</ele>
        <time>2019-10-27T10:12:46Z</time>
      </trkpt>
      <trkpt lat="39.533993767624" lon="2.565042113764">
        <ele>17</ele>
        <time>2019-10-27T10:12:47Z</time>
      </trkpt>
      <trkpt lat="39.533998964402" lon="2.565055524804">
        <ele>17.4</ele>
        <time>2019-10-27T10:12:48Z</time>
      </trkpt>
      <trkpt lat="39.53399997023" lon="2.565060470125">
        <ele>17.6</ele>
        <time>2019-10-27T10:12:49Z</time>
      </trkpt>
      <trkpt lat="39.533982032964" lon="2.565156023785">
        <ele>19.6</ele>
        <time>2019-10-27T10:13:04Z</time>
      </trkpt>
      <trkpt lat="39.533975997996" lon="2.565177984363">
        <ele>19.6</ele>
        <time>2019-10-27T10:13:05Z</time>
      </trkpt>
      <trkpt lat="39.533969041019" lon="2.56520002876">
        <ele>19.6</ele>
        <time>2019-10-27T10:13:06Z</time>
      </trkpt>
      <trkpt lat="39.53395554616" lon="2.565222743709">
        <ele>19.6</ele>
        <time>2019-10-27T10:13:07Z</time>
      </trkpt>
      <trkpt lat="39.533936854523" lon="2.565235316559">
        <ele>19.6</ele>
        <time>2019-10-27T10:13:08Z</time>
      </trkpt>
      <trkpt lat="39.53391363666" lon="2.565242105898">
        <ele>19.6</ele>
        <time>2019-10-27T10:13:09Z</time>
      </trkpt>
      <trkpt lat="39.533886646942" lon="2.565246296848">
        <ele>19.6</ele>
        <time>2019-10-27T10:13:10Z</time>
      </trkpt>
      <trkpt lat="39.533856555921" lon="2.565253170006">
        <ele>19.6</ele>
        <time>2019-10-27T10:13:11Z</time>
      </trkpt>
      <trkpt lat="39.533825794348" lon="2.565264401752">
        <ele>19.4</ele>
        <time>2019-10-27T10:13:12Z</time>
      </trkpt>
      <trkpt lat="39.533795703327" lon="2.565280327362">
        <ele>19.4</ele>
        <time>2019-10-27T10:13:13Z</time>
      </trkpt>
      <trkpt lat="39.533768210695" lon="2.565301198293">
        <ele>19.4</ele>
        <time>2019-10-27T10:13:14Z</time>
      </trkpt>
      <trkpt lat="39.533742981176" lon="2.565327266002">
        <ele>19.4</ele>
        <time>2019-10-27T10:13:15Z</time>
      </trkpt>
      <trkpt lat="39.533720936779" lon="2.565356267376">
        <ele>19.4</ele>
        <time>2019-10-27T10:13:16Z</time>
      </trkpt>
      <trkpt lat="39.533703334789" lon="2.565388286234">
        <ele>19.2</ele>
        <time>2019-10-27T10:13:17Z</time>
      </trkpt>
      <trkpt lat="39.533689923749" lon="2.56542131092">
        <ele>19</ele>
        <time>2019-10-27T10:13:18Z</time>
      </trkpt>
      <trkpt lat="39.533679027279" lon="2.565455425253">
        <ele>19</ele>
        <time>2019-10-27T10:13:19Z</time>
      </trkpt>
      <trkpt lat="39.533670310103" lon="2.565491802699">
        <ele>18.8</ele>
        <time>2019-10-27T10:13:20Z</time>
      </trkpt>
      <trkpt lat="39.533662095841" lon="2.565532203457">
        <ele>18.8</ele>
        <time>2019-10-27T10:13:21Z</time>
      </trkpt>
      <trkpt lat="39.53364960681" lon="2.565571933663">
        <ele>18.8</ele>
        <time>2019-10-27T10:13:22Z</time>
      </trkpt>
      <trkpt lat="39.53363703396" lon="2.56559733082">
        <ele>18.8</ele>
        <time>2019-10-27T10:13:23Z</time>
      </trkpt>
      <trkpt lat="39.533624628748" lon="2.565616525371">
        <ele>18.8</ele>
        <time>2019-10-27T10:13:24Z</time>
      </trkpt>
      <trkpt lat="39.533611972079" lon="2.565631026058">
        <ele>18.8</ele>
        <time>2019-10-27T10:13:25Z</time>
      </trkpt>
      <trkpt lat="39.533599985962" lon="2.565641419614">
        <ele>18.8</ele>
        <time>2019-10-27T10:13:26Z</time>
      </trkpt>
      <trkpt lat="39.533590849691" lon="2.565646616392">
        <ele>18.8</ele>
        <time>2019-10-27T10:13:27Z</time>
      </trkpt>
      <trkpt lat="39.533581629601" lon="2.56565265136">
        <ele>18.8</ele>
        <time>2019-10-27T10:13:28Z</time>
      </trkpt>
      <trkpt lat="39.533570733131" lon="2.565661200898">
        <ele>18.8</ele>
        <time>2019-10-27T10:13:29Z</time>
      </trkpt>
      <trkpt lat="39.53356159686" lon="2.565670001893">
        <ele>18.8</ele>
        <time>2019-10-27T10:13:30Z</time>
      </trkpt>
      <trkpt lat="39.533553298779" lon="2.565680646906">
        <ele>19</ele>
        <time>2019-10-27T10:13:31Z</time>
      </trkpt>
      <trkpt lat="39.533546090345" lon="2.565692130109">
        <ele>19.2</ele>
        <time>2019-10-27T10:13:32Z</time>
      </trkpt>
      <trkpt lat="39.533540390653" lon="2.565703194217">
        <ele>19.2</ele>
        <time>2019-10-27T10:13:33Z</time>
      </trkpt>
      <trkpt lat="39.533536032065" lon="2.565714258325">
        <ele>19.2</ele>
        <time>2019-10-27T10:13:34Z</time>
      </trkpt>
      <trkpt lat="39.533533517495" lon="2.565727334089">
        <ele>19.4</ele>
        <time>2019-10-27T10:13:35Z</time>
      </trkpt>
      <trkpt lat="39.533532930762" lon="2.565745438993">
        <ele>19.4</ele>
        <time>2019-10-27T10:13:36Z</time>
      </trkpt>
      <trkpt lat="39.533532344029" lon="2.565764298268">
        <ele>19.4</ele>
        <time>2019-10-27T10:13:37Z</time>
      </trkpt>
      <trkpt lat="39.533529158907" lon="2.565782906086">
        <ele>19.4</ele>
        <time>2019-10-27T10:13:38Z</time>
      </trkpt>
      <trkpt lat="39.533522285749" lon="2.565807632691">
        <ele>19.4</ele>
        <time>2019-10-27T10:13:39Z</time>
      </trkpt>
      <trkpt lat="39.533521112283" lon="2.565832694572">
        <ele>19.6</ele>
        <time>2019-10-27T10:13:40Z</time>
      </trkpt>
      <trkpt lat="39.533523710672" lon="2.565857085901">
        <ele>19.6</ele>
        <time>2019-10-27T10:13:41Z</time>
      </trkpt>
      <trkpt lat="39.533524800319" lon="2.565883237429">
        <ele>19.6</ele>
        <time>2019-10-27T10:13:42Z</time>
      </trkpt>
      <trkpt lat="39.533523962129" lon="2.565909053681">
        <ele>19.6</ele>
        <time>2019-10-27T10:13:43Z</time>
      </trkpt>
      <trkpt lat="39.533526476699" lon="2.565942497462">
        <ele>19.6</ele>
        <time>2019-10-27T10:13:44Z</time>
      </trkpt>
      <trkpt lat="39.533525219414" lon="2.565973845768">
        <ele>19.6</ele>
        <time>2019-10-27T10:13:45Z</time>
      </trkpt>
      <trkpt lat="39.533525135595" lon="2.566009552662">
        <ele>19.6</ele>
        <time>2019-10-27T10:13:46Z</time>
      </trkpt>
      <trkpt lat="39.533525889966" lon="2.566044421366">
        <ele>19.6</ele>
        <time>2019-10-27T10:13:47Z</time>
      </trkpt>
      <trkpt lat="39.533529997097" lon="2.566079206251">
        <ele>19.6</ele>
        <time>2019-10-27T10:13:48Z</time>
      </trkpt>
      <trkpt lat="39.533533433676" lon="2.566117511534">
        <ele>19.8</ele>
        <time>2019-10-27T10:13:49Z</time>
      </trkpt>
      <trkpt lat="39.533539384825" lon="2.566155230084">
        <ele>19.8</ele>
        <time>2019-10-27T10:13:50Z</time>
      </trkpt>
      <trkpt lat="39.53354231849" lon="2.566196133756">
        <ele>20</ele>
        <time>2019-10-27T10:13:51Z</time>
      </trkpt>
      <trkpt lat="39.533545503612" lon="2.566232762659">
        <ele>20.2</ele>
        <time>2019-10-27T10:13:52Z</time>
      </trkpt>
      <trkpt lat="39.533545252155" lon="2.566272828141">
        <ele>20.2</ele>
        <time>2019-10-27T10:13:53Z</time>
      </trkpt>
      <trkpt lat="39.533545587431" lon="2.566311049605">
        <ele>20.4</ele>
        <time>2019-10-27T10:13:54Z</time>
      </trkpt>
      <trkpt lat="39.533545922707" lon="2.566343655196">
        <ele>20.4</ele>
        <time>2019-10-27T10:13:55Z</time>
      </trkpt>
      <trkpt lat="39.533545419793" lon="2.566371650742">
        <ele>20.6</ele>
        <time>2019-10-27T10:13:56Z</time>
      </trkpt>
      <trkpt lat="39.533547599087" lon="2.566396544985">
        <ele>20.6</ele>
        <time>2019-10-27T10:13:57Z</time>
      </trkpt>
      <trkpt lat="39.533551035666" lon="2.56641875702">
        <ele>20.8</ele>
        <time>2019-10-27T10:13:58Z</time>
      </trkpt>
      <trkpt lat="39.533554304607" lon="2.566440466141">
        <ele>21</ele>
        <time>2019-10-27T10:13:59Z</time>
      </trkpt>
      <trkpt lat="39.533556232444" lon="2.566466114755">
        <ele>21.2</ele>
        <time>2019-10-27T10:14:00Z</time>
      </trkpt>
      <trkpt lat="39.533554472245" lon="2.566495283767">
        <ele>21.2</ele>
        <time>2019-10-27T10:14:01Z</time>
      </trkpt>
      <trkpt lat="39.533549526924" lon="2.566528727548">
        <ele>21.4</ele>
        <time>2019-10-27T10:14:02Z</time>
      </trkpt>
      <trkpt lat="39.533549526924" lon="2.566554040886">
        <ele>21.4</ele>
        <time>2019-10-27T10:14:03Z</time>
      </trkpt>
      <trkpt lat="39.533550113657" lon="2.56657801312">
        <ele>21.6</ele>
        <time>2019-10-27T10:14:04Z</time>
      </trkpt>
      <trkpt lat="39.533550868028" lon="2.566605421933">
        <ele>21.6</ele>
        <time>2019-10-27T10:14:05Z</time>
      </trkpt>
      <trkpt lat="39.533551203304" lon="2.566635932049">
        <ele>21.8</ele>
        <time>2019-10-27T10:14:06Z</time>
      </trkpt>
      <trkpt lat="39.533553550236" lon="2.56667105221">
        <ele>21.8</ele>
        <time>2019-10-27T10:14:07Z</time>
      </trkpt>
      <trkpt lat="39.533551790037" lon="2.566706172371">
        <ele>22</ele>
        <time>2019-10-27T10:14:08Z</time>
      </trkpt>
      <trkpt lat="39.53354902401" lon="2.566740370523">
        <ele>22.2</ele>
        <time>2019-10-27T10:14:09Z</time>
      </trkpt>
      <trkpt lat="39.533547431449" lon="2.56677834053">
        <ele>22.2</ele>
        <time>2019-10-27T10:14:10Z</time>
      </trkpt>
      <trkpt lat="39.53355237677" lon="2.566817567822">
        <ele>22.4</ele>
        <time>2019-10-27T10:14:11Z</time>
      </trkpt>
      <trkpt lat="39.533558327919" lon="2.566857717123">
        <ele>22.6</ele>
        <time>2019-10-27T10:14:12Z</time>
      </trkpt>
      <trkpt lat="39.533571152226" lon="2.566901135365">
        <ele>22.6</ele>
        <time>2019-10-27T10:14:13Z</time>
      </trkpt>
      <trkpt lat="39.533581881058" lon="2.56694262577">
        <ele>22.6</ele>
        <time>2019-10-27T10:14:14Z</time>
      </trkpt>
      <trkpt lat="39.533588838035" lon="2.566980009044">
        <ele>22.8</ele>
        <time>2019-10-27T10:14:15Z</time>
      </trkpt>
      <trkpt lat="39.533596968478" lon="2.567017643775">
        <ele>22.8</ele>
        <time>2019-10-27T10:14:16Z</time>
      </trkpt>
      <trkpt lat="39.533602500532" lon="2.567054440316">
        <ele>22.8</ele>
        <time>2019-10-27T10:14:17Z</time>
      </trkpt>
      <trkpt lat="39.53361272645" lon="2.567088638468">
        <ele>23</ele>
        <time>2019-10-27T10:14:18Z</time>
      </trkpt>
      <trkpt lat="39.533629238793" lon="2.567124345362">
        <ele>23.2</ele>
        <time>2019-10-27T10:14:19Z</time>
      </trkpt>
      <trkpt lat="39.533637955969" lon="2.567160722808">
        <ele>23.2</ele>
        <time>2019-10-27T10:14:20Z</time>
      </trkpt>
      <trkpt lat="39.533649103896" lon="2.567197854625">
        <ele>23.4</ele>
        <time>2019-10-27T10:14:21Z</time>
      </trkpt>
      <trkpt lat="39.533655977054" lon="2.567227778008">
        <ele>23.4</ele>
        <time>2019-10-27T10:14:22Z</time>
      </trkpt>
      <trkpt lat="39.533659748909" lon="2.567255773554">
        <ele>23.6</ele>
        <time>2019-10-27T10:14:23Z</time>
      </trkpt>
      <trkpt lat="39.5336672088" lon="2.567285277842">
        <ele>23.6</ele>
        <time>2019-10-27T10:14:24Z</time>
      </trkpt>
      <trkpt lat="39.533675171605" lon="2.567316290872">
        <ele>23.8</ele>
        <time>2019-10-27T10:14:25Z</time>
      </trkpt>
      <trkpt lat="39.533682463858" lon="2.56734747154">
        <ele>23.8</ele>
        <time>2019-10-27T10:14:26Z</time>
      </trkpt>
      <trkpt lat="39.533690259025" lon="2.567376305276">
        <ele>24</ele>
        <time>2019-10-27T10:14:27Z</time>
      </trkpt>
      <trkpt lat="39.533695958717" lon="2.567404636098">
        <ele>24.2</ele>
        <time>2019-10-27T10:14:28Z</time>
      </trkpt>
      <trkpt lat="39.533705346445" lon="2.56743296692">
        <ele>24.4</ele>
        <time>2019-10-27T10:14:29Z</time>
      </trkpt>
      <trkpt lat="39.533714734173" lon="2.567460962466">
        <ele>24.4</ele>
        <time>2019-10-27T10:14:30Z</time>
      </trkpt>
      <trkpt lat="39.533729653955" lon="2.567489628564">
        <ele>24.6</ele>
        <time>2019-10-27T10:14:31Z</time>
      </trkpt>
      <trkpt lat="39.533741891529" lon="2.567514690445">
        <ele>24.6</ele>
        <time>2019-10-27T10:14:32Z</time>
      </trkpt>
      <trkpt lat="39.53375186599" lon="2.567540925792">
        <ele>24.8</ele>
        <time>2019-10-27T10:14:33Z</time>
      </trkpt>
      <trkpt lat="39.533763349193" lon="2.567565233302">
        <ele>24.8</ele>
        <time>2019-10-27T10:14:34Z</time>
      </trkpt>
      <trkpt lat="39.533775502948" lon="2.567589624631">
        <ele>25</ele>
        <time>2019-10-27T10:14:35Z</time>
      </trkpt>
      <trkpt lat="39.533788075798" lon="2.567613596865">
        <ele>25</ele>
        <time>2019-10-27T10:14:36Z</time>
      </trkpt>
      <trkpt lat="39.533799223725" lon="2.56763413252">
        <ele>25</ele>
        <time>2019-10-27T10:14:37Z</time>
      </trkpt>
      <trkpt lat="39.533811880394" lon="2.567656596012">
        <ele>25.2</ele>
        <time>2019-10-27T10:14:38Z</time>
      </trkpt>
      <trkpt lat="39.533824285606" lon="2.567676377296">
        <ele>25.2</ele>
        <time>2019-10-27T10:14:39Z</time>
      </trkpt>
      <trkpt lat="39.53383568499" lon="2.56769532039">
        <ele>25.2</ele>
        <time>2019-10-27T10:14:40Z</time>
      </trkpt>
      <trkpt lat="39.533846162365" lon="2.567711162181">
        <ele>25.2</ele>
        <time>2019-10-27T10:14:41Z</time>
      </trkpt>
      <trkpt lat="39.533855466274" lon="2.567725914325">
        <ele>25.4</ele>
        <time>2019-10-27T10:14:42Z</time>
      </trkpt>
      <trkpt lat="39.533862171794" lon="2.567741001745">
        <ele>25.4</ele>
        <time>2019-10-27T10:14:43Z</time>
      </trkpt>
      <trkpt lat="39.533871978617" lon="2.567755921527">
        <ele>25.6</ele>
        <time>2019-10-27T10:14:44Z</time>
      </trkpt>
      <trkpt lat="39.53388346182" lon="2.567769835481">
        <ele>25.6</ele>
        <time>2019-10-27T10:14:45Z</time>
      </trkpt>
      <trkpt lat="39.533894442109" lon="2.567786431643">
        <ele>25.6</ele>
        <time>2019-10-27T10:14:46Z</time>
      </trkpt>
      <trkpt lat="39.533906260588" lon="2.567805039461">
        <ele>25.6</ele>
        <time>2019-10-27T10:14:47Z</time>
      </trkpt>
      <trkpt lat="39.533914726307" lon="2.567820126881">
        <ele>25.8</ele>
        <time>2019-10-27T10:14:48Z</time>
      </trkpt>
      <trkpt lat="39.533918917257" lon="2.567826497125">
        <ele>25.8</ele>
        <time>2019-10-27T10:14:49Z</time>
      </trkpt>
      <trkpt lat="39.533919084895" lon="2.56782775441">
        <ele>26</ele>
        <time>2019-10-27T10:14:50Z</time>
      </trkpt>
      <trkpt lat="39.533893017186" lon="2.567801016149">
        <ele>26.4</ele>
        <time>2019-10-27T10:14:58Z</time>
      </trkpt>
      <trkpt lat="39.533884635286" lon="2.567790119679">
        <ele>26.4</ele>
        <time>2019-10-27T10:14:59Z</time>
      </trkpt>
      <trkpt lat="39.533878600318" lon="2.567780731951">
        <ele>26.4</ele>
        <time>2019-10-27T10:15:00Z</time>
      </trkpt>
      <trkpt lat="39.533877762128" lon="2.567780396675">
        <ele>26.4</ele>
        <time>2019-10-27T10:15:01Z</time>
      </trkpt>
      <trkpt lat="39.533874577006" lon="2.567779390847">
        <ele>26.4</ele>
        <time>2019-10-27T10:15:02Z</time>
      </trkpt>
      <trkpt lat="39.53387424173" lon="2.567781234865">
        <ele>26.4</ele>
        <time>2019-10-27T10:15:03Z</time>
      </trkpt>
      <trkpt lat="39.533810287833" lon="2.567714347303">
        <ele>26.2</ele>
        <time>2019-10-27T10:17:17Z</time>
      </trkpt>
      <trkpt lat="39.533798636992" lon="2.567692722001">
        <ele>26.2</ele>
        <time>2019-10-27T10:17:18Z</time>
      </trkpt>
      <trkpt lat="39.5337845554" lon="2.567666905749">
        <ele>26.2</ele>
        <time>2019-10-27T10:17:19Z</time>
      </trkpt>
      <trkpt lat="39.533771814912" lon="2.567641843868">
        <ele>26.2</ele>
        <time>2019-10-27T10:17:20Z</time>
      </trkpt>
      <trkpt lat="39.533761756632" lon="2.5676190451">
        <ele>26.2</ele>
        <time>2019-10-27T10:17:21Z</time>
      </trkpt>
      <trkpt lat="39.533752285085" lon="2.567599850549">
        <ele>26.2</ele>
        <time>2019-10-27T10:17:22Z</time>
      </trkpt>
      <trkpt lat="39.533745579565" lon="2.567584595491">
        <ele>26.2</ele>
        <time>2019-10-27T10:17:23Z</time>
      </trkpt>
      <trkpt lat="39.5337426459" lon="2.567578392885">
        <ele>26</ele>
        <time>2019-10-27T10:17:24Z</time>
      </trkpt>
      <trkpt lat="39.533741723891" lon="2.567577638514">
        <ele>26</ele>
        <time>2019-10-27T10:17:25Z</time>
      </trkpt>
      <trkpt lat="39.533726049738" lon="2.56753606429">
        <ele>25.4</ele>
        <time>2019-10-27T10:18:07Z</time>
      </trkpt>
      <trkpt lat="39.533719260399" lon="2.567514858083">
        <ele>25.4</ele>
        <time>2019-10-27T10:18:08Z</time>
      </trkpt>
      <trkpt lat="39.533710710861" lon="2.567488538917">
        <ele>25.4</ele>
        <time>2019-10-27T10:18:09Z</time>
      </trkpt>
      <trkpt lat="39.533703334789" lon="2.567456100964">
        <ele>25.2</ele>
        <time>2019-10-27T10:18:10Z</time>
      </trkpt>
      <trkpt lat="39.533697048364" lon="2.567421316079">
        <ele>25.2</ele>
        <time>2019-10-27T10:18:11Z</time>
      </trkpt>
      <trkpt lat="39.533688750283" lon="2.567382843158">
        <ele>25.2</ele>
        <time>2019-10-27T10:18:12Z</time>
      </trkpt>
      <trkpt lat="39.533677602356" lon="2.56733908964">
        <ele>25.2</ele>
        <time>2019-10-27T10:18:13Z</time>
      </trkpt>
      <trkpt lat="39.533666119153" lon="2.567291983362">
        <ele>25.2</ele>
        <time>2019-10-27T10:18:14Z</time>
      </trkpt>
      <trkpt lat="39.533658072529" lon="2.567239428849">
        <ele>25.2</ele>
        <time>2019-10-27T10:18:15Z</time>
      </trkpt>
      <trkpt lat="39.533650109724" lon="2.567187041974">
        <ele>25.2</ele>
        <time>2019-10-27T10:18:16Z</time>
      </trkpt>
      <trkpt lat="39.533642733652" lon="2.567131972891">
        <ele>25.2</ele>
        <time>2019-10-27T10:18:17Z</time>
      </trkpt>
      <trkpt lat="39.533636279589" lon="2.567077322903">
        <ele>24.8</ele>
        <time>2019-10-27T10:18:18Z</time>
      </trkpt>
      <trkpt lat="39.533635525218" lon="2.567023427286">
        <ele>24.8</ele>
        <time>2019-10-27T10:18:19Z</time>
      </trkpt>
      <trkpt lat="39.533637453055" lon="2.566969866945">
        <ele>24.8</ele>
        <time>2019-10-27T10:18:20Z</time>
      </trkpt>
      <trkpt lat="39.533635189942" lon="2.566921503382">
        <ele>24.6</ele>
        <time>2019-10-27T10:18:21Z</time>
      </trkpt>
      <trkpt lat="39.533629993164" lon="2.566876576398">
        <ele>24.4</ele>
        <time>2019-10-27T10:18:22Z</time>
      </trkpt>
      <trkpt lat="39.533625131662" lon="2.566822345505">
        <ele>24.4</ele>
        <time>2019-10-27T10:18:23Z</time>
      </trkpt>
      <trkpt lat="39.533613899916" lon="2.566768533707">
        <ele>24.4</ele>
        <time>2019-10-27T10:18:24Z</time>
      </trkpt>
      <trkpt lat="39.533605266559" lon="2.566714973366">
        <ele>24.2</ele>
        <time>2019-10-27T10:18:25Z</time>
      </trkpt>
      <trkpt lat="39.533596130288" lon="2.56666183212">
        <ele>24</ele>
        <time>2019-10-27T10:18:26Z</time>
      </trkpt>
      <trkpt lat="39.533590765872" lon="2.5666048352">
        <ele>23.8</ele>
        <time>2019-10-27T10:18:27Z</time>
      </trkpt>
      <trkpt lat="39.533585233818" lon="2.566552699782">
        <ele>23.6</ele>
        <time>2019-10-27T10:18:28Z</time>
      </trkpt>
      <trkpt lat="39.533583222162" lon="2.566494277939">
        <ele>23.4</ele>
        <time>2019-10-27T10:18:29Z</time>
      </trkpt>
      <trkpt lat="39.533580959049" lon="2.566434263535">
        <ele>23.2</ele>
        <time>2019-10-27T10:18:30Z</time>
      </trkpt>
      <trkpt lat="39.533577103375" lon="2.566375254959">
        <ele>22.8</ele>
        <time>2019-10-27T10:18:31Z</time>
      </trkpt>
      <trkpt lat="39.53357333152" lon="2.566312139252">
        <ele>22.8</ele>
        <time>2019-10-27T10:18:32Z</time>
      </trkpt>
      <trkpt lat="39.533570314036" lon="2.566247179527">
        <ele>22.6</ele>
        <time>2019-10-27T10:18:33Z</time>
      </trkpt>
      <trkpt lat="39.533566458362" lon="2.56618741658">
        <ele>22.4</ele>
        <time>2019-10-27T10:18:34Z</time>
      </trkpt>
      <trkpt lat="39.533562518869" lon="2.566126983081">
        <ele>22.2</ele>
        <time>2019-10-27T10:18:35Z</time>
      </trkpt>
      <trkpt lat="39.533554556064" lon="2.56606671722">
        <ele>22</ele>
        <time>2019-10-27T10:18:36Z</time>
      </trkpt>
      <trkpt lat="39.533547431449" lon="2.566010307033">
        <ele>21.6</ele>
        <time>2019-10-27T10:18:37Z</time>
      </trkpt>
      <trkpt lat="39.533546174164" lon="2.565961440556">
        <ele>21.2</ele>
        <time>2019-10-27T10:18:38Z</time>
      </trkpt>
      <trkpt lat="39.533546257983" lon="2.565919866332">
        <ele>21</ele>
        <time>2019-10-27T10:18:39Z</time>
      </trkpt>
      <trkpt lat="39.533542821404" lon="2.565884913809">
        <ele>20.8</ele>
        <time>2019-10-27T10:18:40Z</time>
      </trkpt>
      <trkpt lat="39.533543240499" lon="2.565854487512">
        <ele>20.6</ele>
        <time>2019-10-27T10:18:41Z</time>
      </trkpt>
      <trkpt lat="39.533543491956" lon="2.565832359296">
        <ele>20.6</ele>
        <time>2019-10-27T10:18:42Z</time>
      </trkpt>
      <trkpt lat="39.533545755069" lon="2.56581274565">
        <ele>20.2</ele>
        <time>2019-10-27T10:18:43Z</time>
      </trkpt>
      <trkpt lat="39.533548940191" lon="2.565798915515">
        <ele>20</ele>
        <time>2019-10-27T10:18:44Z</time>
      </trkpt>
      <trkpt lat="39.533552041494" lon="2.565788186683">
        <ele>19.8</ele>
        <time>2019-10-27T10:18:45Z</time>
      </trkpt>
      <trkpt lat="39.533558327919" lon="2.565779134231">
        <ele>19.8</ele>
        <time>2019-10-27T10:18:46Z</time>
      </trkpt>
      <trkpt lat="39.533561680679" lon="2.565773266901">
        <ele>19.6</ele>
        <time>2019-10-27T10:18:47Z</time>
      </trkpt>
      <trkpt lat="39.533563105602" lon="2.565764801182">
        <ele>19.4</ele>
        <time>2019-10-27T10:18:48Z</time>
      </trkpt>
      <trkpt lat="39.533567883285" lon="2.5657582633">
        <ele>19.4</ele>
        <time>2019-10-27T10:18:49Z</time>
      </trkpt>
      <trkpt lat="39.533574002072" lon="2.565756670739">
        <ele>19.4</ele>
        <time>2019-10-27T10:18:50Z</time>
      </trkpt>
      <trkpt lat="39.533585820551" lon="2.565751473961">
        <ele>19.4</ele>
        <time>2019-10-27T10:18:51Z</time>
      </trkpt>
      <trkpt lat="39.533601578523" lon="2.565747450649">
        <ele>19.2</ele>
        <time>2019-10-27T10:18:52Z</time>
      </trkpt>
      <trkpt lat="39.533618174685" lon="2.565738230559">
        <ele>19.2</ele>
        <time>2019-10-27T10:18:53Z</time>
      </trkpt>
      <trkpt lat="39.53362949025" lon="2.565717946361">
        <ele>19</ele>
        <time>2019-10-27T10:18:54Z</time>
      </trkpt>
      <trkpt lat="39.533636279589" lon="2.565688022978">
        <ele>19</ele>
        <time>2019-10-27T10:18:55Z</time>
      </trkpt>
      <trkpt lat="39.533644410032" lon="2.565655082111">
        <ele>19</ele>
        <time>2019-10-27T10:18:56Z</time>
      </trkpt>
      <trkpt lat="39.533656479968" lon="2.565620213407">
        <ele>19</ele>
        <time>2019-10-27T10:18:57Z</time>
      </trkpt>
      <trkpt lat="39.533669891008" lon="2.565584255056">
        <ele>19</ele>
        <time>2019-10-27T10:18:58Z</time>
      </trkpt>
      <trkpt lat="39.533686738627" lon="2.565546955601">
        <ele>19</ele>
        <time>2019-10-27T10:18:59Z</time>
      </trkpt>
      <trkpt lat="39.533705597902" lon="2.565510075241">
        <ele>19</ele>
        <time>2019-10-27T10:19:00Z</time>
      </trkpt>
      <trkpt lat="39.533724624815" lon="2.565474200709">
        <ele>18.8</ele>
        <time>2019-10-27T10:19:01Z</time>
      </trkpt>
      <trkpt lat="39.533746417755" lon="2.565443271498">
        <ele>18.8</ele>
        <time>2019-10-27T10:19:02Z</time>
      </trkpt>
      <trkpt lat="39.533770725265" lon="2.565414940676">
        <ele>18.8</ele>
        <time>2019-10-27T10:19:03Z</time>
      </trkpt>
      <trkpt lat="39.533801486838" lon="2.565391219899">
        <ele>18.8</ele>
        <time>2019-10-27T10:19:04Z</time>
      </trkpt>
      <trkpt lat="39.53383233223" lon="2.565373869366">
        <ele>18.4</ele>
        <time>2019-10-27T10:19:05Z</time>
      </trkpt>
      <trkpt lat="39.533861417423" lon="2.565363894905">
        <ele>18.4</ele>
        <time>2019-10-27T10:19:06Z</time>
      </trkpt>
      <trkpt lat="39.533886730761" lon="2.56535844667">
        <ele>18.4</ele>
        <time>2019-10-27T10:19:07Z</time>
      </trkpt>
      <trkpt lat="39.533909278072" lon="2.565354088082">
        <ele>18.4</ele>
        <time>2019-10-27T10:19:08Z</time>
      </trkpt>
      <trkpt lat="39.533929143175" lon="2.565348639847">
        <ele>18.4</ele>
        <time>2019-10-27T10:19:09Z</time>
      </trkpt>
      <trkpt lat="39.5339438115" lon="2.565338078653">
        <ele>18.4</ele>
        <time>2019-10-27T10:19:10Z</time>
      </trkpt>
      <trkpt lat="39.533951103753" lon="2.565330702581">
        <ele>18.4</ele>
        <time>2019-10-27T10:19:11Z</time>
      </trkpt>
      <trkpt lat="39.533954456513" lon="2.565327768916">
        <ele>18.4</ele>
        <time>2019-10-27T10:19:12Z</time>
      </trkpt>
      <trkpt lat="39.533957809273" lon="2.565323661785">
        <ele>18.4</ele>
        <time>2019-10-27T10:19:13Z</time>
      </trkpt>
      <trkpt lat="39.533960826757" lon="2.565314357876">
        <ele>18.4</ele>
        <time>2019-10-27T10:19:14Z</time>
      </trkpt>
      <trkpt lat="39.533966694087" lon="2.565306562709">
        <ele>18.4</ele>
        <time>2019-10-27T10:19:15Z</time>
      </trkpt>
      <trkpt lat="39.533975578901" lon="2.565288625443">
        <ele>18.4</ele>
        <time>2019-10-27T10:19:16Z</time>
      </trkpt>
      <trkpt lat="39.533983541706" lon="2.565269347073">
        <ele>18.6</ele>
        <time>2019-10-27T10:19:17Z</time>
      </trkpt>
      <trkpt lat="39.533992258882" lon="2.565250152522">
        <ele>18.8</ele>
        <time>2019-10-27T10:19:18Z</time>
      </trkpt>
      <trkpt lat="39.534002149524" lon="2.565228191944">
        <ele>18.8</ele>
        <time>2019-10-27T10:19:19Z</time>
      </trkpt>
      <trkpt lat="39.534006843388" lon="2.565212936886">
        <ele>19</ele>
        <time>2019-10-27T10:19:20Z</time>
      </trkpt>
      <trkpt lat="39.534011369614" lon="2.56520421971">
        <ele>19</ele>
        <time>2019-10-27T10:19:21Z</time>
      </trkpt>
      <trkpt lat="39.534018661867" lon="2.565190724851">
        <ele>19</ele>
        <time>2019-10-27T10:19:22Z</time>
      </trkpt>
      <trkpt lat="39.534025618844" lon="2.56517236849">
        <ele>19</ele>
        <time>2019-10-27T10:19:23Z</time>
      </trkpt>
      <trkpt lat="39.534036347676" lon="2.565151916654">
        <ele>19</ele>
        <time>2019-10-27T10:19:24Z</time>
      </trkpt>
      <trkpt lat="39.534042801739" lon="2.565128447334">
        <ele>19</ele>
        <time>2019-10-27T10:19:25Z</time>
      </trkpt>
      <trkpt lat="39.534042131187" lon="2.565102463444">
        <ele>19</ele>
        <time>2019-10-27T10:19:26Z</time>
      </trkpt>
      <trkpt lat="39.534035006572" lon="2.565071618052">
        <ele>19</ele>
        <time>2019-10-27T10:19:27Z</time>
      </trkpt>
      <trkpt lat="39.534026540853" lon="2.565039683013">
        <ele>19</ele>
        <time>2019-10-27T10:19:28Z</time>
      </trkpt>
      <trkpt lat="39.534016398754" lon="2.565003305567">
        <ele>19</ele>
        <time>2019-10-27T10:19:29Z</time>
      </trkpt>
      <trkpt lat="39.533999886411" lon="2.564951337787">
        <ele>19</ele>
        <time>2019-10-27T10:19:30Z</time>
      </trkpt>
      <trkpt lat="39.533981278593" lon="2.564893335039">
        <ele>18.8</ele>
        <time>2019-10-27T10:19:31Z</time>
      </trkpt>
      <trkpt lat="39.533956887264" lon="2.564827956219">
        <ele>18.8</ele>
        <time>2019-10-27T10:19:32Z</time>
      </trkpt>
      <trkpt lat="39.533935597238" lon="2.564762409761">
        <ele>18.6</ele>
        <time>2019-10-27T10:19:33Z</time>
      </trkpt>
      <trkpt lat="39.533913971936" lon="2.564699042597">
        <ele>18</ele>
        <time>2019-10-27T10:19:34Z</time>
      </trkpt>
      <trkpt lat="39.533891927539" lon="2.564636429804">
        <ele>17.8</ele>
        <time>2019-10-27T10:19:35Z</time>
      </trkpt>
      <trkpt lat="39.533871224246" lon="2.564578427056">
        <ele>17.6</ele>
        <time>2019-10-27T10:19:36Z</time>
      </trkpt>
      <trkpt lat="39.533850269496" lon="2.564524279982">
        <ele>17.2</ele>
        <time>2019-10-27T10:19:37Z</time>
      </trkpt>
      <trkpt lat="39.533829901479" lon="2.564473737125">
        <ele>17</ele>
        <time>2019-10-27T10:19:38Z</time>
      </trkpt>
      <trkpt lat="39.533808695272" lon="2.564424535372">
        <ele>16.6</ele>
        <time>2019-10-27T10:19:39Z</time>
      </trkpt>
      <trkpt lat="39.533787824341" lon="2.564379189293">
        <ele>16.2</ele>
        <time>2019-10-27T10:19:40Z</time>
      </trkpt>
      <trkpt lat="39.533768294514" lon="2.564332837386">
        <ele>15.8</ele>
        <time>2019-10-27T10:19:41Z</time>
      </trkpt>
      <trkpt lat="39.533752201266" lon="2.564277684484">
        <ele>15.6</ele>
        <time>2019-10-27T10:19:42Z</time>
      </trkpt>
      <trkpt lat="39.533737449122" lon="2.564213060035">
        <ele>15.2</ele>
        <time>2019-10-27T10:19:43Z</time>
      </trkpt>
      <trkpt lat="39.533722696978" lon="2.564141981523">
        <ele>14.8</ele>
        <time>2019-10-27T10:19:44Z</time>
      </trkpt>
      <trkpt lat="39.533711129956" lon="2.564068304622">
        <ele>14.6</ele>
        <time>2019-10-27T10:19:45Z</time>
      </trkpt>
      <trkpt lat="39.533701323133" lon="2.563994124807">
        <ele>14.2</ele>
        <time>2019-10-27T10:19:46Z</time>
      </trkpt>
      <trkpt lat="39.533693863242" lon="2.563922878657">
        <ele>14</ele>
        <time>2019-10-27T10:19:47Z</time>
      </trkpt>
      <trkpt lat="39.533689337016" lon="2.563862361339">
        <ele>13.8</ele>
        <time>2019-10-27T10:19:48Z</time>
      </trkpt>
      <trkpt lat="39.533684475514" lon="2.563807543713">
        <ele>13.6</ele>
        <time>2019-10-27T10:19:49Z</time>
      </trkpt>
      <trkpt lat="39.533681290392" lon="2.563760605073">
        <ele>13.4</ele>
        <time>2019-10-27T10:19:50Z</time>
      </trkpt>
      <trkpt lat="39.533678859641" lon="2.563725987826">
        <ele>13.2</ele>
        <time>2019-10-27T10:19:51Z</time>
      </trkpt>
      <trkpt lat="39.533678021451" lon="2.563702015592">
        <ele>12.8</ele>
        <time>2019-10-27T10:19:52Z</time>
      </trkpt>
      <trkpt lat="39.533676093614" lon="2.563675528788">
        <ele>12.8</ele>
        <time>2019-10-27T10:19:53Z</time>
      </trkpt>
      <trkpt lat="39.533676345071" lon="2.56365189183">
        <ele>12.6</ele>
        <time>2019-10-27T10:19:54Z</time>
      </trkpt>
      <trkpt lat="39.533674668691" lon="2.56362171699">
        <ele>12.6</ele>
        <time>2019-10-27T10:19:55Z</time>
      </trkpt>
      <trkpt lat="39.533673243768" lon="2.563587435019">
        <ele>12.6</ele>
        <time>2019-10-27T10:19:56Z</time>
      </trkpt>
      <trkpt lat="39.533673327587" lon="2.563548040089">
        <ele>12.6</ele>
        <time>2019-10-27T10:19:57Z</time>
      </trkpt>
      <trkpt lat="39.533671315931" lon="2.563497916327">
        <ele>12.4</ele>
        <time>2019-10-27T10:19:58Z</time>
      </trkpt>
      <trkpt lat="39.533673579044" lon="2.563447205832">
        <ele>12.4</ele>
        <time>2019-10-27T10:19:59Z</time>
      </trkpt>
      <trkpt lat="39.533675003967" lon="2.563397584984">
        <ele>12.4</ele>
        <time>2019-10-27T10:20:00Z</time>
      </trkpt>
      <trkpt lat="39.533674333415" lon="2.563349137602">
        <ele>12.4</ele>
        <time>2019-10-27T10:20:01Z</time>
      </trkpt>
      <trkpt lat="39.533672824673" lon="2.563300774039">
        <ele>12.4</ele>
        <time>2019-10-27T10:20:02Z</time>
      </trkpt>
      <trkpt lat="39.533671483569" lon="2.563254505951">
        <ele>12.4</ele>
        <time>2019-10-27T10:20:03Z</time>
      </trkpt>
      <trkpt lat="39.533669052818" lon="2.563208992234">
        <ele>12.4</ele>
        <time>2019-10-27T10:20:04Z</time>
      </trkpt>
      <trkpt lat="39.533666454429" lon="2.563166160725">
        <ele>12.4</ele>
        <time>2019-10-27T10:20:05Z</time>
      </trkpt>
      <trkpt lat="39.533664191316" lon="2.563123915949">
        <ele>12.4</ele>
        <time>2019-10-27T10:20:06Z</time>
      </trkpt>
      <trkpt lat="39.533662682574" lon="2.563082174087">
        <ele>12.4</ele>
        <time>2019-10-27T10:20:07Z</time>
      </trkpt>
      <trkpt lat="39.533661090013" lon="2.563042443881">
        <ele>12.4</ele>
        <time>2019-10-27T10:20:08Z</time>
      </trkpt>
      <trkpt lat="39.533659748909" lon="2.56300397096">
        <ele>12.4</ele>
        <time>2019-10-27T10:20:09Z</time>
      </trkpt>
      <trkpt lat="39.533657653434" lon="2.562962480555">
        <ele>12.4</ele>
        <time>2019-10-27T10:20:10Z</time>
      </trkpt>
      <trkpt lat="39.533655222683" lon="2.562919816684">
        <ele>12.2</ele>
        <time>2019-10-27T10:20:11Z</time>
      </trkpt>
      <trkpt lat="39.533652540475" lon="2.562874973519">
        <ele>12.2</ele>
        <time>2019-10-27T10:20:12Z</time>
      </trkpt>
      <trkpt lat="39.533649774448" lon="2.562830046535">
        <ele>12.2</ele>
        <time>2019-10-27T10:20:13Z</time>
      </trkpt>
      <trkpt lat="39.533645751136" lon="2.562784700456">
        <ele>12.2</ele>
        <time>2019-10-27T10:20:14Z</time>
      </trkpt>
      <trkpt lat="39.533641560186" lon="2.562740192567">
        <ele>12.2</ele>
        <time>2019-10-27T10:20:15Z</time>
      </trkpt>
      <trkpt lat="39.533637704512" lon="2.562696271411">
        <ele>12.2</ele>
        <time>2019-10-27T10:20:16Z</time>
      </trkpt>
      <trkpt lat="39.533630998992" lon="2.562648913676">
        <ele>12</ele>
        <time>2019-10-27T10:20:17Z</time>
      </trkpt>
      <trkpt lat="39.533624042015" lon="2.562602897045">
        <ele>12</ele>
        <time>2019-10-27T10:20:18Z</time>
      </trkpt>
      <trkpt lat="39.533616163029" lon="2.562556712776">
        <ele>12</ele>
        <time>2019-10-27T10:20:19Z</time>
      </trkpt>
      <trkpt lat="39.533609457509" lon="2.562509355041">
        <ele>12</ele>
        <time>2019-10-27T10:20:20Z</time>
      </trkpt>
      <trkpt lat="39.533603422541" lon="2.562460656202">
        <ele>11.8</ele>
        <time>2019-10-27T10:20:21Z</time>
      </trkpt>
      <trkpt lat="39.533595795012" lon="2.562412041182">
        <ele>11.8</ele>
        <time>2019-10-27T10:20:22Z</time>
      </trkpt>
      <trkpt lat="39.533587161655" lon="2.562363258524">
        <ele>11.8</ele>
        <time>2019-10-27T10:20:23Z</time>
      </trkpt>
      <trkpt lat="39.533577271013" lon="2.562313134762">
        <ele>11.8</ele>
        <time>2019-10-27T10:20:24Z</time>
      </trkpt>
      <trkpt lat="39.533566709819" lon="2.562262424267">
        <ele>11.6</ele>
        <time>2019-10-27T10:20:25Z</time>
      </trkpt>
      <trkpt lat="39.533555058978" lon="2.562211378496">
        <ele>11.6</ele>
        <time>2019-10-27T10:20:26Z</time>
      </trkpt>
      <trkpt lat="39.533541061205" lon="2.562161003277">
        <ele>11.6</ele>
        <time>2019-10-27T10:20:27Z</time>
      </trkpt>
      <trkpt lat="39.533525470871" lon="2.562109454592">
        <ele>11.6</ele>
        <time>2019-10-27T10:20:28Z</time>
      </trkpt>
      <trkpt lat="39.533511976012" lon="2.562056648622">
        <ele>11.4</ele>
        <time>2019-10-27T10:20:29Z</time>
      </trkpt>
      <trkpt lat="39.53350040899" lon="2.562004429385">
        <ele>11.4</ele>
        <time>2019-10-27T10:20:30Z</time>
      </trkpt>
      <trkpt lat="39.533487500864" lon="2.56195371889">
        <ele>11.4</ele>
        <time>2019-10-27T10:20:31Z</time>
      </trkpt>
      <trkpt lat="39.533474173643" lon="2.561905439146">
        <ele>11.2</ele>
        <time>2019-10-27T10:20:32Z</time>
      </trkpt>
      <trkpt lat="39.53346436682" lon="2.561861853266">
        <ele>11.2</ele>
        <time>2019-10-27T10:20:33Z</time>
      </trkpt>
      <trkpt lat="39.533457409843" lon="2.561824218535">
        <ele>11.2</ele>
        <time>2019-10-27T10:20:34Z</time>
      </trkpt>
      <trkpt lat="39.533451291056" lon="2.561795552437">
        <ele>11.2</ele>
        <time>2019-10-27T10:20:35Z</time>
      </trkpt>
      <trkpt lat="39.533445675183" lon="2.561779543008">
        <ele>11.2</ele>
        <time>2019-10-27T10:20:36Z</time>
      </trkpt>
      <trkpt lat="39.53344425026" lon="2.561773340402">
        <ele>11.2</ele>
        <time>2019-10-27T10:20:37Z</time>
      </trkpt>
      <trkpt lat="39.53344508845" lon="2.561771664022">
        <ele>11.4</ele>
        <time>2019-10-27T10:20:38Z</time>
      </trkpt>
      <trkpt lat="39.533436287455" lon="2.561798569921">
        <ele>11</ele>
        <time>2019-10-27T10:21:27Z</time>
      </trkpt>
      <trkpt lat="39.533429749573" lon="2.561776106429">
        <ele>11</ele>
        <time>2019-10-27T10:21:28Z</time>
      </trkpt>
      <trkpt lat="39.533420110388" lon="2.561743919933">
        <ele>11</ele>
        <time>2019-10-27T10:21:29Z</time>
      </trkpt>
      <trkpt lat="39.533407453719" lon="2.561704357365">
        <ele>11</ele>
        <time>2019-10-27T10:21:30Z</time>
      </trkpt>
      <trkpt lat="39.533393288308" lon="2.561657670182">
        <ele>11</ele>
        <time>2019-10-27T10:21:31Z</time>
      </trkpt>
      <trkpt lat="39.533379877268" lon="2.561611988827">
        <ele>11</ele>
        <time>2019-10-27T10:21:32Z</time>
      </trkpt>
      <trkpt lat="39.533361688545" lon="2.561563792902">
        <ele>11</ele>
        <time>2019-10-27T10:21:33Z</time>
      </trkpt>
      <trkpt lat="39.533343583641" lon="2.561517524814">
        <ele>11</ele>
        <time>2019-10-27T10:21:34Z</time>
      </trkpt>
      <trkpt lat="39.533326652203" lon="2.561476956418">
        <ele>11</ele>
        <time>2019-10-27T10:21:35Z</time>
      </trkpt>
      <trkpt lat="39.533310558955" lon="2.561441500981">
        <ele>11</ele>
        <time>2019-10-27T10:21:36Z</time>
      </trkpt>
      <trkpt lat="39.533294381888" lon="2.561409230666">
        <ele>11</ele>
        <time>2019-10-27T10:21:37Z</time>
      </trkpt>
      <trkpt lat="39.533280551753" lon="2.561380983663">
        <ele>11</ele>
        <time>2019-10-27T10:21:38Z</time>
      </trkpt>
      <trkpt lat="39.533265631971" lon="2.561354999773">
        <ele>11</ele>
        <time>2019-10-27T10:21:39Z</time>
      </trkpt>
      <trkpt lat="39.533252472388" lon="2.561329854073">
        <ele>11</ele>
        <time>2019-10-27T10:21:40Z</time>
      </trkpt>
      <trkpt lat="39.533240821547" lon="2.561302612898">
        <ele>11</ele>
        <time>2019-10-27T10:21:41Z</time>
      </trkpt>
      <trkpt lat="39.533230176534" lon="2.56127143223">
        <ele>11</ele>
        <time>2019-10-27T10:21:42Z</time>
      </trkpt>
      <trkpt lat="39.533218693331" lon="2.561237653173">
        <ele>11.2</ele>
        <time>2019-10-27T10:21:43Z</time>
      </trkpt>
      <trkpt lat="39.533203941187" lon="2.561198593519">
        <ele>11.2</ele>
        <time>2019-10-27T10:21:44Z</time>
      </trkpt>
      <trkpt lat="39.53318608774" lon="2.561158192761">
        <ele>11.4</ele>
        <time>2019-10-27T10:21:45Z</time>
      </trkpt>
      <trkpt lat="39.533167396103" lon="2.561117037632">
        <ele>11.4</ele>
        <time>2019-10-27T10:21:46Z</time>
      </trkpt>
      <trkpt lat="39.533150213208" lon="2.561077307426">
        <ele>11.4</ele>
        <time>2019-10-27T10:21:47Z</time>
      </trkpt>
      <trkpt lat="39.533134455236" lon="2.561038080134">
        <ele>11.6</ele>
        <time>2019-10-27T10:21:48Z</time>
      </trkpt>
      <trkpt lat="39.533118529626" lon="2.561000361584">
        <ele>11.6</ele>
        <time>2019-10-27T10:21:49Z</time>
      </trkpt>
      <trkpt lat="39.533101765826" lon="2.560963900319">
        <ele>11.6</ele>
        <time>2019-10-27T10:21:50Z</time>
      </trkpt>
      <trkpt lat="39.533086426949" lon="2.560927522873">
        <ele>11.6</ele>
        <time>2019-10-27T10:21:51Z</time>
      </trkpt>
      <trkpt lat="39.533072680633" lon="2.560891480703">
        <ele>11.6</ele>
        <time>2019-10-27T10:21:52Z</time>
      </trkpt>
      <trkpt lat="39.533059269593" lon="2.560855270895">
        <ele>11.8</ele>
        <time>2019-10-27T10:21:53Z</time>
      </trkpt>
      <trkpt lat="39.533045607096" lon="2.560816378879">
        <ele>11.8</ele>
        <time>2019-10-27T10:21:54Z</time>
      </trkpt>
      <trkpt lat="39.533032112237" lon="2.560775810483">
        <ele>11.8</ele>
        <time>2019-10-27T10:21:55Z</time>
      </trkpt>
      <trkpt lat="39.533015348437" lon="2.560734068621">
        <ele>11.8</ele>
        <time>2019-10-27T10:21:56Z</time>
      </trkpt>
      <trkpt lat="39.532996824438" lon="2.560690147465">
        <ele>11.8</ele>
        <time>2019-10-27T10:21:57Z</time>
      </trkpt>
      <trkpt lat="39.532978384258" lon="2.560642705911">
        <ele>11.8</ele>
        <time>2019-10-27T10:21:58Z</time>
      </trkpt>
      <trkpt lat="39.532961117544" lon="2.560593085063">
        <ele>11.8</ele>
        <time>2019-10-27T10:21:59Z</time>
      </trkpt>
      <trkpt lat="39.532942593545" lon="2.560544386224">
        <ele>11.8</ele>
        <time>2019-10-27T10:22:00Z</time>
      </trkpt>
      <trkpt lat="39.53292289608" lon="2.560496860851">
        <ele>11.8</ele>
        <time>2019-10-27T10:22:01Z</time>
      </trkpt>
      <trkpt lat="39.532902695701" lon="2.560450089849">
        <ele>11.8</ele>
        <time>2019-10-27T10:22:02Z</time>
      </trkpt>
      <trkpt lat="39.532882495322" lon="2.560404157037">
        <ele>11.8</ele>
        <time>2019-10-27T10:22:03Z</time>
      </trkpt>
      <trkpt lat="39.532864306599" lon="2.560358391863">
        <ele>11.8</ele>
        <time>2019-10-27T10:22:04Z</time>
      </trkpt>
      <trkpt lat="39.532845698781" lon="2.560313632517">
        <ele>11.6</ele>
        <time>2019-10-27T10:22:05Z</time>
      </trkpt>
      <trkpt lat="39.532825163126" lon="2.560269962818">
        <ele>11.6</ele>
        <time>2019-10-27T10:22:06Z</time>
      </trkpt>
      <trkpt lat="39.532803789281" lon="2.560226796033">
        <ele>11.6</ele>
        <time>2019-10-27T10:22:07Z</time>
      </trkpt>
      <trkpt lat="39.532783924178" lon="2.560184886533">
        <ele>11.4</ele>
        <time>2019-10-27T10:22:08Z</time>
      </trkpt>
      <trkpt lat="39.532762550333" lon="2.560142306481">
        <ele>11.4</ele>
        <time>2019-10-27T10:22:09Z</time>
      </trkpt>
      <trkpt lat="39.532740338298" lon="2.560099977886">
        <ele>11.4</ele>
        <time>2019-10-27T10:22:10Z</time>
      </trkpt>
      <trkpt lat="39.532717790987" lon="2.560058655119">
        <ele>11.4</ele>
        <time>2019-10-27T10:22:11Z</time>
      </trkpt>
      <trkpt lat="39.532695662771" lon="2.56001833818">
        <ele>11.4</ele>
        <time>2019-10-27T10:22:12Z</time>
      </trkpt>
      <trkpt lat="39.532672444908" lon="2.559976763956">
        <ele>11.4</ele>
        <time>2019-10-27T10:22:13Z</time>
      </trkpt>
      <trkpt lat="39.532650568149" lon="2.559935105913">
        <ele>11.4</ele>
        <time>2019-10-27T10:22:14Z</time>
      </trkpt>
      <trkpt lat="39.532626931191" lon="2.559895375707">
        <ele>11.4</ele>
        <time>2019-10-27T10:22:15Z</time>
      </trkpt>
      <trkpt lat="39.53260354569" lon="2.559856902786">
        <ele>11.4</ele>
        <time>2019-10-27T10:22:16Z</time>
      </trkpt>
      <trkpt lat="39.532580327827" lon="2.559819016598">
        <ele>11.6</ele>
        <time>2019-10-27T10:22:17Z</time>
      </trkpt>
      <trkpt lat="39.532559205439" lon="2.559782220057">
        <ele>11.6</ele>
        <time>2019-10-27T10:22:18Z</time>
      </trkpt>
      <trkpt lat="39.53253900506" lon="2.559744417688">
        <ele>11.6</ele>
        <time>2019-10-27T10:22:19Z</time>
      </trkpt>
      <trkpt lat="39.532518972319" lon="2.559704938939">
        <ele>11.6</ele>
        <time>2019-10-27T10:22:20Z</time>
      </trkpt>
      <trkpt lat="39.532501202691" lon="2.559665627828">
        <ele>11.8</ele>
        <time>2019-10-27T10:22:21Z</time>
      </trkpt>
      <trkpt lat="39.532484941805" lon="2.559628076916">
        <ele>12</ele>
        <time>2019-10-27T10:22:22Z</time>
      </trkpt>
      <trkpt lat="39.532469351471" lon="2.559592705298">
        <ele>12</ele>
        <time>2019-10-27T10:22:23Z</time>
      </trkpt>
      <trkpt lat="39.53245350968" lon="2.559556914585">
        <ele>12.2</ele>
        <time>2019-10-27T10:22:24Z</time>
      </trkpt>
      <trkpt lat="39.532438841355" lon="2.559521794424">
        <ele>12.2</ele>
        <time>2019-10-27T10:22:25Z</time>
      </trkpt>
      <trkpt lat="39.532425430315" lon="2.559487344815">
        <ele>12.4</ele>
        <time>2019-10-27T10:22:26Z</time>
      </trkpt>
      <trkpt lat="39.53241160018" lon="2.559453062844">
        <ele>12.8</ele>
        <time>2019-10-27T10:22:27Z</time>
      </trkpt>
      <trkpt lat="39.532397770045" lon="2.559418026502">
        <ele>13</ele>
        <time>2019-10-27T10:22:28Z</time>
      </trkpt>
      <trkpt lat="39.532381341521" lon="2.559382654884">
        <ele>13</ele>
        <time>2019-10-27T10:22:29Z</time>
      </trkpt>
      <trkpt lat="39.532365248273" lon="2.559346361257">
        <ele>13.2</ele>
        <time>2019-10-27T10:22:30Z</time>
      </trkpt>
      <trkpt lat="39.532349322663" lon="2.559307972155">
        <ele>13.4</ele>
        <time>2019-10-27T10:22:31Z</time>
      </trkpt>
      <trkpt lat="39.53233532489" lon="2.55926815813">
        <ele>13.4</ele>
        <time>2019-10-27T10:22:32Z</time>
      </trkpt>
      <trkpt lat="39.53232359023" lon="2.55922624863">
        <ele>13.6</ele>
        <time>2019-10-27T10:22:33Z</time>
      </trkpt>
      <trkpt lat="39.532313867226" lon="2.55918350094">
        <ele>13.6</ele>
        <time>2019-10-27T10:22:34Z</time>
      </trkpt>
      <trkpt lat="39.532304982412" lon="2.559140334155">
        <ele>13.8</ele>
        <time>2019-10-27T10:22:35Z</time>
      </trkpt>
      <trkpt lat="39.53229425358" lon="2.55909632918">
        <ele>13.8</ele>
        <time>2019-10-27T10:22:36Z</time>
      </trkpt>
      <trkpt lat="39.53228251892" lon="2.559053162395">
        <ele>13.8</ele>
        <time>2019-10-27T10:22:37Z</time>
      </trkpt>
      <trkpt lat="39.532268688785" lon="2.559011169076">
        <ele>13.8</ele>
        <time>2019-10-27T10:22:38Z</time>
      </trkpt>
      <trkpt lat="39.532253014632" lon="2.558971774146">
        <ele>13.8</ele>
        <time>2019-10-27T10:22:39Z</time>
      </trkpt>
      <trkpt lat="39.532236669927" lon="2.558934390872">
        <ele>14</ele>
        <time>2019-10-27T10:22:40Z</time>
      </trkpt>
      <trkpt lat="39.532220828136" lon="2.558896588503">
        <ele>14</ele>
        <time>2019-10-27T10:22:41Z</time>
      </trkpt>
      <trkpt lat="39.532206578906" lon="2.558856355383">
        <ele>14.2</ele>
        <time>2019-10-27T10:22:42Z</time>
      </trkpt>
      <trkpt lat="39.532191910581" lon="2.558814948797">
        <ele>14.4</ele>
        <time>2019-10-27T10:22:43Z</time>
      </trkpt>
      <trkpt lat="39.53217606879" lon="2.558771698193">
        <ele>14.4</ele>
        <time>2019-10-27T10:22:44Z</time>
      </trkpt>
      <trkpt lat="39.532160813732" lon="2.558728112313">
        <ele>14.4</ele>
        <time>2019-10-27T10:22:45Z</time>
      </trkpt>
      <trkpt lat="39.532144971941" lon="2.558684694071">
        <ele>14.4</ele>
        <time>2019-10-27T10:22:46Z</time>
      </trkpt>
      <trkpt lat="39.532128627236" lon="2.558643538942">
        <ele>14.4</ele>
        <time>2019-10-27T10:22:47Z</time>
      </trkpt>
      <trkpt lat="39.532110773789" lon="2.558604982202">
        <ele>14.4</ele>
        <time>2019-10-27T10:22:48Z</time>
      </trkpt>
      <trkpt lat="39.532093171799" lon="2.558568018023">
        <ele>14.6</ele>
        <time>2019-10-27T10:22:49Z</time>
      </trkpt>
      <trkpt lat="39.532075402171" lon="2.558531053844">
        <ele>14.6</ele>
        <time>2019-10-27T10:22:50Z</time>
      </trkpt>
      <trkpt lat="39.532058303095" lon="2.558494257303">
        <ele>14.6</ele>
        <time>2019-10-27T10:22:51Z</time>
      </trkpt>
      <trkpt lat="39.532041539295" lon="2.558455868201">
        <ele>14.6</ele>
        <time>2019-10-27T10:22:52Z</time>
      </trkpt>
      <trkpt lat="39.53202603278" lon="2.558416892366">
        <ele>14.6</ele>
        <time>2019-10-27T10:22:53Z</time>
      </trkpt>
      <trkpt lat="39.532009688075" lon="2.558378922359">
        <ele>14.6</ele>
        <time>2019-10-27T10:22:54Z</time>
      </trkpt>
      <trkpt lat="39.531992337542" lon="2.558341036171">
        <ele>14.6</ele>
        <time>2019-10-27T10:22:55Z</time>
      </trkpt>
      <trkpt lat="39.531975825199" lon="2.558303149983">
        <ele>14.6</ele>
        <time>2019-10-27T10:22:56Z</time>
      </trkpt>
      <trkpt lat="39.53196065396" lon="2.558264677062">
        <ele>14.6</ele>
        <time>2019-10-27T10:22:57Z</time>
      </trkpt>
      <trkpt lat="39.531944476893" lon="2.558224276304">
        <ele>14.6</ele>
        <time>2019-10-27T10:22:58Z</time>
      </trkpt>
      <trkpt lat="39.531931652586" lon="2.558183875546">
        <ele>14.6</ele>
        <time>2019-10-27T10:22:59Z</time>
      </trkpt>
      <trkpt lat="39.531921091392" lon="2.558144229159">
        <ele>14.4</ele>
        <time>2019-10-27T10:23:00Z</time>
      </trkpt>
      <trkpt lat="39.531910614017" lon="2.558107432618">
        <ele>14.4</ele>
        <time>2019-10-27T10:23:01Z</time>
      </trkpt>
      <trkpt lat="39.53189946609" lon="2.558075497579">
        <ele>14.4</ele>
        <time>2019-10-27T10:23:02Z</time>
      </trkpt>
      <trkpt lat="39.531884127213" lon="2.558059320512">
        <ele>14.2</ele>
        <time>2019-10-27T10:23:03Z</time>
      </trkpt>
      <trkpt lat="39.531869207431" lon="2.558056470666">
        <ele>14</ele>
        <time>2019-10-27T10:23:04Z</time>
      </trkpt>
      <trkpt lat="39.531858059504" lon="2.558058147046">
        <ele>13.8</ele>
        <time>2019-10-27T10:23:05Z</time>
      </trkpt>
      <trkpt lat="39.531846743939" lon="2.55805864996">
        <ele>13.6</ele>
        <time>2019-10-27T10:23:06Z</time>
      </trkpt>
      <trkpt lat="39.531833332899" lon="2.558058230865">
        <ele>13.6</ele>
        <time>2019-10-27T10:23:07Z</time>
      </trkpt>
      <trkpt lat="39.531821933515" lon="2.558062254177">
        <ele>13.4</ele>
        <time>2019-10-27T10:23:08Z</time>
      </trkpt>
      <trkpt lat="39.531808690113" lon="2.558069043516">
        <ele>13.2</ele>
        <time>2019-10-27T10:23:09Z</time>
      </trkpt>
      <trkpt lat="39.53179217777" lon="2.558077676873">
        <ele>13</ele>
        <time>2019-10-27T10:23:10Z</time>
      </trkpt>
      <trkpt lat="39.531773067038" lon="2.558089243895">
        <ele>12.8</ele>
        <time>2019-10-27T10:23:11Z</time>
      </trkpt>
      <trkpt lat="39.531754543039" lon="2.558102990211">
        <ele>12.8</ele>
        <time>2019-10-27T10:23:12Z</time>
      </trkpt>
      <trkpt lat="39.53173853361" lon="2.558116401251">
        <ele>12.6</ele>
        <time>2019-10-27T10:23:13Z</time>
      </trkpt>
      <trkpt lat="39.531723949104" lon="2.558127549178">
        <ele>12.6</ele>
        <time>2019-10-27T10:23:14Z</time>
      </trkpt>
      <trkpt lat="39.531708191132" lon="2.558138445648">
        <ele>12.6</ele>
        <time>2019-10-27T10:23:15Z</time>
      </trkpt>
      <trkpt lat="39.531689499495" lon="2.55815085086">
        <ele>12.6</ele>
        <time>2019-10-27T10:23:16Z</time>
      </trkpt>
      <trkpt lat="39.531666700727" lon="2.558161076778">
        <ele>12.6</ele>
        <time>2019-10-27T10:23:17Z</time>
      </trkpt>
      <trkpt lat="39.531639124276" lon="2.558157388742">
        <ele>12.4</ele>
        <time>2019-10-27T10:23:18Z</time>
      </trkpt>
      <trkpt lat="39.531616409327" lon="2.558143558607">
        <ele>12.4</ele>
        <time>2019-10-27T10:23:19Z</time>
      </trkpt>
      <trkpt lat="39.531597969147" lon="2.558122436219">
        <ele>12.4</ele>
        <time>2019-10-27T10:23:20Z</time>
      </trkpt>
      <trkpt lat="39.531581540623" lon="2.558096452329">
        <ele>12.4</ele>
        <time>2019-10-27T10:23:21Z</time>
      </trkpt>
      <trkpt lat="39.531566369384" lon="2.558069714068">
        <ele>12.4</ele>
        <time>2019-10-27T10:23:22Z</time>
      </trkpt>
      <trkpt lat="39.531549773222" lon="2.558043059626">
        <ele>12.4</ele>
        <time>2019-10-27T10:23:23Z</time>
      </trkpt>
      <trkpt lat="39.531535607811" lon="2.558018500659">
        <ele>12.4</ele>
        <time>2019-10-27T10:23:24Z</time>
      </trkpt>
      <trkpt lat="39.531520436572" lon="2.557989666923">
        <ele>12.4</ele>
        <time>2019-10-27T10:23:25Z</time>
      </trkpt>
      <trkpt lat="39.531506103523" lon="2.557960833187">
        <ele>12.4</ele>
        <time>2019-10-27T10:23:26Z</time>
      </trkpt>
      <trkpt lat="39.531492273388" lon="2.557932418546">
        <ele>12.4</ele>
        <time>2019-10-27T10:23:27Z</time>
      </trkpt>
      <trkpt lat="39.53148288566" lon="2.557903668629">
        <ele>12.4</ele>
        <time>2019-10-27T10:23:28Z</time>
      </trkpt>
      <trkpt lat="39.531475928683" lon="2.557873829065">
        <ele>12.4</ele>
        <time>2019-10-27T10:23:29Z</time>
      </trkpt>
      <trkpt lat="39.531469055525" lon="2.557844408596">
        <ele>12.4</ele>
        <time>2019-10-27T10:23:30Z</time>
      </trkpt>
      <trkpt lat="39.531459583978" lon="2.557814820489">
        <ele>12.4</ele>
        <time>2019-10-27T10:23:31Z</time>
      </trkpt>
      <trkpt lat="39.531449944793" lon="2.557785148563">
        <ele>12.4</ele>
        <time>2019-10-27T10:23:32Z</time>
      </trkpt>
      <trkpt lat="39.531438210133" lon="2.557754722266">
        <ele>12.4</ele>
        <time>2019-10-27T10:23:33Z</time>
      </trkpt>
      <trkpt lat="39.531427732758" lon="2.55772085939">
        <ele>12.4</ele>
        <time>2019-10-27T10:23:34Z</time>
      </trkpt>
      <trkpt lat="39.531416920107" lon="2.557686242143">
        <ele>12.4</ele>
        <time>2019-10-27T10:23:35Z</time>
      </trkpt>
      <trkpt lat="39.531405269266" lon="2.55765128962">
        <ele>12.4</ele>
        <time>2019-10-27T10:23:36Z</time>
      </trkpt>
      <trkpt lat="39.531393366968" lon="2.557616672373">
        <ele>12.4</ele>
        <time>2019-10-27T10:23:37Z</time>
      </trkpt>
      <trkpt lat="39.531380710299" lon="2.557583647687">
        <ele>12.4</ele>
        <time>2019-10-27T10:23:38Z</time>
      </trkpt>
      <trkpt lat="39.531369227096" lon="2.557550790639">
        <ele>12.4</ele>
        <time>2019-10-27T10:23:39Z</time>
      </trkpt>
      <trkpt lat="39.531358162988" lon="2.557518352686">
        <ele>12.6</ele>
        <time>2019-10-27T10:23:40Z</time>
      </trkpt>
      <trkpt lat="39.531347266518" lon="2.557485244181">
        <ele>12.6</ele>
        <time>2019-10-27T10:23:41Z</time>
      </trkpt>
      <trkpt lat="39.531334777487" lon="2.557449621106">
        <ele>12.8</ele>
        <time>2019-10-27T10:23:42Z</time>
      </trkpt>
      <trkpt lat="39.531322539913" lon="2.557414417126">
        <ele>12.8</ele>
        <time>2019-10-27T10:23:43Z</time>
      </trkpt>
      <trkpt lat="39.531309967063" lon="2.557379464603">
        <ele>12.8</ele>
        <time>2019-10-27T10:23:44Z</time>
      </trkpt>
      <trkpt lat="39.53129680748" lon="2.557346439917">
        <ele>12.8</ele>
        <time>2019-10-27T10:23:45Z</time>
      </trkpt>
      <trkpt lat="39.531283144983" lon="2.557314085783">
        <ele>13</ele>
        <time>2019-10-27T10:23:46Z</time>
      </trkpt>
      <trkpt lat="39.531269650124" lon="2.557282653658">
        <ele>13</ele>
        <time>2019-10-27T10:23:47Z</time>
      </trkpt>
      <trkpt lat="39.531256909636" lon="2.557251137714">
        <ele>13.2</ele>
        <time>2019-10-27T10:23:48Z</time>
      </trkpt>
      <trkpt lat="39.531243666234" lon="2.557220292322">
        <ele>13.2</ele>
        <time>2019-10-27T10:23:49Z</time>
      </trkpt>
      <trkpt lat="39.531229668461" lon="2.557189698387">
        <ele>13.4</ele>
        <time>2019-10-27T10:23:50Z</time>
      </trkpt>
      <trkpt lat="39.531215838326" lon="2.557158266262">
        <ele>13.4</ele>
        <time>2019-10-27T10:23:51Z</time>
      </trkpt>
      <trkpt lat="39.531201924372" lon="2.557125995947">
        <ele>13.6</ele>
        <time>2019-10-27T10:23:52Z</time>
      </trkpt>
      <trkpt lat="39.531187423685" lon="2.557094312365">
        <ele>13.8</ele>
        <time>2019-10-27T10:23:53Z</time>
      </trkpt>
      <trkpt lat="39.531172084808" lon="2.557063299335">
        <ele>14</ele>
        <time>2019-10-27T10:23:54Z</time>
      </trkpt>
      <trkpt lat="39.531157165026" lon="2.557033375952">
        <ele>14.2</ele>
        <time>2019-10-27T10:23:55Z</time>
      </trkpt>
      <trkpt lat="39.53114090414" lon="2.557002362922">
        <ele>14.4</ele>
        <time>2019-10-27T10:23:56Z</time>
      </trkpt>
      <trkpt lat="39.531127157824" lon="2.556975624661">
        <ele>14.6</ele>
        <time>2019-10-27T10:23:57Z</time>
      </trkpt>
      <trkpt lat="39.53110989111" lon="2.556947293839">
        <ele>15</ele>
        <time>2019-10-27T10:23:58Z</time>
      </trkpt>
      <trkpt lat="39.531097485898" lon="2.556923656881">
        <ele>15</ele>
        <time>2019-10-27T10:23:59Z</time>
      </trkpt>
      <trkpt lat="39.531086673247" lon="2.556897589172">
        <ele>15.2</ele>
        <time>2019-10-27T10:24:00Z</time>
      </trkpt>
      <trkpt lat="39.531076195872" lon="2.556870180359">
        <ele>15.4</ele>
        <time>2019-10-27T10:24:01Z</time>
      </trkpt>
      <trkpt lat="39.531064796488" lon="2.556842017175">
        <ele>15.6</ele>
        <time>2019-10-27T10:24:02Z</time>
      </trkpt>
      <trkpt lat="39.531052056" lon="2.556813853991">
        <ele>15.8</ele>
        <time>2019-10-27T10:24:03Z</time>
      </trkpt>
      <trkpt lat="39.531039147874" lon="2.55678460116">
        <ele>16</ele>
        <time>2019-10-27T10:24:04Z</time>
      </trkpt>
      <trkpt lat="39.531026491205" lon="2.556754510139">
        <ele>16.2</ele>
        <time>2019-10-27T10:24:05Z</time>
      </trkpt>
      <trkpt lat="39.531013750717" lon="2.556725257308">
        <ele>16.4</ele>
        <time>2019-10-27T10:24:06Z</time>
      </trkpt>
      <trkpt lat="39.531000842591" lon="2.556695417744">
        <ele>16.6</ele>
        <time>2019-10-27T10:24:07Z</time>
      </trkpt>
      <trkpt lat="39.530988688836" lon="2.556664991447">
        <ele>16.6</ele>
        <time>2019-10-27T10:24:08Z</time>
      </trkpt>
      <trkpt lat="39.530977708547" lon="2.556633894598">
        <ele>16.8</ele>
        <time>2019-10-27T10:24:09Z</time>
      </trkpt>
      <trkpt lat="39.530966309163" lon="2.556601540464">
        <ele>17</ele>
        <time>2019-10-27T10:24:10Z</time>
      </trkpt>
      <trkpt lat="39.530956837616" lon="2.556569102511">
        <ele>17</ele>
        <time>2019-10-27T10:24:11Z</time>
      </trkpt>
      <trkpt lat="39.530947952802" lon="2.5565381733">
        <ele>17.2</ele>
        <time>2019-10-27T10:24:12Z</time>
      </trkpt>
      <trkpt lat="39.530937894522" lon="2.556509758659">
        <ele>17.4</ele>
        <time>2019-10-27T10:24:13Z</time>
      </trkpt>
      <trkpt lat="39.53092884207" lon="2.55648285276">
        <ele>17.4</ele>
        <time>2019-10-27T10:24:14Z</time>
      </trkpt>
      <trkpt lat="39.530920795446" lon="2.556455360128">
        <ele>17.6</ele>
        <time>2019-10-27T10:24:15Z</time>
      </trkpt>
      <trkpt lat="39.530911826813" lon="2.556428202772">
        <ele>17.6</ele>
        <time>2019-10-27T10:24:16Z</time>
      </trkpt>
      <trkpt lat="39.530902522904" lon="2.556403308529">
        <ele>17.8</ele>
        <time>2019-10-27T10:24:17Z</time>
      </trkpt>
      <trkpt lat="39.530895482108" lon="2.556379420114">
        <ele>18</ele>
        <time>2019-10-27T10:24:18Z</time>
      </trkpt>
      <trkpt lat="39.530888189855" lon="2.556354777328">
        <ele>18</ele>
        <time>2019-10-27T10:24:19Z</time>
      </trkpt>
      <trkpt lat="39.530879305041" lon="2.556330721275">
        <ele>18.2</ele>
        <time>2019-10-27T10:24:20Z</time>
      </trkpt>
      <trkpt lat="39.530871174598" lon="2.556307000498">
        <ele>18.2</ele>
        <time>2019-10-27T10:24:21Z</time>
      </trkpt>
      <trkpt lat="39.530861870689" lon="2.556283782635">
        <ele>18.4</ele>
        <time>2019-10-27T10:24:22Z</time>
      </trkpt>
      <trkpt lat="39.530850974219" lon="2.556261151505">
        <ele>18.6</ele>
        <time>2019-10-27T10:24:23Z</time>
      </trkpt>
      <trkpt lat="39.530839658654" lon="2.556235754348">
        <ele>18.6</ele>
        <time>2019-10-27T10:24:24Z</time>
      </trkpt>
      <trkpt lat="39.530828594546" lon="2.556208261716">
        <ele>18.6</ele>
        <time>2019-10-27T10:24:25Z</time>
      </trkpt>
      <trkpt lat="39.530818284809" lon="2.556181271998">
        <ele>18.8</ele>
        <time>2019-10-27T10:24:26Z</time>
      </trkpt>
      <trkpt lat="39.5308089809" lon="2.556155036651">
        <ele>18.8</ele>
        <time>2019-10-27T10:24:27Z</time>
      </trkpt>
      <trkpt lat="39.530800012267" lon="2.556129890951">
        <ele>18.8</ele>
        <time>2019-10-27T10:24:28Z</time>
      </trkpt>
      <trkpt lat="39.530791043634" lon="2.556105499622">
        <ele>18.8</ele>
        <time>2019-10-27T10:24:29Z</time>
      </trkpt>
      <trkpt lat="39.530782242639" lon="2.556082114121">
        <ele>18.8</ele>
        <time>2019-10-27T10:24:30Z</time>
      </trkpt>
      <trkpt lat="39.530773693101" lon="2.556059315353">
        <ele>19</ele>
        <time>2019-10-27T10:24:31Z</time>
      </trkpt>
      <trkpt lat="39.530766400848" lon="2.556036684223">
        <ele>19</ele>
        <time>2019-10-27T10:24:32Z</time>
      </trkpt>
      <trkpt lat="39.530758605681" lon="2.556012963446">
        <ele>19</ele>
        <time>2019-10-27T10:24:33Z</time>
      </trkpt>
      <trkpt lat="39.530749134134" lon="2.555986309004">
        <ele>19</ele>
        <time>2019-10-27T10:24:34Z</time>
      </trkpt>
      <trkpt lat="39.530740752234" lon="2.555957642906">
        <ele>19</ele>
        <time>2019-10-27T10:24:35Z</time>
      </trkpt>
      <trkpt lat="39.530730861592" lon="2.555927635704">
        <ele>19</ele>
        <time>2019-10-27T10:24:36Z</time>
      </trkpt>
      <trkpt lat="39.530719629846" lon="2.555895784484">
        <ele>19</ele>
        <time>2019-10-27T10:24:37Z</time>
      </trkpt>
      <trkpt lat="39.530707392272" lon="2.555862675979">
        <ele>19</ele>
        <time>2019-10-27T10:24:38Z</time>
      </trkpt>
      <trkpt lat="39.530693897413" lon="2.555828058732">
        <ele>19</ele>
        <time>2019-10-27T10:24:39Z</time>
      </trkpt>
      <trkpt lat="39.530677301251" lon="2.555794531132">
        <ele>19</ele>
        <time>2019-10-27T10:24:40Z</time>
      </trkpt>
      <trkpt lat="39.530660537451" lon="2.555762260817">
        <ele>19</ele>
        <time>2019-10-27T10:24:41Z</time>
      </trkpt>
      <trkpt lat="39.530645030936" lon="2.555728230303">
        <ele>19</ele>
        <time>2019-10-27T10:24:42Z</time>
      </trkpt>
      <trkpt lat="39.530631033163" lon="2.555693361599">
        <ele>19</ele>
        <time>2019-10-27T10:24:43Z</time>
      </trkpt>
      <trkpt lat="39.530616029562" lon="2.555656313601">
        <ele>19</ele>
        <time>2019-10-27T10:24:44Z</time>
      </trkpt>
      <trkpt lat="39.530600355409" lon="2.555619349422">
        <ele>19</ele>
        <time>2019-10-27T10:24:45Z</time>
      </trkpt>
      <trkpt lat="39.530584597437" lon="2.555582133786">
        <ele>19</ele>
        <time>2019-10-27T10:24:46Z</time>
      </trkpt>
      <trkpt lat="39.530569426198" lon="2.555543074132">
        <ele>19</ele>
        <time>2019-10-27T10:24:47Z</time>
      </trkpt>
      <trkpt lat="39.530552159484" lon="2.55550133227">
        <ele>19</ele>
        <time>2019-10-27T10:24:48Z</time>
      </trkpt>
      <trkpt lat="39.530534306037" lon="2.555457327295">
        <ele>19</ele>
        <time>2019-10-27T10:24:49Z</time>
      </trkpt>
      <trkpt lat="39.53051645259" lon="2.55541332232">
        <ele>19</ele>
        <time>2019-10-27T10:24:50Z</time>
      </trkpt>
      <trkpt lat="39.53049801241" lon="2.555368730612">
        <ele>18.8</ele>
        <time>2019-10-27T10:24:51Z</time>
      </trkpt>
      <trkpt lat="39.53047705766" lon="2.555324641818">
        <ele>18.8</ele>
        <time>2019-10-27T10:24:52Z</time>
      </trkpt>
      <trkpt lat="39.530454677987" lon="2.555281810309">
        <ele>18.8</ele>
        <time>2019-10-27T10:24:53Z</time>
      </trkpt>
      <trkpt lat="39.530431041029" lon="2.555240487542">
        <ele>18.8</ele>
        <time>2019-10-27T10:24:54Z</time>
      </trkpt>
      <trkpt lat="39.5304066497" lon="2.555199500051">
        <ele>18.8</ele>
        <time>2019-10-27T10:24:55Z</time>
      </trkpt>
      <trkpt lat="39.530386114045" lon="2.555160105121">
        <ele>18.6</ele>
        <time>2019-10-27T10:24:56Z</time>
      </trkpt>
      <trkpt lat="39.530365159295" lon="2.555116351603">
        <ele>18.6</ele>
        <time>2019-10-27T10:24:57Z</time>
      </trkpt>
      <trkpt lat="39.530345042735" lon="2.555070586429">
        <ele>18.6</ele>
        <time>2019-10-27T10:24:58Z</time>
      </trkpt>
      <trkpt lat="39.530328362754" lon="2.555027503463">
        <ele>18.6</ele>
        <time>2019-10-27T10:24:59Z</time>
      </trkpt>
      <trkpt lat="39.53031361061" lon="2.554984001402">
        <ele>18.6</ele>
        <time>2019-10-27T10:25:00Z</time>
      </trkpt>
      <trkpt lat="39.530297685" lon="2.554940080246">
        <ele>18.6</ele>
        <time>2019-10-27T10:25:01Z</time>
      </trkpt>
      <trkpt lat="39.530279747734" lon="2.554900014764">
        <ele>18.6</ele>
        <time>2019-10-27T10:25:02Z</time>
      </trkpt>
      <trkpt lat="39.530261978106" lon="2.554862882947">
        <ele>18.4</ele>
        <time>2019-10-27T10:25:03Z</time>
      </trkpt>
      <trkpt lat="39.53024571722" lon="2.554826756958">
        <ele>18.4</ele>
        <time>2019-10-27T10:25:04Z</time>
      </trkpt>
      <trkpt lat="39.530232054723" lon="2.554790630969">
        <ele>18.4</ele>
        <time>2019-10-27T10:25:05Z</time>
      </trkpt>
      <trkpt lat="39.53021889514" lon="2.554754253523">
        <ele>18.4</ele>
        <time>2019-10-27T10:25:06Z</time>
      </trkpt>
      <trkpt lat="39.530205903195" lon="2.554716199697">
        <ele>18.4</ele>
        <time>2019-10-27T10:25:07Z</time>
      </trkpt>
      <trkpt lat="39.530193665621" lon="2.554680325165">
        <ele>18.4</ele>
        <time>2019-10-27T10:25:08Z</time>
      </trkpt>
      <trkpt lat="39.530177656192" lon="2.554643360986">
        <ele>18.4</ele>
        <time>2019-10-27T10:25:09Z</time>
      </trkpt>
      <trkpt lat="39.530161814401" lon="2.554606899721">
        <ele>18.4</ele>
        <time>2019-10-27T10:25:10Z</time>
      </trkpt>
      <trkpt lat="39.53014513442" lon="2.554564822583">
        <ele>18.4</ele>
        <time>2019-10-27T10:25:11Z</time>
      </trkpt>
      <trkpt lat="39.530130549914" lon="2.554520063237">
        <ele>18.6</ele>
        <time>2019-10-27T10:25:12Z</time>
      </trkpt>
      <trkpt lat="39.530111523001" lon="2.554469771837">
        <ele>18.6</ele>
        <time>2019-10-27T10:25:13Z</time>
      </trkpt>
      <trkpt lat="39.530097525228" lon="2.554423503749">
        <ele>18.6</ele>
        <time>2019-10-27T10:25:14Z</time>
      </trkpt>
      <trkpt lat="39.530087718405" lon="2.554383270629">
        <ele>18.6</ele>
        <time>2019-10-27T10:25:15Z</time>
      </trkpt>
      <trkpt lat="39.530078414496" lon="2.554346977002">
        <ele>18.6</ele>
        <time>2019-10-27T10:25:16Z</time>
      </trkpt>
      <trkpt lat="39.530069110587" lon="2.554311605384">
        <ele>18.6</ele>
        <time>2019-10-27T10:25:17Z</time>
      </trkpt>
      <trkpt lat="39.530061902153" lon="2.554276988137">
        <ele>18.6</ele>
        <time>2019-10-27T10:25:18Z</time>
      </trkpt>
      <trkpt lat="39.530052849701" lon="2.554239101949">
        <ele>18.8</ele>
        <time>2019-10-27T10:25:19Z</time>
      </trkpt>
      <trkpt lat="39.530041450317" lon="2.554201886313">
        <ele>18.8</ele>
        <time>2019-10-27T10:25:20Z</time>
      </trkpt>
      <trkpt lat="39.530030218571" lon="2.554164670677">
        <ele>18.8</ele>
        <time>2019-10-27T10:25:21Z</time>
      </trkpt>
      <trkpt lat="39.530016220798" lon="2.554121922987">
        <ele>18.8</ele>
        <time>2019-10-27T10:25:22Z</time>
      </trkpt>
      <trkpt lat="39.530002558301" lon="2.554078337107">
        <ele>18.6</ele>
        <time>2019-10-27T10:25:23Z</time>
      </trkpt>
      <trkpt lat="39.529988141433" lon="2.554032991028">
        <ele>18.6</ele>
        <time>2019-10-27T10:25:24Z</time>
      </trkpt>
      <trkpt lat="39.529972551099" lon="2.553989321329">
        <ele>18.6</ele>
        <time>2019-10-27T10:25:25Z</time>
      </trkpt>
      <trkpt lat="39.529956122575" lon="2.553944394345">
        <ele>18.6</ele>
        <time>2019-10-27T10:25:26Z</time>
      </trkpt>
      <trkpt lat="39.529940280784" lon="2.553897623343">
        <ele>18.6</ele>
        <time>2019-10-27T10:25:27Z</time>
      </trkpt>
      <trkpt lat="39.529924941907" lon="2.553850181789">
        <ele>18.4</ele>
        <time>2019-10-27T10:25:28Z</time>
      </trkpt>
      <trkpt lat="39.529909686849" lon="2.553802740235">
        <ele>18.4</ele>
        <time>2019-10-27T10:25:29Z</time>
      </trkpt>
      <trkpt lat="39.529895102343" lon="2.553755047224">
        <ele>18.2</ele>
        <time>2019-10-27T10:25:30Z</time>
      </trkpt>
      <trkpt lat="39.529879176733" lon="2.553710287878">
        <ele>18.2</ele>
        <time>2019-10-27T10:25:31Z</time>
      </trkpt>
      <trkpt lat="39.529862915847" lon="2.553668462197">
        <ele>18.2</ele>
        <time>2019-10-27T10:25:32Z</time>
      </trkpt>
      <trkpt lat="39.529845984409" lon="2.553628564353">
        <ele>18</ele>
        <time>2019-10-27T10:25:33Z</time>
      </trkpt>
      <trkpt lat="39.529830310256" lon="2.553588666509">
        <ele>17.8</ele>
        <time>2019-10-27T10:25:34Z</time>
      </trkpt>
      <trkpt lat="39.529818994691" lon="2.553551953787">
        <ele>17.8</ele>
        <time>2019-10-27T10:25:35Z</time>
      </trkpt>
      <trkpt lat="39.529809271687" lon="2.553514319056">
        <ele>17.6</ele>
        <time>2019-10-27T10:25:36Z</time>
      </trkpt>
      <trkpt lat="39.529799213407" lon="2.553478444524">
        <ele>17.6</ele>
        <time>2019-10-27T10:25:37Z</time>
      </trkpt>
      <trkpt lat="39.529788652213" lon="2.553442234716">
        <ele>17.4</ele>
        <time>2019-10-27T10:25:38Z</time>
      </trkpt>
      <trkpt lat="39.529772475146" lon="2.553398816474">
        <ele>17.4</ele>
        <time>2019-10-27T10:25:39Z</time>
      </trkpt>
      <trkpt lat="39.529756298079" lon="2.553350369092">
        <ele>17.4</ele>
        <time>2019-10-27T10:25:40Z</time>
      </trkpt>
      <trkpt lat="39.529741881211" lon="2.553299910054">
        <ele>17.4</ele>
        <time>2019-10-27T10:25:41Z</time>
      </trkpt>
      <trkpt lat="39.529728302533" lon="2.553249367197">
        <ele>17.2</ele>
        <time>2019-10-27T10:25:42Z</time>
      </trkpt>
      <trkpt lat="39.529714807674" lon="2.553200584539">
        <ele>17.2</ele>
        <time>2019-10-27T10:25:43Z</time>
      </trkpt>
      <trkpt lat="39.529699804073" lon="2.553152556252">
        <ele>17.2</ele>
        <time>2019-10-27T10:25:44Z</time>
      </trkpt>
      <trkpt lat="39.529684465196" lon="2.553105952888">
        <ele>17.2</ele>
        <time>2019-10-27T10:25:45Z</time>
      </trkpt>
      <trkpt lat="39.52966820431" lon="2.553059265705">
        <ele>17.2</ele>
        <time>2019-10-27T10:25:46Z</time>
      </trkpt>
      <trkpt lat="39.529651691967" lon="2.55301442254">
        <ele>17.2</ele>
        <time>2019-10-27T10:25:47Z</time>
      </trkpt>
      <trkpt lat="39.529634592891" lon="2.552969663194">
        <ele>17.2</ele>
        <time>2019-10-27T10:25:48Z</time>
      </trkpt>
      <trkpt lat="39.529616655625" lon="2.55292641259">
        <ele>17.2</ele>
        <time>2019-10-27T10:25:49Z</time>
      </trkpt>
      <trkpt lat="39.529598047807" lon="2.552885676556">
        <ele>17.2</ele>
        <time>2019-10-27T10:25:50Z</time>
      </trkpt>
      <trkpt lat="39.529578769437" lon="2.552845024341">
        <ele>17.2</ele>
        <time>2019-10-27T10:25:51Z</time>
      </trkpt>
      <trkpt lat="39.529560413076" lon="2.552803785393">
        <ele>17.2</ele>
        <time>2019-10-27T10:25:52Z</time>
      </trkpt>
      <trkpt lat="39.529541134706" lon="2.55276128916">
        <ele>17.2</ele>
        <time>2019-10-27T10:25:53Z</time>
      </trkpt>
      <trkpt lat="39.529520599051" lon="2.552717870918">
        <ele>17.2</ele>
        <time>2019-10-27T10:25:54Z</time>
      </trkpt>
      <trkpt lat="39.529500733948" lon="2.552674704133">
        <ele>17</ele>
        <time>2019-10-27T10:25:55Z</time>
      </trkpt>
      <trkpt lat="39.529481455578" lon="2.55263136971">
        <ele>17</ele>
        <time>2019-10-27T10:25:56Z</time>
      </trkpt>
      <trkpt lat="39.529461674294" lon="2.552587448554">
        <ele>17</ele>
        <time>2019-10-27T10:25:57Z</time>
      </trkpt>
      <trkpt lat="39.529441138639" lon="2.552541431923">
        <ele>17</ele>
        <time>2019-10-27T10:25:58Z</time>
      </trkpt>
      <trkpt lat="39.529419094242" lon="2.552495415292">
        <ele>17</ele>
        <time>2019-10-27T10:25:59Z</time>
      </trkpt>
      <trkpt lat="39.529396714569" lon="2.552448392833">
        <ele>17</ele>
        <time>2019-10-27T10:26:00Z</time>
      </trkpt>
      <trkpt lat="39.529374167258" lon="2.552403046754">
        <ele>17</ele>
        <time>2019-10-27T10:26:01Z</time>
      </trkpt>
      <trkpt lat="39.529350027386" lon="2.552359460874">
        <ele>17</ele>
        <time>2019-10-27T10:26:02Z</time>
      </trkpt>
      <trkpt lat="39.529323875858" lon="2.552316042632">
        <ele>17</ele>
        <time>2019-10-27T10:26:03Z</time>
      </trkpt>
      <trkpt lat="39.529299233072" lon="2.552274133132">
        <ele>17</ele>
        <time>2019-10-27T10:26:04Z</time>
      </trkpt>
      <trkpt lat="39.529275512295" lon="2.552233397098">
        <ele>16.8</ele>
        <time>2019-10-27T10:26:05Z</time>
      </trkpt>
      <trkpt lat="39.529252378251" lon="2.552193247797">
        <ele>16.8</ele>
        <time>2019-10-27T10:26:06Z</time>
      </trkpt>
      <trkpt lat="39.529230417673" lon="2.552154355781">
        <ele>16.8</ele>
        <time>2019-10-27T10:26:07Z</time>
      </trkpt>
      <trkpt lat="39.52921139076" lon="2.552118313611">
        <ele>16.8</ele>
        <time>2019-10-27T10:26:08Z</time>
      </trkpt>
      <trkpt lat="39.5291912742" lon="2.552080846518">
        <ele>16.8</ele>
        <time>2019-10-27T10:26:09Z</time>
      </trkpt>
      <trkpt lat="39.529172414925" lon="2.552045307262">
        <ele>16.8</ele>
        <time>2019-10-27T10:26:10Z</time>
      </trkpt>
      <trkpt lat="39.529152633641" lon="2.552009935644">
        <ele>16.8</ele>
        <time>2019-10-27T10:26:11Z</time>
      </trkpt>
      <trkpt lat="39.529137462402" lon="2.551979006433">
        <ele>16.8</ele>
        <time>2019-10-27T10:26:12Z</time>
      </trkpt>
      <trkpt lat="39.529125392466" lon="2.551955453294">
        <ele>16.8</ele>
        <time>2019-10-27T10:26:13Z</time>
      </trkpt>
      <trkpt lat="39.529113825444" lon="2.55193567201">
        <ele>16.8</ele>
        <time>2019-10-27T10:26:14Z</time>
      </trkpt>
      <trkpt lat="39.529100833499" lon="2.551910442491">
        <ele>16.8</ele>
        <time>2019-10-27T10:26:15Z</time>
      </trkpt>
      <trkpt lat="39.529087087183" lon="2.551882195488">
        <ele>17</ele>
        <time>2019-10-27T10:26:16Z</time>
      </trkpt>
      <trkpt lat="39.529070742478" lon="2.551852355924">
        <ele>17</ele>
        <time>2019-10-27T10:26:17Z</time>
      </trkpt>
      <trkpt lat="39.529052889031" lon="2.551821175256">
        <ele>17.2</ele>
        <time>2019-10-27T10:26:18Z</time>
      </trkpt>
      <trkpt lat="39.529034867946" lon="2.551788318208">
        <ele>17.2</ele>
        <time>2019-10-27T10:26:19Z</time>
      </trkpt>
      <trkpt lat="39.529017433594" lon="2.551752359857">
        <ele>17.2</ele>
        <time>2019-10-27T10:26:20Z</time>
      </trkpt>
      <trkpt lat="39.528999999242" lon="2.551712294375">
        <ele>17.2</ele>
        <time>2019-10-27T10:26:21Z</time>
      </trkpt>
      <trkpt lat="39.528982648709" lon="2.551668708495">
        <ele>17.2</ele>
        <time>2019-10-27T10:26:22Z</time>
      </trkpt>
      <trkpt lat="39.528969908221" lon="2.551624200606">
        <ele>17.2</ele>
        <time>2019-10-27T10:26:23Z</time>
      </trkpt>
      <trkpt lat="39.528957586828" lon="2.551579860355">
        <ele>17.2</ele>
        <time>2019-10-27T10:26:24Z</time>
      </trkpt>
      <trkpt lat="39.528944343426" lon="2.551537699398">
        <ele>17.2</ele>
        <time>2019-10-27T10:26:25Z</time>
      </trkpt>
      <trkpt lat="39.528930680929" lon="2.551495035527">
        <ele>17.2</ele>
        <time>2019-10-27T10:26:26Z</time>
      </trkpt>
      <trkpt lat="39.528920957925" lon="2.551451868742">
        <ele>17.2</ele>
        <time>2019-10-27T10:26:27Z</time>
      </trkpt>
      <trkpt lat="39.528911067283" lon="2.55140761231">
        <ele>17.2</ele>
        <time>2019-10-27T10:26:28Z</time>
      </trkpt>
      <trkpt lat="39.528900086994" lon="2.551363272059">
        <ele>17.2</ele>
        <time>2019-10-27T10:26:29Z</time>
      </trkpt>
      <trkpt lat="39.528889190524" lon="2.551319853817">
        <ele>17.2</ele>
        <time>2019-10-27T10:26:30Z</time>
      </trkpt>
      <trkpt lat="39.528877204407" lon="2.551275765023">
        <ele>17.2</ele>
        <time>2019-10-27T10:26:31Z</time>
      </trkpt>
      <trkpt lat="39.52886605648" lon="2.551231257134">
        <ele>17</ele>
        <time>2019-10-27T10:26:32Z</time>
      </trkpt>
      <trkpt lat="39.528855495286" lon="2.551184821408">
        <ele>17</ele>
        <time>2019-10-27T10:26:33Z</time>
      </trkpt>
      <trkpt lat="39.528844850273" lon="2.551138050406">
        <ele>17</ele>
        <time>2019-10-27T10:26:34Z</time>
      </trkpt>
      <trkpt lat="39.528834540536" lon="2.551091195585">
        <ele>17</ele>
        <time>2019-10-27T10:26:35Z</time>
      </trkpt>
      <trkpt lat="39.52882498517" lon="2.551044340764">
        <ele>17</ele>
        <time>2019-10-27T10:26:36Z</time>
      </trkpt>
      <trkpt lat="39.528816184175" lon="2.550997653581">
        <ele>17</ele>
        <time>2019-10-27T10:26:37Z</time>
      </trkpt>
      <trkpt lat="39.528808053732" lon="2.550951385493">
        <ele>17</ele>
        <time>2019-10-27T10:26:38Z</time>
      </trkpt>
      <trkpt lat="39.528801432031" lon="2.55090721288">
        <ele>17</ele>
        <time>2019-10-27T10:26:39Z</time>
      </trkpt>
      <trkpt lat="39.528793804502" lon="2.550862621172">
        <ele>16.8</ele>
        <time>2019-10-27T10:26:40Z</time>
      </trkpt>
      <trkpt lat="39.528784500593" lon="2.550817778007">
        <ele>16.8</ele>
        <time>2019-10-27T10:26:41Z</time>
      </trkpt>
      <trkpt lat="39.528776453969" lon="2.550772348109">
        <ele>16.8</ele>
        <time>2019-10-27T10:26:42Z</time>
      </trkpt>
      <trkpt lat="39.528770838096" lon="2.550727253487">
        <ele>16.8</ele>
        <time>2019-10-27T10:26:43Z</time>
      </trkpt>
      <trkpt lat="39.528765054585" lon="2.550683080874">
        <ele>16.8</ele>
        <time>2019-10-27T10:26:44Z</time>
      </trkpt>
      <trkpt lat="39.528759354893" lon="2.550640249365">
        <ele>16.8</ele>
        <time>2019-10-27T10:26:45Z</time>
      </trkpt>
      <trkpt lat="39.528753487563" lon="2.550597334037">
        <ele>16.8</ele>
        <time>2019-10-27T10:26:46Z</time>
      </trkpt>
      <trkpt lat="39.528748206966" lon="2.550553077605">
        <ele>16.6</ele>
        <time>2019-10-27T10:26:47Z</time>
      </trkpt>
      <trkpt lat="39.528744351292" lon="2.550507815345">
        <ele>16.6</ele>
        <time>2019-10-27T10:26:48Z</time>
      </trkpt>
      <trkpt lat="39.528740663256" lon="2.550462301628">
        <ele>16.6</ele>
        <time>2019-10-27T10:26:49Z</time>
      </trkpt>
      <trkpt lat="39.528737226677" lon="2.550417123187">
        <ele>16.6</ele>
        <time>2019-10-27T10:26:50Z</time>
      </trkpt>
      <trkpt lat="39.528732700451" lon="2.550372699117">
        <ele>16.4</ele>
        <time>2019-10-27T10:26:51Z</time>
      </trkpt>
      <trkpt lat="39.528728509501" lon="2.550328107409">
        <ele>16.4</ele>
        <time>2019-10-27T10:26:52Z</time>
      </trkpt>
      <trkpt lat="39.52872524056" lon="2.550283264244">
        <ele>16.4</ele>
        <time>2019-10-27T10:26:53Z</time>
      </trkpt>
      <trkpt lat="39.528720295239" lon="2.550238085803">
        <ele>16.4</ele>
        <time>2019-10-27T10:26:54Z</time>
      </trkpt>
      <trkpt lat="39.5287135059" lon="2.550191901534">
        <ele>16.2</ele>
        <time>2019-10-27T10:26:55Z</time>
      </trkpt>
      <trkpt lat="39.528708812036" lon="2.550146806912">
        <ele>16.2</ele>
        <time>2019-10-27T10:26:56Z</time>
      </trkpt>
      <trkpt lat="39.528702190335" lon="2.550101209376">
        <ele>16.2</ele>
        <time>2019-10-27T10:26:57Z</time>
      </trkpt>
      <trkpt lat="39.528694395168" lon="2.550055025107">
        <ele>16</ele>
        <time>2019-10-27T10:26:58Z</time>
      </trkpt>
      <trkpt lat="39.528685342716" lon="2.550006745363">
        <ele>16</ele>
        <time>2019-10-27T10:26:59Z</time>
      </trkpt>
      <trkpt lat="39.528677044635" lon="2.549955196678">
        <ele>16</ele>
        <time>2019-10-27T10:27:00Z</time>
      </trkpt>
      <trkpt lat="39.52866824364" lon="2.549901636337">
        <ele>16</ele>
        <time>2019-10-27T10:27:01Z</time>
      </trkpt>
      <trkpt lat="39.528659275007" lon="2.549847489263">
        <ele>16</ele>
        <time>2019-10-27T10:27:02Z</time>
      </trkpt>
      <trkpt lat="39.52865147984" lon="2.549793174551">
        <ele>16</ele>
        <time>2019-10-27T10:27:03Z</time>
      </trkpt>
      <trkpt lat="39.528643181759" lon="2.549738356925">
        <ele>16</ele>
        <time>2019-10-27T10:27:04Z</time>
      </trkpt>
      <trkpt lat="39.528633207298" lon="2.549683958394">
        <ele>15.8</ele>
        <time>2019-10-27T10:27:05Z</time>
      </trkpt>
      <trkpt lat="39.528623735751" lon="2.549629392225">
        <ele>15.8</ele>
        <time>2019-10-27T10:27:06Z</time>
      </trkpt>
      <trkpt lat="39.528615102394" lon="2.549576921531">
        <ele>15.8</ele>
        <time>2019-10-27T10:27:07Z</time>
      </trkpt>
      <trkpt lat="39.528606804313" lon="2.549528977063">
        <ele>15.8</ele>
        <time>2019-10-27T10:27:08Z</time>
      </trkpt>
      <trkpt lat="39.528597668042" lon="2.549482541337">
        <ele>15.6</ele>
        <time>2019-10-27T10:27:09Z</time>
      </trkpt>
      <trkpt lat="39.528589034685" lon="2.549435686516">
        <ele>15.6</ele>
        <time>2019-10-27T10:27:10Z</time>
      </trkpt>
      <trkpt lat="39.528580652785" lon="2.54938673622">
        <ele>15.4</ele>
        <time>2019-10-27T10:27:11Z</time>
      </trkpt>
      <trkpt lat="39.528573695808" lon="2.549339043209">
        <ele>15.4</ele>
        <time>2019-10-27T10:27:12Z</time>
      </trkpt>
      <trkpt lat="39.528561206777" lon="2.549283555031">
        <ele>15.4</ele>
        <time>2019-10-27T10:27:13Z</time>
      </trkpt>
      <trkpt lat="39.528552154325" lon="2.549232593079">
        <ele>15.2</ele>
        <time>2019-10-27T10:27:14Z</time>
      </trkpt>
      <trkpt lat="39.528544526796" lon="2.549180122385">
        <ele>15.2</ele>
        <time>2019-10-27T10:27:15Z</time>
      </trkpt>
      <trkpt lat="39.528538659466" lon="2.549126226768">
        <ele>15</ele>
        <time>2019-10-27T10:27:16Z</time>
      </trkpt>
      <trkpt lat="39.528535306706" lon="2.549071660599">
        <ele>15</ele>
        <time>2019-10-27T10:27:17Z</time>
      </trkpt>
      <trkpt lat="39.528532875955" lon="2.549017513525">
        <ele>15</ele>
        <time>2019-10-27T10:27:18Z</time>
      </trkpt>
      <trkpt lat="39.528530277566" lon="2.54896428846">
        <ele>15</ele>
        <time>2019-10-27T10:27:19Z</time>
      </trkpt>
      <trkpt lat="39.528525918978" lon="2.5489106443">
        <ele>15</ele>
        <time>2019-10-27T10:27:20Z</time>
      </trkpt>
      <trkpt lat="39.528522650037" lon="2.548858089787">
        <ele>15</ele>
        <time>2019-10-27T10:27:21Z</time>
      </trkpt>
      <trkpt lat="39.52851904582" lon="2.548805199998">
        <ele>15</ele>
        <time>2019-10-27T10:27:22Z</time>
      </trkpt>
      <trkpt lat="39.528516279793" lon="2.548753567494">
        <ele>15</ele>
        <time>2019-10-27T10:27:23Z</time>
      </trkpt>
      <trkpt lat="39.52851317849" lon="2.548702605542">
        <ele>14.8</ele>
        <time>2019-10-27T10:27:24Z</time>
      </trkpt>
      <trkpt lat="39.528508065531" lon="2.54865164359">
        <ele>14.8</ele>
        <time>2019-10-27T10:27:25Z</time>
      </trkpt>
      <trkpt lat="39.528501527649" lon="2.548601687466">
        <ele>14.8</ele>
        <time>2019-10-27T10:27:26Z</time>
      </trkpt>
      <trkpt lat="39.528497839613" lon="2.548551228428">
        <ele>14.6</ele>
        <time>2019-10-27T10:27:27Z</time>
      </trkpt>
      <trkpt lat="39.528493648663" lon="2.548501523761">
        <ele>14.6</ele>
        <time>2019-10-27T10:27:28Z</time>
      </trkpt>
      <trkpt lat="39.528487529876" lon="2.548452405827">
        <ele>14.6</ele>
        <time>2019-10-27T10:27:29Z</time>
      </trkpt>
      <trkpt lat="39.528482333098" lon="2.548402952617">
        <ele>14.6</ele>
        <time>2019-10-27T10:27:30Z</time>
      </trkpt>
      <trkpt lat="39.528477639234" lon="2.548353667045">
        <ele>14.6</ele>
        <time>2019-10-27T10:27:31Z</time>
      </trkpt>
      <trkpt lat="39.528472610094" lon="2.548304800568">
        <ele>14.4</ele>
        <time>2019-10-27T10:27:32Z</time>
      </trkpt>
      <trkpt lat="39.528466910402" lon="2.548255850272">
        <ele>14.4</ele>
        <time>2019-10-27T10:27:33Z</time>
      </trkpt>
      <trkpt lat="39.528460540158" lon="2.548207654347">
        <ele>14.4</ele>
        <time>2019-10-27T10:27:34Z</time>
      </trkpt>
      <trkpt lat="39.528454253733" lon="2.548159458422">
        <ele>14.4</ele>
        <time>2019-10-27T10:27:35Z</time>
      </trkpt>
      <trkpt lat="39.528447296756" lon="2.548113609429">
        <ele>14.4</ele>
        <time>2019-10-27T10:27:36Z</time>
      </trkpt>
      <trkpt lat="39.52844109415" lon="2.548073460128">
        <ele>14.4</ele>
        <time>2019-10-27T10:27:37Z</time>
      </trkpt>
      <trkpt lat="39.528436567924" lon="2.548039010519">
        <ele>14.4</ele>
        <time>2019-10-27T10:27:38Z</time>
      </trkpt>
      <trkpt lat="39.528433885716" lon="2.548012356077">
        <ele>14.4</ele>
        <time>2019-10-27T10:27:39Z</time>
      </trkpt>
      <trkpt lat="39.528432544612" lon="2.547985953092">
        <ele>14.2</ele>
        <time>2019-10-27T10:27:40Z</time>
      </trkpt>
      <trkpt lat="39.528433801897" lon="2.547958292822">
        <ele>14.2</ele>
        <time>2019-10-27T10:27:41Z</time>
      </trkpt>
      <trkpt lat="39.528433969535" lon="2.547925435774">
        <ele>14.2</ele>
        <time>2019-10-27T10:27:42Z</time>
      </trkpt>
      <trkpt lat="39.528431957879" lon="2.547887381948">
        <ele>14.2</ele>
        <time>2019-10-27T10:27:43Z</time>
      </trkpt>
      <trkpt lat="39.528428605119" lon="2.547849244303">
        <ele>14.2</ele>
        <time>2019-10-27T10:27:44Z</time>
      </trkpt>
      <trkpt lat="39.528425671454" lon="2.547811190477">
        <ele>14.2</ele>
        <time>2019-10-27T10:27:45Z</time>
      </trkpt>
      <trkpt lat="39.528424833264" lon="2.547776405592">
        <ele>14.2</ele>
        <time>2019-10-27T10:27:46Z</time>
      </trkpt>
      <trkpt lat="39.528424665626" lon="2.547742961811">
        <ele>14.2</ele>
        <time>2019-10-27T10:27:47Z</time>
      </trkpt>
      <trkpt lat="39.528423240703" lon="2.547706249089">
        <ele>14.2</ele>
        <time>2019-10-27T10:27:48Z</time>
      </trkpt>
      <trkpt lat="39.528423156884" lon="2.547670709833">
        <ele>14.2</ele>
        <time>2019-10-27T10:27:49Z</time>
      </trkpt>
      <trkpt lat="39.528423240703" lon="2.547630476713">
        <ele>14</ele>
        <time>2019-10-27T10:27:50Z</time>
      </trkpt>
      <trkpt lat="39.528420642314" lon="2.547591249421">
        <ele>14</ele>
        <time>2019-10-27T10:27:51Z</time>
      </trkpt>
      <trkpt lat="39.528417121916" lon="2.547550764844">
        <ele>14</ele>
        <time>2019-10-27T10:27:52Z</time>
      </trkpt>
      <trkpt lat="39.528414439708" lon="2.547509944991">
        <ele>14</ele>
        <time>2019-10-27T10:27:53Z</time>
      </trkpt>
      <trkpt lat="39.52841091931" lon="2.547468789862">
        <ele>14</ele>
        <time>2019-10-27T10:27:54Z</time>
      </trkpt>
      <trkpt lat="39.528407147455" lon="2.547427634733">
        <ele>14</ele>
        <time>2019-10-27T10:27:55Z</time>
      </trkpt>
      <trkpt lat="39.528402956505" lon="2.547390502916">
        <ele>14</ele>
        <time>2019-10-27T10:27:56Z</time>
      </trkpt>
      <trkpt lat="39.528399687564" lon="2.547361082447">
        <ele>14</ele>
        <time>2019-10-27T10:27:57Z</time>
      </trkpt>
      <trkpt lat="39.52839667008" lon="2.547333925091">
        <ele>14</ele>
        <time>2019-10-27T10:27:58Z</time>
      </trkpt>
      <trkpt lat="39.528393149682" lon="2.54730551045">
        <ele>14</ele>
        <time>2019-10-27T10:27:59Z</time>
      </trkpt>
      <trkpt lat="39.528390299836" lon="2.547273994506">
        <ele>14</ele>
        <time>2019-10-27T10:28:00Z</time>
      </trkpt>
      <trkpt lat="39.528386947076" lon="2.547238371431">
        <ele>14</ele>
        <time>2019-10-27T10:28:01Z</time>
      </trkpt>
      <trkpt lat="39.528383929592" lon="2.547202496899">
        <ele>14</ele>
        <time>2019-10-27T10:28:02Z</time>
      </trkpt>
      <trkpt lat="39.528382588488" lon="2.547167460557">
        <ele>14</ele>
        <time>2019-10-27T10:28:03Z</time>
      </trkpt>
      <trkpt lat="39.528386695619" lon="2.547136447527">
        <ele>13.8</ele>
        <time>2019-10-27T10:28:04Z</time>
      </trkpt>
      <trkpt lat="39.528398430279" lon="2.547115828053">
        <ele>13.8</ele>
        <time>2019-10-27T10:28:05Z</time>
      </trkpt>
      <trkpt lat="39.528409829663" lon="2.547104512488">
        <ele>13.8</ele>
        <time>2019-10-27T10:28:06Z</time>
      </trkpt>
      <trkpt lat="39.528421396685" lon="2.547098812796">
        <ele>13.8</ele>
        <time>2019-10-27T10:28:07Z</time>
      </trkpt>
      <trkpt lat="39.528433718078" lon="2.547091939638">
        <ele>13.8</ele>
        <time>2019-10-27T10:28:08Z</time>
      </trkpt>
      <trkpt lat="39.528444698367" lon="2.547086994317">
        <ele>13.8</ele>
        <time>2019-10-27T10:28:09Z</time>
      </trkpt>
      <trkpt lat="39.528455259561" lon="2.547085401756">
        <ele>14</ele>
        <time>2019-10-27T10:28:10Z</time>
      </trkpt>
      <trkpt lat="39.52846959261" lon="2.547083306281">
        <ele>14</ele>
        <time>2019-10-27T10:28:11Z</time>
      </trkpt>
      <trkpt lat="39.528485937315" lon="2.547078947693">
        <ele>14</ele>
        <time>2019-10-27T10:28:12Z</time>
      </trkpt>
      <trkpt lat="39.528504377495" lon="2.547071990716">
        <ele>14</ele>
        <time>2019-10-27T10:28:13Z</time>
      </trkpt>
      <trkpt lat="39.528523991141" lon="2.547059585504">
        <ele>14</ele>
        <time>2019-10-27T10:28:14Z</time>
      </trkpt>
      <trkpt lat="39.52854000057" lon="2.547040474772">
        <ele>14</ele>
        <time>2019-10-27T10:28:15Z</time>
      </trkpt>
      <trkpt lat="39.528550394126" lon="2.547016670176">
        <ele>14</ele>
        <time>2019-10-27T10:28:16Z</time>
      </trkpt>
      <trkpt lat="39.528556429094" lon="2.54698867463">
        <ele>14</ele>
        <time>2019-10-27T10:28:17Z</time>
      </trkpt>
      <trkpt lat="39.528559446578" lon="2.546960259989">
        <ele>14.2</ele>
        <time>2019-10-27T10:28:18Z</time>
      </trkpt>
      <trkpt lat="39.528558943664" lon="2.546925307466">
        <ele>14.2</ele>
        <time>2019-10-27T10:28:19Z</time>
      </trkpt>
      <trkpt lat="39.528556429094" lon="2.546887924192">
        <ele>14.2</ele>
        <time>2019-10-27T10:28:20Z</time>
      </trkpt>
      <trkpt lat="39.528556848189" lon="2.546851379108">
        <ele>14.2</ele>
        <time>2019-10-27T10:28:21Z</time>
      </trkpt>
      <trkpt lat="39.528556177637" lon="2.546816175128">
        <ele>14.2</ele>
        <time>2019-10-27T10:28:22Z</time>
      </trkpt>
      <trkpt lat="39.528552657239" lon="2.546781138786">
        <ele>14.4</ele>
        <time>2019-10-27T10:28:23Z</time>
      </trkpt>
      <trkpt lat="39.528548466289" lon="2.546742665865">
        <ele>14.4</ele>
        <time>2019-10-27T10:28:24Z</time>
      </trkpt>
      <trkpt lat="39.528544359158" lon="2.546699750537">
        <ele>14.4</ele>
        <time>2019-10-27T10:28:25Z</time>
      </trkpt>
      <trkpt lat="39.528540252027" lon="2.546657338123">
        <ele>14.4</ele>
        <time>2019-10-27T10:28:26Z</time>
      </trkpt>
      <trkpt lat="39.528536312534" lon="2.5466140037">
        <ele>14.4</ele>
        <time>2019-10-27T10:28:27Z</time>
      </trkpt>
      <trkpt lat="39.528532540679" lon="2.54657125601">
        <ele>14.4</ele>
        <time>2019-10-27T10:28:28Z</time>
      </trkpt>
      <trkpt lat="39.5285291041" lon="2.54652850832">
        <ele>14.4</ele>
        <time>2019-10-27T10:28:29Z</time>
      </trkpt>
      <trkpt lat="39.528526673349" lon="2.546485425354">
        <ele>14.4</ele>
        <time>2019-10-27T10:28:30Z</time>
      </trkpt>
      <trkpt lat="39.528525835159" lon="2.546441755655">
        <ele>14.6</ele>
        <time>2019-10-27T10:28:31Z</time>
      </trkpt>
      <trkpt lat="39.528523152951" lon="2.546389871694">
        <ele>14.6</ele>
        <time>2019-10-27T10:28:32Z</time>
      </trkpt>
      <trkpt lat="39.528517788535" lon="2.54632818091">
        <ele>14.6</ele>
        <time>2019-10-27T10:28:33Z</time>
      </trkpt>
      <trkpt lat="39.528511250653" lon="2.546261796262">
        <ele>14.6</ele>
        <time>2019-10-27T10:28:34Z</time>
      </trkpt>
      <trkpt lat="39.528504377495" lon="2.546199351107">
        <ele>14.6</ele>
        <time>2019-10-27T10:28:35Z</time>
      </trkpt>
      <trkpt lat="39.528498593984" lon="2.546142186549">
        <ele>14.6</ele>
        <time>2019-10-27T10:28:36Z</time>
      </trkpt>
      <trkpt lat="39.528494822129" lon="2.546087117466">
        <ele>14.4</ele>
        <time>2019-10-27T10:28:37Z</time>
      </trkpt>
      <trkpt lat="39.528491469369" lon="2.546033389487">
        <ele>14.4</ele>
        <time>2019-10-27T10:28:38Z</time>
      </trkpt>
      <trkpt lat="39.528490379722" lon="2.5459769793">
        <ele>14.4</ele>
        <time>2019-10-27T10:28:39Z</time>
      </trkpt>
      <trkpt lat="39.528487781333" lon="2.545923083683">
        <ele>14.4</ele>
        <time>2019-10-27T10:28:40Z</time>
      </trkpt>
      <trkpt lat="39.52848468003" lon="2.545872289369">
        <ele>14.4</ele>
        <time>2019-10-27T10:28:41Z</time>
      </trkpt>
      <trkpt lat="39.528481746365" lon="2.545825937462">
        <ele>14.2</ele>
        <time>2019-10-27T10:28:42Z</time>
      </trkpt>
      <trkpt lat="39.528478561243" lon="2.545783022134">
        <ele>14.2</ele>
        <time>2019-10-27T10:28:43Z</time>
      </trkpt>
      <trkpt lat="39.528475879035" lon="2.545741028815">
        <ele>14.2</ele>
        <time>2019-10-27T10:28:44Z</time>
      </trkpt>
      <trkpt lat="39.52847462175" lon="2.545698197306">
        <ele>14.2</ele>
        <time>2019-10-27T10:28:45Z</time>
      </trkpt>
      <trkpt lat="39.528474370293" lon="2.545656874539">
        <ele>14.2</ele>
        <time>2019-10-27T10:28:46Z</time>
      </trkpt>
      <trkpt lat="39.528472526275" lon="2.545615887048">
        <ele>14.2</ele>
        <time>2019-10-27T10:28:47Z</time>
      </trkpt>
      <trkpt lat="39.52846791623" lon="2.545575318652">
        <ele>14.2</ele>
        <time>2019-10-27T10:28:48Z</time>
      </trkpt>
      <trkpt lat="39.528464982565" lon="2.545533660609">
        <ele>14.2</ele>
        <time>2019-10-27T10:28:49Z</time>
      </trkpt>
      <trkpt lat="39.528464312013" lon="2.545491248195">
        <ele>14.2</ele>
        <time>2019-10-27T10:28:50Z</time>
      </trkpt>
      <trkpt lat="39.528463222366" lon="2.5454489196">
        <ele>14.2</ele>
        <time>2019-10-27T10:28:51Z</time>
      </trkpt>
      <trkpt lat="39.528461713624" lon="2.545407093919">
        <ele>14.2</ele>
        <time>2019-10-27T10:28:52Z</time>
      </trkpt>
      <trkpt lat="39.528460707796" lon="2.545365184419">
        <ele>14.2</ele>
        <time>2019-10-27T10:28:53Z</time>
      </trkpt>
      <trkpt lat="39.528457606493" lon="2.545322855824">
        <ele>14.2</ele>
        <time>2019-10-27T10:28:54Z</time>
      </trkpt>
      <trkpt lat="39.528451822982" lon="2.545280946324">
        <ele>14.2</ele>
        <time>2019-10-27T10:28:55Z</time>
      </trkpt>
      <trkpt lat="39.528447883489" lon="2.545238114815">
        <ele>14.2</ele>
        <time>2019-10-27T10:28:56Z</time>
      </trkpt>
      <trkpt lat="39.528447045299" lon="2.545194026021">
        <ele>14.2</ele>
        <time>2019-10-27T10:28:57Z</time>
      </trkpt>
      <trkpt lat="39.528447548213" lon="2.54515052396">
        <ele>14.2</ele>
        <time>2019-10-27T10:28:58Z</time>
      </trkpt>
      <trkpt lat="39.528447212937" lon="2.545107189537">
        <ele>14</ele>
        <time>2019-10-27T10:28:59Z</time>
      </trkpt>
      <trkpt lat="39.528446793842" lon="2.54506419039">
        <ele>14</ele>
        <time>2019-10-27T10:29:00Z</time>
      </trkpt>
      <trkpt lat="39.52844612329" lon="2.545017754664">
        <ele>14</ele>
        <time>2019-10-27T10:29:01Z</time>
      </trkpt>
      <trkpt lat="39.528445536557" lon="2.544967044169">
        <ele>14</ele>
        <time>2019-10-27T10:29:02Z</time>
      </trkpt>
      <trkpt lat="39.528444782186" lon="2.544915746941">
        <ele>14</ele>
        <time>2019-10-27T10:29:03Z</time>
      </trkpt>
      <trkpt lat="39.528443524901" lon="2.544865120265">
        <ele>13.8</ele>
        <time>2019-10-27T10:29:04Z</time>
      </trkpt>
      <trkpt lat="39.528441177969" lon="2.544815331779">
        <ele>13.8</ele>
        <time>2019-10-27T10:29:05Z</time>
      </trkpt>
      <trkpt lat="39.528439250132" lon="2.544766968216">
        <ele>13.8</ele>
        <time>2019-10-27T10:29:06Z</time>
      </trkpt>
      <trkpt lat="39.528437070838" lon="2.544719275205">
        <ele>13.8</ele>
        <time>2019-10-27T10:29:07Z</time>
      </trkpt>
      <trkpt lat="39.528431957879" lon="2.544668313253">
        <ele>13.8</ele>
        <time>2019-10-27T10:29:08Z</time>
      </trkpt>
      <trkpt lat="39.528430868232" lon="2.544620201147">
        <ele>13.8</ele>
        <time>2019-10-27T10:29:09Z</time>
      </trkpt>
      <trkpt lat="39.52843019768" lon="2.54457552562">
        <ele>13.6</ele>
        <time>2019-10-27T10:29:10Z</time>
      </trkpt>
      <trkpt lat="39.528429694766" lon="2.544534621948">
        <ele>13.6</ele>
        <time>2019-10-27T10:29:11Z</time>
      </trkpt>
      <trkpt lat="39.528434723906" lon="2.544495646113">
        <ele>13.6</ele>
        <time>2019-10-27T10:29:12Z</time>
      </trkpt>
      <trkpt lat="39.528444111634" lon="2.544455161536">
        <ele>13.6</ele>
        <time>2019-10-27T10:29:13Z</time>
      </trkpt>
      <trkpt lat="39.528456935941" lon="2.544416185701">
        <ele>13.6</ele>
        <time>2019-10-27T10:29:14Z</time>
      </trkpt>
      <trkpt lat="39.528466072212" lon="2.544377461323">
        <ele>13.6</ele>
        <time>2019-10-27T10:29:15Z</time>
      </trkpt>
      <trkpt lat="39.528467245678" lon="2.544335551823">
        <ele>13.6</ele>
        <time>2019-10-27T10:29:16Z</time>
      </trkpt>
      <trkpt lat="39.528463138547" lon="2.544292971771">
        <ele>13.6</ele>
        <time>2019-10-27T10:29:17Z</time>
      </trkpt>
      <trkpt lat="39.528456013932" lon="2.544251649004">
        <ele>13.6</ele>
        <time>2019-10-27T10:29:18Z</time>
      </trkpt>
      <trkpt lat="39.528448218765" lon="2.544213343721">
        <ele>13.6</ele>
        <time>2019-10-27T10:29:19Z</time>
      </trkpt>
      <trkpt lat="39.528439836865" lon="2.544178475017">
        <ele>13.6</ele>
        <time>2019-10-27T10:29:20Z</time>
      </trkpt>
      <trkpt lat="39.528430113861" lon="2.544145869426">
        <ele>13.6</ele>
        <time>2019-10-27T10:29:21Z</time>
      </trkpt>
      <trkpt lat="39.528420893771" lon="2.544117203328">
        <ele>13.6</ele>
        <time>2019-10-27T10:29:22Z</time>
      </trkpt>
      <trkpt lat="39.528413685337" lon="2.544087447583">
        <ele>13.6</ele>
        <time>2019-10-27T10:29:23Z</time>
      </trkpt>
      <trkpt lat="39.528407231274" lon="2.544052411241">
        <ele>13.6</ele>
        <time>2019-10-27T10:29:24Z</time>
      </trkpt>
      <trkpt lat="39.528402118315" lon="2.544015698519">
        <ele>13.6</ele>
        <time>2019-10-27T10:29:25Z</time>
      </trkpt>
      <trkpt lat="39.528397675908" lon="2.543979488711">
        <ele>13.6</ele>
        <time>2019-10-27T10:29:26Z</time>
      </trkpt>
      <trkpt lat="39.528395580433" lon="2.543945290559">
        <ele>13.6</ele>
        <time>2019-10-27T10:29:27Z</time>
      </trkpt>
      <trkpt lat="39.528393652596" lon="2.543912601149">
        <ele>13.4</ele>
        <time>2019-10-27T10:29:28Z</time>
      </trkpt>
      <trkpt lat="39.52839164094" lon="2.543879660282">
        <ele>13.4</ele>
        <time>2019-10-27T10:29:29Z</time>
      </trkpt>
      <trkpt lat="39.528389042551" lon="2.543846132682">
        <ele>13.4</ele>
        <time>2019-10-27T10:29:30Z</time>
      </trkpt>
      <trkpt lat="39.528385270696" lon="2.543811599254">
        <ele>13.4</ele>
        <time>2019-10-27T10:29:31Z</time>
      </trkpt>
      <trkpt lat="39.528381415022" lon="2.543776646731">
        <ele>13.2</ele>
        <time>2019-10-27T10:29:32Z</time>
      </trkpt>
      <trkpt lat="39.528376469701" lon="2.543740604561">
        <ele>13</ele>
        <time>2019-10-27T10:29:33Z</time>
      </trkpt>
      <trkpt lat="39.528372697846" lon="2.54370296983">
        <ele>13</ele>
        <time>2019-10-27T10:29:34Z</time>
      </trkpt>
      <trkpt lat="39.528367417249" lon="2.543664580728">
        <ele>13</ele>
        <time>2019-10-27T10:29:35Z</time>
      </trkpt>
      <trkpt lat="39.528362555747" lon="2.543625940169">
        <ele>13</ele>
        <time>2019-10-27T10:29:36Z</time>
      </trkpt>
      <trkpt lat="39.528358448616" lon="2.543586712877">
        <ele>13</ele>
        <time>2019-10-27T10:29:37Z</time>
      </trkpt>
      <trkpt lat="39.52835392239" lon="2.543544803377">
        <ele>13</ele>
        <time>2019-10-27T10:29:38Z</time>
      </trkpt>
      <trkpt lat="39.528349563802" lon="2.543502390963">
        <ele>12.8</ele>
        <time>2019-10-27T10:29:39Z</time>
      </trkpt>
      <trkpt lat="39.528348809431" lon="2.543459727092">
        <ele>12.8</ele>
        <time>2019-10-27T10:29:40Z</time>
      </trkpt>
      <trkpt lat="39.528345456671" lon="2.543417482316">
        <ele>12.8</ele>
        <time>2019-10-27T10:29:41Z</time>
      </trkpt>
      <trkpt lat="39.528342523006" lon="2.543373393522">
        <ele>12.8</ele>
        <time>2019-10-27T10:29:42Z</time>
      </trkpt>
      <trkpt lat="39.528337661504" lon="2.543327125434">
        <ele>12.8</ele>
        <time>2019-10-27T10:29:43Z</time>
      </trkpt>
      <trkpt lat="39.528332380907" lon="2.543280186794">
        <ele>12.8</ele>
        <time>2019-10-27T10:29:44Z</time>
      </trkpt>
      <trkpt lat="39.528329279604" lon="2.543234086344">
        <ele>12.8</ele>
        <time>2019-10-27T10:29:45Z</time>
      </trkpt>
      <trkpt lat="39.528328022319" lon="2.543189410817">
        <ele>12.8</ele>
        <time>2019-10-27T10:29:46Z</time>
      </trkpt>
      <trkpt lat="39.528327267948" lon="2.543145238204">
        <ele>12.8</ele>
        <time>2019-10-27T10:29:47Z</time>
      </trkpt>
      <trkpt lat="39.528323244636" lon="2.543055216598">
        <ele>12.6</ele>
        <time>2019-10-27T10:29:49Z</time>
      </trkpt>
      <trkpt lat="39.528319724238" lon="2.543008445596">
        <ele>12.6</ele>
        <time>2019-10-27T10:29:50Z</time>
      </trkpt>
      <trkpt lat="39.528315952383" lon="2.542964356802">
        <ele>12.6</ele>
        <time>2019-10-27T10:29:51Z</time>
      </trkpt>
      <trkpt lat="39.528313186356" lon="2.542918256352">
        <ele>12.6</ele>
        <time>2019-10-27T10:29:52Z</time>
      </trkpt>
      <trkpt lat="39.528310923243" lon="2.542872407359">
        <ele>12.6</ele>
        <time>2019-10-27T10:29:53Z</time>
      </trkpt>
      <trkpt lat="39.528303044257" lon="2.542823624701">
        <ele>12.6</ele>
        <time>2019-10-27T10:29:54Z</time>
      </trkpt>
      <trkpt lat="39.528297931298" lon="2.54277593169">
        <ele>12.6</ele>
        <time>2019-10-27T10:29:55Z</time>
      </trkpt>
      <trkpt lat="39.52829273452" lon="2.542725556471">
        <ele>12.6</ele>
        <time>2019-10-27T10:29:56Z</time>
      </trkpt>
      <trkpt lat="39.528291561054" lon="2.542677779641">
        <ele>12.6</ele>
        <time>2019-10-27T10:29:57Z</time>
      </trkpt>
      <trkpt lat="39.528289800855" lon="2.542631511553">
        <ele>12.6</ele>
        <time>2019-10-27T10:29:58Z</time>
      </trkpt>
      <trkpt lat="39.528287118647" lon="2.542587841854">
        <ele>12.6</ele>
        <time>2019-10-27T10:29:59Z</time>
      </trkpt>
      <trkpt lat="39.528285693724" lon="2.542544926526">
        <ele>12.6</ele>
        <time>2019-10-27T10:30:00Z</time>
      </trkpt>
      <trkpt lat="39.528283849706" lon="2.542502597931">
        <ele>12.6</ele>
        <time>2019-10-27T10:30:01Z</time>
      </trkpt>
      <trkpt lat="39.528281251317" lon="2.542458844413">
        <ele>12.6</ele>
        <time>2019-10-27T10:30:02Z</time>
      </trkpt>
      <trkpt lat="39.528278820566" lon="2.54241299542">
        <ele>12.6</ele>
        <time>2019-10-27T10:30:03Z</time>
      </trkpt>
      <trkpt lat="39.528274545797" lon="2.542365050952">
        <ele>12.6</ele>
        <time>2019-10-27T10:30:04Z</time>
      </trkpt>
      <trkpt lat="39.528271444494" lon="2.542319537235">
        <ele>12.6</ele>
        <time>2019-10-27T10:30:05Z</time>
      </trkpt>
      <trkpt lat="39.528267756458" lon="2.542275029346">
        <ele>12.6</ele>
        <time>2019-10-27T10:30:06Z</time>
      </trkpt>
      <trkpt lat="39.528263649327" lon="2.542231443466">
        <ele>12.8</ele>
        <time>2019-10-27T10:30:07Z</time>
      </trkpt>
      <trkpt lat="39.528259793653" lon="2.542187019396">
        <ele>12.8</ele>
        <time>2019-10-27T10:30:08Z</time>
      </trkpt>
      <trkpt lat="39.528257111445" lon="2.542140918946">
        <ele>12.8</ele>
        <time>2019-10-27T10:30:09Z</time>
      </trkpt>
      <trkpt lat="39.528254680694" lon="2.542094734677">
        <ele>12.8</ele>
        <time>2019-10-27T10:30:10Z</time>
      </trkpt>
      <trkpt lat="39.528251830848" lon="2.542047712218">
        <ele>12.8</ele>
        <time>2019-10-27T10:30:11Z</time>
      </trkpt>
      <trkpt lat="39.528247975174" lon="2.54199976775">
        <ele>12.8</ele>
        <time>2019-10-27T10:30:12Z</time>
      </trkpt>
      <trkpt lat="39.528244706233" lon="2.541951823282">
        <ele>12.8</ele>
        <time>2019-10-27T10:30:13Z</time>
      </trkpt>
      <trkpt lat="39.52823909036" lon="2.541903292081">
        <ele>13</ele>
        <time>2019-10-27T10:30:14Z</time>
      </trkpt>
      <trkpt lat="39.528233390668" lon="2.541857526907">
        <ele>13</ele>
        <time>2019-10-27T10:30:15Z</time>
      </trkpt>
      <trkpt lat="39.528228948261" lon="2.541813521932">
        <ele>13</ele>
        <time>2019-10-27T10:30:16Z</time>
      </trkpt>
      <trkpt lat="39.528225763139" lon="2.541770606604">
        <ele>13</ele>
        <time>2019-10-27T10:30:17Z</time>
      </trkpt>
      <trkpt lat="39.528222410379" lon="2.541728948561">
        <ele>13.2</ele>
        <time>2019-10-27T10:30:18Z</time>
      </trkpt>
      <trkpt lat="39.528219979628" lon="2.541686703785">
        <ele>13.2</ele>
        <time>2019-10-27T10:30:19Z</time>
      </trkpt>
      <trkpt lat="39.528216291592" lon="2.541643704638">
        <ele>13.2</ele>
        <time>2019-10-27T10:30:20Z</time>
      </trkpt>
      <trkpt lat="39.528210759538" lon="2.541599448206">
        <ele>13.2</ele>
        <time>2019-10-27T10:30:21Z</time>
      </trkpt>
      <trkpt lat="39.52820556276" lon="2.541555024136">
        <ele>13.2</ele>
        <time>2019-10-27T10:30:22Z</time>
      </trkpt>
      <trkpt lat="39.528202126181" lon="2.541510516247">
        <ele>13.4</ele>
        <time>2019-10-27T10:30:23Z</time>
      </trkpt>
      <trkpt lat="39.528202880552" lon="2.541468942023">
        <ele>13.4</ele>
        <time>2019-10-27T10:30:24Z</time>
      </trkpt>
      <trkpt lat="39.528206568588" lon="2.541426948704">
        <ele>13.4</ele>
        <time>2019-10-27T10:30:25Z</time>
      </trkpt>
      <trkpt lat="39.528210508081" lon="2.541385709756">
        <ele>13.4</ele>
        <time>2019-10-27T10:30:26Z</time>
      </trkpt>
      <trkpt lat="39.52821226828" lon="2.541344722265">
        <ele>13.4</ele>
        <time>2019-10-27T10:30:27Z</time>
      </trkpt>
      <trkpt lat="39.528211010995" lon="2.541303986231">
        <ele>13.4</ele>
        <time>2019-10-27T10:30:28Z</time>
      </trkpt>
      <trkpt lat="39.5282105919" lon="2.541264507482">
        <ele>13.4</ele>
        <time>2019-10-27T10:30:29Z</time>
      </trkpt>
      <trkpt lat="39.528211681547" lon="2.541226788932">
        <ele>13.4</ele>
        <time>2019-10-27T10:30:30Z</time>
      </trkpt>
      <trkpt lat="39.528212855013" lon="2.541189573296">
        <ele>13.4</ele>
        <time>2019-10-27T10:30:31Z</time>
      </trkpt>
      <trkpt lat="39.528213609384" lon="2.541153112031">
        <ele>13.4</ele>
        <time>2019-10-27T10:30:32Z</time>
      </trkpt>
      <trkpt lat="39.528210927176" lon="2.54111715368">
        <ele>13.4</ele>
        <time>2019-10-27T10:30:33Z</time>
      </trkpt>
      <trkpt lat="39.528207155321" lon="2.541082368795">
        <ele>13.4</ele>
        <time>2019-10-27T10:30:34Z</time>
      </trkpt>
      <trkpt lat="39.528203383466" lon="2.541050685213">
        <ele>13.4</ele>
        <time>2019-10-27T10:30:35Z</time>
      </trkpt>
      <trkpt lat="39.528200365982" lon="2.541020342735">
        <ele>13.6</ele>
        <time>2019-10-27T10:30:36Z</time>
      </trkpt>
      <trkpt lat="39.528198438145" lon="2.540992347189">
        <ele>13.6</ele>
        <time>2019-10-27T10:30:37Z</time>
      </trkpt>
      <trkpt lat="39.528196258851" lon="2.540968710231">
        <ele>13.6</ele>
        <time>2019-10-27T10:30:38Z</time>
      </trkpt>
      <trkpt lat="39.528193157548" lon="2.540950772965">
        <ele>13.6</ele>
        <time>2019-10-27T10:30:39Z</time>
      </trkpt>
      <trkpt lat="39.528190642978" lon="2.540937697201">
        <ele>13.8</ele>
        <time>2019-10-27T10:30:40Z</time>
      </trkpt>
      <trkpt lat="39.528190223883" lon="2.540931410776">
        <ele>13.8</ele>
        <time>2019-10-27T10:30:41Z</time>
      </trkpt>
      <trkpt lat="39.528190140064" lon="2.540929482939">
        <ele>13.8</ele>
        <time>2019-10-27T10:30:42Z</time>
      </trkpt>
      <trkpt lat="39.528169855866" lon="2.540881454652">
        <ele>14</ele>
        <time>2019-10-27T10:30:47Z</time>
      </trkpt>
      <trkpt lat="39.528164239993" lon="2.540860332264">
        <ele>14</ele>
        <time>2019-10-27T10:30:48Z</time>
      </trkpt>
      <trkpt lat="39.528158791758" lon="2.540836862944">
        <ele>14</ele>
        <time>2019-10-27T10:30:49Z</time>
      </trkpt>
      <trkpt lat="39.528153343523" lon="2.540812303977">
        <ele>14</ele>
        <time>2019-10-27T10:30:50Z</time>
      </trkpt>
      <trkpt lat="39.528147308555" lon="2.540787242096">
        <ele>14</ele>
        <time>2019-10-27T10:30:51Z</time>
      </trkpt>
      <trkpt lat="39.528139261931" lon="2.540762850767">
        <ele>14</ele>
        <time>2019-10-27T10:30:52Z</time>
      </trkpt>
      <trkpt lat="39.528126521443" lon="2.540737621248">
        <ele>14</ele>
        <time>2019-10-27T10:30:53Z</time>
      </trkpt>
      <trkpt lat="39.528110679652" lon="2.540712475548">
        <ele>14</ele>
        <time>2019-10-27T10:30:54Z</time>
      </trkpt>
      <trkpt lat="39.528080420993" lon="2.54067458936">
        <ele>14</ele>
        <time>2019-10-27T10:30:56Z</time>
      </trkpt>
      <trkpt lat="39.528061310261" lon="2.540654975714">
        <ele>14</ele>
        <time>2019-10-27T10:30:57Z</time>
      </trkpt>
      <trkpt lat="39.528047312488" lon="2.540638128095">
        <ele>14</ele>
        <time>2019-10-27T10:30:58Z</time>
      </trkpt>
      <trkpt lat="39.528033817629" lon="2.540617424802">
        <ele>14</ele>
        <time>2019-10-27T10:30:59Z</time>
      </trkpt>
      <trkpt lat="39.528020741865" lon="2.540592698197">
        <ele>13.8</ele>
        <time>2019-10-27T10:31:00Z</time>
      </trkpt>
      <trkpt lat="39.52800774992" lon="2.540569480334">
        <ele>13.8</ele>
        <time>2019-10-27T10:31:01Z</time>
      </trkpt>
      <trkpt lat="39.527994255061" lon="2.540546681566">
        <ele>13.8</ele>
        <time>2019-10-27T10:31:02Z</time>
      </trkpt>
      <trkpt lat="39.52797673689" lon="2.540517764011">
        <ele>13.8</ele>
        <time>2019-10-27T10:31:03Z</time>
      </trkpt>
      <trkpt lat="39.527960056909" lon="2.54048767299">
        <ele>13.8</ele>
        <time>2019-10-27T10:31:04Z</time>
      </trkpt>
      <trkpt lat="39.527946059136" lon="2.540460515634">
        <ele>13.6</ele>
        <time>2019-10-27T10:31:05Z</time>
      </trkpt>
      <trkpt lat="39.527933402467" lon="2.540433777373">
        <ele>13.6</ele>
        <time>2019-10-27T10:31:06Z</time>
      </trkpt>
      <trkpt lat="39.527916135753" lon="2.540401842334">
        <ele>13.6</ele>
        <time>2019-10-27T10:31:07Z</time>
      </trkpt>
      <trkpt lat="39.527895851555" lon="2.540365632526">
        <ele>13.6</ele>
        <time>2019-10-27T10:31:08Z</time>
      </trkpt>
      <trkpt lat="39.527878333384" lon="2.540333948944">
        <ele>13.4</ele>
        <time>2019-10-27T10:31:09Z</time>
      </trkpt>
      <trkpt lat="39.527857797729" lon="2.540301846267">
        <ele>13.4</ele>
        <time>2019-10-27T10:31:10Z</time>
      </trkpt>
      <trkpt lat="39.527839189911" lon="2.540271755246">
        <ele>13.4</ele>
        <time>2019-10-27T10:31:11Z</time>
      </trkpt>
      <trkpt lat="39.527822090835" lon="2.54024040694">
        <ele>13.4</ele>
        <time>2019-10-27T10:31:12Z</time>
      </trkpt>
      <trkpt lat="39.527801974275" lon="2.540206208788">
        <ele>13.2</ele>
        <time>2019-10-27T10:31:13Z</time>
      </trkpt>
      <trkpt lat="39.527783198819" lon="2.540172429731">
        <ele>13</ele>
        <time>2019-10-27T10:31:14Z</time>
      </trkpt>
      <trkpt lat="39.527767440847" lon="2.540137896303">
        <ele>13</ele>
        <time>2019-10-27T10:31:15Z</time>
      </trkpt>
      <trkpt lat="39.527747827201" lon="2.540096741174">
        <ele>13</ele>
        <time>2019-10-27T10:31:16Z</time>
      </trkpt>
      <trkpt lat="39.527733242695" lon="2.540064889954">
        <ele>12.8</ele>
        <time>2019-10-27T10:31:17Z</time>
      </trkpt>
      <trkpt lat="39.527718406732" lon="2.540034547476">
        <ele>12.6</ele>
        <time>2019-10-27T10:31:18Z</time>
      </trkpt>
      <trkpt lat="39.527700553285" lon="2.540003450627">
        <ele>12.6</ele>
        <time>2019-10-27T10:31:19Z</time>
      </trkpt>
      <trkpt lat="39.527681945467" lon="2.539972353778">
        <ele>12.4</ele>
        <time>2019-10-27T10:31:20Z</time>
      </trkpt>
      <trkpt lat="39.527664511115" lon="2.539944106775">
        <ele>12.4</ele>
        <time>2019-10-27T10:31:21Z</time>
      </trkpt>
      <trkpt lat="39.527632995171" lon="2.539904208931">
        <ele>12.2</ele>
        <time>2019-10-27T10:31:22Z</time>
      </trkpt>
      <trkpt lat="39.52761128605" lon="2.539869424046">
        <ele>12</ele>
        <time>2019-10-27T10:31:23Z</time>
      </trkpt>
      <trkpt lat="39.52758949311" lon="2.539835142075">
        <ele>11.8</ele>
        <time>2019-10-27T10:31:24Z</time>
      </trkpt>
      <trkpt lat="39.527566945799" lon="2.539801027742">
        <ele>11.8</ele>
        <time>2019-10-27T10:31:25Z</time>
      </trkpt>
      <trkpt lat="39.52754423085" lon="2.53976766778">
        <ele>11.6</ele>
        <time>2019-10-27T10:31:26Z</time>
      </trkpt>
      <trkpt lat="39.527521934996" lon="2.539734223999">
        <ele>11.6</ele>
        <time>2019-10-27T10:31:27Z</time>
      </trkpt>
      <trkpt lat="39.527499890599" lon="2.539699858209">
        <ele>11.4</ele>
        <time>2019-10-27T10:31:28Z</time>
      </trkpt>
      <trkpt lat="39.527477008012" lon="2.539664989505">
        <ele>11.4</ele>
        <time>2019-10-27T10:31:29Z</time>
      </trkpt>
      <trkpt lat="39.527453203416" lon="2.539630707534">
        <ele>11.2</ele>
        <time>2019-10-27T10:31:30Z</time>
      </trkpt>
      <trkpt lat="39.527431242838" lon="2.539596425563">
        <ele>11.2</ele>
        <time>2019-10-27T10:31:31Z</time>
      </trkpt>
      <trkpt lat="39.527410036631" lon="2.539560718669">
        <ele>11</ele>
        <time>2019-10-27T10:31:32Z</time>
      </trkpt>
      <trkpt lat="39.527388914243" lon="2.539524173585">
        <ele>11</ele>
        <time>2019-10-27T10:31:33Z</time>
      </trkpt>
      <trkpt lat="39.527365193466" lon="2.539486119759">
        <ele>10.8</ele>
        <time>2019-10-27T10:31:34Z</time>
      </trkpt>
      <trkpt lat="39.527340466861" lon="2.539446892467">
        <ele>10.8</ele>
        <time>2019-10-27T10:31:35Z</time>
      </trkpt>
      <trkpt lat="39.527314734428" lon="2.539407162261">
        <ele>10.8</ele>
        <time>2019-10-27T10:31:36Z</time>
      </trkpt>
      <trkpt lat="39.527291181289" lon="2.539369192254">
        <ele>10.6</ele>
        <time>2019-10-27T10:31:37Z</time>
      </trkpt>
      <trkpt lat="39.527269472168" lon="2.539329545867">
        <ele>10.6</ele>
        <time>2019-10-27T10:31:38Z</time>
      </trkpt>
      <trkpt lat="39.527246254305" lon="2.539288306919">
        <ele>10.4</ele>
        <time>2019-10-27T10:31:39Z</time>
      </trkpt>
      <trkpt lat="39.527222868804" lon="2.539246816514">
        <ele>10.4</ele>
        <time>2019-10-27T10:31:40Z</time>
      </trkpt>
      <trkpt lat="39.52719973476" lon="2.539206164299">
        <ele>10.2</ele>
        <time>2019-10-27T10:31:41Z</time>
      </trkpt>
      <trkpt lat="39.527177522725" lon="2.539164506256">
        <ele>10</ele>
        <time>2019-10-27T10:31:42Z</time>
      </trkpt>
      <trkpt lat="39.527157657622" lon="2.539122680575">
        <ele>9.8</ele>
        <time>2019-10-27T10:31:43Z</time>
      </trkpt>
      <trkpt lat="39.527138714528" lon="2.539081022532">
        <ele>9.6</ele>
        <time>2019-10-27T10:31:44Z</time>
      </trkpt>
      <trkpt lat="39.527119436158" lon="2.539037939566">
        <ele>9.6</ele>
        <time>2019-10-27T10:31:45Z</time>
      </trkpt>
      <trkpt lat="39.527102085625" lon="2.538996449161">
        <ele>9.6</ele>
        <time>2019-10-27T10:31:46Z</time>
      </trkpt>
      <trkpt lat="39.527077107563" lon="2.538953952928">
        <ele>9.4</ele>
        <time>2019-10-27T10:31:47Z</time>
      </trkpt>
      <trkpt lat="39.527050620759" lon="2.538909109763">
        <ele>9.2</ele>
        <time>2019-10-27T10:31:48Z</time>
      </trkpt>
      <trkpt lat="39.527025055964" lon="2.538870217747">
        <ele>9.2</ele>
        <time>2019-10-27T10:31:49Z</time>
      </trkpt>
      <trkpt lat="39.527004687947" lon="2.538833505025">
        <ele>9.2</ele>
        <time>2019-10-27T10:31:50Z</time>
      </trkpt>
      <trkpt lat="39.526989935803" lon="2.538799809787">
        <ele>9</ele>
        <time>2019-10-27T10:31:51Z</time>
      </trkpt>
      <trkpt lat="39.526963951913" lon="2.538760750133">
        <ele>9</ele>
        <time>2019-10-27T10:31:52Z</time>
      </trkpt>
      <trkpt lat="39.526937884204" lon="2.53872412123">
        <ele>9</ele>
        <time>2019-10-27T10:31:53Z</time>
      </trkpt>
      <trkpt lat="39.526915755988" lon="2.53869059363">
        <ele>9</ele>
        <time>2019-10-27T10:31:54Z</time>
      </trkpt>
      <trkpt lat="39.526901422939" lon="2.538659915876">
        <ele>9</ele>
        <time>2019-10-27T10:31:55Z</time>
      </trkpt>
      <trkpt lat="39.526892202849" lon="2.538632171787">
        <ele>9</ele>
        <time>2019-10-27T10:31:56Z</time>
      </trkpt>
      <trkpt lat="39.526878037438" lon="2.53860593644">
        <ele>9</ele>
        <time>2019-10-27T10:31:57Z</time>
      </trkpt>
      <trkpt lat="39.526863369113" lon="2.538585233147">
        <ele>8.8</ele>
        <time>2019-10-27T10:31:58Z</time>
      </trkpt>
      <trkpt lat="39.526842330544" lon="2.53856318875">
        <ele>8.8</ele>
        <time>2019-10-27T10:31:59Z</time>
      </trkpt>
      <trkpt lat="39.526825734382" lon="2.538545419122">
        <ele>8.8</ele>
        <time>2019-10-27T10:32:00Z</time>
      </trkpt>
      <trkpt lat="39.526808719125" lon="2.538532008082">
        <ele>8.8</ele>
        <time>2019-10-27T10:32:01Z</time>
      </trkpt>
      <trkpt lat="39.526799247578" lon="2.538522368897">
        <ele>8.8</ele>
        <time>2019-10-27T10:32:02Z</time>
      </trkpt>
      <trkpt lat="39.526669328128" lon="2.538569475175">
        <ele>9</ele>
        <time>2019-10-27T10:32:43Z</time>
      </trkpt>
      <trkpt lat="39.526654995079" lon="2.538579868731">
        <ele>9</ele>
        <time>2019-10-27T10:32:44Z</time>
      </trkpt>
      <trkpt lat="39.526639488564" lon="2.53858833445">
        <ele>9</ele>
        <time>2019-10-27T10:32:45Z</time>
      </trkpt>
      <trkpt lat="39.526621132203" lon="2.538590178468">
        <ele>8.8</ele>
        <time>2019-10-27T10:32:46Z</time>
      </trkpt>
      <trkpt lat="39.526602524385" lon="2.53858749626">
        <ele>8.8</ele>
        <time>2019-10-27T10:32:47Z</time>
      </trkpt>
      <trkpt lat="39.526583162196" lon="2.538582886215">
        <ele>8.8</ele>
        <time>2019-10-27T10:32:48Z</time>
      </trkpt>
      <trkpt lat="39.526564135283" lon="2.53858079074">
        <ele>8.8</ele>
        <time>2019-10-27T10:32:49Z</time>
      </trkpt>
      <trkpt lat="39.526546617112" lon="2.538580120188">
        <ele>8.8</ele>
        <time>2019-10-27T10:32:50Z</time>
      </trkpt>
      <trkpt lat="39.52652750638" lon="2.538579617274">
        <ele>8.8</ele>
        <time>2019-10-27T10:32:51Z</time>
      </trkpt>
      <trkpt lat="39.526506132535" lon="2.538580036369">
        <ele>8.8</ele>
        <time>2019-10-27T10:32:52Z</time>
      </trkpt>
      <trkpt lat="39.526484926328" lon="2.538580623102">
        <ele>8.8</ele>
        <time>2019-10-27T10:32:53Z</time>
      </trkpt>
      <trkpt lat="39.526460199723" lon="2.538577521799">
        <ele>8.8</ele>
        <time>2019-10-27T10:32:54Z</time>
      </trkpt>
      <trkpt lat="39.526438155326" lon="2.538572827935">
        <ele>8.8</ele>
        <time>2019-10-27T10:32:55Z</time>
      </trkpt>
      <trkpt lat="39.526415943291" lon="2.538567798795">
        <ele>8.8</ele>
        <time>2019-10-27T10:32:56Z</time>
      </trkpt>
      <trkpt lat="39.526402867527" lon="2.538566709148">
        <ele>8.6</ele>
        <time>2019-10-27T10:32:57Z</time>
      </trkpt>
      <trkpt lat="39.526383756795" lon="2.538567966433">
        <ele>8.6</ele>
        <time>2019-10-27T10:32:58Z</time>
      </trkpt>
      <trkpt lat="39.526363053502" lon="2.538578611446">
        <ele>8.6</ele>
        <time>2019-10-27T10:32:59Z</time>
      </trkpt>
      <trkpt lat="39.526344948598" lon="2.538593950323">
        <ele>8.6</ele>
        <time>2019-10-27T10:33:00Z</time>
      </trkpt>
      <trkpt lat="39.526324999676" lon="2.538606606992">
        <ele>8.6</ele>
        <time>2019-10-27T10:33:01Z</time>
      </trkpt>
      <trkpt lat="39.526306475677" lon="2.538614905073">
        <ele>8.4</ele>
        <time>2019-10-27T10:33:02Z</time>
      </trkpt>
      <trkpt lat="39.526288789868" lon="2.538616916729">
        <ele>8.4</ele>
        <time>2019-10-27T10:33:03Z</time>
      </trkpt>
      <trkpt lat="39.526269846774" lon="2.538621442955">
        <ele>8.4</ele>
        <time>2019-10-27T10:33:04Z</time>
      </trkpt>
      <trkpt lat="39.526248892024" lon="2.538629824855">
        <ele>8.2</ele>
        <time>2019-10-27T10:33:05Z</time>
      </trkpt>
      <trkpt lat="39.526226512351" lon="2.538644157904">
        <ele>8.2</ele>
        <time>2019-10-27T10:33:06Z</time>
      </trkpt>
      <trkpt lat="39.526204384135" lon="2.5386595806">
        <ele>8.2</ele>
        <time>2019-10-27T10:33:07Z</time>
      </trkpt>
      <trkpt lat="39.526182423557" lon="2.538675338572">
        <ele>8</ele>
        <time>2019-10-27T10:33:08Z</time>
      </trkpt>
      <trkpt lat="39.526154092735" lon="2.538685648309">
        <ele>8</ele>
        <time>2019-10-27T10:33:09Z</time>
      </trkpt>
      <trkpt lat="39.526127103017" lon="2.538707189792">
        <ele>8</ele>
        <time>2019-10-27T10:33:10Z</time>
      </trkpt>
      <trkpt lat="39.526102879326" lon="2.538722528669">
        <ele>7.8</ele>
        <time>2019-10-27T10:33:11Z</time>
      </trkpt>
      <trkpt lat="39.526078990911" lon="2.53873753227">
        <ele>7.8</ele>
        <time>2019-10-27T10:33:12Z</time>
      </trkpt>
      <trkpt lat="39.526050157175" lon="2.538751278586">
        <ele>7.8</ele>
        <time>2019-10-27T10:33:13Z</time>
      </trkpt>
      <trkpt lat="39.52602040143" lon="2.538772820069">
        <ele>7.6</ele>
        <time>2019-10-27T10:33:14Z</time>
      </trkpt>
      <trkpt lat="39.525990645685" lon="2.538794110095">
        <ele>7.6</ele>
        <time>2019-10-27T10:33:15Z</time>
      </trkpt>
      <trkpt lat="39.52596172813" lon="2.538819591071">
        <ele>7.4</ele>
        <time>2019-10-27T10:33:16Z</time>
      </trkpt>
      <trkpt lat="39.525933062032" lon="2.538850855558">
        <ele>7.2</ele>
        <time>2019-10-27T10:33:17Z</time>
      </trkpt>
      <trkpt lat="39.525901126993" lon="2.538881365674">
        <ele>7.2</ele>
        <time>2019-10-27T10:33:18Z</time>
      </trkpt>
      <trkpt lat="39.525865923013" lon="2.538915480007">
        <ele>7</ele>
        <time>2019-10-27T10:33:19Z</time>
      </trkpt>
      <trkpt lat="39.525830048481" lon="2.538953030919">
        <ele>6.8</ele>
        <time>2019-10-27T10:33:20Z</time>
      </trkpt>
      <trkpt lat="39.525792162293" lon="2.538985049777">
        <ele>6.8</ele>
        <time>2019-10-27T10:33:21Z</time>
      </trkpt>
      <trkpt lat="39.5257546952" lon="2.539019331748">
        <ele>6.6</ele>
        <time>2019-10-27T10:33:22Z</time>
      </trkpt>
      <trkpt lat="39.525717982478" lon="2.539053446081">
        <ele>6.6</ele>
        <time>2019-10-27T10:33:23Z</time>
      </trkpt>
      <trkpt lat="39.525684119602" lon="2.539088650061">
        <ele>6.6</ele>
        <time>2019-10-27T10:33:24Z</time>
      </trkpt>
      <trkpt lat="39.525652016925" lon="2.539120166005">
        <ele>6.4</ele>
        <time>2019-10-27T10:33:25Z</time>
      </trkpt>
      <trkpt lat="39.525620333343" lon="2.539150424664">
        <ele>6</ele>
        <time>2019-10-27T10:33:26Z</time>
      </trkpt>
      <trkpt lat="39.525586889562" lon="2.539178336391">
        <ele>6</ele>
        <time>2019-10-27T10:33:27Z</time>
      </trkpt>
      <trkpt lat="39.525551517944" lon="2.539205829023">
        <ele>5.8</ele>
        <time>2019-10-27T10:33:28Z</time>
      </trkpt>
      <trkpt lat="39.525519499086" lon="2.539237764062">
        <ele>5.4</ele>
        <time>2019-10-27T10:33:29Z</time>
      </trkpt>
      <trkpt lat="39.525488821332" lon="2.539269280006">
        <ele>5.2</ele>
        <time>2019-10-27T10:33:30Z</time>
      </trkpt>
      <trkpt lat="39.525456215741" lon="2.539302304692">
        <ele>5</ele>
        <time>2019-10-27T10:33:31Z</time>
      </trkpt>
      <trkpt lat="39.525423274874" lon="2.539332395713">
        <ele>5</ele>
        <time>2019-10-27T10:33:32Z</time>
      </trkpt>
      <trkpt lat="39.525388992903" lon="2.539361648544">
        <ele>4.8</ele>
        <time>2019-10-27T10:33:33Z</time>
      </trkpt>
      <trkpt lat="39.525354543294" lon="2.539394337954">
        <ele>4.6</ele>
        <time>2019-10-27T10:33:34Z</time>
      </trkpt>
      <trkpt lat="39.525321015694" lon="2.539429541934">
        <ele>4.6</ele>
        <time>2019-10-27T10:33:35Z</time>
      </trkpt>
      <trkpt lat="39.525287152818" lon="2.539462901896">
        <ele>4.4</ele>
        <time>2019-10-27T10:33:36Z</time>
      </trkpt>
      <trkpt lat="39.525254379589" lon="2.539496429496">
        <ele>4.2</ele>
        <time>2019-10-27T10:33:37Z</time>
      </trkpt>
      <trkpt lat="39.52522244455" lon="2.539530376191">
        <ele>4</ele>
        <time>2019-10-27T10:33:38Z</time>
      </trkpt>
      <trkpt lat="39.525189252226" lon="2.539561808316">
        <ele>3.8</ele>
        <time>2019-10-27T10:33:39Z</time>
      </trkpt>
      <trkpt lat="39.525156646635" lon="2.539593827174">
        <ele>3.6</ele>
        <time>2019-10-27T10:33:40Z</time>
      </trkpt>
      <trkpt lat="39.525124208682" lon="2.539626265127">
        <ele>3.6</ele>
        <time>2019-10-27T10:33:41Z</time>
      </trkpt>
      <trkpt lat="39.525093279471" lon="2.539660211822">
        <ele>3.4</ele>
        <time>2019-10-27T10:33:42Z</time>
      </trkpt>
      <trkpt lat="39.525063691364" lon="2.539694829069">
        <ele>3.4</ele>
        <time>2019-10-27T10:33:43Z</time>
      </trkpt>
      <trkpt lat="39.525033516524" lon="2.539726680289">
        <ele>3.2</ele>
        <time>2019-10-27T10:33:44Z</time>
      </trkpt>
      <trkpt lat="39.525004012236" lon="2.5397576095">
        <ele>3.2</ele>
        <time>2019-10-27T10:33:45Z</time>
      </trkpt>
      <trkpt lat="39.52497266393" lon="2.539789544539">
        <ele>3.2</ele>
        <time>2019-10-27T10:33:46Z</time>
      </trkpt>
      <trkpt lat="39.524937292312" lon="2.539819384103">
        <ele>3.2</ele>
        <time>2019-10-27T10:33:47Z</time>
      </trkpt>
      <trkpt lat="39.524903429436" lon="2.539850480952">
        <ele>3</ele>
        <time>2019-10-27T10:33:48Z</time>
      </trkpt>
      <trkpt lat="39.524869482741" lon="2.539878811774">
        <ele>3</ele>
        <time>2019-10-27T10:33:49Z</time>
      </trkpt>
      <trkpt lat="39.524836625693" lon="2.53990345456">
        <ele>3</ele>
        <time>2019-10-27T10:33:50Z</time>
      </trkpt>
      <trkpt lat="39.524805277387" lon="2.539930109002">
        <ele>3</ele>
        <time>2019-10-27T10:33:51Z</time>
      </trkpt>
      <trkpt lat="39.524775018728" lon="2.539955254702">
        <ele>2.8</ele>
        <time>2019-10-27T10:33:52Z</time>
      </trkpt>
      <trkpt lat="39.524744173336" lon="2.539972353778">
        <ele>2.8</ele>
        <time>2019-10-27T10:33:53Z</time>
      </trkpt>
      <trkpt lat="39.524715507238" lon="2.539979813669">
        <ele>2.8</ele>
        <time>2019-10-27T10:33:54Z</time>
      </trkpt>
      <trkpt lat="39.524688266063" lon="2.539981070954">
        <ele>2.8</ele>
        <time>2019-10-27T10:33:55Z</time>
      </trkpt>
      <trkpt lat="39.524663623277" lon="2.539974113977">
        <ele>2.8</ele>
        <time>2019-10-27T10:33:56Z</time>
      </trkpt>
      <trkpt lat="39.524641411242" lon="2.539964139516">
        <ele>2.8</ele>
        <time>2019-10-27T10:33:57Z</time>
      </trkpt>
      <trkpt lat="39.524622384329" lon="2.539946705164">
        <ele>2.8</ele>
        <time>2019-10-27T10:33:58Z</time>
      </trkpt>
      <trkpt lat="39.524605871986" lon="2.539928851717">
        <ele>2.8</ele>
        <time>2019-10-27T10:33:59Z</time>
      </trkpt>
      <trkpt lat="39.524591874213" lon="2.539913429021">
        <ele>2.8</ele>
        <time>2019-10-27T10:34:00Z</time>
      </trkpt>
      <trkpt lat="39.524578882268" lon="2.539901275266">
        <ele>2.8</ele>
        <time>2019-10-27T10:34:01Z</time>
      </trkpt>
      <trkpt lat="39.524562202287" lon="2.539896832859">
        <ele>2.8</ele>
        <time>2019-10-27T10:34:02Z</time>
      </trkpt>
      <trkpt lat="39.524543929745" lon="2.539903203103">
        <ele>2.8</ele>
        <time>2019-10-27T10:34:03Z</time>
      </trkpt>
      <trkpt lat="39.524529512877" lon="2.539916362686">
        <ele>2.8</ele>
        <time>2019-10-27T10:34:04Z</time>
      </trkpt>
      <trkpt lat="39.524516269475" lon="2.539932204477">
        <ele>2.8</ele>
        <time>2019-10-27T10:34:05Z</time>
      </trkpt>
      <trkpt lat="39.524504367177" lon="2.539944944965">
        <ele>2.8</ele>
        <time>2019-10-27T10:34:06Z</time>
      </trkpt>
      <trkpt lat="39.524496991105" lon="2.539951399028">
        <ele>2.8</ele>
        <time>2019-10-27T10:34:07Z</time>
      </trkpt>
      <trkpt lat="39.524493889802" lon="2.539951818123">
        <ele>3</ele>
        <time>2019-10-27T10:34:08Z</time>
      </trkpt>
      <trkpt lat="39.524505959738" lon="2.540026081757">
        <ele>3.2</ele>
        <time>2019-10-27T10:34:17Z</time>
      </trkpt>
      <trkpt lat="39.524515598923" lon="2.540052317104">
        <ele>3.2</ele>
        <time>2019-10-27T10:34:18Z</time>
      </trkpt>
      <trkpt lat="39.524525824841" lon="2.540083330134">
        <ele>3.2</ele>
        <time>2019-10-27T10:34:19Z</time>
      </trkpt>
      <trkpt lat="39.524538146234" lon="2.540118953209">
        <ele>3.2</ele>
        <time>2019-10-27T10:34:20Z</time>
      </trkpt>
      <trkpt lat="39.524551724912" lon="2.540153570456">
        <ele>3.2</ele>
        <time>2019-10-27T10:34:21Z</time>
      </trkpt>
      <trkpt lat="39.524568823988" lon="2.540191372825">
        <ele>3.2</ele>
        <time>2019-10-27T10:34:22Z</time>
      </trkpt>
      <trkpt lat="39.52458374377" lon="2.540222972588">
        <ele>3.2</ele>
        <time>2019-10-27T10:34:23Z</time>
      </trkpt>
      <trkpt lat="39.524596987172" lon="2.540253482704">
        <ele>3.2</ele>
        <time>2019-10-27T10:34:24Z</time>
      </trkpt>
      <trkpt lat="39.52460888947" lon="2.540283070811">
        <ele>3.2</ele>
        <time>2019-10-27T10:34:25Z</time>
      </trkpt>
      <trkpt lat="39.524618863931" lon="2.540317771877">
        <ele>3.2</ele>
        <time>2019-10-27T10:34:26Z</time>
      </trkpt>
      <trkpt lat="39.524629089849" lon="2.540352808219">
        <ele>3.2</ele>
        <time>2019-10-27T10:34:27Z</time>
      </trkpt>
      <trkpt lat="39.524639567224" lon="2.540386000543">
        <ele>3.2</ele>
        <time>2019-10-27T10:34:28Z</time>
      </trkpt>
      <trkpt lat="39.524651804798" lon="2.540417013573">
        <ele>3.2</ele>
        <time>2019-10-27T10:34:29Z</time>
      </trkpt>
      <trkpt lat="39.524664461467" lon="2.540445595852">
        <ele>3.2</ele>
        <time>2019-10-27T10:34:30Z</time>
      </trkpt>
      <trkpt lat="39.52467594467" lon="2.540471998837">
        <ele>3.2</ele>
        <time>2019-10-27T10:34:31Z</time>
      </trkpt>
      <trkpt lat="39.524689523348" lon="2.5404952167">
        <ele>3.2</ele>
        <time>2019-10-27T10:34:32Z</time>
      </trkpt>
      <trkpt lat="39.52470444313" lon="2.540514411251">
        <ele>3.2</ele>
        <time>2019-10-27T10:34:33Z</time>
      </trkpt>
      <trkpt lat="39.524717770351" lon="2.540528073748">
        <ele>3.2</ele>
        <time>2019-10-27T10:34:34Z</time>
      </trkpt>
      <trkpt lat="39.52472707426" lon="2.540536707105">
        <ele>3.2</ele>
        <time>2019-10-27T10:34:35Z</time>
      </trkpt>
      <trkpt lat="39.524730259382" lon="2.540541987702">
        <ele>3.2</ele>
        <time>2019-10-27T10:34:36Z</time>
      </trkpt>
      <trkpt lat="39.524733444504" lon="2.540542239159">
        <ele>3.2</ele>
        <time>2019-10-27T10:34:37Z</time>
      </trkpt>
      <trkpt lat="39.524727158079" lon="2.540429921699">
        <ele>5</ele>
        <time>2019-10-27T10:54:28Z</time>
      </trkpt>
      <trkpt lat="39.52471198684" lon="2.540409637501">
        <ele>5</ele>
        <time>2019-10-27T10:54:29Z</time>
      </trkpt>
      <trkpt lat="39.524694301031" lon="2.54038541381">
        <ele>5</ele>
        <time>2019-10-27T10:54:30Z</time>
      </trkpt>
      <trkpt lat="39.524673513919" lon="2.540360687205">
        <ele>5</ele>
        <time>2019-10-27T10:54:31Z</time>
      </trkpt>
      <trkpt lat="39.524651720979" lon="2.540336379695">
        <ele>5</ele>
        <time>2019-10-27T10:54:32Z</time>
      </trkpt>
      <trkpt lat="39.524629257487" lon="2.540310563443">
        <ele>4.8</ele>
        <time>2019-10-27T10:54:33Z</time>
      </trkpt>
      <trkpt lat="39.52460805128" lon="2.540284076639">
        <ele>5</ele>
        <time>2019-10-27T10:54:34Z</time>
      </trkpt>
      <trkpt lat="39.524585923064" lon="2.540259182396">
        <ele>4.8</ele>
        <time>2019-10-27T10:54:35Z</time>
      </trkpt>
      <trkpt lat="39.524565890323" lon="2.540228839918">
        <ele>4.8</ele>
        <time>2019-10-27T10:54:36Z</time>
      </trkpt>
      <trkpt lat="39.524547953057" lon="2.54019179192">
        <ele>4.6</ele>
        <time>2019-10-27T10:54:37Z</time>
      </trkpt>
      <trkpt lat="39.524530267248" lon="2.540153738094">
        <ele>4.8</ele>
        <time>2019-10-27T10:54:38Z</time>
      </trkpt>
      <trkpt lat="39.524513503448" lon="2.540116019544">
        <ele>4.8</ele>
        <time>2019-10-27T10:54:39Z</time>
      </trkpt>
      <trkpt lat="39.524497661657" lon="2.540077378985">
        <ele>4.8</ele>
        <time>2019-10-27T10:54:40Z</time>
      </trkpt>
      <trkpt lat="39.524479472934" lon="2.54003924134">
        <ele>4.8</ele>
        <time>2019-10-27T10:54:41Z</time>
      </trkpt>
      <trkpt lat="39.52445801527" lon="2.540003450627">
        <ele>4.8</ele>
        <time>2019-10-27T10:54:42Z</time>
      </trkpt>
      <trkpt lat="39.524433204846" lon="2.539969839208">
        <ele>4.4</ele>
        <time>2019-10-27T10:54:43Z</time>
      </trkpt>
      <trkpt lat="39.524407137137" lon="2.539935389599">
        <ele>4.6</ele>
        <time>2019-10-27T10:54:44Z</time>
      </trkpt>
      <trkpt lat="39.524381572342" lon="2.539899179791">
        <ele>4.6</ele>
        <time>2019-10-27T10:54:45Z</time>
      </trkpt>
      <trkpt lat="39.524358019203" lon="2.539863556716">
        <ele>4.6</ele>
        <time>2019-10-27T10:54:46Z</time>
      </trkpt>
      <trkpt lat="39.52433396315" lon="2.539823910329">
        <ele>4.6</ele>
        <time>2019-10-27T10:54:47Z</time>
      </trkpt>
      <trkpt lat="39.524305548509" lon="2.539777223146">
        <ele>4.6</ele>
        <time>2019-10-27T10:54:48Z</time>
      </trkpt>
      <trkpt lat="39.524275122212" lon="2.539730033049">
        <ele>4.2</ele>
        <time>2019-10-27T10:54:49Z</time>
      </trkpt>
      <trkpt lat="39.52424846777" lon="2.539682759133">
        <ele>4.2</ele>
        <time>2019-10-27T10:54:50Z</time>
      </trkpt>
      <trkpt lat="39.524231033418" lon="2.539634060294">
        <ele>4.4</ele>
        <time>2019-10-27T10:54:51Z</time>
      </trkpt>
      <trkpt lat="39.524217287102" lon="2.539586283464">
        <ele>4.2</ele>
        <time>2019-10-27T10:54:52Z</time>
      </trkpt>
      <trkpt lat="39.524199433655" lon="2.539535237693">
        <ele>4.2</ele>
        <time>2019-10-27T10:54:53Z</time>
      </trkpt>
      <trkpt lat="39.524175629059" lon="2.539492154727">
        <ele>4</ele>
        <time>2019-10-27T10:54:54Z</time>
      </trkpt>
      <trkpt lat="39.524143610201" lon="2.539457872756">
        <ele>4</ele>
        <time>2019-10-27T10:54:55Z</time>
      </trkpt>
      <trkpt lat="39.52410932823" lon="2.539426692088">
        <ele>4</ele>
        <time>2019-10-27T10:54:56Z</time>
      </trkpt>
      <trkpt lat="39.524078566657" lon="2.539392242479">
        <ele>3.8</ele>
        <time>2019-10-27T10:54:57Z</time>
      </trkpt>
      <trkpt lat="39.524050487292" lon="2.539352931368">
        <ele>3.8</ele>
        <time>2019-10-27T10:54:58Z</time>
      </trkpt>
      <trkpt lat="39.52402383285" lon="2.539312782067">
        <ele>3.8</ele>
        <time>2019-10-27T10:54:59Z</time>
      </trkpt>
      <trkpt lat="39.523994160924" lon="2.539284283607">
        <ele>3.8</ele>
        <time>2019-10-27T10:55:00Z</time>
      </trkpt>
      <trkpt lat="39.523962812618" lon="2.539264250866">
        <ele>3.8</ele>
        <time>2019-10-27T10:55:01Z</time>
      </trkpt>
      <trkpt lat="39.523931715769" lon="2.539240697727">
        <ele>3.6</ele>
        <time>2019-10-27T10:55:02Z</time>
      </trkpt>
      <trkpt lat="39.523902379119" lon="2.539211696353">
        <ele>3.6</ele>
        <time>2019-10-27T10:55:03Z</time>
      </trkpt>
      <trkpt lat="39.523876814324" lon="2.539180348047">
        <ele>3.6</ele>
        <time>2019-10-27T10:55:04Z</time>
      </trkpt>
      <trkpt lat="39.523851081891" lon="2.539150257026">
        <ele>3.6</ele>
        <time>2019-10-27T10:55:05Z</time>
      </trkpt>
      <trkpt lat="39.52382518182" lon="2.539121255652">
        <ele>3.6</ele>
        <time>2019-10-27T10:55:06Z</time>
      </trkpt>
      <trkpt lat="39.523796096627" lon="2.539093176287">
        <ele>3.6</ele>
        <time>2019-10-27T10:55:07Z</time>
      </trkpt>
      <trkpt lat="39.523765502692" lon="2.539066857121">
        <ele>3.6</ele>
        <time>2019-10-27T10:55:08Z</time>
      </trkpt>
      <trkpt lat="39.523737255689" lon="2.539042465792">
        <ele>3.6</ele>
        <time>2019-10-27T10:55:09Z</time>
      </trkpt>
      <trkpt lat="39.52371118798" lon="2.539017739187">
        <ele>3.6</ele>
        <time>2019-10-27T10:55:10Z</time>
      </trkpt>
      <trkpt lat="39.523687299565" lon="2.538992509668">
        <ele>3.6</ele>
        <time>2019-10-27T10:55:11Z</time>
      </trkpt>
      <trkpt lat="39.523666344815" lon="2.538966106683">
        <ele>3.6</ele>
        <time>2019-10-27T10:55:12Z</time>
      </trkpt>
      <trkpt lat="39.523643210771" lon="2.538944062286">
        <ele>3.6</ele>
        <time>2019-10-27T10:55:13Z</time>
      </trkpt>
      <trkpt lat="39.523619741451" lon="2.53892528683">
        <ele>3.6</ele>
        <time>2019-10-27T10:55:14Z</time>
      </trkpt>
      <trkpt lat="39.523596942683" lon="2.538902404243">
        <ele>3.6</ele>
        <time>2019-10-27T10:55:15Z</time>
      </trkpt>
      <trkpt lat="39.523575652657" lon="2.538870636842">
        <ele>3.6</ele>
        <time>2019-10-27T10:55:16Z</time>
      </trkpt>
      <trkpt lat="39.52355779921" lon="2.538834175577">
        <ele>3.6</ele>
        <time>2019-10-27T10:55:17Z</time>
      </trkpt>
      <trkpt lat="39.523540783953" lon="2.538796792303">
        <ele>3.6</ele>
        <time>2019-10-27T10:55:18Z</time>
      </trkpt>
      <trkpt lat="39.523521505583" lon="2.53876351616">
        <ele>3.4</ele>
        <time>2019-10-27T10:55:19Z</time>
      </trkpt>
      <trkpt lat="39.523497952444" lon="2.538737951365">
        <ele>3.4</ele>
        <time>2019-10-27T10:55:20Z</time>
      </trkpt>
      <trkpt lat="39.523469537803" lon="2.538720014099">
        <ele>3.4</ele>
        <time>2019-10-27T10:55:21Z</time>
      </trkpt>
      <trkpt lat="39.523436596936" lon="2.53870484286">
        <ele>3.4</ele>
        <time>2019-10-27T10:55:22Z</time>
      </trkpt>
      <trkpt lat="39.523403488431" lon="2.538686235042">
        <ele>3.4</ele>
        <time>2019-10-27T10:55:23Z</time>
      </trkpt>
      <trkpt lat="39.523369374098" lon="2.538662849541">
        <ele>3.4</ele>
        <time>2019-10-27T10:55:24Z</time>
      </trkpt>
      <trkpt lat="39.523342132923" lon="2.538635189271">
        <ele>3.4</ele>
        <time>2019-10-27T10:55:25Z</time>
      </trkpt>
      <trkpt lat="39.523317825413" lon="2.538606606992">
        <ele>3.4</ele>
        <time>2019-10-27T10:55:26Z</time>
      </trkpt>
      <trkpt lat="39.523295613378" lon="2.538578779084">
        <ele>3.4</ele>
        <time>2019-10-27T10:55:27Z</time>
      </trkpt>
      <trkpt lat="39.523272898429" lon="2.538554555393">
        <ele>3.4</ele>
        <time>2019-10-27T10:55:28Z</time>
      </trkpt>
      <trkpt lat="39.523251356946" lon="2.538533600643">
        <ele>3.4</ele>
        <time>2019-10-27T10:55:29Z</time>
      </trkpt>
      <trkpt lat="39.523233754956" lon="2.538513148807">
        <ele>3.4</ele>
        <time>2019-10-27T10:55:30Z</time>
      </trkpt>
      <trkpt lat="39.523219002812" lon="2.538494373351">
        <ele>3.4</ele>
        <time>2019-10-27T10:55:31Z</time>
      </trkpt>
      <trkpt lat="39.523205675591" lon="2.538474843524">
        <ele>3.4</ele>
        <time>2019-10-27T10:55:32Z</time>
      </trkpt>
      <trkpt lat="39.523194192388" lon="2.538453972593">
        <ele>3.4</ele>
        <time>2019-10-27T10:55:33Z</time>
      </trkpt>
      <trkpt lat="39.523184134108" lon="2.538432682567">
        <ele>3.4</ele>
        <time>2019-10-27T10:55:34Z</time>
      </trkpt>
      <trkpt lat="39.523166196842" lon="2.538408375057">
        <ele>3.4</ele>
        <time>2019-10-27T10:55:35Z</time>
      </trkpt>
      <trkpt lat="39.523142140789" lon="2.538382726443">
        <ele>3.4</ele>
        <time>2019-10-27T10:55:36Z</time>
      </trkpt>
      <trkpt lat="39.523118503831" lon="2.538355904363">
        <ele>3.4</ele>
        <time>2019-10-27T10:55:37Z</time>
      </trkpt>
      <trkpt lat="39.523096543253" lon="2.538333692328">
        <ele>3.4</ele>
        <time>2019-10-27T10:55:38Z</time>
      </trkpt>
      <trkpt lat="39.523073912123" lon="2.538319359279">
        <ele>3.4</ele>
        <time>2019-10-27T10:55:39Z</time>
      </trkpt>
      <trkpt lat="39.523053627925" lon="2.538307456981">
        <ele>3.4</ele>
        <time>2019-10-27T10:55:40Z</time>
      </trkpt>
      <trkpt lat="39.523032002623" lon="2.538293794484">
        <ele>3.4</ele>
        <time>2019-10-27T10:55:41Z</time>
      </trkpt>
      <trkpt lat="39.523014735909" lon="2.53827317501">
        <ele>3.6</ele>
        <time>2019-10-27T10:55:42Z</time>
      </trkpt>
      <trkpt lat="39.522997133919" lon="2.538252890812">
        <ele>3.6</ele>
        <time>2019-10-27T10:55:43Z</time>
      </trkpt>
      <trkpt lat="39.522977268816" lon="2.538238390125">
        <ele>3.6</ele>
        <time>2019-10-27T10:55:44Z</time>
      </trkpt>
      <trkpt lat="39.522960085921" lon="2.538227745112">
        <ele>3.8</ele>
        <time>2019-10-27T10:55:45Z</time>
      </trkpt>
      <trkpt lat="39.522945333777" lon="2.538219866126">
        <ele>3.8</ele>
        <time>2019-10-27T10:55:46Z</time>
      </trkpt>
      <trkpt lat="39.522927899425" lon="2.538211484226">
        <ele>3.8</ele>
        <time>2019-10-27T10:55:47Z</time>
      </trkpt>
      <trkpt lat="39.522907531408" lon="2.538198324643">
        <ele>3.8</ele>
        <time>2019-10-27T10:55:48Z</time>
      </trkpt>
      <trkpt lat="39.522888336857" lon="2.5381818123">
        <ele>4</ele>
        <time>2019-10-27T10:55:49Z</time>
      </trkpt>
      <trkpt lat="39.522868387935" lon="2.538168065984">
        <ele>4</ele>
        <time>2019-10-27T10:55:50Z</time>
      </trkpt>
      <trkpt lat="39.522852210868" lon="2.538151050727">
        <ele>4</ele>
        <time>2019-10-27T10:55:51Z</time>
      </trkpt>
      <trkpt lat="39.522829747376" lon="2.538136885316">
        <ele>4</ele>
        <time>2019-10-27T10:55:52Z</time>
      </trkpt>
      <trkpt lat="39.522805523685" lon="2.53812649176">
        <ele>4.2</ele>
        <time>2019-10-27T10:55:53Z</time>
      </trkpt>
      <trkpt lat="39.52277660613" lon="2.538121378801">
        <ele>4.2</ele>
        <time>2019-10-27T10:55:54Z</time>
      </trkpt>
      <trkpt lat="39.522750538421" lon="2.538114589462">
        <ele>4.2</ele>
        <time>2019-10-27T10:55:55Z</time>
      </trkpt>
      <trkpt lat="39.522729080757" lon="2.538106291381">
        <ele>4.2</ele>
        <time>2019-10-27T10:55:56Z</time>
      </trkpt>
      <trkpt lat="39.522710556758" lon="2.538092712703">
        <ele>4.4</ele>
        <time>2019-10-27T10:55:57Z</time>
      </trkpt>
      <trkpt lat="39.522691613664" lon="2.53808206769">
        <ele>4.4</ele>
        <time>2019-10-27T10:55:58Z</time>
      </trkpt>
      <trkpt lat="39.522675352778" lon="2.538075194532">
        <ele>4.4</ele>
        <time>2019-10-27T10:55:59Z</time>
      </trkpt>
      <trkpt lat="39.52266009772" lon="2.538071841772">
        <ele>4.4</ele>
        <time>2019-10-27T10:56:00Z</time>
      </trkpt>
      <trkpt lat="39.522645429395" lon="2.538069411021">
        <ele>4.6</ele>
        <time>2019-10-27T10:56:01Z</time>
      </trkpt>
      <trkpt lat="39.522631515441" lon="2.538070416849">
        <ele>4.6</ele>
        <time>2019-10-27T10:56:02Z</time>
      </trkpt>
      <trkpt lat="39.522614081089" lon="2.538070919763">
        <ele>4.8</ele>
        <time>2019-10-27T10:56:03Z</time>
      </trkpt>
      <trkpt lat="39.522601340601" lon="2.538063208415">
        <ele>4.8</ele>
        <time>2019-10-27T10:56:04Z</time>
      </trkpt>
      <trkpt lat="39.52258885157" lon="2.538055832343">
        <ele>5</ele>
        <time>2019-10-27T10:56:05Z</time>
      </trkpt>
      <trkpt lat="39.522575608168" lon="2.53805189285">
        <ele>5.2</ele>
        <time>2019-10-27T10:56:06Z</time>
      </trkpt>
      <trkpt lat="39.522561778033" lon="2.53804434914">
        <ele>5.2</ele>
        <time>2019-10-27T10:56:07Z</time>
      </trkpt>
      <trkpt lat="39.522541829111" lon="2.538039822914">
        <ele>5.2</ele>
        <time>2019-10-27T10:56:08Z</time>
      </trkpt>
      <trkpt lat="39.522524897673" lon="2.53803261448">
        <ele>5.4</ele>
        <time>2019-10-27T10:56:09Z</time>
      </trkpt>
      <trkpt lat="39.522508720606" lon="2.538023813485">
        <ele>5.4</ele>
        <time>2019-10-27T10:56:10Z</time>
      </trkpt>
      <trkpt lat="39.522491872987" lon="2.538021969467">
        <ele>5.4</ele>
        <time>2019-10-27T10:56:11Z</time>
      </trkpt>
      <trkpt lat="39.522473432807" lon="2.538026830969">
        <ele>5.4</ele>
        <time>2019-10-27T10:56:12Z</time>
      </trkpt>
      <trkpt lat="39.522459602672" lon="2.538028507349">
        <ele>5.4</ele>
        <time>2019-10-27T10:56:13Z</time>
      </trkpt>
      <trkpt lat="39.522448370926" lon="2.53803345267">
        <ele>5.6</ele>
        <time>2019-10-27T10:56:14Z</time>
      </trkpt>
      <trkpt lat="39.522421129751" lon="2.538047450443">
        <ele>5.6</ele>
        <time>2019-10-27T10:56:15Z</time>
      </trkpt>
      <trkpt lat="39.522412580213" lon="2.538053150135">
        <ele>5.6</ele>
        <time>2019-10-27T10:56:16Z</time>
      </trkpt>
      <trkpt lat="39.522378633518" lon="2.537986933125">
        <ele>6.2</ele>
        <time>2019-10-27T10:56:29Z</time>
      </trkpt>
      <trkpt lat="39.52237343674" lon="2.537969247316">
        <ele>6.2</ele>
        <time>2019-10-27T10:56:30Z</time>
      </trkpt>
      <trkpt lat="39.522365641573" lon="2.537952734973">
        <ele>6.2</ele>
        <time>2019-10-27T10:56:31Z</time>
      </trkpt>
      <trkpt lat="39.522353403999" lon="2.537937563734">
        <ele>6.2</ele>
        <time>2019-10-27T10:56:32Z</time>
      </trkpt>
      <trkpt lat="39.522340160597" lon="2.537920799934">
        <ele>6.2</ele>
        <time>2019-10-27T10:56:33Z</time>
      </trkpt>
      <trkpt lat="39.522317445648" lon="2.537893139664">
        <ele>6.2</ele>
        <time>2019-10-27T10:56:34Z</time>
      </trkpt>
      <trkpt lat="39.522298167278" lon="2.537870424715">
        <ele>6.2</ele>
        <time>2019-10-27T10:56:35Z</time>
      </trkpt>
      <trkpt lat="39.522276793433" lon="2.537851313983">
        <ele>6.2</ele>
        <time>2019-10-27T10:56:36Z</time>
      </trkpt>
      <trkpt lat="39.522248043516" lon="2.537834717821">
        <ele>6.2</ele>
        <time>2019-10-27T10:56:37Z</time>
      </trkpt>
      <trkpt lat="39.522219461237" lon="2.537819295125">
        <ele>6.2</ele>
        <time>2019-10-27T10:56:38Z</time>
      </trkpt>
      <trkpt lat="39.52219071132" lon="2.537804962076">
        <ele>6.2</ele>
        <time>2019-10-27T10:56:39Z</time>
      </trkpt>
      <trkpt lat="39.52216472743" lon="2.537787779181">
        <ele>6.2</ele>
        <time>2019-10-27T10:56:40Z</time>
      </trkpt>
      <trkpt lat="39.522137402436" lon="2.537768919906">
        <ele>6.2</ele>
        <time>2019-10-27T10:56:41Z</time>
      </trkpt>
      <trkpt lat="39.522111753822" lon="2.537752239925">
        <ele>6.2</ele>
        <time>2019-10-27T10:56:42Z</time>
      </trkpt>
      <trkpt lat="39.522082081896" lon="2.537732207184">
        <ele>6.2</ele>
        <time>2019-10-27T10:56:43Z</time>
      </trkpt>
      <trkpt lat="39.522052326151" lon="2.537711252434">
        <ele>6.2</ele>
        <time>2019-10-27T10:56:44Z</time>
      </trkpt>
      <trkpt lat="39.52202391151" lon="2.53769314753">
        <ele>6</ele>
        <time>2019-10-27T10:56:45Z</time>
      </trkpt>
      <trkpt lat="39.521993569032" lon="2.53767135459">
        <ele>6</ele>
        <time>2019-10-27T10:56:46Z</time>
      </trkpt>
      <trkpt lat="39.521963394192" lon="2.537648136727">
        <ele>6</ele>
        <time>2019-10-27T10:56:47Z</time>
      </trkpt>
      <trkpt lat="39.521935817741" lon="2.537628187805">
        <ele>6</ele>
        <time>2019-10-27T10:56:48Z</time>
      </trkpt>
      <trkpt lat="39.521907235462" lon="2.53760765215">
        <ele>6</ele>
        <time>2019-10-27T10:56:49Z</time>
      </trkpt>
      <trkpt lat="39.521874546052" lon="2.537585523934">
        <ele>6</ele>
        <time>2019-10-27T10:56:50Z</time>
      </trkpt>
      <trkpt lat="39.521841856642" lon="2.537564233908">
        <ele>6</ele>
        <time>2019-10-27T10:56:51Z</time>
      </trkpt>
      <trkpt lat="39.521807909947" lon="2.53754143514">
        <ele>6</ele>
        <time>2019-10-27T10:56:52Z</time>
      </trkpt>
      <trkpt lat="39.5217732927" lon="2.537516037983">
        <ele>6</ele>
        <time>2019-10-27T10:56:53Z</time>
      </trkpt>
      <trkpt lat="39.521737501987" lon="2.537489383541">
        <ele>6</ele>
        <time>2019-10-27T10:56:54Z</time>
      </trkpt>
      <trkpt lat="39.521702214188" lon="2.537472033008">
        <ele>6</ele>
        <time>2019-10-27T10:56:55Z</time>
      </trkpt>
      <trkpt lat="39.521668435131" lon="2.537456861769">
        <ele>6</ele>
        <time>2019-10-27T10:56:56Z</time>
      </trkpt>
      <trkpt lat="39.521636248635" lon="2.537439595055">
        <ele>6</ele>
        <time>2019-10-27T10:56:57Z</time>
      </trkpt>
      <trkpt lat="39.521602804854" lon="2.537423334169">
        <ele>6</ele>
        <time>2019-10-27T10:56:58Z</time>
      </trkpt>
      <trkpt lat="39.52156793615" lon="2.537409587853">
        <ele>6</ele>
        <time>2019-10-27T10:56:59Z</time>
      </trkpt>
      <trkpt lat="39.521533151265" lon="2.53739726646">
        <ele>6</ele>
        <time>2019-10-27T10:57:00Z</time>
      </trkpt>
      <trkpt lat="39.521499707484" lon="2.537390812397">
        <ele>5.8</ele>
        <time>2019-10-27T10:57:01Z</time>
      </trkpt>
      <trkpt lat="39.521466598979" lon="2.537378491004">
        <ele>5.6</ele>
        <time>2019-10-27T10:57:02Z</time>
      </trkpt>
      <trkpt lat="39.521433071379" lon="2.537363990317">
        <ele>5.6</ele>
        <time>2019-10-27T10:57:03Z</time>
      </trkpt>
      <trkpt lat="39.521400884883" lon="2.537350663096">
        <ele>5.6</ele>
        <time>2019-10-27T10:57:04Z</time>
      </trkpt>
      <trkpt lat="39.521368614568" lon="2.537338257884">
        <ele>5.6</ele>
        <time>2019-10-27T10:57:05Z</time>
      </trkpt>
      <trkpt lat="39.521330896018" lon="2.537324260111">
        <ele>5.6</ele>
        <time>2019-10-27T10:57:06Z</time>
      </trkpt>
      <trkpt lat="39.521293680382" lon="2.537309759424">
        <ele>5.6</ele>
        <time>2019-10-27T10:57:07Z</time>
      </trkpt>
      <trkpt lat="39.521256883841" lon="2.537300623153">
        <ele>5.6</ele>
        <time>2019-10-27T10:57:08Z</time>
      </trkpt>
      <trkpt lat="39.521220841671" lon="2.537300790791">
        <ele>5.6</ele>
        <time>2019-10-27T10:57:09Z</time>
      </trkpt>
      <trkpt lat="39.521188655175" lon="2.537308083044">
        <ele>5.6</ele>
        <time>2019-10-27T10:57:10Z</time>
      </trkpt>
      <trkpt lat="39.521159402344" lon="2.537322583731">
        <ele>5.4</ele>
        <time>2019-10-27T10:57:11Z</time>
      </trkpt>
      <trkpt lat="39.521134759558" lon="2.537344041395">
        <ele>5.4</ele>
        <time>2019-10-27T10:57:12Z</time>
      </trkpt>
      <trkpt lat="39.521114642998" lon="2.537368432724">
        <ele>5.4</ele>
        <time>2019-10-27T10:57:13Z</time>
      </trkpt>
      <trkpt lat="39.521101483415" lon="2.537388800741">
        <ele>5.4</ele>
        <time>2019-10-27T10:57:14Z</time>
      </trkpt>
      <trkpt lat="39.521087401823" lon="2.537406318912">
        <ele>5.4</ele>
        <time>2019-10-27T10:57:15Z</time>
      </trkpt>
      <trkpt lat="39.521067452901" lon="2.537417718296">
        <ele>5.4</ele>
        <time>2019-10-27T10:57:16Z</time>
      </trkpt>
      <trkpt lat="39.5210440674" lon="2.537421238694">
        <ele>5.4</ele>
        <time>2019-10-27T10:57:17Z</time>
      </trkpt>
      <trkpt lat="39.521016239492" lon="2.537420819599">
        <ele>5.4</ele>
        <time>2019-10-27T10:57:18Z</time>
      </trkpt>
      <trkpt lat="39.52098874686" lon="2.537411850966">
        <ele>5.2</ele>
        <time>2019-10-27T10:57:19Z</time>
      </trkpt>
      <trkpt lat="39.520960918952" lon="2.53739810465">
        <ele>5.2</ele>
        <time>2019-10-27T10:57:20Z</time>
      </trkpt>
      <trkpt lat="39.520933174863" lon="2.537383939239">
        <ele>5.2</ele>
        <time>2019-10-27T10:57:21Z</time>
      </trkpt>
      <trkpt lat="39.520907945344" lon="2.537370192923">
        <ele>5.2</ele>
        <time>2019-10-27T10:57:22Z</time>
      </trkpt>
      <trkpt lat="39.520880452712" lon="2.537356781883">
        <ele>5.2</ele>
        <time>2019-10-27T10:57:23Z</time>
      </trkpt>
      <trkpt lat="39.52084876913" lon="2.537340185721">
        <ele>5.2</ele>
        <time>2019-10-27T10:57:24Z</time>
      </trkpt>
      <trkpt lat="39.520818259014" lon="2.537317135496">
        <ele>5</ele>
        <time>2019-10-27T10:57:25Z</time>
      </trkpt>
      <trkpt lat="39.52078841945" lon="2.537291738339">
        <ele>5</ele>
        <time>2019-10-27T10:57:26Z</time>
      </trkpt>
      <trkpt lat="39.520759585714" lon="2.537268352838">
        <ele>5</ele>
        <time>2019-10-27T10:57:27Z</time>
      </trkpt>
      <trkpt lat="39.520733518005" lon="2.537248236278">
        <ele>5</ele>
        <time>2019-10-27T10:57:28Z</time>
      </trkpt>
      <trkpt lat="39.520711389789" lon="2.537233232677">
        <ele>5</ele>
        <time>2019-10-27T10:57:29Z</time>
      </trkpt>
      <trkpt lat="39.520690770315" lon="2.537223342035">
        <ele>5</ele>
        <time>2019-10-27T10:57:30Z</time>
      </trkpt>
      <trkpt lat="39.520674509429" lon="2.537214792497">
        <ele>5</ele>
        <time>2019-10-27T10:57:31Z</time>
      </trkpt>
      <trkpt lat="39.5206668819" lon="2.537213451393">
        <ele>5</ele>
        <time>2019-10-27T10:57:32Z</time>
      </trkpt>
      <trkpt lat="39.520663445321" lon="2.537215965963">
        <ele>5</ele>
        <time>2019-10-27T10:57:33Z</time>
      </trkpt>
      <trkpt lat="39.520557749562" lon="2.5371340748">
        <ele>4.8</ele>
        <time>2019-10-27T10:58:02Z</time>
      </trkpt>
      <trkpt lat="39.520543081237" lon="2.537124184158">
        <ele>4.8</ele>
        <time>2019-10-27T10:58:03Z</time>
      </trkpt>
      <trkpt lat="39.520529083464" lon="2.53711228186">
        <ele>4.8</ele>
        <time>2019-10-27T10:58:04Z</time>
      </trkpt>
      <trkpt lat="39.520510727103" lon="2.537096942983">
        <ele>4.8</ele>
        <time>2019-10-27T10:58:05Z</time>
      </trkpt>
      <trkpt lat="39.520492286923" lon="2.537077664613">
        <ele>4.8</ele>
        <time>2019-10-27T10:58:06Z</time>
      </trkpt>
      <trkpt lat="39.520473008553" lon="2.537065678496">
        <ele>4.8</ele>
        <time>2019-10-27T10:58:07Z</time>
      </trkpt>
      <trkpt lat="39.520451802346" lon="2.53705779951">
        <ele>4.8</ele>
        <time>2019-10-27T10:58:08Z</time>
      </trkpt>
      <trkpt lat="39.520428668302" lon="2.537047489773">
        <ele>4.8</ele>
        <time>2019-10-27T10:58:09Z</time>
      </trkpt>
      <trkpt lat="39.520404863706" lon="2.537039610787">
        <ele>4.8</ele>
        <time>2019-10-27T10:58:10Z</time>
      </trkpt>
      <trkpt lat="39.520382400214" lon="2.537028965774">
        <ele>4.8</ele>
        <time>2019-10-27T10:58:11Z</time>
      </trkpt>
      <trkpt lat="39.520359769084" lon="2.537017314933">
        <ele>4.8</ele>
        <time>2019-10-27T10:58:12Z</time>
      </trkpt>
      <trkpt lat="39.52033579685" lon="2.537006083187">
        <ele>4.8</ele>
        <time>2019-10-27T10:58:13Z</time>
      </trkpt>
      <trkpt lat="39.520314590643" lon="2.53699242069">
        <ele>4.8</ele>
        <time>2019-10-27T10:58:14Z</time>
      </trkpt>
      <trkpt lat="39.520294893178" lon="2.536976075985">
        <ele>4.8</ele>
        <time>2019-10-27T10:58:15Z</time>
      </trkpt>
      <trkpt lat="39.52027377079" lon="2.536958473995">
        <ele>4.8</ele>
        <time>2019-10-27T10:58:16Z</time>
      </trkpt>
      <trkpt lat="39.520255414429" lon="2.536933244476">
        <ele>4.8</ele>
        <time>2019-10-27T10:58:17Z</time>
      </trkpt>
      <trkpt lat="39.520234543498" lon="2.536904243102">
        <ele>4.8</ele>
        <time>2019-10-27T10:58:18Z</time>
      </trkpt>
      <trkpt lat="39.520213085834" lon="2.536878678307">
        <ele>4.8</ele>
        <time>2019-10-27T10:58:19Z</time>
      </trkpt>
      <trkpt lat="39.520189616514" lon="2.536855041349">
        <ele>4.8</ele>
        <time>2019-10-27T10:58:20Z</time>
      </trkpt>
      <trkpt lat="39.520160112226" lon="2.536832661676">
        <ele>4.8</ele>
        <time>2019-10-27T10:58:21Z</time>
      </trkpt>
      <trkpt lat="39.520137816372" lon="2.536810952555">
        <ele>4.8</ele>
        <time>2019-10-27T10:58:22Z</time>
      </trkpt>
      <trkpt lat="39.520119040916" lon="2.536789913986">
        <ele>4.8</ele>
        <time>2019-10-27T10:58:23Z</time>
      </trkpt>
      <trkpt lat="39.520095403958" lon="2.536765355019">
        <ele>4.8</ele>
        <time>2019-10-27T10:58:24Z</time>
      </trkpt>
      <trkpt lat="39.520072269914" lon="2.536740209319">
        <ele>4.8</ele>
        <time>2019-10-27T10:58:25Z</time>
      </trkpt>
      <trkpt lat="39.520047543309" lon="2.53671330342">
        <ele>4.8</ele>
        <time>2019-10-27T10:58:26Z</time>
      </trkpt>
      <trkpt lat="39.52002399017" lon="2.536685559331">
        <ele>4.8</ele>
        <time>2019-10-27T10:58:27Z</time>
      </trkpt>
      <trkpt lat="39.519996162262" lon="2.536660078355">
        <ele>4.6</ele>
        <time>2019-10-27T10:58:28Z</time>
      </trkpt>
      <trkpt lat="39.519974117865" lon="2.536635016474">
        <ele>4.6</ele>
        <time>2019-10-27T10:58:29Z</time>
      </trkpt>
      <trkpt lat="39.519955677685" lon="2.536606350376">
        <ele>4.6</ele>
        <time>2019-10-27T10:58:30Z</time>
      </trkpt>
      <trkpt lat="39.519937824238" lon="2.536573074233">
        <ele>4.6</ele>
        <time>2019-10-27T10:58:31Z</time>
      </trkpt>
      <trkpt lat="39.519918797325" lon="2.536538624624">
        <ele>4.6</ele>
        <time>2019-10-27T10:58:32Z</time>
      </trkpt>
      <trkpt lat="39.519897674937" lon="2.536506857223">
        <ele>4.6</ele>
        <time>2019-10-27T10:58:33Z</time>
      </trkpt>
      <trkpt lat="39.519873283608" lon="2.53648112479">
        <ele>4.4</ele>
        <time>2019-10-27T10:58:34Z</time>
      </trkpt>
      <trkpt lat="39.51984797027" lon="2.536456230547">
        <ele>4.4</ele>
        <time>2019-10-27T10:58:35Z</time>
      </trkpt>
      <trkpt lat="39.519818885077" lon="2.536428235001">
        <ele>4.4</ele>
        <time>2019-10-27T10:58:36Z</time>
      </trkpt>
      <trkpt lat="39.519786111848" lon="2.536397808704">
        <ele>4.2</ele>
        <time>2019-10-27T10:58:37Z</time>
      </trkpt>
      <trkpt lat="39.519752248972" lon="2.536369310244">
        <ele>4.2</ele>
        <time>2019-10-27T10:58:38Z</time>
      </trkpt>
      <trkpt lat="39.519721068304" lon="2.536338967766">
        <ele>4</ele>
        <time>2019-10-27T10:58:39Z</time>
      </trkpt>
      <trkpt lat="39.51969039055" lon="2.536308625288">
        <ele>4</ele>
        <time>2019-10-27T10:58:40Z</time>
      </trkpt>
      <trkpt lat="39.519662897918" lon="2.536282389941">
        <ele>4</ele>
        <time>2019-10-27T10:58:41Z</time>
      </trkpt>
      <trkpt lat="39.519633812725" lon="2.536257747155">
        <ele>4</ele>
        <time>2019-10-27T10:58:42Z</time>
      </trkpt>
      <trkpt lat="39.519603554066" lon="2.536234529292">
        <ele>4</ele>
        <time>2019-10-27T10:58:43Z</time>
      </trkpt>
      <trkpt lat="39.519576229072" lon="2.536205192642">
        <ele>4</ele>
        <time>2019-10-27T10:58:44Z</time>
      </trkpt>
      <trkpt lat="39.519548401164" lon="2.536171916499">
        <ele>4</ele>
        <time>2019-10-27T10:58:45Z</time>
      </trkpt>
      <trkpt lat="39.519523506921" lon="2.536154901242">
        <ele>4</ele>
        <time>2019-10-27T10:58:46Z</time>
      </trkpt>
      <trkpt lat="39.519499031773" lon="2.536141574021">
        <ele>4</ele>
        <time>2019-10-27T10:58:47Z</time>
      </trkpt>
      <trkpt lat="39.519478663756" lon="2.536138137442">
        <ele>3.8</ele>
        <time>2019-10-27T10:58:48Z</time>
      </trkpt>
      <trkpt lat="39.519462486689" lon="2.536136461062">
        <ele>3.8</ele>
        <time>2019-10-27T10:58:49Z</time>
      </trkpt>
      <trkpt lat="39.519456703178" lon="2.536132773026">
        <ele>3.8</ele>
        <time>2019-10-27T10:58:50Z</time>
      </trkpt>
      <trkpt lat="39.519440442292" lon="2.536119529624">
        <ele>3.6</ele>
        <time>2019-10-27T10:58:51Z</time>
      </trkpt>
      <trkpt lat="39.519419571361" lon="2.536098742512">
        <ele>3.6</ele>
        <time>2019-10-27T10:58:52Z</time>
      </trkpt>
      <trkpt lat="39.519392581643" lon="2.536070663147">
        <ele>3.6</ele>
        <time>2019-10-27T10:58:53Z</time>
      </trkpt>
      <trkpt lat="39.519366681572" lon="2.536049205483">
        <ele>3.6</ele>
        <time>2019-10-27T10:58:54Z</time>
      </trkpt>
      <trkpt lat="39.519338266931" lon="2.53603185495">
        <ele>3.6</ele>
        <time>2019-10-27T10:58:55Z</time>
      </trkpt>
      <trkpt lat="39.519308846462" lon="2.536019952652">
        <ele>3.6</ele>
        <time>2019-10-27T10:58:56Z</time>
      </trkpt>
      <trkpt lat="39.519276576147" lon="2.53600335649">
        <ele>3.6</ele>
        <time>2019-10-27T10:58:57Z</time>
      </trkpt>
      <trkpt lat="39.519243467642" lon="2.535991957106">
        <ele>3.6</ele>
        <time>2019-10-27T10:58:58Z</time>
      </trkpt>
      <trkpt lat="39.519209856223" lon="2.535988604346">
        <ele>3.6</ele>
        <time>2019-10-27T10:58:59Z</time>
      </trkpt>
      <trkpt lat="39.519180351935" lon="2.535982317921">
        <ele>3.6</ele>
        <time>2019-10-27T10:59:00Z</time>
      </trkpt>
      <trkpt lat="39.519152691665" lon="2.5359773726">
        <ele>3.6</ele>
        <time>2019-10-27T10:59:01Z</time>
      </trkpt>
      <trkpt lat="39.519126121042" lon="2.535973684564">
        <ele>3.6</ele>
        <time>2019-10-27T10:59:02Z</time>
      </trkpt>
      <trkpt lat="39.519098963686" lon="2.535972678736">
        <ele>3.2</ele>
        <time>2019-10-27T10:59:03Z</time>
      </trkpt>
      <trkpt lat="39.519060993679" lon="2.535970247985">
        <ele>3.2</ele>
        <time>2019-10-27T10:59:04Z</time>
      </trkpt>
      <trkpt lat="39.519026376432" lon="2.53597904898">
        <ele>3.2</ele>
        <time>2019-10-27T10:59:05Z</time>
      </trkpt>
      <trkpt lat="39.5189905019" lon="2.535994555495">
        <ele>3.2</ele>
        <time>2019-10-27T10:59:06Z</time>
      </trkpt>
      <trkpt lat="39.518956052291" lon="2.536006457793">
        <ele>3.2</ele>
        <time>2019-10-27T10:59:07Z</time>
      </trkpt>
      <trkpt lat="39.518929649306" lon="2.536030262389">
        <ele>3.2</ele>
        <time>2019-10-27T10:59:08Z</time>
      </trkpt>
      <trkpt lat="39.518898301" lon="2.536053312614">
        <ele>3.2</ele>
        <time>2019-10-27T10:59:09Z</time>
      </trkpt>
      <trkpt lat="39.518870892187" lon="2.536078625952">
        <ele>3.2</ele>
        <time>2019-10-27T10:59:10Z</time>
      </trkpt>
      <trkpt lat="39.518845914125" lon="2.536108297878">
        <ele>3</ele>
        <time>2019-10-27T10:59:11Z</time>
      </trkpt>
      <trkpt lat="39.51882454028" lon="2.5361366287">
        <ele>3</ele>
        <time>2019-10-27T10:59:12Z</time>
      </trkpt>
      <trkpt lat="39.518803250254" lon="2.536161439124">
        <ele>3</ele>
        <time>2019-10-27T10:59:13Z</time>
      </trkpt>
      <trkpt lat="39.518782546961" lon="2.536184824625">
        <ele>3</ele>
        <time>2019-10-27T10:59:14Z</time>
      </trkpt>
      <trkpt lat="39.518757317442" lon="2.536205025004">
        <ele>3</ele>
        <time>2019-10-27T10:59:15Z</time>
      </trkpt>
      <trkpt lat="39.518732423199" lon="2.536232098541">
        <ele>2.8</ele>
        <time>2019-10-27T10:59:16Z</time>
      </trkpt>
      <trkpt lat="39.518708450965" lon="2.536247102142">
        <ele>2.8</ele>
        <time>2019-10-27T10:59:17Z</time>
      </trkpt>
      <trkpt lat="39.518683891998" lon="2.536265290865">
        <ele>2.8</ele>
        <time>2019-10-27T10:59:18Z</time>
      </trkpt>
      <trkpt lat="39.518657405194" lon="2.536284485416">
        <ele>2.6</ele>
        <time>2019-10-27T10:59:19Z</time>
      </trkpt>
      <trkpt lat="39.518631086028" lon="2.536308290012">
        <ele>2.6</ele>
        <time>2019-10-27T10:59:20Z</time>
      </trkpt>
      <trkpt lat="39.518604850681" lon="2.536332932798">
        <ele>2.6</ele>
        <time>2019-10-27T10:59:21Z</time>
      </trkpt>
      <trkpt lat="39.518576603678" lon="2.536355563928">
        <ele>2.6</ele>
        <time>2019-10-27T10:59:22Z</time>
      </trkpt>
      <trkpt lat="39.518544417182" lon="2.536376015764">
        <ele>2.6</ele>
        <time>2019-10-27T10:59:23Z</time>
      </trkpt>
      <trkpt lat="39.518511560134" lon="2.536386996053">
        <ele>2.6</ele>
        <time>2019-10-27T10:59:24Z</time>
      </trkpt>
      <trkpt lat="39.518477445801" lon="2.53638892389">
        <ele>2.6</ele>
        <time>2019-10-27T10:59:25Z</time>
      </trkpt>
      <trkpt lat="39.518443247649" lon="2.536390097356">
        <ele>2.6</ele>
        <time>2019-10-27T10:59:26Z</time>
      </trkpt>
      <trkpt lat="39.518413408085" lon="2.536386325501">
        <ele>2.6</ele>
        <time>2019-10-27T10:59:27Z</time>
      </trkpt>
      <trkpt lat="39.518383903797" lon="2.536389342985">
        <ele>2.6</ele>
        <time>2019-10-27T10:59:28Z</time>
      </trkpt>
      <trkpt lat="39.518353226043" lon="2.53639982036">
        <ele>2.6</ele>
        <time>2019-10-27T10:59:29Z</time>
      </trkpt>
      <trkpt lat="39.518322213013" lon="2.536410130097">
        <ele>2.6</ele>
        <time>2019-10-27T10:59:30Z</time>
      </trkpt>
      <trkpt lat="39.518290194155" lon="2.536422367671">
        <ele>2.6</ele>
        <time>2019-10-27T10:59:31Z</time>
      </trkpt>
      <trkpt lat="39.51825876203" lon="2.536435946349">
        <ele>2.6</ele>
        <time>2019-10-27T10:59:32Z</time>
      </trkpt>
      <trkpt lat="39.51822691081" lon="2.536444160611">
        <ele>2.6</ele>
        <time>2019-10-27T10:59:33Z</time>
      </trkpt>
      <trkpt lat="39.518195478685" lon="2.53645430271">
        <ele>2.8</ele>
        <time>2019-10-27T10:59:34Z</time>
      </trkpt>
      <trkpt lat="39.518162286361" lon="2.536465366818">
        <ele>2.8</ele>
        <time>2019-10-27T10:59:35Z</time>
      </trkpt>
      <trkpt lat="39.518126998562" lon="2.536478191125">
        <ele>2.8</ele>
        <time>2019-10-27T10:59:36Z</time>
      </trkpt>
      <trkpt lat="39.518092968048" lon="2.536490596337">
        <ele>2.8</ele>
        <time>2019-10-27T10:59:37Z</time>
      </trkpt>
      <trkpt lat="39.518059440448" lon="2.536502750092">
        <ele>2.8</ele>
        <time>2019-10-27T10:59:38Z</time>
      </trkpt>
      <trkpt lat="39.518027170133" lon="2.536514065657">
        <ele>2.6</ele>
        <time>2019-10-27T10:59:39Z</time>
      </trkpt>
      <trkpt lat="39.517995821827" lon="2.536524459213">
        <ele>2.6</ele>
        <time>2019-10-27T10:59:40Z</time>
      </trkpt>
      <trkpt lat="39.517965730806" lon="2.536534098398">
        <ele>2.6</ele>
        <time>2019-10-27T10:59:41Z</time>
      </trkpt>
      <trkpt lat="39.517936729432" lon="2.53654231266">
        <ele>2.6</ele>
        <time>2019-10-27T10:59:42Z</time>
      </trkpt>
      <trkpt lat="39.517908566248" lon="2.536549940189">
        <ele>2.6</ele>
        <time>2019-10-27T10:59:43Z</time>
      </trkpt>
      <trkpt lat="39.517880654521" lon="2.536558070632">
        <ele>2.6</ele>
        <time>2019-10-27T10:59:44Z</time>
      </trkpt>
      <trkpt lat="39.517852826613" lon="2.536562848315">
        <ele>2.6</ele>
        <time>2019-10-27T10:59:45Z</time>
      </trkpt>
      <trkpt lat="39.517825250162" lon="2.536565865799">
        <ele>2.6</ele>
        <time>2019-10-27T10:59:46Z</time>
      </trkpt>
      <trkpt lat="39.517796332607" lon="2.536570894939">
        <ele>2.6</ele>
        <time>2019-10-27T10:59:47Z</time>
      </trkpt>
      <trkpt lat="39.517766157767" lon="2.536577265183">
        <ele>2.6</ele>
        <time>2019-10-27T10:59:48Z</time>
      </trkpt>
      <trkpt lat="39.517736066746" lon="2.536584725074">
        <ele>2.6</ele>
        <time>2019-10-27T10:59:49Z</time>
      </trkpt>
      <trkpt lat="39.517707065372" lon="2.53659344225">
        <ele>2.6</ele>
        <time>2019-10-27T10:59:50Z</time>
      </trkpt>
      <trkpt lat="39.517677812541" lon="2.536603835806">
        <ele>2.6</ele>
        <time>2019-10-27T10:59:51Z</time>
      </trkpt>
      <trkpt lat="39.517648475891" lon="2.536613139715">
        <ele>2.6</ele>
        <time>2019-10-27T10:59:52Z</time>
      </trkpt>
      <trkpt lat="39.517618971603" lon="2.536619845235">
        <ele>2.6</ele>
        <time>2019-10-27T10:59:53Z</time>
      </trkpt>
      <trkpt lat="39.517590305505" lon="2.536628059497">
        <ele>2.6</ele>
        <time>2019-10-27T10:59:54Z</time>
      </trkpt>
      <trkpt lat="39.517563231968" lon="2.53663870451">
        <ele>2.6</ele>
        <time>2019-10-27T10:59:55Z</time>
      </trkpt>
      <trkpt lat="39.517536326069" lon="2.536649349523">
        <ele>2.8</ele>
        <time>2019-10-27T10:59:56Z</time>
      </trkpt>
      <trkpt lat="39.517510425998" lon="2.536656222681">
        <ele>2.8</ele>
        <time>2019-10-27T10:59:57Z</time>
      </trkpt>
      <trkpt lat="39.517483352461" lon="2.536657312328">
        <ele>2.8</ele>
        <time>2019-10-27T10:59:58Z</time>
      </trkpt>
      <trkpt lat="39.517454267268" lon="2.536655133034">
        <ele>2.8</ele>
        <time>2019-10-27T10:59:59Z</time>
      </trkpt>
      <trkpt lat="39.517424595342" lon="2.536650774446">
        <ele>2.8</ele>
        <time>2019-10-27T11:00:00Z</time>
      </trkpt>
      <trkpt lat="39.517395342511" lon="2.536648930428">
        <ele>2.8</ele>
        <time>2019-10-27T11:00:01Z</time>
      </trkpt>
      <trkpt lat="39.517367095508" lon="2.536650606808">
        <ele>2.8</ele>
        <time>2019-10-27T11:00:02Z</time>
      </trkpt>
      <trkpt lat="39.5173392676" lon="2.536656138862">
        <ele>2.8</ele>
        <time>2019-10-27T11:00:03Z</time>
      </trkpt>
      <trkpt lat="39.517310266226" lon="2.53666385021">
        <ele>2.8</ele>
        <time>2019-10-27T11:00:04Z</time>
      </trkpt>
      <trkpt lat="39.517279420834" lon="2.536672986481">
        <ele>2.8</ele>
        <time>2019-10-27T11:00:05Z</time>
      </trkpt>
      <trkpt lat="39.517249748908" lon="2.53668061401">
        <ele>2.8</ele>
        <time>2019-10-27T11:00:06Z</time>
      </trkpt>
      <trkpt lat="39.517223178285" lon="2.536689582643">
        <ele>2.8</ele>
        <time>2019-10-27T11:00:07Z</time>
      </trkpt>
      <trkpt lat="39.517198535499" lon="2.536700814389">
        <ele>2.8</ele>
        <time>2019-10-27T11:00:08Z</time>
      </trkpt>
      <trkpt lat="39.517174647084" lon="2.536719673664">
        <ele>2.8</ele>
        <time>2019-10-27T11:00:09Z</time>
      </trkpt>
      <trkpt lat="39.517150088117" lon="2.536739622586">
        <ele>2.8</ele>
        <time>2019-10-27T11:00:10Z</time>
      </trkpt>
      <trkpt lat="39.517125445331" lon="2.536754207092">
        <ele>3</ele>
        <time>2019-10-27T11:00:11Z</time>
      </trkpt>
      <trkpt lat="39.517101305459" lon="2.536767199037">
        <ele>3</ele>
        <time>2019-10-27T11:00:12Z</time>
      </trkpt>
      <trkpt lat="39.517078171415" lon="2.536777341136">
        <ele>3</ele>
        <time>2019-10-27T11:00:13Z</time>
      </trkpt>
      <trkpt lat="39.517055372647" lon="2.536792260918">
        <ele>3</ele>
        <time>2019-10-27T11:00:14Z</time>
      </trkpt>
      <trkpt lat="39.517033663526" lon="2.5368071807">
        <ele>3</ele>
        <time>2019-10-27T11:00:15Z</time>
      </trkpt>
      <trkpt lat="39.517015390984" lon="2.536821178473">
        <ele>3</ele>
        <time>2019-10-27T11:00:16Z</time>
      </trkpt>
      <trkpt lat="39.51699393332" lon="2.536836265893">
        <ele>3</ele>
        <time>2019-10-27T11:00:17Z</time>
      </trkpt>
      <trkpt lat="39.516972559475" lon="2.536851018037">
        <ele>3</ele>
        <time>2019-10-27T11:00:18Z</time>
      </trkpt>
      <trkpt lat="39.516950515078" lon="2.536864261439">
        <ele>3</ele>
        <time>2019-10-27T11:00:19Z</time>
      </trkpt>
      <trkpt lat="39.516931823441" lon="2.536876834289">
        <ele>3</ele>
        <time>2019-10-27T11:00:20Z</time>
      </trkpt>
      <trkpt lat="39.516912880347" lon="2.536885048551">
        <ele>3</ele>
        <time>2019-10-27T11:00:21Z</time>
      </trkpt>
      <trkpt lat="39.516894104891" lon="2.536899716876">
        <ele>3</ele>
        <time>2019-10-27T11:00:22Z</time>
      </trkpt>
      <trkpt lat="39.516874994159" lon="2.536923270015">
        <ele>3</ele>
        <time>2019-10-27T11:00:23Z</time>
      </trkpt>
      <trkpt lat="39.516856805436" lon="2.536959898918">
        <ele>3</ele>
        <time>2019-10-27T11:00:24Z</time>
      </trkpt>
      <trkpt lat="39.516840963645" lon="2.537008849214">
        <ele>3</ele>
        <time>2019-10-27T11:00:25Z</time>
      </trkpt>
      <trkpt lat="39.516829061347" lon="2.537050423438">
        <ele>3</ele>
        <time>2019-10-27T11:00:26Z</time>
      </trkpt>
      <trkpt lat="39.516824786578" lon="2.537091159472">
        <ele>3</ele>
        <time>2019-10-27T11:00:27Z</time>
      </trkpt>
      <trkpt lat="39.516826211501" lon="2.537130638221">
        <ele>3</ele>
        <time>2019-10-27T11:00:28Z</time>
      </trkpt>
      <trkpt lat="39.51682713351" lon="2.537172463902">
        <ele>3</ele>
        <time>2019-10-27T11:00:29Z</time>
      </trkpt>
      <trkpt lat="39.516827301148" lon="2.537212110289">
        <ele>3</ele>
        <time>2019-10-27T11:00:30Z</time>
      </trkpt>
      <trkpt lat="39.516826630596" lon="2.537251672857">
        <ele>3</ele>
        <time>2019-10-27T11:00:31Z</time>
      </trkpt>
      <trkpt lat="39.516825373311" lon="2.537292408891">
        <ele>3</ele>
        <time>2019-10-27T11:00:32Z</time>
      </trkpt>
      <trkpt lat="39.516826965872" lon="2.53732853488">
        <ele>3</ele>
        <time>2019-10-27T11:00:33Z</time>
      </trkpt>
      <trkpt lat="39.516829312804" lon="2.537366504887">
        <ele>3</ele>
        <time>2019-10-27T11:00:34Z</time>
      </trkpt>
      <trkpt lat="39.516830653908" lon="2.537402127962">
        <ele>3</ele>
        <time>2019-10-27T11:00:35Z</time>
      </trkpt>
      <trkpt lat="39.516829312804" lon="2.537435236467">
        <ele>3</ele>
        <time>2019-10-27T11:00:36Z</time>
      </trkpt>
      <trkpt lat="39.516824702759" lon="2.537466417135">
        <ele>3.2</ele>
        <time>2019-10-27T11:00:37Z</time>
      </trkpt>
      <trkpt lat="39.516817410506" lon="2.537496927251">
        <ele>3.2</ele>
        <time>2019-10-27T11:00:38Z</time>
      </trkpt>
      <trkpt lat="39.516807603683" lon="2.537529951937">
        <ele>3.2</ele>
        <time>2019-10-27T11:00:39Z</time>
      </trkpt>
      <trkpt lat="39.51679779686" lon="2.537560210596">
        <ele>3.4</ele>
        <time>2019-10-27T11:00:40Z</time>
      </trkpt>
      <trkpt lat="39.516789666417" lon="2.537592648549">
        <ele>3.4</ele>
        <time>2019-10-27T11:00:41Z</time>
      </trkpt>
      <trkpt lat="39.516786565114" lon="2.537628439262">
        <ele>3.6</ele>
        <time>2019-10-27T11:00:42Z</time>
      </trkpt>
      <trkpt lat="39.516788157675" lon="2.537664565251">
        <ele>3.6</ele>
        <time>2019-10-27T11:00:43Z</time>
      </trkpt>
      <trkpt lat="39.516793773548" lon="2.537698679584">
        <ele>3.8</ele>
        <time>2019-10-27T11:00:44Z</time>
      </trkpt>
      <trkpt lat="39.516801484896" lon="2.537733464469">
        <ele>3.8</ele>
        <time>2019-10-27T11:00:45Z</time>
      </trkpt>
      <trkpt lat="39.516808274235" lon="2.537769758096">
        <ele>4</ele>
        <time>2019-10-27T11:00:46Z</time>
      </trkpt>
      <trkpt lat="39.516813973927" lon="2.537802363687">
        <ele>4.2</ele>
        <time>2019-10-27T11:00:47Z</time>
      </trkpt>
      <trkpt lat="39.516814812117" lon="2.537832119432">
        <ele>4.4</ele>
        <time>2019-10-27T11:00:48Z</time>
      </trkpt>
      <trkpt lat="39.516806765493" lon="2.537854582924">
        <ele>4.6</ele>
        <time>2019-10-27T11:00:49Z</time>
      </trkpt>
      <trkpt lat="39.516790923702" lon="2.537867826326">
        <ele>4.6</ele>
        <time>2019-10-27T11:00:50Z</time>
      </trkpt>
      <trkpt lat="39.516771477694" lon="2.537872017276">
        <ele>4.6</ele>
        <time>2019-10-27T11:00:51Z</time>
      </trkpt>
      <trkpt lat="39.516756390274" lon="2.537877968425">
        <ele>4.8</ele>
        <time>2019-10-27T11:00:52Z</time>
      </trkpt>
      <trkpt lat="39.51674834365" lon="2.537893642578">
        <ele>4.8</ele>
        <time>2019-10-27T11:00:53Z</time>
      </trkpt>
      <trkpt lat="39.516746164356" lon="2.53791610607">
        <ele>4.8</ele>
        <time>2019-10-27T11:00:54Z</time>
      </trkpt>
      <trkpt lat="39.516745074709" lon="2.537947789652">
        <ele>4.8</ele>
        <time>2019-10-27T11:00:55Z</time>
      </trkpt>
      <trkpt lat="39.516752366962" lon="2.53799154317">
        <ele>4.8</ele>
        <time>2019-10-27T11:00:56Z</time>
      </trkpt>
      <trkpt lat="39.516753708066" lon="2.538034123222">
        <ele>4.8</ele>
        <time>2019-10-27T11:00:57Z</time>
      </trkpt>
      <trkpt lat="39.516757479921" lon="2.538077290007">
        <ele>4.8</ele>
        <time>2019-10-27T11:00:58Z</time>
      </trkpt>
      <trkpt lat="39.51676007831" lon="2.538118612774">
        <ele>4.8</ele>
        <time>2019-10-27T11:00:59Z</time>
      </trkpt>
      <trkpt lat="39.516759743034" lon="2.538154654944">
        <ele>4.8</ele>
        <time>2019-10-27T11:01:00Z</time>
      </trkpt>
      <trkpt lat="39.516752786057" lon="2.538182901947">
        <ele>4.8</ele>
        <time>2019-10-27T11:01:01Z</time>
      </trkpt>
      <trkpt lat="39.516740213207" lon="2.538207377095">
        <ele>4.8</ele>
        <time>2019-10-27T11:01:02Z</time>
      </trkpt>
      <trkpt lat="39.516727724176" lon="2.538231516967">
        <ele>4.6</ele>
        <time>2019-10-27T11:01:03Z</time>
      </trkpt>
      <trkpt lat="39.516717162982" lon="2.538259512513">
        <ele>4.6</ele>
        <time>2019-10-27T11:01:04Z</time>
      </trkpt>
      <trkpt lat="39.516706685607" lon="2.538288597706">
        <ele>4.4</ele>
        <time>2019-10-27T11:01:05Z</time>
      </trkpt>
      <trkpt lat="39.516695286223" lon="2.538314833053">
        <ele>4.6</ele>
        <time>2019-10-27T11:01:06Z</time>
      </trkpt>
      <trkpt lat="39.516680869355" lon="2.538334614337">
        <ele>4.6</ele>
        <time>2019-10-27T11:01:07Z</time>
      </trkpt>
      <trkpt lat="39.516666452487" lon="2.538346684273">
        <ele>4.4</ele>
        <time>2019-10-27T11:01:08Z</time>
      </trkpt>
      <trkpt lat="39.516650526877" lon="2.538350456128">
        <ele>4.4</ele>
        <time>2019-10-27T11:01:09Z</time>
      </trkpt>
      <trkpt lat="39.516634265991" lon="2.538350120852">
        <ele>4.4</ele>
        <time>2019-10-27T11:01:10Z</time>
      </trkpt>
      <trkpt lat="39.516617334553" lon="2.538346684273">
        <ele>4.4</ele>
        <time>2019-10-27T11:01:11Z</time>
      </trkpt>
      <trkpt lat="39.516600151658" lon="2.53834358297">
        <ele>4.4</ele>
        <time>2019-10-27T11:01:12Z</time>
      </trkpt>
      <trkpt lat="39.516581879116" lon="2.538340397848">
        <ele>4.4</ele>
        <time>2019-10-27T11:01:13Z</time>
      </trkpt>
      <trkpt lat="39.516561343461" lon="2.538337296545">
        <ele>4.2</ele>
        <time>2019-10-27T11:01:14Z</time>
      </trkpt>
      <trkpt lat="39.51654047253" lon="2.538334530518">
        <ele>4.2</ele>
        <time>2019-10-27T11:01:15Z</time>
      </trkpt>
      <trkpt lat="39.516517925219" lon="2.538331932129">
        <ele>4.2</ele>
        <time>2019-10-27T11:01:16Z</time>
      </trkpt>
      <trkpt lat="39.516495126451" lon="2.538329836654">
        <ele>4.2</ele>
        <time>2019-10-27T11:01:17Z</time>
      </trkpt>
      <trkpt lat="39.516472998235" lon="2.538322125306">
        <ele>4.2</ele>
        <time>2019-10-27T11:01:18Z</time>
      </trkpt>
      <trkpt lat="39.516453216951" lon="2.538310223008">
        <ele>4.2</ele>
        <time>2019-10-27T11:01:19Z</time>
      </trkpt>
      <trkpt lat="39.516434525314" lon="2.538294381217">
        <ele>4.2</ele>
        <time>2019-10-27T11:01:20Z</time>
      </trkpt>
      <trkpt lat="39.516417761514" lon="2.538276443951">
        <ele>4</ele>
        <time>2019-10-27T11:01:21Z</time>
      </trkpt>
      <trkpt lat="39.516400075705" lon="2.538260266884">
        <ele>4</ele>
        <time>2019-10-27T11:01:22Z</time>
      </trkpt>
      <trkpt lat="39.516379875326" lon="2.538244257455">
        <ele>3.8</ele>
        <time>2019-10-27T11:01:23Z</time>
      </trkpt>
      <trkpt lat="39.516357998567" lon="2.538226487827">
        <ele>3.6</ele>
        <time>2019-10-27T11:01:24Z</time>
      </trkpt>
      <trkpt lat="39.516335786532" lon="2.538207377095">
        <ele>3.6</ele>
        <time>2019-10-27T11:01:25Z</time>
      </trkpt>
      <trkpt lat="39.516313909773" lon="2.538184410689">
        <ele>3.6</ele>
        <time>2019-10-27T11:01:26Z</time>
      </trkpt>
      <trkpt lat="39.51629069191" lon="2.538160689912">
        <ele>3.4</ele>
        <time>2019-10-27T11:01:27Z</time>
      </trkpt>
      <trkpt lat="39.516267306409" lon="2.538136382402">
        <ele>3.4</ele>
        <time>2019-10-27T11:01:28Z</time>
      </trkpt>
      <trkpt lat="39.516243837089" lon="2.538110482331">
        <ele>3.4</ele>
        <time>2019-10-27T11:01:29Z</time>
      </trkpt>
      <trkpt lat="39.516222379425" lon="2.538082738242">
        <ele>3.4</ele>
        <time>2019-10-27T11:01:30Z</time>
      </trkpt>
      <trkpt lat="39.516203101055" lon="2.538056502895">
        <ele>3.2</ele>
        <time>2019-10-27T11:01:31Z</time>
      </trkpt>
      <trkpt lat="39.51618340359" lon="2.538031524833">
        <ele>3.2</ele>
        <time>2019-10-27T11:01:32Z</time>
      </trkpt>
      <trkpt lat="39.516164041401" lon="2.538006462952">
        <ele>3.2</ele>
        <time>2019-10-27T11:01:33Z</time>
      </trkpt>
      <trkpt lat="39.516145768859" lon="2.537981652528">
        <ele>3</ele>
        <time>2019-10-27T11:01:34Z</time>
      </trkpt>
      <trkpt lat="39.516129843249" lon="2.537956087733">
        <ele>3</ele>
        <time>2019-10-27T11:01:35Z</time>
      </trkpt>
      <trkpt lat="39.516118276227" lon="2.537927673092">
        <ele>3</ele>
        <time>2019-10-27T11:01:36Z</time>
      </trkpt>
      <trkpt lat="39.516108301766" lon="2.537899006994">
        <ele>3</ele>
        <time>2019-10-27T11:01:37Z</time>
      </trkpt>
      <trkpt lat="39.516097321477" lon="2.537872855466">
        <ele>3</ele>
        <time>2019-10-27T11:01:38Z</time>
      </trkpt>
      <trkpt lat="39.516085419179" lon="2.537847123033">
        <ele>3</ele>
        <time>2019-10-27T11:01:39Z</time>
      </trkpt>
      <trkpt lat="39.51607443889" lon="2.537821642057">
        <ele>3</ele>
        <time>2019-10-27T11:01:40Z</time>
      </trkpt>
      <trkpt lat="39.51606438061" lon="2.537793981787">
        <ele>3</ele>
        <time>2019-10-27T11:01:41Z</time>
      </trkpt>
      <trkpt lat="39.516055579615" lon="2.537765064232">
        <ele>3</ele>
        <time>2019-10-27T11:01:42Z</time>
      </trkpt>
      <trkpt lat="39.516042252394" lon="2.537738325971">
        <ele>2.8</ele>
        <time>2019-10-27T11:01:43Z</time>
      </trkpt>
      <trkpt lat="39.516023979852" lon="2.537713431728">
        <ele>2.8</ele>
        <time>2019-10-27T11:01:44Z</time>
      </trkpt>
      <trkpt lat="39.516002019274" lon="2.537693063711">
        <ele>3</ele>
        <time>2019-10-27T11:01:45Z</time>
      </trkpt>
      <trkpt lat="39.515976538298" lon="2.537681161413">
        <ele>3</ele>
        <time>2019-10-27T11:01:46Z</time>
      </trkpt>
      <trkpt lat="39.515949632399" lon="2.537671606047">
        <ele>3</ele>
        <time>2019-10-27T11:01:47Z</time>
      </trkpt>
      <trkpt lat="39.515922894138" lon="2.537664062337">
        <ele>3</ele>
        <time>2019-10-27T11:01:48Z</time>
      </trkpt>
      <trkpt lat="39.515895569144" lon="2.537659117016">
        <ele>3</ele>
        <time>2019-10-27T11:01:49Z</time>
      </trkpt>
      <trkpt lat="39.515868914702" lon="2.537654506971">
        <ele>3</ele>
        <time>2019-10-27T11:01:50Z</time>
      </trkpt>
      <trkpt lat="39.515843349907" lon="2.537653920238">
        <ele>3</ele>
        <time>2019-10-27T11:01:51Z</time>
      </trkpt>
      <trkpt lat="39.515816611646" lon="2.537655596618">
        <ele>3</ele>
        <time>2019-10-27T11:01:52Z</time>
      </trkpt>
      <trkpt lat="39.5157886161" lon="2.537657775912">
        <ele>3</ele>
        <time>2019-10-27T11:01:53Z</time>
      </trkpt>
      <trkpt lat="39.515759363269" lon="2.537655931894">
        <ele>3</ele>
        <time>2019-10-27T11:01:54Z</time>
      </trkpt>
      <trkpt lat="39.515728601696" lon="2.537651321849">
        <ele>3</ele>
        <time>2019-10-27T11:01:55Z</time>
      </trkpt>
      <trkpt lat="39.515695074096" lon="2.537641095931">
        <ele>3</ele>
        <time>2019-10-27T11:01:56Z</time>
      </trkpt>
      <trkpt lat="39.515659953935" lon="2.53762609233">
        <ele>3</ele>
        <time>2019-10-27T11:01:57Z</time>
      </trkpt>
      <trkpt lat="39.515622989756" lon="2.537612262195">
        <ele>3</ele>
        <time>2019-10-27T11:01:58Z</time>
      </trkpt>
      <trkpt lat="39.51558409774" lon="2.537604802304">
        <ele>3</ele>
        <time>2019-10-27T11:01:59Z</time>
      </trkpt>
      <trkpt lat="39.515545708638" lon="2.537608071245">
        <ele>3</ele>
        <time>2019-10-27T11:02:00Z</time>
      </trkpt>
      <trkpt lat="39.51550866064" lon="2.537619470629">
        <ele>3</ele>
        <time>2019-10-27T11:02:01Z</time>
      </trkpt>
      <trkpt lat="39.515469181891" lon="2.53763615061">
        <ele>3</ele>
        <time>2019-10-27T11:02:02Z</time>
      </trkpt>
      <trkpt lat="39.51543070897" lon="2.537645119243">
        <ele>3</ele>
        <time>2019-10-27T11:02:03Z</time>
      </trkpt>
      <trkpt lat="39.515393158058" lon="2.537642939949">
        <ele>3</ele>
        <time>2019-10-27T11:02:04Z</time>
      </trkpt>
      <trkpt lat="39.515356864431" lon="2.537636737343">
        <ele>2.8</ele>
        <time>2019-10-27T11:02:05Z</time>
      </trkpt>
      <trkpt lat="39.51532174427" lon="2.537631372927">
        <ele>2.8</ele>
        <time>2019-10-27T11:02:06Z</time>
      </trkpt>
      <trkpt lat="39.515288551946" lon="2.537621482285">
        <ele>2.8</ele>
        <time>2019-10-27T11:02:07Z</time>
      </trkpt>
      <trkpt lat="39.515254521432" lon="2.53761016672">
        <ele>2.8</ele>
        <time>2019-10-27T11:02:08Z</time>
      </trkpt>
      <trkpt lat="39.515221664384" lon="2.537600527535">
        <ele>2.8</ele>
        <time>2019-10-27T11:02:09Z</time>
      </trkpt>
      <trkpt lat="39.515189394069" lon="2.537598264422">
        <ele>2.8</ele>
        <time>2019-10-27T11:02:10Z</time>
      </trkpt>
      <trkpt lat="39.515159470686" lon="2.537601952458">
        <ele>2.8</ele>
        <time>2019-10-27T11:02:11Z</time>
      </trkpt>
      <trkpt lat="39.515134157348" lon="2.537608071245">
        <ele>2.8</ele>
        <time>2019-10-27T11:02:12Z</time>
      </trkpt>
      <trkpt lat="39.515109766019" lon="2.537618045706">
        <ele>2.8</ele>
        <time>2019-10-27T11:02:13Z</time>
      </trkpt>
      <trkpt lat="39.51508788926" lon="2.537628103986">
        <ele>2.8</ele>
        <time>2019-10-27T11:02:14Z</time>
      </trkpt>
      <trkpt lat="39.515066850691" lon="2.537634725687">
        <ele>2.8</ele>
        <time>2019-10-27T11:02:15Z</time>
      </trkpt>
      <trkpt lat="39.515047739959" lon="2.537640760655">
        <ele>2.8</ele>
        <time>2019-10-27T11:02:16Z</time>
      </trkpt>
      <trkpt lat="39.515031814349" lon="2.537649142555">
        <ele>2.8</ele>
        <time>2019-10-27T11:02:17Z</time>
      </trkpt>
      <trkpt lat="39.515017146024" lon="2.537653668781">
        <ele>2.8</ele>
        <time>2019-10-27T11:02:18Z</time>
      </trkpt>
      <trkpt lat="39.515005327545" lon="2.537653501143">
        <ele>2.8</ele>
        <time>2019-10-27T11:02:19Z</time>
      </trkpt>
      <trkpt lat="39.514991665048" lon="2.537654087876">
        <ele>2.8</ele>
        <time>2019-10-27T11:02:20Z</time>
      </trkpt>
      <trkpt lat="39.514974649791" lon="2.537653920238">
        <ele>2.8</ele>
        <time>2019-10-27T11:02:21Z</time>
      </trkpt>
      <trkpt lat="39.514957299258" lon="2.537651657125">
        <ele>2.8</ele>
        <time>2019-10-27T11:02:22Z</time>
      </trkpt>
      <trkpt lat="39.514937517974" lon="2.537654087876">
        <ele>2.8</ele>
        <time>2019-10-27T11:02:23Z</time>
      </trkpt>
      <trkpt lat="39.514913713378" lon="2.537661380129">
        <ele>2.8</ele>
        <time>2019-10-27T11:02:24Z</time>
      </trkpt>
      <trkpt lat="39.514888902954" lon="2.537665990174">
        <ele>2.8</ele>
        <time>2019-10-27T11:02:25Z</time>
      </trkpt>
      <trkpt lat="39.514861913236" lon="2.537668169468">
        <ele>2.8</ele>
        <time>2019-10-27T11:02:26Z</time>
      </trkpt>
      <trkpt lat="39.514835677889" lon="2.537669091477">
        <ele>2.8</ele>
        <time>2019-10-27T11:02:27Z</time>
      </trkpt>
      <trkpt lat="39.51481044837" lon="2.537672108961">
        <ele>2.8</ele>
        <time>2019-10-27T11:02:28Z</time>
      </trkpt>
      <trkpt lat="39.514784548299" lon="2.537675294083">
        <ele>2.8</ele>
        <time>2019-10-27T11:02:29Z</time>
      </trkpt>
      <trkpt lat="39.514758648228" lon="2.537680490861">
        <ele>2.8</ele>
        <time>2019-10-27T11:02:30Z</time>
      </trkpt>
      <trkpt lat="39.514734508356" lon="2.537685687639">
        <ele>2.8</ele>
        <time>2019-10-27T11:02:31Z</time>
      </trkpt>
      <trkpt lat="39.514708859742" lon="2.537691554969">
        <ele>2.8</ele>
        <time>2019-10-27T11:02:32Z</time>
      </trkpt>
      <trkpt lat="39.514678768721" lon="2.537700523602">
        <ele>2.8</ele>
        <time>2019-10-27T11:02:33Z</time>
      </trkpt>
      <trkpt lat="39.514649096795" lon="2.537705217466">
        <ele>2.8</ele>
        <time>2019-10-27T11:02:34Z</time>
      </trkpt>
      <trkpt lat="39.514620346878" lon="2.537713347909">
        <ele>2.8</ele>
        <time>2019-10-27T11:02:35Z</time>
      </trkpt>
      <trkpt lat="39.514594027712" lon="2.537719550515">
        <ele>2.6</ele>
        <time>2019-10-27T11:02:36Z</time>
      </trkpt>
      <trkpt lat="39.514567876184" lon="2.537728519148">
        <ele>2.6</ele>
        <time>2019-10-27T11:02:37Z</time>
      </trkpt>
      <trkpt lat="39.514541557018" lon="2.537739499437">
        <ele>2.6</ele>
        <time>2019-10-27T11:02:38Z</time>
      </trkpt>
      <trkpt lat="39.514515573128" lon="2.537750815002">
        <ele>2.6</ele>
        <time>2019-10-27T11:02:39Z</time>
      </trkpt>
      <trkpt lat="39.514491265618" lon="2.537762382024">
        <ele>2.6</ele>
        <time>2019-10-27T11:02:40Z</time>
      </trkpt>
      <trkpt lat="39.514468383031" lon="2.537782247127">
        <ele>2.6</ele>
        <time>2019-10-27T11:02:41Z</time>
      </trkpt>
      <trkpt lat="39.51444667391" lon="2.537801860773">
        <ele>2.6</ele>
        <time>2019-10-27T11:02:42Z</time>
      </trkpt>
      <trkpt lat="39.514422282581" lon="2.537819630401">
        <ele>2.8</ele>
        <time>2019-10-27T11:02:43Z</time>
      </trkpt>
      <trkpt lat="39.514396466329" lon="2.537835472192">
        <ele>2.8</ele>
        <time>2019-10-27T11:02:44Z</time>
      </trkpt>
      <trkpt lat="39.514370147163" lon="2.537853660915">
        <ele>3</ele>
        <time>2019-10-27T11:02:45Z</time>
      </trkpt>
      <trkpt lat="39.514343660359" lon="2.537869670344">
        <ele>2.8</ele>
        <time>2019-10-27T11:02:46Z</time>
      </trkpt>
      <trkpt lat="39.514318682297" lon="2.537884003393">
        <ele>2.8</ele>
        <time>2019-10-27T11:02:47Z</time>
      </trkpt>
      <trkpt lat="39.514293033683" lon="2.537896995338">
        <ele>2.8</ele>
        <time>2019-10-27T11:02:48Z</time>
      </trkpt>
      <trkpt lat="39.514266546879" lon="2.537909484369">
        <ele>2.8</ele>
        <time>2019-10-27T11:02:49Z</time>
      </trkpt>
      <trkpt lat="39.514240982084" lon="2.537922643952">
        <ele>2.8</ele>
        <time>2019-10-27T11:02:50Z</time>
      </trkpt>
      <trkpt lat="39.514214914375" lon="2.537937228458">
        <ele>2.8</ele>
        <time>2019-10-27T11:02:51Z</time>
      </trkpt>
      <trkpt lat="39.514185913001" lon="2.537953656982">
        <ele>2.6</ele>
        <time>2019-10-27T11:02:52Z</time>
      </trkpt>
      <trkpt lat="39.514154564695" lon="2.537969834049">
        <ele>2.6</ele>
        <time>2019-10-27T11:02:53Z</time>
      </trkpt>
      <trkpt lat="39.514122713475" lon="2.537984167098">
        <ele>2.6</ele>
        <time>2019-10-27T11:02:54Z</time>
      </trkpt>
      <trkpt lat="39.514091868083" lon="2.53799657231">
        <ele>2.6</ele>
        <time>2019-10-27T11:02:55Z</time>
      </trkpt>
      <trkpt lat="39.514061525605" lon="2.538010905359">
        <ele>2.6</ele>
        <time>2019-10-27T11:02:56Z</time>
      </trkpt>
      <trkpt lat="39.514033027145" lon="2.538023310571">
        <ele>2.6</ele>
        <time>2019-10-27T11:02:57Z</time>
      </trkpt>
      <trkpt lat="39.514005953608" lon="2.538032698299">
        <ele>2.6</ele>
        <time>2019-10-27T11:02:58Z</time>
      </trkpt>
      <trkpt lat="39.513979215347" lon="2.538041499294">
        <ele>2.6</ele>
        <time>2019-10-27T11:02:59Z</time>
      </trkpt>
      <trkpt lat="39.513951555077" lon="2.538051222298">
        <ele>2.6</ele>
        <time>2019-10-27T11:03:00Z</time>
      </trkpt>
      <trkpt lat="39.513923140436" lon="2.538063711329">
        <ele>2.6</ele>
        <time>2019-10-27T11:03:01Z</time>
      </trkpt>
      <trkpt lat="39.513891205397" lon="2.538075697446">
        <ele>2.6</ele>
        <time>2019-10-27T11:03:02Z</time>
      </trkpt>
      <trkpt lat="39.51385910272" lon="2.538084917536">
        <ele>2.6</ele>
        <time>2019-10-27T11:03:03Z</time>
      </trkpt>
      <trkpt lat="39.513828173509" lon="2.538092796522">
        <ele>2.6</ele>
        <time>2019-10-27T11:03:04Z</time>
      </trkpt>
      <trkpt lat="39.513798585402" lon="2.538102938621">
        <ele>2.6</ele>
        <time>2019-10-27T11:03:05Z</time>
      </trkpt>
      <trkpt lat="39.513769667847" lon="2.538112661625">
        <ele>2.6</ele>
        <time>2019-10-27T11:03:06Z</time>
      </trkpt>
      <trkpt lat="39.513741504663" lon="2.538124480104">
        <ele>2.6</ele>
        <time>2019-10-27T11:03:07Z</time>
      </trkpt>
      <trkpt lat="39.513713844393" lon="2.538135208936">
        <ele>2.6</ele>
        <time>2019-10-27T11:03:08Z</time>
      </trkpt>
      <trkpt lat="39.513686687037" lon="2.538148536157">
        <ele>2.6</ele>
        <time>2019-10-27T11:03:09Z</time>
      </trkpt>
      <trkpt lat="39.5136596135" lon="2.538161863378">
        <ele>2.8</ele>
        <time>2019-10-27T11:03:10Z</time>
      </trkpt>
      <trkpt lat="39.513631534135" lon="2.538175190599">
        <ele>2.8</ele>
        <time>2019-10-27T11:03:11Z</time>
      </trkpt>
      <trkpt lat="39.513601526933" lon="2.538188936915">
        <ele>2.8</ele>
        <time>2019-10-27T11:03:12Z</time>
      </trkpt>
      <trkpt lat="39.513570681541" lon="2.538204024335">
        <ele>2.8</ele>
        <time>2019-10-27T11:03:13Z</time>
      </trkpt>
      <trkpt lat="39.513542434538" lon="2.538213831158">
        <ele>2.8</ele>
        <time>2019-10-27T11:03:14Z</time>
      </trkpt>
      <trkpt lat="39.513513097888" lon="2.538225062904">
        <ele>2.8</ele>
        <time>2019-10-27T11:03:15Z</time>
      </trkpt>
      <trkpt lat="39.513483425962" lon="2.538236210831">
        <ele>2.8</ele>
        <time>2019-10-27T11:03:16Z</time>
      </trkpt>
      <trkpt lat="39.513455849511" lon="2.538245933835">
        <ele>2.8</ele>
        <time>2019-10-27T11:03:17Z</time>
      </trkpt>
      <trkpt lat="39.513429697983" lon="2.538256243572">
        <ele>2.8</ele>
        <time>2019-10-27T11:03:18Z</time>
      </trkpt>
      <trkpt lat="39.513403211179" lon="2.538264876929">
        <ele>2.8</ele>
        <time>2019-10-27T11:03:19Z</time>
      </trkpt>
      <trkpt lat="39.513376472918" lon="2.53827233682">
        <ele>2.8</ele>
        <time>2019-10-27T11:03:20Z</time>
      </trkpt>
      <trkpt lat="39.513351327218" lon="2.538284155299">
        <ele>2.8</ele>
        <time>2019-10-27T11:03:21Z</time>
      </trkpt>
      <trkpt lat="39.513328025536" lon="2.538296141416">
        <ele>2.8</ele>
        <time>2019-10-27T11:03:22Z</time>
      </trkpt>
      <trkpt lat="39.513302796017" lon="2.538310809741">
        <ele>2.8</ele>
        <time>2019-10-27T11:03:23Z</time>
      </trkpt>
      <trkpt lat="39.51327656067" lon="2.538325310428">
        <ele>2.8</ele>
        <time>2019-10-27T11:03:24Z</time>
      </trkpt>
      <trkpt lat="39.513249403314" lon="2.538339643477">
        <ele>2.8</ele>
        <time>2019-10-27T11:03:25Z</time>
      </trkpt>
      <trkpt lat="39.513221743044" lon="2.538353305974">
        <ele>2.8</ele>
        <time>2019-10-27T11:03:26Z</time>
      </trkpt>
      <trkpt lat="39.513194082774" lon="2.538365711186">
        <ele>2.8</ele>
        <time>2019-10-27T11:03:27Z</time>
      </trkpt>
      <trkpt lat="39.513166673961" lon="2.538379876597">
        <ele>2.8</ele>
        <time>2019-10-27T11:03:28Z</time>
      </trkpt>
      <trkpt lat="39.513140941528" lon="2.538391611257">
        <ele>2.8</ele>
        <time>2019-10-27T11:03:29Z</time>
      </trkpt>
      <trkpt lat="39.513114287086" lon="2.538407704505">
        <ele>2.8</ele>
        <time>2019-10-27T11:03:30Z</time>
      </trkpt>
      <trkpt lat="39.513085704807" lon="2.538424133029">
        <ele>2.8</ele>
        <time>2019-10-27T11:03:31Z</time>
      </trkpt>
      <trkpt lat="39.513062067849" lon="2.538440980648">
        <ele>2.8</ele>
        <time>2019-10-27T11:03:32Z</time>
      </trkpt>
      <trkpt lat="39.513041699832" lon="2.538461097208">
        <ele>2.8</ele>
        <time>2019-10-27T11:03:33Z</time>
      </trkpt>
      <trkpt lat="39.51302175091" lon="2.53848523708">
        <ele>2.8</ele>
        <time>2019-10-27T11:03:34Z</time>
      </trkpt>
      <trkpt lat="39.513004065101" lon="2.53850451545">
        <ele>2.8</ele>
        <time>2019-10-27T11:03:35Z</time>
      </trkpt>
      <trkpt lat="39.512986211654" lon="2.538524296734">
        <ele>2.8</ele>
        <time>2019-10-27T11:03:36Z</time>
      </trkpt>
      <trkpt lat="39.51296894494" lon="2.538545167665">
        <ele>2.8</ele>
        <time>2019-10-27T11:03:37Z</time>
      </trkpt>
      <trkpt lat="39.512951929683" lon="2.538564194578">
        <ele>2.8</ele>
        <time>2019-10-27T11:03:38Z</time>
      </trkpt>
      <trkpt lat="39.512933238046" lon="2.538580371645">
        <ele>2.8</ele>
        <time>2019-10-27T11:03:39Z</time>
      </trkpt>
      <trkpt lat="39.512912115658" lon="2.538606523173">
        <ele>2.8</ele>
        <time>2019-10-27T11:03:40Z</time>
      </trkpt>
      <trkpt lat="39.512888394881" lon="2.538635859823">
        <ele>2.8</ele>
        <time>2019-10-27T11:03:41Z</time>
      </trkpt>
      <trkpt lat="39.512866518122" lon="2.538661508437">
        <ele>2.8</ele>
        <time>2019-10-27T11:03:42Z</time>
      </trkpt>
      <trkpt lat="39.512846233924" lon="2.538685648309">
        <ele>2.8</ele>
        <time>2019-10-27T11:03:43Z</time>
      </trkpt>
      <trkpt lat="39.512825362993" lon="2.538707692706">
        <ele>2.8</ele>
        <time>2019-10-27T11:03:44Z</time>
      </trkpt>
      <trkpt lat="39.512803234777" lon="2.538736945537">
        <ele>2.8</ele>
        <time>2019-10-27T11:03:45Z</time>
      </trkpt>
      <trkpt lat="39.512777250887" lon="2.538764689626">
        <ele>2.8</ele>
        <time>2019-10-27T11:03:46Z</time>
      </trkpt>
      <trkpt lat="39.51274682459" lon="2.538794780647">
        <ele>2.8</ele>
        <time>2019-10-27T11:03:47Z</time>
      </trkpt>
      <trkpt lat="39.512715308646" lon="2.538830990455">
        <ele>2.8</ele>
        <time>2019-10-27T11:03:48Z</time>
      </trkpt>
      <trkpt lat="39.51268647491" lon="2.538869631014">
        <ele>2.8</ele>
        <time>2019-10-27T11:03:49Z</time>
      </trkpt>
      <trkpt lat="39.512659904287" lon="2.538912797799">
        <ele>2.8</ele>
        <time>2019-10-27T11:03:50Z</time>
      </trkpt>
      <trkpt lat="39.512634842406" lon="2.538951186901">
        <ele>2.8</ele>
        <time>2019-10-27T11:03:51Z</time>
      </trkpt>
      <trkpt lat="39.512608942335" lon="2.538990498012">
        <ele>2.8</ele>
        <time>2019-10-27T11:03:52Z</time>
      </trkpt>
      <trkpt lat="39.512584299549" lon="2.539027210734">
        <ele>2.8</ele>
        <time>2019-10-27T11:03:53Z</time>
      </trkpt>
      <trkpt lat="39.5125615846" lon="2.539063001447">
        <ele>2.8</ele>
        <time>2019-10-27T11:03:54Z</time>
      </trkpt>
      <trkpt lat="39.512542976782" lon="2.539096948142">
        <ele>2.8</ele>
        <time>2019-10-27T11:03:55Z</time>
      </trkpt>
      <trkpt lat="39.512525877706" lon="2.539131900665">
        <ele>2.8</ele>
        <time>2019-10-27T11:03:56Z</time>
      </trkpt>
      <trkpt lat="39.512508694811" lon="2.539164757713">
        <ele>2.8</ele>
        <time>2019-10-27T11:03:57Z</time>
      </trkpt>
      <trkpt lat="39.512490506088" lon="2.539194178182">
        <ele>2.8</ele>
        <time>2019-10-27T11:03:58Z</time>
      </trkpt>
      <trkpt lat="39.512473658469" lon="2.539223095737">
        <ele>2.8</ele>
        <time>2019-10-27T11:03:59Z</time>
      </trkpt>
      <trkpt lat="39.51245764904" lon="2.539251091283">
        <ele>2.8</ele>
        <time>2019-10-27T11:04:00Z</time>
      </trkpt>
      <trkpt lat="39.512442645439" lon="2.539280176476">
        <ele>2.8</ele>
        <time>2019-10-27T11:04:01Z</time>
      </trkpt>
      <trkpt lat="39.512427641838" lon="2.539310686592">
        <ele>2.8</ele>
        <time>2019-10-27T11:04:02Z</time>
      </trkpt>
      <trkpt lat="39.512412638237" lon="2.539340274699">
        <ele>2.8</ele>
        <time>2019-10-27T11:04:03Z</time>
      </trkpt>
      <trkpt lat="39.51239813755" lon="2.539370114263">
        <ele>3</ele>
        <time>2019-10-27T11:04:04Z</time>
      </trkpt>
      <trkpt lat="39.512382547216" lon="2.539397858352">
        <ele>3</ele>
        <time>2019-10-27T11:04:05Z</time>
      </trkpt>
      <trkpt lat="39.512370980194" lon="2.539423339328">
        <ele>3</ele>
        <time>2019-10-27T11:04:06Z</time>
      </trkpt>
      <trkpt lat="39.512360921914" lon="2.539445886639">
        <ele>3</ele>
        <time>2019-10-27T11:04:07Z</time>
      </trkpt>
      <trkpt lat="39.512349354892" lon="2.539468266312">
        <ele>3</ele>
        <time>2019-10-27T11:04:08Z</time>
      </trkpt>
      <trkpt lat="39.512337368775" lon="2.539493831107">
        <ele>3.2</ele>
        <time>2019-10-27T11:04:09Z</time>
      </trkpt>
      <trkpt lat="39.512326975219" lon="2.539526185241">
        <ele>3.2</ele>
        <time>2019-10-27T11:04:10Z</time>
      </trkpt>
      <trkpt lat="39.512315072921" lon="2.539556695357">
        <ele>3.2</ele>
        <time>2019-10-27T11:04:11Z</time>
      </trkpt>
      <trkpt lat="39.51230426027" lon="2.539595671192">
        <ele>3.2</ele>
        <time>2019-10-27T11:04:12Z</time>
      </trkpt>
      <trkpt lat="39.51229168742" lon="2.539631378086">
        <ele>3.2</ele>
        <time>2019-10-27T11:04:13Z</time>
      </trkpt>
      <trkpt lat="39.512278527837" lon="2.53966457041">
        <ele>3.2</ele>
        <time>2019-10-27T11:04:14Z</time>
      </trkpt>
      <trkpt lat="39.51226654172" lon="2.539697092182">
        <ele>3.2</ele>
        <time>2019-10-27T11:04:15Z</time>
      </trkpt>
      <trkpt lat="39.512258076001" lon="2.539728440488">
        <ele>3.2</ele>
        <time>2019-10-27T11:04:16Z</time>
      </trkpt>
      <trkpt lat="39.51225313068" lon="2.539754927292">
        <ele>3.2</ele>
        <time>2019-10-27T11:04:17Z</time>
      </trkpt>
      <trkpt lat="39.512247682445" lon="2.539778648069">
        <ele>3.2</ele>
        <time>2019-10-27T11:04:18Z</time>
      </trkpt>
      <trkpt lat="39.512240893106" lon="2.53980622452">
        <ele>3.2</ele>
        <time>2019-10-27T11:04:19Z</time>
      </trkpt>
      <trkpt lat="39.512234355224" lon="2.539834471523">
        <ele>3.4</ele>
        <time>2019-10-27T11:04:20Z</time>
      </trkpt>
      <trkpt lat="39.512231253921" lon="2.539867580028">
        <ele>3.4</ele>
        <time>2019-10-27T11:04:21Z</time>
      </trkpt>
      <trkpt lat="39.512224296944" lon="2.539899850343">
        <ele>3.6</ele>
        <time>2019-10-27T11:04:22Z</time>
      </trkpt>
      <trkpt lat="39.512212227008" lon="2.539926001871">
        <ele>3.8</ele>
        <time>2019-10-27T11:04:23Z</time>
      </trkpt>
      <trkpt lat="39.512198061597" lon="2.539946369888">
        <ele>4</ele>
        <time>2019-10-27T11:04:24Z</time>
      </trkpt>
      <trkpt lat="39.512190350249" lon="2.539969420113">
        <ele>4.2</ele>
        <time>2019-10-27T11:04:25Z</time>
      </trkpt>
      <trkpt lat="39.512179705236" lon="2.539989033759">
        <ele>4.4</ele>
        <time>2019-10-27T11:04:26Z</time>
      </trkpt>
      <trkpt lat="39.512166880929" lon="2.540006049016">
        <ele>4.6</ele>
        <time>2019-10-27T11:04:27Z</time>
      </trkpt>
      <trkpt lat="39.51215590064" lon="2.540009401776">
        <ele>4.6</ele>
        <time>2019-10-27T11:04:28Z</time>
      </trkpt>
      <trkpt lat="39.512138885383" lon="2.540002863894">
        <ele>4.8</ele>
        <time>2019-10-27T11:04:29Z</time>
      </trkpt>
      <trkpt lat="39.512120109927" lon="2.539993308528">
        <ele>4.8</ele>
        <time>2019-10-27T11:04:30Z</time>
      </trkpt>
      <trkpt lat="39.512102424118" lon="2.539983417886">
        <ele>5</ele>
        <time>2019-10-27T11:04:31Z</time>
      </trkpt>
      <trkpt lat="39.512085241223" lon="2.539974281615">
        <ele>5.2</ele>
        <time>2019-10-27T11:04:32Z</time>
      </trkpt>
      <trkpt lat="39.512069986165" lon="2.539984256076">
        <ele>5.4</ele>
        <time>2019-10-27T11:04:33Z</time>
      </trkpt>
      <trkpt lat="39.512049953424" lon="2.539979897488">
        <ele>5.6</ele>
        <time>2019-10-27T11:04:34Z</time>
      </trkpt>
      <trkpt lat="39.512032183796" lon="2.539977299099">
        <ele>5.6</ele>
        <time>2019-10-27T11:04:35Z</time>
      </trkpt>
      <trkpt lat="39.51201089377" lon="2.539970761217">
        <ele>5.8</ele>
        <time>2019-10-27T11:04:36Z</time>
      </trkpt>
      <trkpt lat="39.511984490785" lon="2.539960786756">
        <ele>6</ele>
        <time>2019-10-27T11:04:37Z</time>
      </trkpt>
      <trkpt lat="39.5119580878" lon="2.539950477019">
        <ele>6</ele>
        <time>2019-10-27T11:04:38Z</time>
      </trkpt>
      <trkpt lat="39.511931600996" lon="2.539937736531">
        <ele>6.2</ele>
        <time>2019-10-27T11:04:39Z</time>
      </trkpt>
      <trkpt lat="39.51190109088" lon="2.539911752641">
        <ele>6</ele>
        <time>2019-10-27T11:04:40Z</time>
      </trkpt>
      <trkpt lat="39.51187762156" lon="2.539899012153">
        <ele>6.2</ele>
        <time>2019-10-27T11:04:41Z</time>
      </trkpt>
      <trkpt lat="39.511854655154" lon="2.539886606941">
        <ele>6.4</ele>
        <time>2019-10-27T11:04:42Z</time>
      </trkpt>
      <trkpt lat="39.511833616585" lon="2.539875459014">
        <ele>6.4</ele>
        <time>2019-10-27T11:04:43Z</time>
      </trkpt>
      <trkpt lat="39.511810147265" lon="2.539868921132">
        <ele>6.4</ele>
        <time>2019-10-27T11:04:44Z</time>
      </trkpt>
      <trkpt lat="39.511789779248" lon="2.539859617223">
        <ele>6.8</ele>
        <time>2019-10-27T11:04:45Z</time>
      </trkpt>
      <trkpt lat="39.511770919973" lon="2.53984897221">
        <ele>6.8</ele>
        <time>2019-10-27T11:04:46Z</time>
      </trkpt>
      <trkpt lat="39.511750887232" lon="2.539838411016">
        <ele>7.2</ele>
        <time>2019-10-27T11:04:47Z</time>
      </trkpt>
      <trkpt lat="39.51173010012" lon="2.539830029116">
        <ele>7.4</ele>
        <time>2019-10-27T11:04:48Z</time>
      </trkpt>
      <trkpt lat="39.511709815922" lon="2.539819803198">
        <ele>7.4</ele>
        <time>2019-10-27T11:04:49Z</time>
      </trkpt>
      <trkpt lat="39.511689783181" lon="2.5398079009">
        <ele>7.6</ele>
        <time>2019-10-27T11:04:50Z</time>
      </trkpt>
      <trkpt lat="39.51166723587" lon="2.539797255887">
        <ele>7.6</ele>
        <time>2019-10-27T11:04:51Z</time>
      </trkpt>
      <trkpt lat="39.511645694387" lon="2.539792310566">
        <ele>7.8</ele>
        <time>2019-10-27T11:04:52Z</time>
      </trkpt>
      <trkpt lat="39.511624655818" lon="2.53978526977">
        <ele>7.8</ele>
        <time>2019-10-27T11:04:53Z</time>
      </trkpt>
      <trkpt lat="39.511604036344" lon="2.539774708576">
        <ele>8</ele>
        <time>2019-10-27T11:04:54Z</time>
      </trkpt>
      <trkpt lat="39.511585344707" lon="2.539760375527">
        <ele>8.2</ele>
        <time>2019-10-27T11:04:55Z</time>
      </trkpt>
      <trkpt lat="39.511567658898" lon="2.539748976143">
        <ele>8.2</ele>
        <time>2019-10-27T11:04:56Z</time>
      </trkpt>
      <trkpt lat="39.511550056908" lon="2.539738414949">
        <ele>8.4</ele>
        <time>2019-10-27T11:04:57Z</time>
      </trkpt>
      <trkpt lat="39.511532371099" lon="2.539725925918">
        <ele>8.4</ele>
        <time>2019-10-27T11:04:58Z</time>
      </trkpt>
      <trkpt lat="39.511513930919" lon="2.539716873466">
        <ele>8.6</ele>
        <time>2019-10-27T11:04:59Z</time>
      </trkpt>
      <trkpt lat="39.511498592042" lon="2.539712011964">
        <ele>8.8</ele>
        <time>2019-10-27T11:05:00Z</time>
      </trkpt>
      <trkpt lat="39.511481576785" lon="2.539709078299">
        <ele>8.8</ele>
        <time>2019-10-27T11:05:01Z</time>
      </trkpt>
      <trkpt lat="39.511462466053" lon="2.539698014191">
        <ele>9</ele>
        <time>2019-10-27T11:05:02Z</time>
      </trkpt>
      <trkpt lat="39.51144427733" lon="2.539686614807">
        <ele>9</ele>
        <time>2019-10-27T11:05:03Z</time>
      </trkpt>
      <trkpt lat="39.511428770815" lon="2.539672868491">
        <ele>9.4</ele>
        <time>2019-10-27T11:05:04Z</time>
      </trkpt>
      <trkpt lat="39.511412929024" lon="2.53966624679">
        <ele>9.4</ele>
        <time>2019-10-27T11:05:05Z</time>
      </trkpt>
      <trkpt lat="39.511391555179" lon="2.539658200166">
        <ele>9.4</ele>
        <time>2019-10-27T11:05:06Z</time>
      </trkpt>
      <trkpt lat="39.511368924049" lon="2.539648393343">
        <ele>9.4</ele>
        <time>2019-10-27T11:05:07Z</time>
      </trkpt>
      <trkpt lat="39.511343862168" lon="2.539641268728">
        <ele>9.6</ele>
        <time>2019-10-27T11:05:08Z</time>
      </trkpt>
      <trkpt lat="39.511319973753" lon="2.539635820493">
        <ele>9.6</ele>
        <time>2019-10-27T11:05:09Z</time>
      </trkpt>
      <trkpt lat="39.511293822225" lon="2.539630288439">
        <ele>9.6</ele>
        <time>2019-10-27T11:05:10Z</time>
      </trkpt>
      <trkpt lat="39.511269682353" lon="2.539623918195">
        <ele>9.6</ele>
        <time>2019-10-27T11:05:11Z</time>
      </trkpt>
      <trkpt lat="39.511245458662" lon="2.539621487444">
        <ele>9.8</ele>
        <time>2019-10-27T11:05:12Z</time>
      </trkpt>
      <trkpt lat="39.511219223315" lon="2.539622996186">
        <ele>9.8</ele>
        <time>2019-10-27T11:05:13Z</time>
      </trkpt>
      <trkpt lat="39.511193323244" lon="2.539627522412">
        <ele>9.8</ele>
        <time>2019-10-27T11:05:14Z</time>
      </trkpt>
      <trkpt lat="39.511167423173" lon="2.539629198792">
        <ele>10</ele>
        <time>2019-10-27T11:05:15Z</time>
      </trkpt>
      <trkpt lat="39.511140098179" lon="2.53963020462">
        <ele>10.2</ele>
        <time>2019-10-27T11:05:16Z</time>
      </trkpt>
      <trkpt lat="39.511116461221" lon="2.539630456077">
        <ele>10.2</ele>
        <time>2019-10-27T11:05:17Z</time>
      </trkpt>
      <trkpt lat="39.511094165367" lon="2.539630288439">
        <ele>10.2</ele>
        <time>2019-10-27T11:05:18Z</time>
      </trkpt>
      <trkpt lat="39.511068600572" lon="2.539634227932">
        <ele>10.4</ele>
        <time>2019-10-27T11:05:19Z</time>
      </trkpt>
      <trkpt lat="39.511043706329" lon="2.539636491045">
        <ele>10.6</ele>
        <time>2019-10-27T11:05:20Z</time>
      </trkpt>
      <trkpt lat="39.511020488466" lon="2.539638167425">
        <ele>10.6</ele>
        <time>2019-10-27T11:05:21Z</time>
      </trkpt>
      <trkpt lat="39.510999449897" lon="2.53963691014">
        <ele>10.6</ele>
        <time>2019-10-27T11:05:22Z</time>
      </trkpt>
      <trkpt lat="39.510978830423" lon="2.539636323407">
        <ele>10.8</ele>
        <time>2019-10-27T11:05:23Z</time>
      </trkpt>
      <trkpt lat="39.510958210949" lon="2.539641771642">
        <ele>10.8</ele>
        <time>2019-10-27T11:05:24Z</time>
      </trkpt>
      <trkpt lat="39.510934238715" lon="2.539650991732">
        <ele>11</ele>
        <time>2019-10-27T11:05:25Z</time>
      </trkpt>
      <trkpt lat="39.510909847386" lon="2.539658451623">
        <ele>11</ele>
        <time>2019-10-27T11:05:26Z</time>
      </trkpt>
      <trkpt lat="39.510887132437" lon="2.539665576238">
        <ele>11.2</ele>
        <time>2019-10-27T11:05:27Z</time>
      </trkpt>
      <trkpt lat="39.510864752764" lon="2.539669934826">
        <ele>11.4</ele>
        <time>2019-10-27T11:05:28Z</time>
      </trkpt>
      <trkpt lat="39.510843043643" lon="2.539684854608">
        <ele>11.4</ele>
        <time>2019-10-27T11:05:29Z</time>
      </trkpt>
      <trkpt lat="39.51082234035" lon="2.539695834897">
        <ele>11.6</ele>
        <time>2019-10-27T11:05:30Z</time>
      </trkpt>
      <trkpt lat="39.510802056152" lon="2.539701534589">
        <ele>11.6</ele>
        <time>2019-10-27T11:05:31Z</time>
      </trkpt>
      <trkpt lat="39.510783113058" lon="2.53971486181">
        <ele>11.8</ele>
        <time>2019-10-27T11:05:32Z</time>
      </trkpt>
      <trkpt lat="39.510762912679" lon="2.539728859583">
        <ele>11.8</ele>
        <time>2019-10-27T11:05:33Z</time>
      </trkpt>
      <trkpt lat="39.510742879938" lon="2.539744114641">
        <ele>12</ele>
        <time>2019-10-27T11:05:34Z</time>
      </trkpt>
      <trkpt lat="39.510723098654" lon="2.539759202061">
        <ele>12</ele>
        <time>2019-10-27T11:05:35Z</time>
      </trkpt>
      <trkpt lat="39.510704239379" lon="2.539773786567">
        <ele>12.2</ele>
        <time>2019-10-27T11:05:36Z</time>
      </trkpt>
      <trkpt lat="39.510686218294" lon="2.539788119616">
        <ele>12.2</ele>
        <time>2019-10-27T11:05:37Z</time>
      </trkpt>
      <trkpt lat="39.510668197209" lon="2.539801782113">
        <ele>12.4</ele>
        <time>2019-10-27T11:05:38Z</time>
      </trkpt>
      <trkpt lat="39.510651098133" lon="2.539817456266">
        <ele>12.4</ele>
        <time>2019-10-27T11:05:39Z</time>
      </trkpt>
      <trkpt lat="39.51063626217" lon="2.539835980265">
        <ele>12.6</ele>
        <time>2019-10-27T11:05:40Z</time>
      </trkpt>
      <trkpt lat="39.510620168922" lon="2.539852576427">
        <ele>12.6</ele>
        <time>2019-10-27T11:05:41Z</time>
      </trkpt>
      <trkpt lat="39.510602650751" lon="2.539866490381">
        <ele>12.8</ele>
        <time>2019-10-27T11:05:42Z</time>
      </trkpt>
      <trkpt lat="39.510587144236" lon="2.539879817602">
        <ele>13</ele>
        <time>2019-10-27T11:05:43Z</time>
      </trkpt>
      <trkpt lat="39.510569626065" lon="2.539895156479">
        <ele>13.2</ele>
        <time>2019-10-27T11:05:44Z</time>
      </trkpt>
      <trkpt lat="39.510550347695" lon="2.539912255555">
        <ele>13.2</ele>
        <time>2019-10-27T11:05:45Z</time>
      </trkpt>
      <trkpt lat="39.510530482592" lon="2.53993195302">
        <ele>13.4</ele>
        <time>2019-10-27T11:05:46Z</time>
      </trkpt>
      <trkpt lat="39.510488405454" lon="2.539960786756">
        <ele>14</ele>
        <time>2019-10-27T11:05:48Z</time>
      </trkpt>
      <trkpt lat="39.510471222559" lon="2.53996799519">
        <ele>14.2</ele>
        <time>2019-10-27T11:05:49Z</time>
      </trkpt>
      <trkpt lat="39.510459320261" lon="2.539972940511">
        <ele>14.4</ele>
        <time>2019-10-27T11:05:50Z</time>
      </trkpt>
      <trkpt lat="39.510451776551" lon="2.53997637709">
        <ele>14.4</ele>
        <time>2019-10-27T11:05:51Z</time>
      </trkpt>
      <trkpt lat="39.510447920877" lon="2.539980735678">
        <ele>14.6</ele>
        <time>2019-10-27T11:05:52Z</time>
      </trkpt>
      <trkpt lat="39.510553784274" lon="2.539870346055">
        <ele>15.2</ele>
        <time>2019-10-27T11:06:28Z</time>
      </trkpt>
      <trkpt lat="39.510568033504" lon="2.539859952499">
        <ele>15.2</ele>
        <time>2019-10-27T11:06:29Z</time>
      </trkpt>
      <trkpt lat="39.510582282734" lon="2.539851067685">
        <ele>15.2</ele>
        <time>2019-10-27T11:06:30Z</time>
      </trkpt>
      <trkpt lat="39.510594939403" lon="2.53983975212">
        <ele>15</ele>
        <time>2019-10-27T11:06:31Z</time>
      </trkpt>
      <trkpt lat="39.510611787022" lon="2.539824580881">
        <ele>15</ele>
        <time>2019-10-27T11:06:32Z</time>
      </trkpt>
      <trkpt lat="39.510624108415" lon="2.539807984719">
        <ele>14.8</ele>
        <time>2019-10-27T11:06:33Z</time>
      </trkpt>
      <trkpt lat="39.510631484487" lon="2.539792729661">
        <ele>14.8</ele>
        <time>2019-10-27T11:06:34Z</time>
      </trkpt>
      <trkpt lat="39.51063626217" lon="2.539783509571">
        <ele>14.6</ele>
        <time>2019-10-27T11:06:35Z</time>
      </trkpt>
      <trkpt lat="39.510641207491" lon="2.539773116015">
        <ele>14.4</ele>
        <time>2019-10-27T11:06:36Z</time>
      </trkpt>
      <trkpt lat="39.510645230803" lon="2.53975844769">
        <ele>14.4</ele>
        <time>2019-10-27T11:06:37Z</time>
      </trkpt>
      <trkpt lat="39.510644895527" lon="2.539737995854">
        <ele>14.2</ele>
        <time>2019-10-27T11:06:38Z</time>
      </trkpt>
      <trkpt lat="39.510644727889" lon="2.539717041104">
        <ele>14</ele>
        <time>2019-10-27T11:06:39Z</time>
      </trkpt>
      <trkpt lat="39.510643386785" lon="2.53970480353">
        <ele>13.8</ele>
        <time>2019-10-27T11:06:40Z</time>
      </trkpt>
      <trkpt lat="39.510642045681" lon="2.539699187657">
        <ele>13.6</ele>
        <time>2019-10-27T11:06:41Z</time>
      </trkpt>
      <trkpt lat="39.510640872215" lon="2.539693152689">
        <ele>13.6</ele>
        <time>2019-10-27T11:06:42Z</time>
      </trkpt>
      <trkpt lat="39.510607847529" lon="2.539639676167">
        <ele>13.2</ele>
        <time>2019-10-27T11:06:47Z</time>
      </trkpt>
      <trkpt lat="39.510597537792" lon="2.539612015897">
        <ele>13</ele>
        <time>2019-10-27T11:06:48Z</time>
      </trkpt>
      <trkpt lat="39.510588988254" lon="2.539590306776">
        <ele>13</ele>
        <time>2019-10-27T11:06:49Z</time>
      </trkpt>
      <trkpt lat="39.510581947458" lon="2.53957069313">
        <ele>13</ele>
        <time>2019-10-27T11:06:50Z</time>
      </trkpt>
      <trkpt lat="39.510571889178" lon="2.539541775575">
        <ele>13</ele>
        <time>2019-10-27T11:06:51Z</time>
      </trkpt>
      <trkpt lat="39.510560405975" lon="2.539517216608">
        <ele>12.8</ele>
        <time>2019-10-27T11:06:52Z</time>
      </trkpt>
      <trkpt lat="39.510546072926" lon="2.539490394528">
        <ele>12.8</ele>
        <time>2019-10-27T11:06:53Z</time>
      </trkpt>
      <trkpt lat="39.510533835352" lon="2.539470445606">
        <ele>12.8</ele>
        <time>2019-10-27T11:06:54Z</time>
      </trkpt>
      <trkpt lat="39.510517155371" lon="2.539440270766">
        <ele>12.8</ele>
        <time>2019-10-27T11:06:55Z</time>
      </trkpt>
      <trkpt lat="39.510497709363" lon="2.53941227522">
        <ele>12.6</ele>
        <time>2019-10-27T11:06:56Z</time>
      </trkpt>
      <trkpt lat="39.510480275011" lon="2.539386039873">
        <ele>12.6</ele>
        <time>2019-10-27T11:06:57Z</time>
      </trkpt>
      <trkpt lat="39.510471557835" lon="2.539366593865">
        <ele>12.6</ele>
        <time>2019-10-27T11:06:58Z</time>
      </trkpt>
      <trkpt lat="39.510465774324" lon="2.53934857278">
        <ele>12.6</ele>
        <time>2019-10-27T11:06:59Z</time>
      </trkpt>
      <trkpt lat="39.51045353675" lon="2.539328875315">
        <ele>12.6</ele>
        <time>2019-10-27T11:07:00Z</time>
      </trkpt>
      <trkpt lat="39.510441550633" lon="2.539312027696">
        <ele>12.4</ele>
        <time>2019-10-27T11:07:01Z</time>
      </trkpt>
      <trkpt lat="39.51043844933" lon="2.539278332458">
        <ele>12.4</ele>
        <time>2019-10-27T11:07:02Z</time>
      </trkpt>
      <trkpt lat="39.510431827629" lon="2.53924715179">
        <ele>12.4</ele>
        <time>2019-10-27T11:07:03Z</time>
      </trkpt>
      <trkpt lat="39.510424367738" lon="2.539221419357">
        <ele>12.4</ele>
        <time>2019-10-27T11:07:04Z</time>
      </trkpt>
      <trkpt lat="39.510415315286" lon="2.539203901186">
        <ele>12.4</ele>
        <time>2019-10-27T11:07:05Z</time>
      </trkpt>
      <trkpt lat="39.51040827449" lon="2.539174983631">
        <ele>12.4</ele>
        <time>2019-10-27T11:07:06Z</time>
      </trkpt>
      <trkpt lat="39.510399808771" lon="2.539148832103">
        <ele>12.4</ele>
        <time>2019-10-27T11:07:07Z</time>
      </trkpt>
      <trkpt lat="39.510393019432" lon="2.539128715543">
        <ele>12.6</ele>
        <time>2019-10-27T11:07:08Z</time>
      </trkpt>
      <trkpt lat="39.510381033315" lon="2.539110107725">
        <ele>12.6</ele>
        <time>2019-10-27T11:07:09Z</time>
      </trkpt>
      <trkpt lat="39.510370304483" lon="2.539094433572">
        <ele>12.8</ele>
        <time>2019-10-27T11:07:10Z</time>
      </trkpt>
      <trkpt lat="39.510358402185" lon="2.539080435799">
        <ele>13</ele>
        <time>2019-10-27T11:07:11Z</time>
      </trkpt>
      <trkpt lat="39.51034960119" lon="2.539067695311">
        <ele>13.2</ele>
        <time>2019-10-27T11:07:12Z</time>
      </trkpt>
      <trkpt lat="39.510344991145" lon="2.539053948995">
        <ele>13.4</ele>
        <time>2019-10-27T11:07:13Z</time>
      </trkpt>
      <trkpt lat="39.510338201806" lon="2.539033748616">
        <ele>13.6</ele>
        <time>2019-10-27T11:07:14Z</time>
      </trkpt>
      <trkpt lat="39.510324623128" lon="2.539017906825">
        <ele>13.8</ele>
        <time>2019-10-27T11:07:15Z</time>
      </trkpt>
      <trkpt lat="39.510317666151" lon="2.53900240031">
        <ele>14</ele>
        <time>2019-10-27T11:07:16Z</time>
      </trkpt>
      <trkpt lat="39.510308446061" lon="2.538984714501">
        <ele>14</ele>
        <time>2019-10-27T11:07:17Z</time>
      </trkpt>
      <trkpt lat="39.510304003654" lon="2.538978008981">
        <ele>14</ele>
        <time>2019-10-27T11:07:18Z</time>
      </trkpt>
      <trkpt lat="39.510299058333" lon="2.538966609597">
        <ele>14.2</ele>
        <time>2019-10-27T11:07:19Z</time>
      </trkpt>
      <trkpt lat="39.510297130496" lon="2.538964346484">
        <ele>14.4</ele>
        <time>2019-10-27T11:07:20Z</time>
      </trkpt>
      <trkpt lat="39.510252119693" lon="2.538870888299">
        <ele>15</ele>
        <time>2019-10-27T11:07:26Z</time>
      </trkpt>
      <trkpt lat="39.510239043929" lon="2.538852531938">
        <ele>15</ele>
        <time>2019-10-27T11:07:27Z</time>
      </trkpt>
      <trkpt lat="39.510225884346" lon="2.538833840301">
        <ele>15.2</ele>
        <time>2019-10-27T11:07:28Z</time>
      </trkpt>
      <trkpt lat="39.510209791098" lon="2.53880877842">
        <ele>15.2</ele>
        <time>2019-10-27T11:07:29Z</time>
      </trkpt>
      <trkpt lat="39.510194284583" lon="2.538781201969">
        <ele>15.2</ele>
        <time>2019-10-27T11:07:30Z</time>
      </trkpt>
      <trkpt lat="39.510180538267" lon="2.538756978278">
        <ele>15.4</ele>
        <time>2019-10-27T11:07:31Z</time>
      </trkpt>
      <trkpt lat="39.510168971245" lon="2.538731078207">
        <ele>15.4</ele>
        <time>2019-10-27T11:07:32Z</time>
      </trkpt>
      <trkpt lat="39.510158577689" lon="2.538711799837">
        <ele>15.6</ele>
        <time>2019-10-27T11:07:33Z</time>
      </trkpt>
      <trkpt lat="39.510150363427" lon="2.5387014901">
        <ele>15.8</ele>
        <time>2019-10-27T11:07:34Z</time>
      </trkpt>
      <trkpt lat="39.510144999011" lon="2.538691096544">
        <ele>15.8</ele>
        <time>2019-10-27T11:07:35Z</time>
      </trkpt>
      <trkpt lat="39.510138796405" lon="2.538675003296">
        <ele>16</ele>
        <time>2019-10-27T11:07:36Z</time>
      </trkpt>
      <trkpt lat="39.51013250998" lon="2.538658407134">
        <ele>16.2</ele>
        <time>2019-10-27T11:07:37Z</time>
      </trkpt>
      <trkpt lat="39.510125972098" lon="2.538641475696">
        <ele>16.2</ele>
        <time>2019-10-27T11:07:38Z</time>
      </trkpt>
      <trkpt lat="39.510121362053" lon="2.538620688584">
        <ele>16.2</ele>
        <time>2019-10-27T11:07:39Z</time>
      </trkpt>
      <trkpt lat="39.510115243266" lon="2.538601661671">
        <ele>16.4</ele>
        <time>2019-10-27T11:07:40Z</time>
      </trkpt>
      <trkpt lat="39.51010987885" lon="2.538578695265">
        <ele>16.4</ele>
        <time>2019-10-27T11:07:41Z</time>
      </trkpt>
      <trkpt lat="39.510106274633" lon="2.538556064135">
        <ele>16.4</ele>
        <time>2019-10-27T11:07:42Z</time>
      </trkpt>
      <trkpt lat="39.510101664588" lon="2.538539132697">
        <ele>16.4</ele>
        <time>2019-10-27T11:07:43Z</time>
      </trkpt>
      <trkpt lat="39.510096719267" lon="2.538521530707">
        <ele>16.4</ele>
        <time>2019-10-27T11:07:44Z</time>
      </trkpt>
      <trkpt lat="39.510093450326" lon="2.53850200088">
        <ele>16.4</ele>
        <time>2019-10-27T11:07:45Z</time>
      </trkpt>
      <trkpt lat="39.510092109222" lon="2.538484063614">
        <ele>16.4</ele>
        <time>2019-10-27T11:07:46Z</time>
      </trkpt>
      <trkpt lat="39.510090516661" lon="2.538468640918">
        <ele>16.4</ele>
        <time>2019-10-27T11:07:47Z</time>
      </trkpt>
      <trkpt lat="39.510089343195" lon="2.538445674512">
        <ele>16.4</ele>
        <time>2019-10-27T11:07:48Z</time>
      </trkpt>
      <trkpt lat="39.510084984607" lon="2.538416086405">
        <ele>16.4</ele>
        <time>2019-10-27T11:07:49Z</time>
      </trkpt>
      <trkpt lat="39.510077943811" lon="2.538380547149">
        <ele>16.4</ele>
        <time>2019-10-27T11:07:50Z</time>
      </trkpt>
      <trkpt lat="39.510071070653" lon="2.538349953214">
        <ele>16.4</ele>
        <time>2019-10-27T11:07:51Z</time>
      </trkpt>
      <trkpt lat="39.510063946038" lon="2.53831927546">
        <ele>16.4</ele>
        <time>2019-10-27T11:07:52Z</time>
      </trkpt>
      <trkpt lat="39.510051708464" lon="2.538289771172">
        <ele>16.4</ele>
        <time>2019-10-27T11:07:53Z</time>
      </trkpt>
      <trkpt lat="39.510043997116" lon="2.538260518341">
        <ele>16.4</ele>
        <time>2019-10-27T11:07:54Z</time>
      </trkpt>
      <trkpt lat="39.510036788682" lon="2.538229756768">
        <ele>16.4</ele>
        <time>2019-10-27T11:07:55Z</time>
      </trkpt>
      <trkpt lat="39.510028742058" lon="2.538195474797">
        <ele>16.2</ele>
        <time>2019-10-27T11:07:56Z</time>
      </trkpt>
      <trkpt lat="39.510018767597" lon="2.538158762075">
        <ele>16.2</ele>
        <time>2019-10-27T11:07:57Z</time>
      </trkpt>
      <trkpt lat="39.510009882783" lon="2.538122384629">
        <ele>16.2</ele>
        <time>2019-10-27T11:07:58Z</time>
      </trkpt>
      <trkpt lat="39.510002255254" lon="2.538085923364">
        <ele>16.2</ele>
        <time>2019-10-27T11:07:59Z</time>
      </trkpt>
      <trkpt lat="39.509992783707" lon="2.538048120995">
        <ele>16</ele>
        <time>2019-10-27T11:08:00Z</time>
      </trkpt>
      <trkpt lat="39.509985156178" lon="2.538009815712">
        <ele>16</ele>
        <time>2019-10-27T11:08:01Z</time>
      </trkpt>
      <trkpt lat="39.509978869753" lon="2.537970839877">
        <ele>16</ele>
        <time>2019-10-27T11:08:02Z</time>
      </trkpt>
      <trkpt lat="39.509969398206" lon="2.537930187662">
        <ele>15.8</ele>
        <time>2019-10-27T11:08:03Z</time>
      </trkpt>
      <trkpt lat="39.509958250279" lon="2.537889703085">
        <ele>15.8</ele>
        <time>2019-10-27T11:08:04Z</time>
      </trkpt>
      <trkpt lat="39.509947772904" lon="2.537848631775">
        <ele>15.6</ele>
        <time>2019-10-27T11:08:05Z</time>
      </trkpt>
      <trkpt lat="39.509938133719" lon="2.537807057551">
        <ele>15.4</ele>
        <time>2019-10-27T11:08:06Z</time>
      </trkpt>
      <trkpt lat="39.509925309412" lon="2.537766572974">
        <ele>15.2</ele>
        <time>2019-10-27T11:08:07Z</time>
      </trkpt>
      <trkpt lat="39.509915754046" lon="2.53772416056">
        <ele>15</ele>
        <time>2019-10-27T11:08:08Z</time>
      </trkpt>
      <trkpt lat="39.509908126517" lon="2.537680071766">
        <ele>14.8</ele>
        <time>2019-10-27T11:08:09Z</time>
      </trkpt>
      <trkpt lat="39.509900415169" lon="2.537632378755">
        <ele>14.6</ele>
        <time>2019-10-27T11:08:10Z</time>
      </trkpt>
      <trkpt lat="39.509892033269" lon="2.537585272477">
        <ele>14.4</ele>
        <time>2019-10-27T11:08:11Z</time>
      </trkpt>
      <trkpt lat="39.509882477903" lon="2.537542776244">
        <ele>14</ele>
        <time>2019-10-27T11:08:12Z</time>
      </trkpt>
      <trkpt lat="39.509872587261" lon="2.537506063522">
        <ele>13.8</ele>
        <time>2019-10-27T11:08:13Z</time>
      </trkpt>
      <trkpt lat="39.509864121542" lon="2.537473206474">
        <ele>13.6</ele>
        <time>2019-10-27T11:08:14Z</time>
      </trkpt>
      <trkpt lat="39.509856661651" lon="2.537444624195">
        <ele>13.4</ele>
        <time>2019-10-27T11:08:15Z</time>
      </trkpt>
      <trkpt lat="39.509852638339" lon="2.537418305029">
        <ele>13.2</ele>
        <time>2019-10-27T11:08:16Z</time>
      </trkpt>
      <trkpt lat="39.509855823461" lon="2.537389890388">
        <ele>13</ele>
        <time>2019-10-27T11:08:17Z</time>
      </trkpt>
      <trkpt lat="39.509860349687" lon="2.537368181267">
        <ele>12.8</ele>
        <time>2019-10-27T11:08:18Z</time>
      </trkpt>
      <trkpt lat="39.509861020239" lon="2.537354854046">
        <ele>12.6</ele>
        <time>2019-10-27T11:08:19Z</time>
      </trkpt>
      <trkpt lat="39.509860349687" lon="2.537347394155">
        <ele>12.2</ele>
        <time>2019-10-27T11:08:20Z</time>
      </trkpt>
      <trkpt lat="39.509860014411" lon="2.537344544309">
        <ele>12</ele>
        <time>2019-10-27T11:08:21Z</time>
      </trkpt>
      <trkpt lat="39.509860433506" lon="2.537342113558">
        <ele>11.8</ele>
        <time>2019-10-27T11:08:22Z</time>
      </trkpt>
      <trkpt lat="39.509760940353" lon="2.537439846512">
        <ele>10.6</ele>
        <time>2019-10-27T11:08:47Z</time>
      </trkpt>
      <trkpt lat="39.509740907612" lon="2.53744839605">
        <ele>10.6</ele>
        <time>2019-10-27T11:08:48Z</time>
      </trkpt>
      <trkpt lat="39.509716097188" lon="2.537456442674">
        <ele>10.6</ele>
        <time>2019-10-27T11:08:49Z</time>
      </trkpt>
      <trkpt lat="39.509688939832" lon="2.537467003868">
        <ele>10.6</ele>
        <time>2019-10-27T11:08:50Z</time>
      </trkpt>
      <trkpt lat="39.509660189915" lon="2.537478822347">
        <ele>10.6</ele>
        <time>2019-10-27T11:08:51Z</time>
      </trkpt>
      <trkpt lat="39.509630182713" lon="2.537493742129">
        <ele>10.6</ele>
        <time>2019-10-27T11:08:52Z</time>
      </trkpt>
      <trkpt lat="39.50959858295" lon="2.537511092662">
        <ele>10.6</ele>
        <time>2019-10-27T11:08:53Z</time>
      </trkpt>
      <trkpt lat="39.509565725902" lon="2.537529029928">
        <ele>10.6</ele>
        <time>2019-10-27T11:08:54Z</time>
      </trkpt>
      <trkpt lat="39.509530102827" lon="2.537543362977">
        <ele>10.4</ele>
        <time>2019-10-27T11:08:55Z</time>
      </trkpt>
      <trkpt lat="39.509495066485" lon="2.53755903713">
        <ele>10.4</ele>
        <time>2019-10-27T11:08:56Z</time>
      </trkpt>
      <trkpt lat="39.509461706523" lon="2.537574878921">
        <ele>10</ele>
        <time>2019-10-27T11:08:57Z</time>
      </trkpt>
      <trkpt lat="39.509430693493" lon="2.537589882522">
        <ele>9.8</ele>
        <time>2019-10-27T11:08:58Z</time>
      </trkpt>
      <trkpt lat="39.50940077011" lon="2.537603042105">
        <ele>9.6</ele>
        <time>2019-10-27T11:08:59Z</time>
      </trkpt>
      <trkpt lat="39.509370762908" lon="2.53761268129">
        <ele>9.2</ele>
        <time>2019-10-27T11:09:00Z</time>
      </trkpt>
      <trkpt lat="39.509341929172" lon="2.53762357776">
        <ele>9</ele>
        <time>2019-10-27T11:09:01Z</time>
      </trkpt>
      <trkpt lat="39.509314771816" lon="2.537639419551">
        <ele>8.6</ele>
        <time>2019-10-27T11:09:02Z</time>
      </trkpt>
      <trkpt lat="39.509287782098" lon="2.537653417324">
        <ele>8.2</ele>
        <time>2019-10-27T11:09:03Z</time>
      </trkpt>
      <trkpt lat="39.50926330695" lon="2.537662302138">
        <ele>8</ele>
        <time>2019-10-27T11:09:04Z</time>
      </trkpt>
      <trkpt lat="39.509241346372" lon="2.537672444237">
        <ele>7.8</ele>
        <time>2019-10-27T11:09:05Z</time>
      </trkpt>
      <trkpt lat="39.509222738554" lon="2.53768308925">
        <ele>7.8</ele>
        <time>2019-10-27T11:09:06Z</time>
      </trkpt>
      <trkpt lat="39.509206561487" lon="2.537689962408">
        <ele>7.6</ele>
        <time>2019-10-27T11:09:07Z</time>
      </trkpt>
      <trkpt lat="39.50918954623" lon="2.537694656272">
        <ele>7.4</ele>
        <time>2019-10-27T11:09:08Z</time>
      </trkpt>
      <trkpt lat="39.509171525145" lon="2.537700942697">
        <ele>7.2</ele>
        <time>2019-10-27T11:09:09Z</time>
      </trkpt>
      <trkpt lat="39.509154090793" lon="2.537712006805">
        <ele>7.2</ele>
        <time>2019-10-27T11:09:10Z</time>
      </trkpt>
      <trkpt lat="39.509136069708" lon="2.537724747293">
        <ele>7</ele>
        <time>2019-10-27T11:09:11Z</time>
      </trkpt>
      <trkpt lat="39.509120395555" lon="2.537735643763">
        <ele>7</ele>
        <time>2019-10-27T11:09:12Z</time>
      </trkpt>
      <trkpt lat="39.509104553764" lon="2.537744780034">
        <ele>6.8</ele>
        <time>2019-10-27T11:09:13Z</time>
      </trkpt>
      <trkpt lat="39.509088460516" lon="2.537745785862">
        <ele>6.8</ele>
        <time>2019-10-27T11:09:14Z</time>
      </trkpt>
      <trkpt lat="39.509072870182" lon="2.537743774206">
        <ele>6.8</ele>
        <time>2019-10-27T11:09:15Z</time>
      </trkpt>
      <trkpt lat="39.509059040047" lon="2.537745785862">
        <ele>6.4</ele>
        <time>2019-10-27T11:09:16Z</time>
      </trkpt>
      <trkpt lat="39.509048227396" lon="2.537754754495">
        <ele>6.2</ele>
        <time>2019-10-27T11:09:17Z</time>
      </trkpt>
      <trkpt lat="39.509040935143" lon="2.537765315689">
        <ele>5.8</ele>
        <time>2019-10-27T11:09:18Z</time>
      </trkpt>
      <trkpt lat="39.509036911831" lon="2.537768165535">
        <ele>4.8</ele>
        <time>2019-10-27T11:09:19Z</time>
      </trkpt>
      <trkpt lat="39.509035738365" lon="2.537770093372">
        <ele>4.4</ele>
        <time>2019-10-27T11:09:20Z</time>
      </trkpt>
      <trkpt lat="39.509019812755" lon="2.53767638373">
        <ele>3.2</ele>
        <time>2019-10-27T11:09:59Z</time>
      </trkpt>
      <trkpt lat="39.509002378403" lon="2.537649729288">
        <ele>3.2</ele>
        <time>2019-10-27T11:10:00Z</time>
      </trkpt>
      <trkpt lat="39.508993493589" lon="2.537625086502">
        <ele>3.2</ele>
        <time>2019-10-27T11:10:01Z</time>
      </trkpt>
      <trkpt lat="39.508983519128" lon="2.537601281906">
        <ele>3.2</ele>
        <time>2019-10-27T11:10:02Z</time>
      </trkpt>
      <trkpt lat="39.508972538839" lon="2.537577142034">
        <ele>3.2</ele>
        <time>2019-10-27T11:10:03Z</time>
      </trkpt>
      <trkpt lat="39.508961055636" lon="2.53755065523">
        <ele>3.2</ele>
        <time>2019-10-27T11:10:04Z</time>
      </trkpt>
      <trkpt lat="39.508949237157" lon="2.537521402399">
        <ele>3.2</ele>
        <time>2019-10-27T11:10:05Z</time>
      </trkpt>
      <trkpt lat="39.508937753954" lon="2.537490892283">
        <ele>3.2</ele>
        <time>2019-10-27T11:10:06Z</time>
      </trkpt>
      <trkpt lat="39.508926857484" lon="2.537460885081">
        <ele>3.2</ele>
        <time>2019-10-27T11:10:07Z</time>
      </trkpt>
      <trkpt lat="39.508917385937" lon="2.537430039689">
        <ele>3.2</ele>
        <time>2019-10-27T11:10:08Z</time>
      </trkpt>
      <trkpt lat="39.508909339313" lon="2.537399026659">
        <ele>3.2</ele>
        <time>2019-10-27T11:10:09Z</time>
      </trkpt>
      <trkpt lat="39.508903304345" lon="2.537366588706">
        <ele>3.2</ele>
        <time>2019-10-27T11:10:10Z</time>
      </trkpt>
      <trkpt lat="39.508898023748" lon="2.537332139097">
        <ele>3.2</ele>
        <time>2019-10-27T11:10:11Z</time>
      </trkpt>
      <trkpt lat="39.508892407875" lon="2.537296348384">
        <ele>3.2</ele>
        <time>2019-10-27T11:10:12Z</time>
      </trkpt>
      <trkpt lat="39.50888695964" lon="2.537260473852">
        <ele>3</ele>
        <time>2019-10-27T11:10:13Z</time>
      </trkpt>
      <trkpt lat="39.508881762862" lon="2.537224264044">
        <ele>3</ele>
        <time>2019-10-27T11:10:14Z</time>
      </trkpt>
      <trkpt lat="39.508876649903" lon="2.537188640969">
        <ele>3</ele>
        <time>2019-10-27T11:10:15Z</time>
      </trkpt>
      <trkpt lat="39.508870950211" lon="2.537153436989">
        <ele>3</ele>
        <time>2019-10-27T11:10:16Z</time>
      </trkpt>
      <trkpt lat="39.508866340166" lon="2.537117143362">
        <ele>3</ele>
        <time>2019-10-27T11:10:17Z</time>
      </trkpt>
      <trkpt lat="39.508862568311" lon="2.537078921898">
        <ele>3</ele>
        <time>2019-10-27T11:10:18Z</time>
      </trkpt>
      <trkpt lat="39.508858544999" lon="2.537038269683">
        <ele>3</ele>
        <time>2019-10-27T11:10:19Z</time>
      </trkpt>
      <trkpt lat="39.50885343204" lon="2.536996946916">
        <ele>3</ele>
        <time>2019-10-27T11:10:20Z</time>
      </trkpt>
      <trkpt lat="39.508847480891" lon="2.536955707968">
        <ele>3</ele>
        <time>2019-10-27T11:10:21Z</time>
      </trkpt>
      <trkpt lat="39.508841529742" lon="2.536915139572">
        <ele>3</ele>
        <time>2019-10-27T11:10:22Z</time>
      </trkpt>
      <trkpt lat="39.508834069851" lon="2.536875660823">
        <ele>3</ele>
        <time>2019-10-27T11:10:23Z</time>
      </trkpt>
      <trkpt lat="39.508823592476" lon="2.536838612825">
        <ele>3</ele>
        <time>2019-10-27T11:10:24Z</time>
      </trkpt>
      <trkpt lat="39.508806912495" lon="2.536806593967">
        <ele>3</ele>
        <time>2019-10-27T11:10:25Z</time>
      </trkpt>
      <trkpt lat="39.508786544478" lon="2.536779268973">
        <ele>3</ele>
        <time>2019-10-27T11:10:26Z</time>
      </trkpt>
      <trkpt lat="39.508765841185" lon="2.536754877644">
        <ele>3</ele>
        <time>2019-10-27T11:10:27Z</time>
      </trkpt>
      <trkpt lat="39.508745221711" lon="2.536732917066">
        <ele>3</ele>
        <time>2019-10-27T11:10:28Z</time>
      </trkpt>
      <trkpt lat="39.508727200626" lon="2.536708609556">
        <ele>3</ele>
        <time>2019-10-27T11:10:29Z</time>
      </trkpt>
      <trkpt lat="39.508710604464" lon="2.536682541847">
        <ele>3</ele>
        <time>2019-10-27T11:10:30Z</time>
      </trkpt>
      <trkpt lat="39.508694595035" lon="2.536657479966">
        <ele>3</ele>
        <time>2019-10-27T11:10:31Z</time>
      </trkpt>
      <trkpt lat="39.508682273642" lon="2.536630741705">
        <ele>3</ele>
        <time>2019-10-27T11:10:32Z</time>
      </trkpt>
      <trkpt lat="39.508667437679" lon="2.53661104424">
        <ele>3</ele>
        <time>2019-10-27T11:10:33Z</time>
      </trkpt>
      <trkpt lat="39.508653272268" lon="2.536591346775">
        <ele>3</ele>
        <time>2019-10-27T11:10:34Z</time>
      </trkpt>
      <trkpt lat="39.508644471273" lon="2.53656997293">
        <ele>3</ele>
        <time>2019-10-27T11:10:35Z</time>
      </trkpt>
      <trkpt lat="39.508641453789" lon="2.53654985637">
        <ele>3</ele>
        <time>2019-10-27T11:10:36Z</time>
      </trkpt>
      <trkpt lat="39.508639358314" lon="2.53652722524">
        <ele>3</ele>
        <time>2019-10-27T11:10:37Z</time>
      </trkpt>
      <trkpt lat="39.508634412993" lon="2.536504510291">
        <ele>3</ele>
        <time>2019-10-27T11:10:38Z</time>
      </trkpt>
      <trkpt lat="39.508625695817" lon="2.536488333224">
        <ele>3</ele>
        <time>2019-10-27T11:10:39Z</time>
      </trkpt>
      <trkpt lat="39.508619409392" lon="2.536472156157">
        <ele>3</ele>
        <time>2019-10-27T11:10:40Z</time>
      </trkpt>
      <trkpt lat="39.508606752723" lon="2.536445334077">
        <ele>3</ele>
        <time>2019-10-27T11:10:41Z</time>
      </trkpt>
      <trkpt lat="39.508596359167" lon="2.536426139526">
        <ele>3</ele>
        <time>2019-10-27T11:10:42Z</time>
      </trkpt>
      <trkpt lat="39.508591330027" lon="2.536417673807">
        <ele>3</ele>
        <time>2019-10-27T11:10:43Z</time>
      </trkpt>
      <trkpt lat="39.508587977267" lon="2.536416667979">
        <ele>3</ele>
        <time>2019-10-27T11:10:44Z</time>
      </trkpt>
      <trkpt lat="39.508560819911" lon="2.536362856181">
        <ele>3.2</ele>
        <time>2019-10-27T11:11:06Z</time>
      </trkpt>
      <trkpt lat="39.508551851278" lon="2.536342907259">
        <ele>3.2</ele>
        <time>2019-10-27T11:11:07Z</time>
      </trkpt>
      <trkpt lat="39.508543385559" lon="2.536325137631">
        <ele>3.2</ele>
        <time>2019-10-27T11:11:08Z</time>
      </trkpt>
      <trkpt lat="39.508533997831" lon="2.536306110718">
        <ele>3.2</ele>
        <time>2019-10-27T11:11:09Z</time>
      </trkpt>
      <trkpt lat="39.508522598447" lon="2.536285491244">
        <ele>3.2</ele>
        <time>2019-10-27T11:11:10Z</time>
      </trkpt>
      <trkpt lat="39.50850725957" lon="2.536263446847">
        <ele>3.2</ele>
        <time>2019-10-27T11:11:11Z</time>
      </trkpt>
      <trkpt lat="39.508494267625" lon="2.536237630595">
        <ele>3.2</ele>
        <time>2019-10-27T11:11:12Z</time>
      </trkpt>
      <trkpt lat="39.508478174377" lon="2.536209215954">
        <ele>3.2</ele>
        <time>2019-10-27T11:11:13Z</time>
      </trkpt>
      <trkpt lat="39.508466439717" lon="2.536183902616">
        <ele>3.2</ele>
        <time>2019-10-27T11:11:14Z</time>
      </trkpt>
      <trkpt lat="39.508458979826" lon="2.536155571794">
        <ele>3.2</ele>
        <time>2019-10-27T11:11:15Z</time>
      </trkpt>
      <trkpt lat="39.508451687573" lon="2.536128498257">
        <ele>3</ele>
        <time>2019-10-27T11:11:16Z</time>
      </trkpt>
      <trkpt lat="39.508442467483" lon="2.536103184919">
        <ele>2.8</ele>
        <time>2019-10-27T11:11:17Z</time>
      </trkpt>
      <trkpt lat="39.508431235737" lon="2.536077033391">
        <ele>3</ele>
        <time>2019-10-27T11:11:18Z</time>
      </trkpt>
      <trkpt lat="39.508419752534" lon="2.536050211311">
        <ele>3</ele>
        <time>2019-10-27T11:11:19Z</time>
      </trkpt>
      <trkpt lat="39.508408101693" lon="2.536024143602">
        <ele>3</ele>
        <time>2019-10-27T11:11:20Z</time>
      </trkpt>
      <trkpt lat="39.508396367033" lon="2.535996818608">
        <ele>3</ele>
        <time>2019-10-27T11:11:21Z</time>
      </trkpt>
      <trkpt lat="39.508383458907" lon="2.535969996528">
        <ele>3</ele>
        <time>2019-10-27T11:11:22Z</time>
      </trkpt>
      <trkpt lat="39.508370550781" lon="2.535943258267">
        <ele>3</ele>
        <time>2019-10-27T11:11:23Z</time>
      </trkpt>
      <trkpt lat="39.508357391198" lon="2.535916520006">
        <ele>3</ele>
        <time>2019-10-27T11:11:24Z</time>
      </trkpt>
      <trkpt lat="39.508342722873" lon="2.535890787573">
        <ele>3</ele>
        <time>2019-10-27T11:11:25Z</time>
      </trkpt>
      <trkpt lat="39.508327635453" lon="2.535866899158">
        <ele>3</ele>
        <time>2019-10-27T11:11:26Z</time>
      </trkpt>
      <trkpt lat="39.508309362911" lon="2.535846279684">
        <ele>3</ele>
        <time>2019-10-27T11:11:27Z</time>
      </trkpt>
      <trkpt lat="39.508290335998" lon="2.535827671866">
        <ele>3</ele>
        <time>2019-10-27T11:11:28Z</time>
      </trkpt>
      <trkpt lat="39.508271811999" lon="2.535808812591">
        <ele>3</ele>
        <time>2019-10-27T11:11:29Z</time>
      </trkpt>
      <trkpt lat="39.508254629104" lon="2.535794730999">
        <ele>3</ele>
        <time>2019-10-27T11:11:30Z</time>
      </trkpt>
      <trkpt lat="39.508237865304" lon="2.535784672719">
        <ele>3</ele>
        <time>2019-10-27T11:11:31Z</time>
      </trkpt>
      <trkpt lat="39.508221017685" lon="2.535771261679">
        <ele>3</ele>
        <time>2019-10-27T11:11:32Z</time>
      </trkpt>
      <trkpt lat="39.508202577505" lon="2.535758269734">
        <ele>3</ele>
        <time>2019-10-27T11:11:33Z</time>
      </trkpt>
      <trkpt lat="39.508188328275" lon="2.535745780703">
        <ele>3</ele>
        <time>2019-10-27T11:11:34Z</time>
      </trkpt>
      <trkpt lat="39.508173827588" lon="2.535730190369">
        <ele>3</ele>
        <time>2019-10-27T11:11:35Z</time>
      </trkpt>
      <trkpt lat="39.508161506195" lon="2.535714516216">
        <ele>3</ele>
        <time>2019-10-27T11:11:36Z</time>
      </trkpt>
      <trkpt lat="39.508147759879" lon="2.535699428796">
        <ele>3</ele>
        <time>2019-10-27T11:11:37Z</time>
      </trkpt>
      <trkpt lat="39.508134516477" lon="2.53568568248">
        <ele>3</ele>
        <time>2019-10-27T11:11:38Z</time>
      </trkpt>
      <trkpt lat="39.50812169217" lon="2.535675456562">
        <ele>3</ele>
        <time>2019-10-27T11:11:39Z</time>
      </trkpt>
      <trkpt lat="39.50811414846" lon="2.535667577576">
        <ele>3</ele>
        <time>2019-10-27T11:11:40Z</time>
      </trkpt>
      <trkpt lat="39.50810744294" lon="2.535662464617">
        <ele>3</ele>
        <time>2019-10-27T11:11:41Z</time>
      </trkpt>
      <trkpt lat="39.508097719936" lon="2.535656597287">
        <ele>3</ele>
        <time>2019-10-27T11:11:42Z</time>
      </trkpt>
      <trkpt lat="39.50808816457" lon="2.535647209559">
        <ele>3</ele>
        <time>2019-10-27T11:11:43Z</time>
      </trkpt>
      <trkpt lat="39.508078525385" lon="2.535639498211">
        <ele>3</ele>
        <time>2019-10-27T11:11:44Z</time>
      </trkpt>
      <trkpt lat="39.508065868716" lon="2.535633211786">
        <ele>3</ele>
        <time>2019-10-27T11:11:45Z</time>
      </trkpt>
      <trkpt lat="39.508054050237" lon="2.535625416619">
        <ele>3</ele>
        <time>2019-10-27T11:11:46Z</time>
      </trkpt>
      <trkpt lat="39.508043069948" lon="2.535610915932">
        <ele>3</ele>
        <time>2019-10-27T11:11:47Z</time>
      </trkpt>
      <trkpt lat="39.508030832374" lon="2.535597085797">
        <ele>3</ele>
        <time>2019-10-27T11:11:48Z</time>
      </trkpt>
      <trkpt lat="39.50801775661" lon="2.53558426149">
        <ele>3</ele>
        <time>2019-10-27T11:11:49Z</time>
      </trkpt>
      <trkpt lat="39.508004513208" lon="2.535573448839">
        <ele>3</ele>
        <time>2019-10-27T11:11:50Z</time>
      </trkpt>
      <trkpt lat="39.507992107996" lon="2.535561211265">
        <ele>2.8</ele>
        <time>2019-10-27T11:11:51Z</time>
      </trkpt>
      <trkpt lat="39.507979618965" lon="2.535549141329">
        <ele>2.8</ele>
        <time>2019-10-27T11:11:52Z</time>
      </trkpt>
      <trkpt lat="39.507967046115" lon="2.535538663954">
        <ele>2.8</ele>
        <time>2019-10-27T11:11:53Z</time>
      </trkpt>
      <trkpt lat="39.507952210152" lon="2.535528354217">
        <ele>3</ele>
        <time>2019-10-27T11:11:54Z</time>
      </trkpt>
      <trkpt lat="39.507935949266" lon="2.535517373928">
        <ele>3</ele>
        <time>2019-10-27T11:11:55Z</time>
      </trkpt>
      <trkpt lat="39.507921029484" lon="2.535504968716">
        <ele>3</ele>
        <time>2019-10-27T11:11:56Z</time>
      </trkpt>
      <trkpt lat="39.507908875729" lon="2.535493317875">
        <ele>3</ele>
        <time>2019-10-27T11:11:57Z</time>
      </trkpt>
      <trkpt lat="39.507896973431" lon="2.535480409749">
        <ele>3</ele>
        <time>2019-10-27T11:11:58Z</time>
      </trkpt>
      <trkpt lat="39.50788699897" lon="2.535468842727">
        <ele>3</ele>
        <time>2019-10-27T11:11:59Z</time>
      </trkpt>
      <trkpt lat="39.507874761396" lon="2.535455934601">
        <ele>3</ele>
        <time>2019-10-27T11:12:00Z</time>
      </trkpt>
      <trkpt lat="39.50786017689" lon="2.535442439742">
        <ele>3</ele>
        <time>2019-10-27T11:12:01Z</time>
      </trkpt>
      <trkpt lat="39.507846682031" lon="2.535431794729">
        <ele>3</ele>
        <time>2019-10-27T11:12:02Z</time>
      </trkpt>
      <trkpt lat="39.507821703969" lon="2.535416539671">
        <ele>3</ele>
        <time>2019-10-27T11:12:03Z</time>
      </trkpt>
      <trkpt lat="39.507799911029" lon="2.535400027328">
        <ele>3</ele>
        <time>2019-10-27T11:12:04Z</time>
      </trkpt>
      <trkpt lat="39.507779123917" lon="2.535383850261">
        <ele>3</ele>
        <time>2019-10-27T11:12:05Z</time>
      </trkpt>
      <trkpt lat="39.507758672081" lon="2.535368092289">
        <ele>3</ele>
        <time>2019-10-27T11:12:06Z</time>
      </trkpt>
      <trkpt lat="39.50773696296" lon="2.535349819747">
        <ele>3</ele>
        <time>2019-10-27T11:12:07Z</time>
      </trkpt>
      <trkpt lat="39.507712403993" lon="2.535328781178">
        <ele>3</ele>
        <time>2019-10-27T11:12:08Z</time>
      </trkpt>
      <trkpt lat="39.507687090655" lon="2.535309670446">
        <ele>3</ele>
        <time>2019-10-27T11:12:09Z</time>
      </trkpt>
      <trkpt lat="39.507663034602" lon="2.535291230266">
        <ele>2.8</ele>
        <time>2019-10-27T11:12:10Z</time>
      </trkpt>
      <trkpt lat="39.5076414093" lon="2.535273041543">
        <ele>2.8</ele>
        <time>2019-10-27T11:12:11Z</time>
      </trkpt>
      <trkpt lat="39.507617688523" lon="2.535252841164">
        <ele>3</ele>
        <time>2019-10-27T11:12:12Z</time>
      </trkpt>
      <trkpt lat="39.507591704633" lon="2.535230964405">
        <ele>3</ele>
        <time>2019-10-27T11:12:13Z</time>
      </trkpt>
      <trkpt lat="39.507567313304" lon="2.535210093474">
        <ele>2.8</ele>
        <time>2019-10-27T11:12:14Z</time>
      </trkpt>
      <trkpt lat="39.507543592527" lon="2.535190396009">
        <ele>2.8</ele>
        <time>2019-10-27T11:12:15Z</time>
      </trkpt>
      <trkpt lat="39.507520626121" lon="2.53517187201">
        <ele>3</ele>
        <time>2019-10-27T11:12:16Z</time>
      </trkpt>
      <trkpt lat="39.507498414086" lon="2.535152509821">
        <ele>3</ele>
        <time>2019-10-27T11:12:17Z</time>
      </trkpt>
      <trkpt lat="39.507473016929" lon="2.535130213967">
        <ele>3</ele>
        <time>2019-10-27T11:12:18Z</time>
      </trkpt>
      <trkpt lat="39.507445608116" lon="2.535107918113">
        <ele>3</ele>
        <time>2019-10-27T11:12:19Z</time>
      </trkpt>
      <trkpt lat="39.507420210959" lon="2.535086544268">
        <ele>3</ele>
        <time>2019-10-27T11:12:20Z</time>
      </trkpt>
      <trkpt lat="39.507396322544" lon="2.535065254242">
        <ele>3</ele>
        <time>2019-10-27T11:12:21Z</time>
      </trkpt>
      <trkpt lat="39.507373104681" lon="2.53504530532">
        <ele>3</ele>
        <time>2019-10-27T11:12:22Z</time>
      </trkpt>
      <trkpt lat="39.507350138275" lon="2.535027954787">
        <ele>3</ele>
        <time>2019-10-27T11:12:23Z</time>
      </trkpt>
      <trkpt lat="39.507327842421" lon="2.535011861539">
        <ele>3</ele>
        <time>2019-10-27T11:12:24Z</time>
      </trkpt>
      <trkpt lat="39.507306720033" lon="2.53499417573">
        <ele>3</ele>
        <time>2019-10-27T11:12:25Z</time>
      </trkpt>
      <trkpt lat="39.507287274025" lon="2.534975819369">
        <ele>3</ele>
        <time>2019-10-27T11:12:26Z</time>
      </trkpt>
      <trkpt lat="39.507266151637" lon="2.534957127732">
        <ele>3</ele>
        <time>2019-10-27T11:12:27Z</time>
      </trkpt>
      <trkpt lat="39.507243688145" lon="2.534934077507">
        <ele>3</ele>
        <time>2019-10-27T11:12:28Z</time>
      </trkpt>
      <trkpt lat="39.50722063792" lon="2.534908093617">
        <ele>3</ele>
        <time>2019-10-27T11:12:29Z</time>
      </trkpt>
      <trkpt lat="39.507197084781" lon="2.534885043392">
        <ele>3</ele>
        <time>2019-10-27T11:12:30Z</time>
      </trkpt>
      <trkpt lat="39.507173950737" lon="2.534865010651">
        <ele>3</ele>
        <time>2019-10-27T11:12:31Z</time>
      </trkpt>
      <trkpt lat="39.507152493073" lon="2.534844558815">
        <ele>3.2</ele>
        <time>2019-10-27T11:12:32Z</time>
      </trkpt>
      <trkpt lat="39.507132795608" lon="2.53482569954">
        <ele>3.2</ele>
        <time>2019-10-27T11:12:33Z</time>
      </trkpt>
      <trkpt lat="39.507116869998" lon="2.534807846093">
        <ele>3.2</ele>
        <time>2019-10-27T11:12:34Z</time>
      </trkpt>
      <trkpt lat="39.50710245313" lon="2.534789238275">
        <ele>3.2</ele>
        <time>2019-10-27T11:12:35Z</time>
      </trkpt>
      <trkpt lat="39.507080492552" lon="2.534770798095">
        <ele>3.2</ele>
        <time>2019-10-27T11:12:36Z</time>
      </trkpt>
      <trkpt lat="39.507058699612" lon="2.534753531381">
        <ele>3.2</ele>
        <time>2019-10-27T11:12:37Z</time>
      </trkpt>
      <trkpt lat="39.507038583052" lon="2.53473601321">
        <ele>3.2</ele>
        <time>2019-10-27T11:12:38Z</time>
      </trkpt>
      <trkpt lat="39.507021819252" lon="2.534718495039">
        <ele>3.2</ele>
        <time>2019-10-27T11:12:39Z</time>
      </trkpt>
      <trkpt lat="39.507002037968" lon="2.534696953556">
        <ele>3</ele>
        <time>2019-10-27T11:12:40Z</time>
      </trkpt>
      <trkpt lat="39.50698175377" lon="2.534679686842">
        <ele>3</ele>
        <time>2019-10-27T11:12:41Z</time>
      </trkpt>
      <trkpt lat="39.506960128468" lon="2.53465973792">
        <ele>3</ele>
        <time>2019-10-27T11:12:42Z</time>
      </trkpt>
      <trkpt lat="39.506940766279" lon="2.53463962136">
        <ele>3</ele>
        <time>2019-10-27T11:12:43Z</time>
      </trkpt>
      <trkpt lat="39.50692140409" lon="2.53462285756">
        <ele>3</ele>
        <time>2019-10-27T11:12:44Z</time>
      </trkpt>
      <trkpt lat="39.506902209539" lon="2.534607099588">
        <ele>3</ele>
        <time>2019-10-27T11:12:45Z</time>
      </trkpt>
      <trkpt lat="39.506886619205" lon="2.534591173978">
        <ele>3</ele>
        <time>2019-10-27T11:12:46Z</time>
      </trkpt>
      <trkpt lat="39.50687446545" lon="2.534575667463">
        <ele>3.2</ele>
        <time>2019-10-27T11:12:47Z</time>
      </trkpt>
      <trkpt lat="39.506863736618" lon="2.534562256423">
        <ele>3.2</ele>
        <time>2019-10-27T11:12:48Z</time>
      </trkpt>
      <trkpt lat="39.506857366374" lon="2.534554042161">
        <ele>3.2</ele>
        <time>2019-10-27T11:12:49Z</time>
      </trkpt>
      <trkpt lat="39.506850744673" lon="2.534542307501">
        <ele>3.2</ele>
        <time>2019-10-27T11:12:50Z</time>
      </trkpt>
      <trkpt lat="39.506843703877" lon="2.534532165402">
        <ele>3.2</ele>
        <time>2019-10-27T11:12:51Z</time>
      </trkpt>
      <trkpt lat="39.506839680565" lon="2.534528896461">
        <ele>3.2</ele>
        <time>2019-10-27T11:12:52Z</time>
      </trkpt>
      <trkpt lat="39.506794250667" lon="2.534522358579">
        <ele>3</ele>
        <time>2019-10-27T11:13:13Z</time>
      </trkpt>
      <trkpt lat="39.50677723541" lon="2.534513557584">
        <ele>3</ele>
        <time>2019-10-27T11:13:14Z</time>
      </trkpt>
      <trkpt lat="39.506758208497" lon="2.534500398001">
        <ele>3</ele>
        <time>2019-10-27T11:13:15Z</time>
      </trkpt>
      <trkpt lat="39.50673867867" lon="2.534486484047">
        <ele>3</ele>
        <time>2019-10-27T11:13:16Z</time>
      </trkpt>
      <trkpt lat="39.506718897386" lon="2.534476090491">
        <ele>3</ele>
        <time>2019-10-27T11:13:17Z</time>
      </trkpt>
      <trkpt lat="39.506697355903" lon="2.534461422166">
        <ele>3</ele>
        <time>2019-10-27T11:13:18Z</time>
      </trkpt>
      <trkpt lat="39.506675143868" lon="2.534442814348">
        <ele>3</ele>
        <time>2019-10-27T11:13:19Z</time>
      </trkpt>
      <trkpt lat="39.506653853842" lon="2.534424541806">
        <ele>3</ele>
        <time>2019-10-27T11:13:20Z</time>
      </trkpt>
      <trkpt lat="39.50663222854" lon="2.534407694187">
        <ele>3</ele>
        <time>2019-10-27T11:13:21Z</time>
      </trkpt>
      <trkpt lat="39.506610854695" lon="2.53439067893">
        <ele>3</ele>
        <time>2019-10-27T11:13:22Z</time>
      </trkpt>
      <trkpt lat="39.506590402859" lon="2.534371819655">
        <ele>3</ele>
        <time>2019-10-27T11:13:23Z</time>
      </trkpt>
      <trkpt lat="39.506570621575" lon="2.534352541285">
        <ele>2.8</ele>
        <time>2019-10-27T11:13:24Z</time>
      </trkpt>
      <trkpt lat="39.506551007929" lon="2.53433368201">
        <ele>2.8</ele>
        <time>2019-10-27T11:13:25Z</time>
      </trkpt>
      <trkpt lat="39.506530472274" lon="2.534316331477">
        <ele>2.8</ele>
        <time>2019-10-27T11:13:26Z</time>
      </trkpt>
      <trkpt lat="39.506509182248" lon="2.534299651496">
        <ele>2.8</ele>
        <time>2019-10-27T11:13:27Z</time>
      </trkpt>
      <trkpt lat="39.506485880566" lon="2.534283222972">
        <ele>2.8</ele>
        <time>2019-10-27T11:13:28Z</time>
      </trkpt>
      <trkpt lat="39.506460483409" lon="2.534264196059">
        <ele>2.8</ele>
        <time>2019-10-27T11:13:29Z</time>
      </trkpt>
      <trkpt lat="39.506434583338" lon="2.534242403119">
        <ele>2.6</ele>
        <time>2019-10-27T11:13:30Z</time>
      </trkpt>
      <trkpt lat="39.506409353819" lon="2.534221532188">
        <ele>2.6</ele>
        <time>2019-10-27T11:13:31Z</time>
      </trkpt>
      <trkpt lat="39.506384543395" lon="2.534200912714">
        <ele>2.6</ele>
        <time>2019-10-27T11:13:32Z</time>
      </trkpt>
      <trkpt lat="39.506359565333" lon="2.534180879973">
        <ele>2.6</ele>
        <time>2019-10-27T11:13:33Z</time>
      </trkpt>
      <trkpt lat="39.506335676918" lon="2.534159589947">
        <ele>2.6</ele>
        <time>2019-10-27T11:13:34Z</time>
      </trkpt>
      <trkpt lat="39.506313129607" lon="2.534138216102">
        <ele>2.6</ele>
        <time>2019-10-27T11:13:35Z</time>
      </trkpt>
      <trkpt lat="39.506293515961" lon="2.534114327687">
        <ele>2.6</ele>
        <time>2019-10-27T11:13:36Z</time>
      </trkpt>
      <trkpt lat="39.506272980306" lon="2.534090020177">
        <ele>2.4</ele>
        <time>2019-10-27T11:13:37Z</time>
      </trkpt>
      <trkpt lat="39.506249427167" lon="2.53406797578">
        <ele>2.4</ele>
        <time>2019-10-27T11:13:38Z</time>
      </trkpt>
      <trkpt lat="39.50622570639" lon="2.534048529772">
        <ele>2.4</ele>
        <time>2019-10-27T11:13:39Z</time>
      </trkpt>
      <trkpt lat="39.506202320889" lon="2.534031430696">
        <ele>2.4</ele>
        <time>2019-10-27T11:13:40Z</time>
      </trkpt>
      <trkpt lat="39.50617960594" lon="2.534015085991">
        <ele>2.4</ele>
        <time>2019-10-27T11:13:41Z</time>
      </trkpt>
      <trkpt lat="39.506157393905" lon="2.533997651639">
        <ele>2.4</ele>
        <time>2019-10-27T11:13:42Z</time>
      </trkpt>
      <trkpt lat="39.506136606793" lon="2.533980301106">
        <ele>2.4</ele>
        <time>2019-10-27T11:13:43Z</time>
      </trkpt>
      <trkpt lat="39.506116993147" lon="2.533963118211">
        <ele>2.4</ele>
        <time>2019-10-27T11:13:44Z</time>
      </trkpt>
      <trkpt lat="39.506098720605" lon="2.533947527877">
        <ele>2.4</ele>
        <time>2019-10-27T11:13:45Z</time>
      </trkpt>
      <trkpt lat="39.506081705348" lon="2.533934033018">
        <ele>2.4</ele>
        <time>2019-10-27T11:13:46Z</time>
      </trkpt>
      <trkpt lat="39.506065276824" lon="2.533920035245">
        <ele>2.4</ele>
        <time>2019-10-27T11:13:47Z</time>
      </trkpt>
      <trkpt lat="39.506052955431" lon="2.533906121291">
        <ele>2.4</ele>
        <time>2019-10-27T11:13:48Z</time>
      </trkpt>
      <trkpt lat="39.506042897151" lon="2.533892458794">
        <ele>2.4</ele>
        <time>2019-10-27T11:13:49Z</time>
      </trkpt>
      <trkpt lat="39.506038706201" lon="2.533878209564">
        <ele>2.4</ele>
        <time>2019-10-27T11:13:50Z</time>
      </trkpt>
      <trkpt lat="39.506042058961" lon="2.533861864859">
        <ele>2.4</ele>
        <time>2019-10-27T11:13:51Z</time>
      </trkpt>
      <trkpt lat="39.506052284879" lon="2.533848453819">
        <ele>2.4</ele>
        <time>2019-10-27T11:13:52Z</time>
      </trkpt>
      <trkpt lat="39.506067539937" lon="2.533837557349">
        <ele>2.4</ele>
        <time>2019-10-27T11:13:53Z</time>
      </trkpt>
      <trkpt lat="39.506080196606" lon="2.533827079974">
        <ele>2.4</ele>
        <time>2019-10-27T11:13:54Z</time>
      </trkpt>
      <trkpt lat="39.506087321221" lon="2.533820122997">
        <ele>2.4</ele>
        <time>2019-10-27T11:13:55Z</time>
      </trkpt>
      <trkpt lat="39.506086231574" lon="2.533817943703">
        <ele>2.4</ele>
        <time>2019-10-27T11:13:56Z</time>
      </trkpt>
      <trkpt lat="39.506119172441" lon="2.533756001462">
        <ele>2.4</ele>
        <time>2019-10-27T11:14:05Z</time>
      </trkpt>
      <trkpt lat="39.50612847635" lon="2.53373186159">
        <ele>2.4</ele>
        <time>2019-10-27T11:14:06Z</time>
      </trkpt>
      <trkpt lat="39.506139708096" lon="2.533712164125">
        <ele>2.4</ele>
        <time>2019-10-27T11:14:07Z</time>
      </trkpt>
      <trkpt lat="39.50615110748" lon="2.533695400325">
        <ele>2.4</ele>
        <time>2019-10-27T11:14:08Z</time>
      </trkpt>
      <trkpt lat="39.506158735009" lon="2.533670925177">
        <ele>2.4</ele>
        <time>2019-10-27T11:14:09Z</time>
      </trkpt>
      <trkpt lat="39.50616703309" lon="2.533649551332">
        <ele>2.4</ele>
        <time>2019-10-27T11:14:10Z</time>
      </trkpt>
      <trkpt lat="39.506176169361" lon="2.533630608238">
        <ele>2.4</ele>
        <time>2019-10-27T11:14:11Z</time>
      </trkpt>
      <trkpt lat="39.506185054175" lon="2.53360864766">
        <ele>2.4</ele>
        <time>2019-10-27T11:14:12Z</time>
      </trkpt>
      <trkpt lat="39.50619385517" lon="2.533586770901">
        <ele>2.4</ele>
        <time>2019-10-27T11:14:13Z</time>
      </trkpt>
      <trkpt lat="39.506201734156" lon="2.533559697364">
        <ele>2.4</ele>
        <time>2019-10-27T11:14:14Z</time>
      </trkpt>
      <trkpt lat="39.506210702789" lon="2.533533294379">
        <ele>2.4</ele>
        <time>2019-10-27T11:14:15Z</time>
      </trkpt>
      <trkpt lat="39.506216402481" lon="2.53350974124">
        <ele>2.4</ele>
        <time>2019-10-27T11:14:16Z</time>
      </trkpt>
      <trkpt lat="39.506222521268" lon="2.533486439558">
        <ele>2.6</ele>
        <time>2019-10-27T11:14:17Z</time>
      </trkpt>
      <trkpt lat="39.50622905915" lon="2.533464646618">
        <ele>2.6</ele>
        <time>2019-10-27T11:14:18Z</time>
      </trkpt>
      <trkpt lat="39.506234255928" lon="2.533444781515">
        <ele>2.8</ele>
        <time>2019-10-27T11:14:19Z</time>
      </trkpt>
      <trkpt lat="39.506241715819" lon="2.533427011887">
        <ele>2.8</ele>
        <time>2019-10-27T11:14:20Z</time>
      </trkpt>
      <trkpt lat="39.50624917571" lon="2.5334125112">
        <ele>2.8</ele>
        <time>2019-10-27T11:14:21Z</time>
      </trkpt>
      <trkpt lat="39.506250097719" lon="2.533409242259">
        <ele>2.8</ele>
        <time>2019-10-27T11:14:22Z</time>
      </trkpt>
      <trkpt lat="39.506252696108" lon="2.533406811508">
        <ele>2.8</ele>
        <time>2019-10-27T11:14:23Z</time>
      </trkpt>
      <trkpt lat="39.506288822097" lon="2.533344031077">
        <ele>3</ele>
        <time>2019-10-27T11:14:49Z</time>
      </trkpt>
      <trkpt lat="39.506299718567" lon="2.533331877322">
        <ele>3</ele>
        <time>2019-10-27T11:14:50Z</time>
      </trkpt>
      <trkpt lat="39.506310028304" lon="2.533312431314">
        <ele>3</ele>
        <time>2019-10-27T11:14:51Z</time>
      </trkpt>
      <trkpt lat="39.506321511507" lon="2.533287453252">
        <ele>3</ele>
        <time>2019-10-27T11:14:52Z</time>
      </trkpt>
      <trkpt lat="39.506334419633" lon="2.533261050267">
        <ele>3</ele>
        <time>2019-10-27T11:14:53Z</time>
      </trkpt>
      <trkpt lat="39.506349339415" lon="2.533238502956">
        <ele>3</ele>
        <time>2019-10-27T11:14:54Z</time>
      </trkpt>
      <trkpt lat="39.50636065498" lon="2.533216290921">
        <ele>3</ele>
        <time>2019-10-27T11:14:55Z</time>
      </trkpt>
      <trkpt lat="39.506365935577" lon="2.533192151049">
        <ele>3</ele>
        <time>2019-10-27T11:14:56Z</time>
      </trkpt>
      <trkpt lat="39.506376245314" lon="2.533177650362">
        <ele>3</ele>
        <time>2019-10-27T11:14:57Z</time>
      </trkpt>
      <trkpt lat="39.506389572535" lon="2.533160802743">
        <ele>3</ele>
        <time>2019-10-27T11:14:58Z</time>
      </trkpt>
      <trkpt lat="39.506406168697" lon="2.533145380047">
        <ele>3</ele>
        <time>2019-10-27T11:14:59Z</time>
      </trkpt>
      <trkpt lat="39.506424608877" lon="2.533133813025">
        <ele>3</ele>
        <time>2019-10-27T11:15:00Z</time>
      </trkpt>
      <trkpt lat="39.506443132876" lon="2.533130208808">
        <ele>3</ele>
        <time>2019-10-27T11:15:01Z</time>
      </trkpt>
      <trkpt lat="39.506466015463" lon="2.533123922383">
        <ele>3</ele>
        <time>2019-10-27T11:15:02Z</time>
      </trkpt>
      <trkpt lat="39.506484623281" lon="2.533108918782">
        <ele>3.2</ele>
        <time>2019-10-27T11:15:03Z</time>
      </trkpt>
      <trkpt lat="39.506498872511" lon="2.533089137498">
        <ele>3.2</ele>
        <time>2019-10-27T11:15:04Z</time>
      </trkpt>
      <trkpt lat="39.506507002954" lon="2.533055693717">
        <ele>3.2</ele>
        <time>2019-10-27T11:15:05Z</time>
      </trkpt>
      <trkpt lat="39.506511361542" lon="2.533018310443">
        <ele>3.2</ele>
        <time>2019-10-27T11:15:06Z</time>
      </trkpt>
      <trkpt lat="39.506515468673" lon="2.532987297413">
        <ele>3.4</ele>
        <time>2019-10-27T11:15:07Z</time>
      </trkpt>
      <trkpt lat="39.506520581632" lon="2.532967013215">
        <ele>3.4</ele>
        <time>2019-10-27T11:15:08Z</time>
      </trkpt>
      <trkpt lat="39.506529382627" lon="2.532934659081">
        <ele>3.4</ele>
        <time>2019-10-27T11:15:09Z</time>
      </trkpt>
      <trkpt lat="39.506536842518" lon="2.532911357399">
        <ele>3.4</ele>
        <time>2019-10-27T11:15:10Z</time>
      </trkpt>
      <trkpt lat="39.50654170402" lon="2.5328844515">
        <ele>3.4</ele>
        <time>2019-10-27T11:15:11Z</time>
      </trkpt>
      <trkpt lat="39.506548744816" lon="2.532850253348">
        <ele>3.4</ele>
        <time>2019-10-27T11:15:12Z</time>
      </trkpt>
      <trkpt lat="39.506559138372" lon="2.532822844535">
        <ele>3.4</ele>
        <time>2019-10-27T11:15:13Z</time>
      </trkpt>
      <trkpt lat="39.506568190824" lon="2.532796357731">
        <ele>3.4</ele>
        <time>2019-10-27T11:15:14Z</time>
      </trkpt>
      <trkpt lat="39.50658445171" lon="2.532776241171">
        <ele>3.4</ele>
        <time>2019-10-27T11:15:15Z</time>
      </trkpt>
      <trkpt lat="39.506594593809" lon="2.532755956973">
        <ele>3.4</ele>
        <time>2019-10-27T11:15:16Z</time>
      </trkpt>
      <trkpt lat="39.506604316813" lon="2.532738354983">
        <ele>3.4</ele>
        <time>2019-10-27T11:15:17Z</time>
      </trkpt>
      <trkpt lat="39.506615883835" lon="2.532726955599">
        <ele>3.4</ele>
        <time>2019-10-27T11:15:18Z</time>
      </trkpt>
      <trkpt lat="39.50662803759" lon="2.532717735509">
        <ele>3.4</ele>
        <time>2019-10-27T11:15:19Z</time>
      </trkpt>
      <trkpt lat="39.506634491653" lon="2.532700133519">
        <ele>3.6</ele>
        <time>2019-10-27T11:15:20Z</time>
      </trkpt>
      <trkpt lat="39.50664144863" lon="2.532686554841">
        <ele>3.6</ele>
        <time>2019-10-27T11:15:21Z</time>
      </trkpt>
      <trkpt lat="39.506651674548" lon="2.532678927312">
        <ele>3.6</ele>
        <time>2019-10-27T11:15:22Z</time>
      </trkpt>
      <trkpt lat="39.50665988881" lon="2.532670293955">
        <ele>3.6</ele>
        <time>2019-10-27T11:15:23Z</time>
      </trkpt>
      <trkpt lat="39.506666510511" lon="2.532658475476">
        <ele>3.6</ele>
        <time>2019-10-27T11:15:24Z</time>
      </trkpt>
      <trkpt lat="39.506670450004" lon="2.532637353088">
        <ele>3.8</ele>
        <time>2019-10-27T11:15:25Z</time>
      </trkpt>
      <trkpt lat="39.506676317334" lon="2.532615308691">
        <ele>3.8</ele>
        <time>2019-10-27T11:15:26Z</time>
      </trkpt>
      <trkpt lat="39.506684783053" lon="2.532584966213">
        <ele>3.8</ele>
        <time>2019-10-27T11:15:27Z</time>
      </trkpt>
      <trkpt lat="39.506691907668" lon="2.532557305943">
        <ele>3.8</ele>
        <time>2019-10-27T11:15:28Z</time>
      </trkpt>
      <trkpt lat="39.506696014799" lon="2.532537524659">
        <ele>3.8</ele>
        <time>2019-10-27T11:15:29Z</time>
      </trkpt>
      <trkpt lat="39.5067026365" lon="2.532520593221">
        <ele>3.8</ele>
        <time>2019-10-27T11:15:30Z</time>
      </trkpt>
      <trkpt lat="39.506744629819" lon="2.532557054486">
        <ele>3.4</ele>
        <time>2019-10-27T11:16:33Z</time>
      </trkpt>
      <trkpt lat="39.506732392245" lon="2.532575075571">
        <ele>3.4</ele>
        <time>2019-10-27T11:16:34Z</time>
      </trkpt>
      <trkpt lat="39.506720741404" lon="2.532591587914">
        <ele>3.4</ele>
        <time>2019-10-27T11:16:35Z</time>
      </trkpt>
      <trkpt lat="39.506708084735" lon="2.532604998954">
        <ele>3.4</ele>
        <time>2019-10-27T11:16:36Z</time>
      </trkpt>
      <trkpt lat="39.506697439722" lon="2.532622600944">
        <ele>3.4</ele>
        <time>2019-10-27T11:16:37Z</time>
      </trkpt>
      <trkpt lat="39.506688722546" lon="2.532643388056">
        <ele>3.4</ele>
        <time>2019-10-27T11:16:38Z</time>
      </trkpt>
      <trkpt lat="39.506681178836" lon="2.532662414969">
        <ele>3.4</ele>
        <time>2019-10-27T11:16:39Z</time>
      </trkpt>
      <trkpt lat="39.506671958746" lon="2.532685213737">
        <ele>3.2</ele>
        <time>2019-10-27T11:16:40Z</time>
      </trkpt>
      <trkpt lat="39.506661732828" lon="2.532704995021">
        <ele>3.2</ele>
        <time>2019-10-27T11:16:41Z</time>
      </trkpt>
      <trkpt lat="39.506645136666" lon="2.532724105753">
        <ele>3.2</ele>
        <time>2019-10-27T11:16:42Z</time>
      </trkpt>
      <trkpt lat="39.506628540504" lon="2.532741372467">
        <ele>3.2</ele>
        <time>2019-10-27T11:16:43Z</time>
      </trkpt>
      <trkpt lat="39.5066104356" lon="2.532758806819">
        <ele>3.2</ele>
        <time>2019-10-27T11:16:44Z</time>
      </trkpt>
      <trkpt lat="39.506589899945" lon="2.532767691633">
        <ele>3.2</ele>
        <time>2019-10-27T11:16:45Z</time>
      </trkpt>
      <trkpt lat="39.506572214136" lon="2.532780096845">
        <ele>3.2</ele>
        <time>2019-10-27T11:16:46Z</time>
      </trkpt>
      <trkpt lat="39.506557713449" lon="2.53279644155">
        <ele>3</ele>
        <time>2019-10-27T11:16:47Z</time>
      </trkpt>
      <trkpt lat="39.506546314065" lon="2.532810774599">
        <ele>3</ele>
        <time>2019-10-27T11:16:48Z</time>
      </trkpt>
      <trkpt lat="39.506539776183" lon="2.532833070453">
        <ele>3</ele>
        <time>2019-10-27T11:16:49Z</time>
      </trkpt>
      <trkpt lat="39.506532232473" lon="2.532850337167">
        <ele>3</ele>
        <time>2019-10-27T11:16:50Z</time>
      </trkpt>
      <trkpt lat="39.506529801722" lon="2.532878835627">
        <ele>3</ele>
        <time>2019-10-27T11:16:51Z</time>
      </trkpt>
      <trkpt lat="39.506532148654" lon="2.532907334087">
        <ele>3</ele>
        <time>2019-10-27T11:16:52Z</time>
      </trkpt>
      <trkpt lat="39.506537680708" lon="2.532929378484">
        <ele>3</ele>
        <time>2019-10-27T11:16:53Z</time>
      </trkpt>
      <trkpt lat="39.506543212762" lon="2.532942202791">
        <ele>3</ele>
        <time>2019-10-27T11:16:54Z</time>
      </trkpt>
      <trkpt lat="39.50654673316" lon="2.53295485946">
        <ele>3</ele>
        <time>2019-10-27T11:16:55Z</time>
      </trkpt>
      <trkpt lat="39.506547068436" lon="2.532961481161">
        <ele>3.2</ele>
        <time>2019-10-27T11:16:56Z</time>
      </trkpt>
      <trkpt lat="39.506596102551" lon="2.533086622928">
        <ele>5.8</ele>
        <time>2019-10-27T11:39:28Z</time>
      </trkpt>
      <trkpt lat="39.506612363437" lon="2.533102213262">
        <ele>5.8</ele>
        <time>2019-10-27T11:39:29Z</time>
      </trkpt>
      <trkpt lat="39.506625103925" lon="2.533118474148">
        <ele>5.8</ele>
        <time>2019-10-27T11:39:30Z</time>
      </trkpt>
      <trkpt lat="39.506636670947" lon="2.533139345079">
        <ele>5.6</ele>
        <time>2019-10-27T11:39:31Z</time>
      </trkpt>
      <trkpt lat="39.506649914349" lon="2.533163652589">
        <ele>5.6</ele>
        <time>2019-10-27T11:39:32Z</time>
      </trkpt>
      <trkpt lat="39.506662738656" lon="2.533190474669">
        <ele>5.6</ele>
        <time>2019-10-27T11:39:33Z</time>
      </trkpt>
      <trkpt lat="39.506672713117" lon="2.533221822975">
        <ele>5.6</ele>
        <time>2019-10-27T11:39:34Z</time>
      </trkpt>
      <trkpt lat="39.506682603759" lon="2.533253590376">
        <ele>5.6</ele>
        <time>2019-10-27T11:39:35Z</time>
      </trkpt>
      <trkpt lat="39.50669760736" lon="2.533284435768">
        <ele>5.6</ele>
        <time>2019-10-27T11:39:36Z</time>
      </trkpt>
      <trkpt lat="39.506716298997" lon="2.533310084382">
        <ele>5.6</ele>
        <time>2019-10-27T11:39:37Z</time>
      </trkpt>
      <trkpt lat="39.506736080281" lon="2.533328608381">
        <ele>5.6</ele>
        <time>2019-10-27T11:39:38Z</time>
      </trkpt>
      <trkpt lat="39.506756699755" lon="2.533343444344">
        <ele>5.8</ele>
        <time>2019-10-27T11:39:39Z</time>
      </trkpt>
      <trkpt lat="39.506774972297" lon="2.533355262823">
        <ele>5.8</ele>
        <time>2019-10-27T11:39:40Z</time>
      </trkpt>
      <trkpt lat="39.506791400821" lon="2.533369092958">
        <ele>5.8</ele>
        <time>2019-10-27T11:39:41Z</time>
      </trkpt>
      <trkpt lat="39.506807242612" lon="2.533382923093">
        <ele>5.8</ele>
        <time>2019-10-27T11:39:42Z</time>
      </trkpt>
      <trkpt lat="39.506822413851" lon="2.533399519255">
        <ele>5.8</ele>
        <time>2019-10-27T11:39:43Z</time>
      </trkpt>
      <trkpt lat="39.506836914538" lon="2.533416283055">
        <ele>5.8</ele>
        <time>2019-10-27T11:39:44Z</time>
      </trkpt>
      <trkpt lat="39.506853091605" lon="2.533432460122">
        <ele>5.8</ele>
        <time>2019-10-27T11:39:45Z</time>
      </trkpt>
      <trkpt lat="39.506868346663" lon="2.533447296085">
        <ele>5.8</ele>
        <time>2019-10-27T11:39:46Z</time>
      </trkpt>
      <trkpt lat="39.506885529558" lon="2.533463054057">
        <ele>5.8</ele>
        <time>2019-10-27T11:39:47Z</time>
      </trkpt>
      <trkpt lat="39.506913106009" lon="2.533481829513">
        <ele>5.8</ele>
        <time>2019-10-27T11:39:48Z</time>
      </trkpt>
      <trkpt lat="39.506939676632" lon="2.533504041548">
        <ele>6</ele>
        <time>2019-10-27T11:39:49Z</time>
      </trkpt>
      <trkpt lat="39.506959457916" lon="2.533521224443">
        <ele>6</ele>
        <time>2019-10-27T11:39:50Z</time>
      </trkpt>
      <trkpt lat="39.5069792392" lon="2.533536144225">
        <ele>6</ele>
        <time>2019-10-27T11:39:51Z</time>
      </trkpt>
      <trkpt lat="39.506999607217" lon="2.533551064007">
        <ele>6</ele>
        <time>2019-10-27T11:39:52Z</time>
      </trkpt>
      <trkpt lat="39.507019388501" lon="2.533564391228">
        <ele>6</ele>
        <time>2019-10-27T11:39:53Z</time>
      </trkpt>
      <trkpt lat="39.507037493405" lon="2.53357595825">
        <ele>6</ele>
        <time>2019-10-27T11:39:54Z</time>
      </trkpt>
      <trkpt lat="39.507053335196" lon="2.533585765073">
        <ele>6</ele>
        <time>2019-10-27T11:39:55Z</time>
      </trkpt>
      <trkpt lat="39.507068003521" lon="2.533596410086">
        <ele>6.2</ele>
        <time>2019-10-27T11:39:56Z</time>
      </trkpt>
      <trkpt lat="39.507084683502" lon="2.533607138918">
        <ele>6.2</ele>
        <time>2019-10-27T11:39:57Z</time>
      </trkpt>
      <trkpt lat="39.507105219157" lon="2.533614766447">
        <ele>6.2</ele>
        <time>2019-10-27T11:39:58Z</time>
      </trkpt>
      <trkpt lat="39.507126257726" lon="2.533615520818">
        <ele>6.2</ele>
        <time>2019-10-27T11:39:59Z</time>
      </trkpt>
      <trkpt lat="39.507150816693" lon="2.533615101723">
        <ele>6.4</ele>
        <time>2019-10-27T11:40:00Z</time>
      </trkpt>
      <trkpt lat="39.507171855262" lon="2.533620047044">
        <ele>6.4</ele>
        <time>2019-10-27T11:40:01Z</time>
      </trkpt>
      <trkpt lat="39.507193648202" lon="2.533628345125">
        <ele>6.4</ele>
        <time>2019-10-27T11:40:02Z</time>
      </trkpt>
      <trkpt lat="39.507212758934" lon="2.533637816672">
        <ele>6.4</ele>
        <time>2019-10-27T11:40:03Z</time>
      </trkpt>
      <trkpt lat="39.507230780019" lon="2.53364888078">
        <ele>6.4</ele>
        <time>2019-10-27T11:40:04Z</time>
      </trkpt>
      <trkpt lat="39.507247208543" lon="2.533665728399">
        <ele>6.4</ele>
        <time>2019-10-27T11:40:05Z</time>
      </trkpt>
      <trkpt lat="39.507264642895" lon="2.533686515511">
        <ele>6.4</ele>
        <time>2019-10-27T11:40:06Z</time>
      </trkpt>
      <trkpt lat="39.507283083075" lon="2.533708979003">
        <ele>6.4</ele>
        <time>2019-10-27T11:40:07Z</time>
      </trkpt>
      <trkpt lat="39.507305798024" lon="2.533732448323">
        <ele>6.6</ele>
        <time>2019-10-27T11:40:08Z</time>
      </trkpt>
      <trkpt lat="39.507325327851" lon="2.533750385589">
        <ele>6.6</ele>
        <time>2019-10-27T11:40:09Z</time>
      </trkpt>
      <trkpt lat="39.50734385185" lon="2.533759186584">
        <ele>6.6</ele>
        <time>2019-10-27T11:40:10Z</time>
      </trkpt>
      <trkpt lat="39.507356676157" lon="2.533764299543">
        <ele>6.6</ele>
        <time>2019-10-27T11:40:11Z</time>
      </trkpt>
      <trkpt lat="39.507368746093" lon="2.533771759434">
        <ele>6.6</ele>
        <time>2019-10-27T11:40:12Z</time>
      </trkpt>
      <trkpt lat="39.507375954527" lon="2.533780644248">
        <ele>6.6</ele>
        <time>2019-10-27T11:40:13Z</time>
      </trkpt>
      <trkpt lat="39.507394813802" lon="2.533796737496">
        <ele>6.6</ele>
        <time>2019-10-27T11:40:14Z</time>
      </trkpt>
      <trkpt lat="39.507411242326" lon="2.533814507124">
        <ele>6.8</ele>
        <time>2019-10-27T11:40:15Z</time>
      </trkpt>
      <trkpt lat="39.507432783809" lon="2.533833366399">
        <ele>6.8</ele>
        <time>2019-10-27T11:40:16Z</time>
      </trkpt>
      <trkpt lat="39.507458264785" lon="2.533850968389">
        <ele>6.8</ele>
        <time>2019-10-27T11:40:17Z</time>
      </trkpt>
      <trkpt lat="39.507483159028" lon="2.533865720533">
        <ele>6.8</ele>
        <time>2019-10-27T11:40:18Z</time>
      </trkpt>
      <trkpt lat="39.50751148985" lon="2.533879047754">
        <ele>6.8</ele>
        <time>2019-10-27T11:40:19Z</time>
      </trkpt>
      <trkpt lat="39.50753831193" lon="2.533890028043">
        <ele>6.8</ele>
        <time>2019-10-27T11:40:20Z</time>
      </trkpt>
      <trkpt lat="39.507563289992" lon="2.533902684712">
        <ele>6.8</ele>
        <time>2019-10-27T11:40:21Z</time>
      </trkpt>
      <trkpt lat="39.507582736" lon="2.533916514847">
        <ele>6.8</ele>
        <time>2019-10-27T11:40:22Z</time>
      </trkpt>
      <trkpt lat="39.507598577791" lon="2.533929842068">
        <ele>6.8</ele>
        <time>2019-10-27T11:40:23Z</time>
      </trkpt>
      <trkpt lat="39.507613916668" lon="2.533941828185">
        <ele>6.8</ele>
        <time>2019-10-27T11:40:24Z</time>
      </trkpt>
      <trkpt lat="39.507625232233" lon="2.533956580329">
        <ele>6.8</ele>
        <time>2019-10-27T11:40:25Z</time>
      </trkpt>
      <trkpt lat="39.507638224178" lon="2.533969488455">
        <ele>6.8</ele>
        <time>2019-10-27T11:40:26Z</time>
      </trkpt>
      <trkpt lat="39.507649539743" lon="2.533983402409">
        <ele>7</ele>
        <time>2019-10-27T11:40:27Z</time>
      </trkpt>
      <trkpt lat="39.507664794801" lon="2.533999998571">
        <ele>7</ele>
        <time>2019-10-27T11:40:28Z</time>
      </trkpt>
      <trkpt lat="39.507683151162" lon="2.53401936076">
        <ele>7</ele>
        <time>2019-10-27T11:40:29Z</time>
      </trkpt>
      <trkpt lat="39.507700166419" lon="2.534032604162">
        <ele>7</ele>
        <time>2019-10-27T11:40:30Z</time>
      </trkpt>
      <trkpt lat="39.507736040951" lon="2.534046099021">
        <ele>7</ele>
        <time>2019-10-27T11:40:31Z</time>
      </trkpt>
      <trkpt lat="39.50775791771" lon="2.534059426242">
        <ele>7</ele>
        <time>2019-10-27T11:40:32Z</time>
      </trkpt>
      <trkpt lat="39.507778453365" lon="2.534073424015">
        <ele>7</ele>
        <time>2019-10-27T11:40:33Z</time>
      </trkpt>
      <trkpt lat="39.507798905201" lon="2.534084907218">
        <ele>7</ele>
        <time>2019-10-27T11:40:34Z</time>
      </trkpt>
      <trkpt lat="39.50781994377" lon="2.534096977154">
        <ele>7</ele>
        <time>2019-10-27T11:40:35Z</time>
      </trkpt>
      <trkpt lat="39.507838300131" lon="2.534113070402">
        <ele>7</ele>
        <time>2019-10-27T11:40:36Z</time>
      </trkpt>
      <trkpt lat="39.507854058103" lon="2.534133941333">
        <ele>7</ele>
        <time>2019-10-27T11:40:37Z</time>
      </trkpt>
      <trkpt lat="39.507871240998" lon="2.53415179478">
        <ele>7</ele>
        <time>2019-10-27T11:40:38Z</time>
      </trkpt>
      <trkpt lat="39.507890687006" lon="2.534172162797">
        <ele>7</ele>
        <time>2019-10-27T11:40:39Z</time>
      </trkpt>
      <trkpt lat="39.507908624272" lon="2.5341920279">
        <ele>7</ele>
        <time>2019-10-27T11:40:40Z</time>
      </trkpt>
      <trkpt lat="39.507925304253" lon="2.534213485564">
        <ele>7</ele>
        <time>2019-10-27T11:40:41Z</time>
      </trkpt>
      <trkpt lat="39.50794399589" lon="2.534230333183">
        <ele>7</ele>
        <time>2019-10-27T11:40:42Z</time>
      </trkpt>
      <trkpt lat="39.507961430242" lon="2.534241229653">
        <ele>7</ele>
        <time>2019-10-27T11:40:43Z</time>
      </trkpt>
      <trkpt lat="39.507974338368" lon="2.534262100584">
        <ele>7</ele>
        <time>2019-10-27T11:40:44Z</time>
      </trkpt>
      <trkpt lat="39.507989509607" lon="2.534272829416">
        <ele>7</ele>
        <time>2019-10-27T11:40:45Z</time>
      </trkpt>
      <trkpt lat="39.508003088285" lon="2.534285569904">
        <ele>7</ele>
        <time>2019-10-27T11:40:46Z</time>
      </trkpt>
      <trkpt lat="39.50801524204" lon="2.534299819134">
        <ele>7</ele>
        <time>2019-10-27T11:40:47Z</time>
      </trkpt>
      <trkpt lat="39.508023875397" lon="2.534323204635">
        <ele>7</ele>
        <time>2019-10-27T11:40:48Z</time>
      </trkpt>
      <trkpt lat="39.508032257297" lon="2.53434709305">
        <ele>7</ele>
        <time>2019-10-27T11:40:49Z</time>
      </trkpt>
      <trkpt lat="39.508046841803" lon="2.534365030316">
        <ele>6.8</ele>
        <time>2019-10-27T11:40:50Z</time>
      </trkpt>
      <trkpt lat="39.508065952535" lon="2.53437810608">
        <ele>6.8</ele>
        <time>2019-10-27T11:40:51Z</time>
      </trkpt>
      <trkpt lat="39.508079447394" lon="2.534394786061">
        <ele>6.8</ele>
        <time>2019-10-27T11:40:52Z</time>
      </trkpt>
      <trkpt lat="39.50810325199" lon="2.534403335599">
        <ele>6.8</ele>
        <time>2019-10-27T11:40:53Z</time>
      </trkpt>
      <trkpt lat="39.508129571156" lon="2.534413896793">
        <ele>6.6</ele>
        <time>2019-10-27T11:40:54Z</time>
      </trkpt>
      <trkpt lat="39.508152956657" lon="2.534433342801">
        <ele>6.4</ele>
        <time>2019-10-27T11:40:55Z</time>
      </trkpt>
      <trkpt lat="39.508178018538" lon="2.534445328918">
        <ele>6.4</ele>
        <time>2019-10-27T11:40:56Z</time>
      </trkpt>
      <trkpt lat="39.508203918609" lon="2.534458069406">
        <ele>6.4</ele>
        <time>2019-10-27T11:40:57Z</time>
      </trkpt>
      <trkpt lat="39.508226968834" lon="2.534467708591">
        <ele>6.2</ele>
        <time>2019-10-27T11:40:58Z</time>
      </trkpt>
      <trkpt lat="39.508255467294" lon="2.534483215106">
        <ele>6.2</ele>
        <time>2019-10-27T11:40:59Z</time>
      </trkpt>
      <trkpt lat="39.508283965754" lon="2.534506013874">
        <ele>6.2</ele>
        <time>2019-10-27T11:41:00Z</time>
      </trkpt>
      <trkpt lat="39.50831363768" lon="2.534529483194">
        <ele>6</ele>
        <time>2019-10-27T11:41:01Z</time>
      </trkpt>
      <trkpt lat="39.508361498329" lon="2.534551108496">
        <ele>6</ele>
        <time>2019-10-27T11:41:02Z</time>
      </trkpt>
      <trkpt lat="39.508402066725" lon="2.534572147065">
        <ele>6</ele>
        <time>2019-10-27T11:41:03Z</time>
      </trkpt>
      <trkpt lat="39.508433582669" lon="2.534600813163">
        <ele>6</ele>
        <time>2019-10-27T11:41:04Z</time>
      </trkpt>
      <trkpt lat="39.508454621238" lon="2.534628389614">
        <ele>5.8</ele>
        <time>2019-10-27T11:41:05Z</time>
      </trkpt>
      <trkpt lat="39.508477252368" lon="2.534661665757">
        <ele>5.8</ele>
        <time>2019-10-27T11:41:06Z</time>
      </trkpt>
      <trkpt lat="39.508490998684" lon="2.53469075095">
        <ele>5.8</ele>
        <time>2019-10-27T11:41:07Z</time>
      </trkpt>
      <trkpt lat="39.508509857959" lon="2.534720506695">
        <ele>5.8</ele>
        <time>2019-10-27T11:41:08Z</time>
      </trkpt>
      <trkpt lat="39.508527124673" lon="2.534739533608">
        <ele>5.6</ele>
        <time>2019-10-27T11:41:09Z</time>
      </trkpt>
      <trkpt lat="39.508545397215" lon="2.534753279924">
        <ele>5.6</ele>
        <time>2019-10-27T11:41:10Z</time>
      </trkpt>
      <trkpt lat="39.508566854879" lon="2.534761242729">
        <ele>5.6</ele>
        <time>2019-10-27T11:41:11Z</time>
      </trkpt>
      <trkpt lat="39.508587558172" lon="2.534767612973">
        <ele>5.6</ele>
        <time>2019-10-27T11:41:12Z</time>
      </trkpt>
      <trkpt lat="39.508609267293" lon="2.534776078692">
        <ele>5.6</ele>
        <time>2019-10-27T11:41:13Z</time>
      </trkpt>
      <trkpt lat="39.50862963531" lon="2.534788651542">
        <ele>5.6</ele>
        <time>2019-10-27T11:41:14Z</time>
      </trkpt>
      <trkpt lat="39.508654026639" lon="2.534798626003">
        <ele>5.6</ele>
        <time>2019-10-27T11:41:15Z</time>
      </trkpt>
      <trkpt lat="39.508676406312" lon="2.534814300156">
        <ele>5.6</ele>
        <time>2019-10-27T11:41:16Z</time>
      </trkpt>
      <trkpt lat="39.508701552012" lon="2.534839362037">
        <ele>5.6</ele>
        <time>2019-10-27T11:41:17Z</time>
      </trkpt>
      <trkpt lat="39.508730637205" lon="2.534867357583">
        <ele>5.4</ele>
        <time>2019-10-27T11:41:18Z</time>
      </trkpt>
      <trkpt lat="39.508758129837" lon="2.534890910722">
        <ele>5.4</ele>
        <time>2019-10-27T11:41:19Z</time>
      </trkpt>
      <trkpt lat="39.508780258053" lon="2.534915637327">
        <ele>5.4</ele>
        <time>2019-10-27T11:41:20Z</time>
      </trkpt>
      <trkpt lat="39.508801380441" lon="2.534938519914">
        <ele>5.4</ele>
        <time>2019-10-27T11:41:21Z</time>
      </trkpt>
      <trkpt lat="39.508825604132" lon="2.534959642302">
        <ele>5.4</ele>
        <time>2019-10-27T11:41:22Z</time>
      </trkpt>
      <trkpt lat="39.508849911642" lon="2.534978753034">
        <ele>5.4</ele>
        <time>2019-10-27T11:41:23Z</time>
      </trkpt>
      <trkpt lat="39.508873800057" lon="2.534998785775">
        <ele>5.4</ele>
        <time>2019-10-27T11:41:24Z</time>
      </trkpt>
      <trkpt lat="39.508896766463" lon="2.535015465756">
        <ele>5.2</ele>
        <time>2019-10-27T11:41:25Z</time>
      </trkpt>
      <trkpt lat="39.508924007638" lon="2.535033151565">
        <ele>5.2</ele>
        <time>2019-10-27T11:41:26Z</time>
      </trkpt>
      <trkpt lat="39.508947393139" lon="2.535054776867">
        <ele>5.2</ele>
        <time>2019-10-27T11:41:27Z</time>
      </trkpt>
      <trkpt lat="39.508967006785" lon="2.535079000558">
        <ele>5.2</ele>
        <time>2019-10-27T11:41:28Z</time>
      </trkpt>
      <trkpt lat="39.508987039526" lon="2.535102134602">
        <ele>5.2</ele>
        <time>2019-10-27T11:41:29Z</time>
      </trkpt>
      <trkpt lat="39.50900346805" lon="2.535122837895">
        <ele>5.2</ele>
        <time>2019-10-27T11:41:30Z</time>
      </trkpt>
      <trkpt lat="39.509019226022" lon="2.53514085898">
        <ele>5.2</ele>
        <time>2019-10-27T11:41:31Z</time>
      </trkpt>
      <trkpt lat="39.509031295958" lon="2.535152426002">
        <ele>5.2</ele>
        <time>2019-10-27T11:41:32Z</time>
      </trkpt>
      <trkpt lat="39.509044371722" lon="2.53516013735">
        <ele>5.2</ele>
        <time>2019-10-27T11:41:33Z</time>
      </trkpt>
      <trkpt lat="39.509057698943" lon="2.535165585585">
        <ele>5.2</ele>
        <time>2019-10-27T11:41:34Z</time>
      </trkpt>
      <trkpt lat="39.509071612897" lon="2.535170698544">
        <ele>5.2</ele>
        <time>2019-10-27T11:41:35Z</time>
      </trkpt>
      <trkpt lat="39.509083431376" lon="2.535185702145">
        <ele>5.2</ele>
        <time>2019-10-27T11:41:36Z</time>
      </trkpt>
      <trkpt lat="39.50909650714" lon="2.535211937492">
        <ele>5</ele>
        <time>2019-10-27T11:41:37Z</time>
      </trkpt>
      <trkpt lat="39.509113187121" lon="2.535225767627">
        <ele>5</ele>
        <time>2019-10-27T11:41:38Z</time>
      </trkpt>
      <trkpt lat="39.509136153527" lon="2.535231718776">
        <ele>5</ele>
        <time>2019-10-27T11:41:39Z</time>
      </trkpt>
      <trkpt lat="39.509159874304" lon="2.535231551138">
        <ele>5</ele>
        <time>2019-10-27T11:41:40Z</time>
      </trkpt>
      <trkpt lat="39.509184600909" lon="2.535229455663">
        <ele>5</ele>
        <time>2019-10-27T11:41:41Z</time>
      </trkpt>
      <trkpt lat="39.509209914247" lon="2.535226941093">
        <ele>5</ele>
        <time>2019-10-27T11:41:42Z</time>
      </trkpt>
      <trkpt lat="39.509239250897" lon="2.535222079591">
        <ele>5</ele>
        <time>2019-10-27T11:41:43Z</time>
      </trkpt>
      <trkpt lat="39.509267414081" lon="2.535218223917">
        <ele>5</ele>
        <time>2019-10-27T11:41:44Z</time>
      </trkpt>
      <trkpt lat="39.509293146514" lon="2.535218307736">
        <ele>5</ele>
        <time>2019-10-27T11:41:45Z</time>
      </trkpt>
      <trkpt lat="39.509319800956" lon="2.53521964884">
        <ele>5</ele>
        <time>2019-10-27T11:41:46Z</time>
      </trkpt>
      <trkpt lat="39.509342012991" lon="2.535220822306">
        <ele>5.2</ele>
        <time>2019-10-27T11:41:47Z</time>
      </trkpt>
      <trkpt lat="39.509362883922" lon="2.535225683808">
        <ele>5</ele>
        <time>2019-10-27T11:41:48Z</time>
      </trkpt>
      <trkpt lat="39.50938149174" lon="2.535228366016">
        <ele>5</ele>
        <time>2019-10-27T11:41:49Z</time>
      </trkpt>
      <trkpt lat="39.509399345187" lon="2.535230126215">
        <ele>5</ele>
        <time>2019-10-27T11:41:50Z</time>
      </trkpt>
      <trkpt lat="39.509417701548" lon="2.535234317165">
        <ele>5</ele>
        <time>2019-10-27T11:41:51Z</time>
      </trkpt>
      <trkpt lat="39.509443014886" lon="2.535235490631">
        <ele>5</ele>
        <time>2019-10-27T11:41:52Z</time>
      </trkpt>
      <trkpt lat="39.50947117807" lon="2.535231970233">
        <ele>5</ele>
        <time>2019-10-27T11:41:53Z</time>
      </trkpt>
      <trkpt lat="39.509493222467" lon="2.535225767627">
        <ele>5</ele>
        <time>2019-10-27T11:41:54Z</time>
      </trkpt>
      <trkpt lat="39.509516943244" lon="2.535221073763">
        <ele>5.2</ele>
        <time>2019-10-27T11:41:55Z</time>
      </trkpt>
      <trkpt lat="39.509541250754" lon="2.53522216341">
        <ele>5.2</ele>
        <time>2019-10-27T11:41:56Z</time>
      </trkpt>
      <trkpt lat="39.509562792237" lon="2.535219397383">
        <ele>5.2</ele>
        <time>2019-10-27T11:41:57Z</time>
      </trkpt>
      <trkpt lat="39.50958433372" lon="2.535214787338">
        <ele>5.2</ele>
        <time>2019-10-27T11:41:58Z</time>
      </trkpt>
      <trkpt lat="39.509606210479" lon="2.535205315791">
        <ele>5.2</ele>
        <time>2019-10-27T11:41:59Z</time>
      </trkpt>
      <trkpt lat="39.5096279196" lon="2.53520204685">
        <ele>5.4</ele>
        <time>2019-10-27T11:42:00Z</time>
      </trkpt>
      <trkpt lat="39.5096530653" lon="2.535197352986">
        <ele>5.4</ele>
        <time>2019-10-27T11:42:01Z</time>
      </trkpt>
      <trkpt lat="39.509677205172" lon="2.535193329674">
        <ele>5.4</ele>
        <time>2019-10-27T11:42:02Z</time>
      </trkpt>
      <trkpt lat="39.509697237913" lon="2.535189725457">
        <ele>5.4</ele>
        <time>2019-10-27T11:42:03Z</time>
      </trkpt>
      <trkpt lat="39.509717689749" lon="2.535187462344">
        <ele>5.4</ele>
        <time>2019-10-27T11:42:04Z</time>
      </trkpt>
      <trkpt lat="39.509738476861" lon="2.535184193403">
        <ele>5.4</ele>
        <time>2019-10-27T11:42:05Z</time>
      </trkpt>
      <trkpt lat="39.509763622561" lon="2.535176146779">
        <ele>5.6</ele>
        <time>2019-10-27T11:42:06Z</time>
      </trkpt>
      <trkpt lat="39.50979136665" lon="2.535166926689">
        <ele>5.6</ele>
        <time>2019-10-27T11:42:07Z</time>
      </trkpt>
      <trkpt lat="39.509818691644" lon="2.535155443486">
        <ele>5.6</ele>
        <time>2019-10-27T11:42:08Z</time>
      </trkpt>
      <trkpt lat="39.50984165805" lon="2.535149324699">
        <ele>5.6</ele>
        <time>2019-10-27T11:42:09Z</time>
      </trkpt>
      <trkpt lat="39.509862528981" lon="2.535139266419">
        <ele>5.6</ele>
        <time>2019-10-27T11:42:10Z</time>
      </trkpt>
      <trkpt lat="39.509889602518" lon="2.535135746021">
        <ele>5.6</ele>
        <time>2019-10-27T11:42:11Z</time>
      </trkpt>
      <trkpt lat="39.509911060182" lon="2.535133985822">
        <ele>5.6</ele>
        <time>2019-10-27T11:42:12Z</time>
      </trkpt>
      <trkpt lat="39.50992799162" lon="2.535128956682">
        <ele>5.6</ele>
        <time>2019-10-27T11:42:13Z</time>
      </trkpt>
      <trkpt lat="39.509944671601" lon="2.535120155687">
        <ele>5.8</ele>
        <time>2019-10-27T11:42:14Z</time>
      </trkpt>
      <trkpt lat="39.509963447057" lon="2.535111019416">
        <ele>5.8</ele>
        <time>2019-10-27T11:42:15Z</time>
      </trkpt>
      <trkpt lat="39.509984904721" lon="2.535100290584">
        <ele>5.8</ele>
        <time>2019-10-27T11:42:16Z</time>
      </trkpt>
      <trkpt lat="39.510016420665" lon="2.535088807381">
        <ele>5.8</ele>
        <time>2019-10-27T11:42:17Z</time>
      </trkpt>
      <trkpt lat="39.510045757315" lon="2.535080928395">
        <ele>5.8</ele>
        <time>2019-10-27T11:42:18Z</time>
      </trkpt>
      <trkpt lat="39.510074171956" lon="2.535070618658">
        <ele>5.8</ele>
        <time>2019-10-27T11:42:19Z</time>
      </trkpt>
      <trkpt lat="39.510101580769" lon="2.535057626713">
        <ele>5.8</ele>
        <time>2019-10-27T11:42:20Z</time>
      </trkpt>
      <trkpt lat="39.51013502455" lon="2.535046311148">
        <ele>5.8</ele>
        <time>2019-10-27T11:42:21Z</time>
      </trkpt>
      <trkpt lat="39.510161092259" lon="2.535036588144">
        <ele>6</ele>
        <time>2019-10-27T11:42:22Z</time>
      </trkpt>
      <trkpt lat="39.510186908511" lon="2.535029966443">
        <ele>6</ele>
        <time>2019-10-27T11:42:23Z</time>
      </trkpt>
      <trkpt lat="39.510214820238" lon="2.535027619511">
        <ele>6</ele>
        <time>2019-10-27T11:42:24Z</time>
      </trkpt>
      <trkpt lat="39.510243234879" lon="2.535021836">
        <ele>6</ele>
        <time>2019-10-27T11:42:25Z</time>
      </trkpt>
      <trkpt lat="39.510265363095" lon="2.535016890679">
        <ele>6</ele>
        <time>2019-10-27T11:42:26Z</time>
      </trkpt>
      <trkpt lat="39.510285563474" lon="2.53501261591">
        <ele>6</ele>
        <time>2019-10-27T11:42:27Z</time>
      </trkpt>
      <trkpt lat="39.510308613699" lon="2.535014376109">
        <ele>6.2</ele>
        <time>2019-10-27T11:42:28Z</time>
      </trkpt>
      <trkpt lat="39.510332669752" lon="2.535011023349">
        <ele>6.2</ele>
        <time>2019-10-27T11:42:29Z</time>
      </trkpt>
      <trkpt lat="39.51036049766" lon="2.535007083856">
        <ele>6.2</ele>
        <time>2019-10-27T11:42:30Z</time>
      </trkpt>
      <trkpt lat="39.510385475722" lon="2.535003814915">
        <ele>6.2</ele>
        <time>2019-10-27T11:42:31Z</time>
      </trkpt>
      <trkpt lat="39.51041330363" lon="2.534997360852">
        <ele>6.2</ele>
        <time>2019-10-27T11:42:32Z</time>
      </trkpt>
      <trkpt lat="39.510437946416" lon="2.534991996436">
        <ele>6.2</ele>
        <time>2019-10-27T11:42:33Z</time>
      </trkpt>
      <trkpt lat="39.510460158451" lon="2.534987051115">
        <ele>6.2</ele>
        <time>2019-10-27T11:42:34Z</time>
      </trkpt>
      <trkpt lat="39.510478179536" lon="2.534982943984">
        <ele>6.2</ele>
        <time>2019-10-27T11:42:35Z</time>
      </trkpt>
      <trkpt lat="39.510494356603" lon="2.534980261776">
        <ele>6.2</ele>
        <time>2019-10-27T11:42:36Z</time>
      </trkpt>
      <trkpt lat="39.510513802611" lon="2.534974729722">
        <ele>6.4</ele>
        <time>2019-10-27T11:42:37Z</time>
      </trkpt>
      <trkpt lat="39.510535260275" lon="2.534967772745">
        <ele>6.4</ele>
        <time>2019-10-27T11:42:38Z</time>
      </trkpt>
      <trkpt lat="39.510564010192" lon="2.534956708637">
        <ele>6.6</ele>
        <time>2019-10-27T11:42:39Z</time>
      </trkpt>
      <trkpt lat="39.510587060417" lon="2.534947572366">
        <ele>6.6</ele>
        <time>2019-10-27T11:42:40Z</time>
      </trkpt>
      <trkpt lat="39.51061279285" lon="2.534941202122">
        <ele>6.6</ele>
        <time>2019-10-27T11:42:41Z</time>
      </trkpt>
      <trkpt lat="39.510636513627" lon="2.534935250973">
        <ele>6.6</ele>
        <time>2019-10-27T11:42:42Z</time>
      </trkpt>
      <trkpt lat="39.510656043454" lon="2.534931060023">
        <ele>6.6</ele>
        <time>2019-10-27T11:42:43Z</time>
      </trkpt>
      <trkpt lat="39.510675321824" lon="2.534925025055">
        <ele>6.8</ele>
        <time>2019-10-27T11:42:44Z</time>
      </trkpt>
      <trkpt lat="39.510690995977" lon="2.534916894612">
        <ele>6.8</ele>
        <time>2019-10-27T11:42:45Z</time>
      </trkpt>
      <trkpt lat="39.510708849424" lon="2.534911278739">
        <ele>6.8</ele>
        <time>2019-10-27T11:42:46Z</time>
      </trkpt>
      <trkpt lat="39.510728882165" lon="2.534901555735">
        <ele>6.8</ele>
        <time>2019-10-27T11:42:47Z</time>
      </trkpt>
      <trkpt lat="39.510749166363" lon="2.534895353129">
        <ele>7</ele>
        <time>2019-10-27T11:42:48Z</time>
      </trkpt>
      <trkpt lat="39.510766516896" lon="2.534891665093">
        <ele>7</ele>
        <time>2019-10-27T11:42:49Z</time>
      </trkpt>
      <trkpt lat="39.510786381999" lon="2.534877751139">
        <ele>7</ele>
        <time>2019-10-27T11:42:50Z</time>
      </trkpt>
      <trkpt lat="39.510803229618" lon="2.534869704515">
        <ele>7</ele>
        <time>2019-10-27T11:42:51Z</time>
      </trkpt>
      <trkpt lat="39.510823429997" lon="2.534868614868">
        <ele>7</ele>
        <time>2019-10-27T11:42:52Z</time>
      </trkpt>
      <trkpt lat="39.510842708367" lon="2.534868028135">
        <ele>7.2</ele>
        <time>2019-10-27T11:42:53Z</time>
      </trkpt>
      <trkpt lat="39.510861986737" lon="2.534868698687">
        <ele>7.2</ele>
        <time>2019-10-27T11:42:54Z</time>
      </trkpt>
      <trkpt lat="39.510884450229" lon="2.534865681203">
        <ele>7.2</ele>
        <time>2019-10-27T11:42:55Z</time>
      </trkpt>
      <trkpt lat="39.510909595929" lon="2.53487515275">
        <ele>7.2</ele>
        <time>2019-10-27T11:42:56Z</time>
      </trkpt>
      <trkpt lat="39.510929377213" lon="2.534884121383">
        <ele>7.2</ele>
        <time>2019-10-27T11:42:57Z</time>
      </trkpt>
      <trkpt lat="39.51094471609" lon="2.534893509111">
        <ele>7.2</ele>
        <time>2019-10-27T11:42:58Z</time>
      </trkpt>
      <trkpt lat="39.510957791854" lon="2.53489946026">
        <ele>7.2</ele>
        <time>2019-10-27T11:42:59Z</time>
      </trkpt>
      <trkpt lat="39.510973046912" lon="2.534905076133">
        <ele>7.4</ele>
        <time>2019-10-27T11:43:00Z</time>
      </trkpt>
      <trkpt lat="39.510985871219" lon="2.534912787481">
        <ele>7.4</ele>
        <time>2019-10-27T11:43:01Z</time>
      </trkpt>
      <trkpt lat="39.511001545372" lon="2.534924103046">
        <ele>7.4</ele>
        <time>2019-10-27T11:43:02Z</time>
      </trkpt>
      <trkpt lat="39.511016548973" lon="2.534934748059">
        <ele>7.4</ele>
        <time>2019-10-27T11:43:03Z</time>
      </trkpt>
      <trkpt lat="39.511033648049" lon="2.534947572366">
        <ele>7.4</ele>
        <time>2019-10-27T11:43:04Z</time>
      </trkpt>
      <trkpt lat="39.511054435161" lon="2.534967437469">
        <ele>7.4</ele>
        <time>2019-10-27T11:43:05Z</time>
      </trkpt>
      <trkpt lat="39.511073378255" lon="2.534985374735">
        <ele>7.6</ele>
        <time>2019-10-27T11:43:06Z</time>
      </trkpt>
      <trkpt lat="39.511090812607" lon="2.534999456327">
        <ele>7.6</ele>
        <time>2019-10-27T11:43:07Z</time>
      </trkpt>
      <trkpt lat="39.511109252787" lon="2.535011861539">
        <ele>7.6</ele>
        <time>2019-10-27T11:43:08Z</time>
      </trkpt>
      <trkpt lat="39.511127609148" lon="2.535025440217">
        <ele>7.6</ele>
        <time>2019-10-27T11:43:09Z</time>
      </trkpt>
      <trkpt lat="39.511147641889" lon="2.53504111437">
        <ele>7.8</ele>
        <time>2019-10-27T11:43:10Z</time>
      </trkpt>
      <trkpt lat="39.51116767463" lon="2.535057794351">
        <ele>7.8</ele>
        <time>2019-10-27T11:43:11Z</time>
      </trkpt>
      <trkpt lat="39.511189299932" lon="2.535072546495">
        <ele>7.8</ele>
        <time>2019-10-27T11:43:12Z</time>
      </trkpt>
      <trkpt lat="39.51120790775" lon="2.53508721482">
        <ele>7.8</ele>
        <time>2019-10-27T11:43:13Z</time>
      </trkpt>
      <trkpt lat="39.511227437577" lon="2.535103810982">
        <ele>8</ele>
        <time>2019-10-27T11:43:14Z</time>
      </trkpt>
      <trkpt lat="39.511249314336" lon="2.535121245334">
        <ele>8</ele>
        <time>2019-10-27T11:43:15Z</time>
      </trkpt>
      <trkpt lat="39.511267503059" lon="2.535135913659">
        <ele>8</ele>
        <time>2019-10-27T11:43:16Z</time>
      </trkpt>
      <trkpt lat="39.511280997918" lon="2.535148067414">
        <ele>8</ele>
        <time>2019-10-27T11:43:17Z</time>
      </trkpt>
      <trkpt lat="39.511292648759" lon="2.535161981368">
        <ele>8</ele>
        <time>2019-10-27T11:43:18Z</time>
      </trkpt>
      <trkpt lat="39.51130932874" lon="2.535180421548">
        <ele>8.2</ele>
        <time>2019-10-27T11:43:19Z</time>
      </trkpt>
      <trkpt lat="39.51132525435" lon="2.535203387954">
        <ele>8.2</ele>
        <time>2019-10-27T11:43:20Z</time>
      </trkpt>
      <trkpt lat="39.511341096141" lon="2.53522970712">
        <ele>8.2</ele>
        <time>2019-10-27T11:43:21Z</time>
      </trkpt>
      <trkpt lat="39.511358195217" lon="2.535255774829">
        <ele>8.4</ele>
        <time>2019-10-27T11:43:22Z</time>
      </trkpt>
      <trkpt lat="39.511378814691" lon="2.535279747063">
        <ele>8.4</ele>
        <time>2019-10-27T11:43:23Z</time>
      </trkpt>
      <trkpt lat="39.511397506328" lon="2.535304138392">
        <ele>8.4</ele>
        <time>2019-10-27T11:43:24Z</time>
      </trkpt>
      <trkpt lat="39.511413515757" lon="2.535327356255">
        <ele>8.4</ele>
        <time>2019-10-27T11:43:25Z</time>
      </trkpt>
      <trkpt lat="39.511424831322" lon="2.535348646281">
        <ele>8.4</ele>
        <time>2019-10-27T11:43:26Z</time>
      </trkpt>
      <trkpt lat="39.511437823267" lon="2.535371947963">
        <ele>8.4</ele>
        <time>2019-10-27T11:43:27Z</time>
      </trkpt>
      <trkpt lat="39.511453078325" lon="2.535396674568">
        <ele>8.6</ele>
        <time>2019-10-27T11:43:28Z</time>
      </trkpt>
      <trkpt lat="39.511470428858" lon="2.535426430313">
        <ele>8.6</ele>
        <time>2019-10-27T11:43:29Z</time>
      </trkpt>
      <trkpt lat="39.511488449943" lon="2.535456940429">
        <ele>8.6</ele>
        <time>2019-10-27T11:43:30Z</time>
      </trkpt>
      <trkpt lat="39.511506890123" lon="2.535488791649">
        <ele>8.6</ele>
        <time>2019-10-27T11:43:31Z</time>
      </trkpt>
      <trkpt lat="39.511524240656" lon="2.535515613729">
        <ele>8.6</ele>
        <time>2019-10-27T11:43:32Z</time>
      </trkpt>
      <trkpt lat="39.511540836818" lon="2.535541932895">
        <ele>8.8</ele>
        <time>2019-10-27T11:43:33Z</time>
      </trkpt>
      <trkpt lat="39.511561875387" lon="2.535577975065">
        <ele>8.8</ele>
        <time>2019-10-27T11:43:34Z</time>
      </trkpt>
      <trkpt lat="39.511583500689" lon="2.535619297832">
        <ele>8.8</ele>
        <time>2019-10-27T11:43:35Z</time>
      </trkpt>
      <trkpt lat="39.511598755747" lon="2.535653076889">
        <ele>8.8</ele>
        <time>2019-10-27T11:43:36Z</time>
      </trkpt>
      <trkpt lat="39.511609484579" lon="2.535683503186">
        <ele>8.8</ele>
        <time>2019-10-27T11:43:37Z</time>
      </trkpt>
      <trkpt lat="39.511619039945" lon="2.535706972506">
        <ele>9</ele>
        <time>2019-10-27T11:43:38Z</time>
      </trkpt>
      <trkpt lat="39.511628260035" lon="2.535725161229">
        <ele>9.2</ele>
        <time>2019-10-27T11:43:39Z</time>
      </trkpt>
      <trkpt lat="39.511636893392" lon="2.5357426794">
        <ele>9.2</ele>
        <time>2019-10-27T11:43:40Z</time>
      </trkpt>
      <trkpt lat="39.51165214845" lon="2.535771010222">
        <ele>9.4</ele>
        <time>2019-10-27T11:43:41Z</time>
      </trkpt>
      <trkpt lat="39.511664386024" lon="2.535800263053">
        <ele>9.4</ele>
        <time>2019-10-27T11:43:42Z</time>
      </trkpt>
      <trkpt lat="39.511677545607" lon="2.535827839504">
        <ele>9.4</ele>
        <time>2019-10-27T11:43:43Z</time>
      </trkpt>
      <trkpt lat="39.511687436249" lon="2.535852817566">
        <ele>9.4</ele>
        <time>2019-10-27T11:43:44Z</time>
      </trkpt>
      <trkpt lat="39.511696740158" lon="2.535876957438">
        <ele>9.4</ele>
        <time>2019-10-27T11:43:45Z</time>
      </trkpt>
      <trkpt lat="39.511706463162" lon="2.535901684043">
        <ele>9.6</ele>
        <time>2019-10-27T11:43:46Z</time>
      </trkpt>
      <trkpt lat="39.511718114003" lon="2.535934038177">
        <ele>9.6</ele>
        <time>2019-10-27T11:43:47Z</time>
      </trkpt>
      <trkpt lat="39.51172674736" lon="2.53596396156">
        <ele>9.6</ele>
        <time>2019-10-27T11:43:48Z</time>
      </trkpt>
      <trkpt lat="39.511737392373" lon="2.535993633486">
        <ele>9.8</ele>
        <time>2019-10-27T11:43:49Z</time>
      </trkpt>
      <trkpt lat="39.511750049042" lon="2.536023724507">
        <ele>9.8</ele>
        <time>2019-10-27T11:43:50Z</time>
      </trkpt>
      <trkpt lat="39.51176614229" lon="2.536055491908">
        <ele>9.8</ele>
        <time>2019-10-27T11:43:51Z</time>
      </trkpt>
      <trkpt lat="39.511780978253" lon="2.536088265137">
        <ele>9.8</ele>
        <time>2019-10-27T11:43:52Z</time>
      </trkpt>
      <trkpt lat="39.511795059845" lon="2.536119781081">
        <ele>9.8</ele>
        <time>2019-10-27T11:43:53Z</time>
      </trkpt>
      <trkpt lat="39.511810063446" lon="2.536150458835">
        <ele>10</ele>
        <time>2019-10-27T11:43:54Z</time>
      </trkpt>
      <trkpt lat="39.511825067047" lon="2.536178119105">
        <ele>10</ele>
        <time>2019-10-27T11:43:55Z</time>
      </trkpt>
      <trkpt lat="39.511842669037" lon="2.536207120479">
        <ele>10.2</ele>
        <time>2019-10-27T11:43:56Z</time>
      </trkpt>
      <trkpt lat="39.511858846104" lon="2.536238552604">
        <ele>10.2</ele>
        <time>2019-10-27T11:43:57Z</time>
      </trkpt>
      <trkpt lat="39.511876112818" lon="2.536270152367">
        <ele>10.2</ele>
        <time>2019-10-27T11:43:58Z</time>
      </trkpt>
      <trkpt lat="39.511894888274" lon="2.536300578664">
        <ele>10.2</ele>
        <time>2019-10-27T11:43:59Z</time>
      </trkpt>
      <trkpt lat="39.511911735893" lon="2.536332513703">
        <ele>10.2</ele>
        <time>2019-10-27T11:44:00Z</time>
      </trkpt>
      <trkpt lat="39.511929170245" lon="2.536366879493">
        <ele>10.2</ele>
        <time>2019-10-27T11:44:01Z</time>
      </trkpt>
      <trkpt lat="39.511947358968" lon="2.536400993826">
        <ele>10.2</ele>
        <time>2019-10-27T11:44:02Z</time>
      </trkpt>
      <trkpt lat="39.511967978442" lon="2.53643586253">
        <ele>10.2</ele>
        <time>2019-10-27T11:44:03Z</time>
      </trkpt>
      <trkpt lat="39.511986670079" lon="2.53646939013">
        <ele>10.2</ele>
        <time>2019-10-27T11:44:04Z</time>
      </trkpt>
      <trkpt lat="39.512003014784" lon="2.536504175015">
        <ele>10.2</ele>
        <time>2019-10-27T11:44:05Z</time>
      </trkpt>
      <trkpt lat="39.512020365317" lon="2.536537199701">
        <ele>10.2</ele>
        <time>2019-10-27T11:44:06Z</time>
      </trkpt>
      <trkpt lat="39.512038889316" lon="2.536567793636">
        <ele>10.2</ele>
        <time>2019-10-27T11:44:07Z</time>
      </trkpt>
      <trkpt lat="39.51205531784" lon="2.53659930958">
        <ele>10.2</ele>
        <time>2019-10-27T11:44:08Z</time>
      </trkpt>
      <trkpt lat="39.512070489079" lon="2.536629568239">
        <ele>10.2</ele>
        <time>2019-10-27T11:44:09Z</time>
      </trkpt>
      <trkpt lat="39.512084319214" lon="2.536657312328">
        <ele>10.2</ele>
        <time>2019-10-27T11:44:10Z</time>
      </trkpt>
      <trkpt lat="39.512096221512" lon="2.536684469684">
        <ele>10</ele>
        <time>2019-10-27T11:44:11Z</time>
      </trkpt>
      <trkpt lat="39.512109045819" lon="2.536709866841">
        <ele>10</ele>
        <time>2019-10-27T11:44:12Z</time>
      </trkpt>
      <trkpt lat="39.51212237304" lon="2.536733084704">
        <ele>10</ele>
        <time>2019-10-27T11:44:13Z</time>
      </trkpt>
      <trkpt lat="39.512136789908" lon="2.53675521292">
        <ele>9.8</ele>
        <time>2019-10-27T11:44:14Z</time>
      </trkpt>
      <trkpt lat="39.512151290595" lon="2.53677700586">
        <ele>9.8</ele>
        <time>2019-10-27T11:44:15Z</time>
      </trkpt>
      <trkpt lat="39.512165875101" lon="2.5367987988">
        <ele>9.6</ele>
        <time>2019-10-27T11:44:16Z</time>
      </trkpt>
      <trkpt lat="39.512179202322" lon="2.536821765206">
        <ele>9.6</ele>
        <time>2019-10-27T11:44:17Z</time>
      </trkpt>
      <trkpt lat="39.512190685525" lon="2.536844731612">
        <ele>9.4</ele>
        <time>2019-10-27T11:44:18Z</time>
      </trkpt>
      <trkpt lat="39.512202084909" lon="2.536867614199">
        <ele>9.4</ele>
        <time>2019-10-27T11:44:19Z</time>
      </trkpt>
      <trkpt lat="39.512213149017" lon="2.536889742415">
        <ele>9.2</ele>
        <time>2019-10-27T11:44:20Z</time>
      </trkpt>
      <trkpt lat="39.512223374935" lon="2.536909942794">
        <ele>9.2</ele>
        <time>2019-10-27T11:44:21Z</time>
      </trkpt>
      <trkpt lat="39.512233181758" lon="2.536927293327">
        <ele>9</ele>
        <time>2019-10-27T11:44:22Z</time>
      </trkpt>
      <trkpt lat="39.512241982753" lon="2.536942548385">
        <ele>9</ele>
        <time>2019-10-27T11:44:23Z</time>
      </trkpt>
      <trkpt lat="39.512249861739" lon="2.536959396004">
        <ele>9</ele>
        <time>2019-10-27T11:44:24Z</time>
      </trkpt>
      <trkpt lat="39.512255393793" lon="2.536979344926">
        <ele>8.8</ele>
        <time>2019-10-27T11:44:25Z</time>
      </trkpt>
      <trkpt lat="39.512261009666" lon="2.537001221685">
        <ele>8.8</ele>
        <time>2019-10-27T11:44:26Z</time>
      </trkpt>
      <trkpt lat="39.512271319403" lon="2.537023601358">
        <ele>8.6</ele>
        <time>2019-10-27T11:44:27Z</time>
      </trkpt>
      <trkpt lat="39.512280539493" lon="2.53703935933">
        <ele>8.6</ele>
        <time>2019-10-27T11:44:28Z</time>
      </trkpt>
      <trkpt lat="39.512286155366" lon="2.537048160325">
        <ele>8.6</ele>
        <time>2019-10-27T11:44:29Z</time>
      </trkpt>
      <trkpt lat="39.512287915565" lon="2.537051345447">
        <ele>8.6</ele>
        <time>2019-10-27T11:44:30Z</time>
      </trkpt>
      <trkpt lat="39.512291938877" lon="2.537054949664">
        <ele>8.6</ele>
        <time>2019-10-27T11:44:31Z</time>
      </trkpt>
      <trkpt lat="39.51236712452" lon="2.53706031408">
        <ele>7.8</ele>
        <time>2019-10-27T11:45:32Z</time>
      </trkpt>
      <trkpt lat="39.512391934944" lon="2.53705109399">
        <ele>7.8</ele>
        <time>2019-10-27T11:45:33Z</time>
      </trkpt>
      <trkpt lat="39.512415488083" lon="2.537038437321">
        <ele>7.6</ele>
        <time>2019-10-27T11:45:34Z</time>
      </trkpt>
      <trkpt lat="39.512439125041" lon="2.537025193919">
        <ele>7.6</ele>
        <time>2019-10-27T11:45:35Z</time>
      </trkpt>
      <trkpt lat="39.512463348732" lon="2.537009771223">
        <ele>7.6</ele>
        <time>2019-10-27T11:45:36Z</time>
      </trkpt>
      <trkpt lat="39.512490003174" lon="2.536992001595">
        <ele>7.6</ele>
        <time>2019-10-27T11:45:37Z</time>
      </trkpt>
      <trkpt lat="39.512517914901" lon="2.536972471768">
        <ele>7.6</ele>
        <time>2019-10-27T11:45:38Z</time>
      </trkpt>
      <trkpt lat="39.512546413361" lon="2.536954785959">
        <ele>7.6</ele>
        <time>2019-10-27T11:45:39Z</time>
      </trkpt>
      <trkpt lat="39.512572983984" lon="2.536937603064">
        <ele>7.6</ele>
        <time>2019-10-27T11:45:40Z</time>
      </trkpt>
      <trkpt lat="39.512600644254" lon="2.536921761273">
        <ele>7.6</ele>
        <time>2019-10-27T11:45:41Z</time>
      </trkpt>
      <trkpt lat="39.512628723619" lon="2.536903237274">
        <ele>7.6</ele>
        <time>2019-10-27T11:45:42Z</time>
      </trkpt>
      <trkpt lat="39.512659988106" lon="2.536883707447">
        <ele>7.6</ele>
        <time>2019-10-27T11:45:43Z</time>
      </trkpt>
      <trkpt lat="39.512697455199" lon="2.536859735213">
        <ele>7.6</ele>
        <time>2019-10-27T11:45:44Z</time>
      </trkpt>
      <trkpt lat="39.512735760482" lon="2.536836768807">
        <ele>7.6</ele>
        <time>2019-10-27T11:45:45Z</time>
      </trkpt>
      <trkpt lat="39.512782950579" lon="2.536804498492">
        <ele>7.8</ele>
        <time>2019-10-27T11:45:46Z</time>
      </trkpt>
      <trkpt lat="39.512825698269" lon="2.536776419127">
        <ele>8</ele>
        <time>2019-10-27T11:45:47Z</time>
      </trkpt>
      <trkpt lat="39.512869032692" lon="2.536745825192">
        <ele>8.2</ele>
        <time>2019-10-27T11:45:48Z</time>
      </trkpt>
      <trkpt lat="39.51291110983" lon="2.536716823818">
        <ele>8.4</ele>
        <time>2019-10-27T11:45:49Z</time>
      </trkpt>
      <trkpt lat="39.512953354606" lon="2.536687822444">
        <ele>8.6</ele>
        <time>2019-10-27T11:45:50Z</time>
      </trkpt>
      <trkpt lat="39.5129974434" lon="2.536661838554">
        <ele>8.8</ele>
        <time>2019-10-27T11:45:51Z</time>
      </trkpt>
      <trkpt lat="39.513047064248" lon="2.536627472764">
        <ele>8.8</ele>
        <time>2019-10-27T11:45:52Z</time>
      </trkpt>
      <trkpt lat="39.513100708408" lon="2.53659679501">
        <ele>9</ele>
        <time>2019-10-27T11:45:53Z</time>
      </trkpt>
      <trkpt lat="39.513153514378" lon="2.536564776152">
        <ele>9</ele>
        <time>2019-10-27T11:45:54Z</time>
      </trkpt>
      <trkpt lat="39.513197519353" lon="2.536533260208">
        <ele>9.2</ele>
        <time>2019-10-27T11:45:55Z</time>
      </trkpt>
      <trkpt lat="39.513238339206" lon="2.536507024861">
        <ele>9.4</ele>
        <time>2019-10-27T11:45:56Z</time>
      </trkpt>
      <trkpt lat="39.513277231222" lon="2.536485483378">
        <ele>9.4</ele>
        <time>2019-10-27T11:45:57Z</time>
      </trkpt>
      <trkpt lat="39.513315201229" lon="2.536464109533">
        <ele>9.8</ele>
        <time>2019-10-27T11:45:58Z</time>
      </trkpt>
      <trkpt lat="39.513352584503" lon="2.536437874186">
        <ele>10</ele>
        <time>2019-10-27T11:45:59Z</time>
      </trkpt>
      <trkpt lat="39.513387034112" lon="2.53641406959">
        <ele>10.2</ele>
        <time>2019-10-27T11:46:00Z</time>
      </trkpt>
      <trkpt lat="39.513418047142" lon="2.536397892523">
        <ele>10.2</ele>
        <time>2019-10-27T11:46:01Z</time>
      </trkpt>
      <trkpt lat="39.513447802887" lon="2.536385654949">
        <ele>10.6</ele>
        <time>2019-10-27T11:46:02Z</time>
      </trkpt>
      <trkpt lat="39.513472194216" lon="2.536374004108">
        <ele>10.8</ele>
        <time>2019-10-27T11:46:03Z</time>
      </trkpt>
      <trkpt lat="39.513492226957" lon="2.536362437086">
        <ele>11</ele>
        <time>2019-10-27T11:46:04Z</time>
      </trkpt>
      <trkpt lat="39.513511337689" lon="2.536351875892">
        <ele>11.2</ele>
        <time>2019-10-27T11:46:05Z</time>
      </trkpt>
      <trkpt lat="39.513529610231" lon="2.536340895603">
        <ele>11.6</ele>
        <time>2019-10-27T11:46:06Z</time>
      </trkpt>
      <trkpt lat="39.513544446194" lon="2.536331004961">
        <ele>11.8</ele>
        <time>2019-10-27T11:46:07Z</time>
      </trkpt>
      <trkpt lat="39.513560287985" lon="2.536319857034">
        <ele>12</ele>
        <time>2019-10-27T11:46:08Z</time>
      </trkpt>
      <trkpt lat="39.513576045957" lon="2.536303093234">
        <ele>12.2</ele>
        <time>2019-10-27T11:46:09Z</time>
      </trkpt>
      <trkpt lat="39.513589876092" lon="2.536286999986">
        <ele>12.4</ele>
        <time>2019-10-27T11:46:10Z</time>
      </trkpt>
      <trkpt lat="39.513614686516" lon="2.536261351372">
        <ele>12.4</ele>
        <time>2019-10-27T11:46:11Z</time>
      </trkpt>
      <trkpt lat="39.513640921863" lon="2.536242575916">
        <ele>12.6</ele>
        <time>2019-10-27T11:46:12Z</time>
      </trkpt>
      <trkpt lat="39.513668414495" lon="2.536225560659">
        <ele>12.8</ele>
        <time>2019-10-27T11:46:13Z</time>
      </trkpt>
      <trkpt lat="39.513693057281" lon="2.536211311429">
        <ele>13</ele>
        <time>2019-10-27T11:46:14Z</time>
      </trkpt>
      <trkpt lat="39.513719795542" lon="2.536195385819">
        <ele>13</ele>
        <time>2019-10-27T11:46:15Z</time>
      </trkpt>
      <trkpt lat="39.513747371993" lon="2.536179711666">
        <ele>13.2</ele>
        <time>2019-10-27T11:46:16Z</time>
      </trkpt>
      <trkpt lat="39.513772014779" lon="2.536161606762">
        <ele>13.4</ele>
        <time>2019-10-27T11:46:17Z</time>
      </trkpt>
      <trkpt lat="39.513796406108" lon="2.536145094419">
        <ele>13.6</ele>
        <time>2019-10-27T11:46:18Z</time>
      </trkpt>
      <trkpt lat="39.513819456333" lon="2.536126738058">
        <ele>13.6</ele>
        <time>2019-10-27T11:46:19Z</time>
      </trkpt>
      <trkpt lat="39.513841249273" lon="2.536107794964">
        <ele>13.8</ele>
        <time>2019-10-27T11:46:20Z</time>
      </trkpt>
      <trkpt lat="39.513863545127" lon="2.536092036992">
        <ele>13.8</ele>
        <time>2019-10-27T11:46:21Z</time>
      </trkpt>
      <trkpt lat="39.513885757162" lon="2.536071836613">
        <ele>14</ele>
        <time>2019-10-27T11:46:22Z</time>
      </trkpt>
      <trkpt lat="39.513908891206" lon="2.536056581555">
        <ele>14</ele>
        <time>2019-10-27T11:46:23Z</time>
      </trkpt>
      <trkpt lat="39.513932276707" lon="2.536042248506">
        <ele>14</ele>
        <time>2019-10-27T11:46:24Z</time>
      </trkpt>
      <trkpt lat="39.513952644724" lon="2.536028418371">
        <ele>14</ele>
        <time>2019-10-27T11:46:25Z</time>
      </trkpt>
      <trkpt lat="39.513970749628" lon="2.536012492761">
        <ele>14.2</ele>
        <time>2019-10-27T11:46:26Z</time>
      </trkpt>
      <trkpt lat="39.513984160668" lon="2.535991202735">
        <ele>14.2</ele>
        <time>2019-10-27T11:46:27Z</time>
      </trkpt>
      <trkpt lat="39.513989105989" lon="2.535963039551">
        <ele>14.4</ele>
        <time>2019-10-27T11:46:28Z</time>
      </trkpt>
      <trkpt lat="39.513992207292" lon="2.535936133652">
        <ele>14.4</ele>
        <time>2019-10-27T11:46:29Z</time>
      </trkpt>
      <trkpt lat="39.513996062966" lon="2.53590612645">
        <ele>14.6</ele>
        <time>2019-10-27T11:46:30Z</time>
      </trkpt>
      <trkpt lat="39.514002349391" lon="2.535875281058">
        <ele>14.8</ele>
        <time>2019-10-27T11:46:31Z</time>
      </trkpt>
      <trkpt lat="39.514013245861" lon="2.535847201693">
        <ele>14.8</ele>
        <time>2019-10-27T11:46:32Z</time>
      </trkpt>
      <trkpt lat="39.514029422928" lon="2.535819038509">
        <ele>14.8</ele>
        <time>2019-10-27T11:46:33Z</time>
      </trkpt>
      <trkpt lat="39.514048701298" lon="2.53579632356">
        <ele>15</ele>
        <time>2019-10-27T11:46:34Z</time>
      </trkpt>
      <trkpt lat="39.514069739867" lon="2.535777967199">
        <ele>15</ele>
        <time>2019-10-27T11:46:35Z</time>
      </trkpt>
      <trkpt lat="39.514088347685" lon="2.535756174259">
        <ele>15</ele>
        <time>2019-10-27T11:46:36Z</time>
      </trkpt>
      <trkpt lat="39.514099076517" lon="2.535728513989">
        <ele>15</ele>
        <time>2019-10-27T11:46:37Z</time>
      </trkpt>
      <trkpt lat="39.514103770381" lon="2.535707894515">
        <ele>15.2</ele>
        <time>2019-10-27T11:46:38Z</time>
      </trkpt>
      <trkpt lat="39.514101423449" lon="2.535696662769">
        <ele>15.2</ele>
        <time>2019-10-27T11:46:39Z</time>
      </trkpt>
      <trkpt lat="39.514096729585" lon="2.535689621973">
        <ele>15.2</ele>
        <time>2019-10-27T11:46:40Z</time>
      </trkpt>
      <trkpt lat="39.514087258038" lon="2.535679312236">
        <ele>15.2</ele>
        <time>2019-10-27T11:46:41Z</time>
      </trkpt>
      <trkpt lat="39.514082647993" lon="2.535669840689">
        <ele>15.4</ele>
        <time>2019-10-27T11:46:42Z</time>
      </trkpt>
      <trkpt lat="39.514083905278" lon="2.535665146825">
        <ele>15.4</ele>
        <time>2019-10-27T11:46:43Z</time>
      </trkpt>
    </trkseg>
  </trk>
</gpx>